ECMWFFLT2_sfc_thetae_000.txt.gz
Theta_e
350 350 351 348 350 352 350 351 352 350 350 350 349 348 348 348 350 351 349 338 338 343 344 349 345 347 352 346 347 346 346 349 348 348 345 347 344 344 343 344 343 343 342 342 342 341 342 341 340 340 340 340 341 341 341 340 340 338 337 336 337 338
348 348 349 347 350 350 351 352 353 356 353 352 350 350 352 352 349 353 349 349 348 345 348 342 345 343 345 343 347 346 345 346 347 348 347 347 345 344 342 342 343 342 342 341 339 335 338 339 339 340 341 341 342 340 342 341 341 338 336 338 338 338
345 347 350 350 347 348 349 349 348 348 348 349 351 350 353 351 349 351 347 348 348 345 347 344 345 344 346 348 346 347 345 345 347 348 348 347 347 344 342 342 341 342 342 340 335 334 336 335 338 336 339 342 338 338 340 341 341 339 337 338 338 339
344 348 350 350 351 352 351 353 352 353 352 353 353 351 351 350 348 349 345 348 348 345 345 349 345 349 347 342 346 345 343 342 344 345 347 347 348 343 343 341 340 342 342 337 335 336 333 334 335 338 340 338 337 338 340 341 338 339 338 336 336 339
344 345 346 349 350 349 351 350 350 352 352 350 350 349 349 350 349 349 349 345 344 347 345 347 344 345 343 345 344 345 344 343 341 340 346 340 339 341 341 341 342 340 338 337 337 337 336 335 337 336 337 337 337 337 339 340 338 338 340 340 340 339
342 342 347 345 344 346 349 349 350 349 350 350 347 348 350 350 349 351 350 347 346 346 341 343 346 343 345 346 345 343 344 345 343 342 340 338 338 338 336 339 338 337 340 340 338 338 336 336 335 335 335 337 337 338 338 337 337 339 339 339 343 340
342 343 343 344 344 344 342 343 348 349 347 345 346 347 348 348 349 351 351 349 346 343 341 341 344 345 344 345 345 346 344 346 345 342 343 339 337 338 337 335 338 338 339 340 337 336 337 336 336 333 335 335 336 336 337 337 337 339 340 340 342 340
342 343 344 343 345 345 344 343 346 348 346 345 345 345 347 347 348 349 351 349 350 347 342 340 339 341 344 345 346 347 347 344 343 340 341 337 336 335 335 335 337 336 336 336 335 336 335 334 335 335 334 335 336 336 337 337 338 338 339 339 340 341
339 341 343 342 341 342 345 344 344 343 344 344 343 344 346 348 348 347 348 348 347 348 345 343 341 341 344 345 347 347 347 345 344 339 339 338 336 335 335 334 335 336 336 336 335 336 334 334 335 336 334 334 334 334 336 337 337 337 338 337 340 341
338 337 339 339 339 339 339 342 344 344 345 345 345 348 350 346 347 346 344 344 343 346 344 344 342 342 344 346 347 348 346 347 345 342 343 338 336 335 334 334 333 335 333 334 333 334 334 334 333 335 334 333 333 335 336 336 336 335 336 338 339 341
337 342 338 335 337 338 338 338 339 345 346 343 346 347 344 347 346 342 344 345 344 343 343 346 346 345 345 346 345 344 346 345 346 344 342 337 338 335 335 335 333 332 334 333 333 334 333 334 333 333 333 332 333 336 335 336 335 334 335 336 337 339
336 343 340 332 337 335 336 338 339 339 344 342 346 342 344 346 346 347 347 346 346 349 348 349 349 347 344 340 345 346 346 344 339 344 341 339 342 336 336 334 332 334 335 335 334 334 335 333 334 331 333 332 332 334 334 335 334 335 334 336 336 338
336 341 339 335 332 333 337 336 337 338 343 345 345 346 345 342 345 345 347 346 343 346 348 349 350 348 344 344 346 346 346 343 340 343 343 341 338 340 336 334 334 334 334 336 335 335 333 334 334 335 336 333 333 331 331 333 335 335 334 334 335 336
338 335 337 333 335 332 334 335 337 338 340 343 342 342 343 344 343 341 342 345 342 343 345 347 346 346 346 345 346 344 344 342 343 342 342 340 341 338 336 334 334 333 332 333 333 336 333 332 331 335 336 336 336 335 334 331 334 334 336 335 335 336
342 338 337 335 333 333 334 332 335 336 337 337 338 339 344 343 343 342 343 343 342 344 344 345 345 346 345 345 343 344 342 342 342 342 343 341 341 335 335 334 337 332 334 334 333 333 335 336 333 333 334 337 334 334 336 333 333 334 334 336 337 335
340 339 338 337 335 335 335 335 334 333 335 335 333 335 339 341 340 341 340 339 342 344 344 345 346 346 344 343 342 342 343 342 343 343 340 342 340 332 335 339 338 337 333 332 332 334 334 333 332 332 334 335 334 336 336 333 332 331 333 334 331 335
341 339 338 335 333 335 334 334 333 334 334 333 332 332 333 335 334 337 338 338 341 342 344 343 344 344 344 342 342 340 343 342 341 338 336 339 338 336 337 337 338 339 338 335 332 330 332 334 333 333 333 332 335 335 333 333 333 333 330 331 331 332
343 340 335 333 334 333 333 333 331 332 331 331 332 331 331 332 333 333 336 339 341 341 341 341 342 342 343 342 340 340 341 340 339 331 334 335 338 337 338 336 335 335 335 333 332 330 331 334 332 331 332 332 333 335 334 334 335 335 332 330 330 330
341 337 334 334 334 333 332 331 332 330 331 330 330 331 332 330 331 332 335 336 335 335 334 338 339 340 340 340 340 339 335 334 335 335 333 334 335 334 335 337 332 333 335 334 333 333 333 332 330 330 331 333 334 332 336 335 334 333 333 332 331 331
337 334 333 332 330 327 325 324 325 326 327 328 329 329 330 330 331 330 332 333 333 333 333 333 333 334 334 336 337 337 335 335 336 333 331 330 333 334 335 337 336 335 335 334 334 335 334 331 331 330 331 332 332 332 331 334 335 335 335 334 335 335
336 334 330 327 326 324 323 323 325 323 325 325 327 328 327 328 329 331 331 328 328 328 329 331 331 332 332 332 333 338 338 333 335 333 332 332 332 333 335 336 336 334 333 333 333 332 333 334 330 327 333 331 331 331 331 332 332 332 332 334 336 336
334 332 329 328 325 324 325 323 322 323 321 321 321 322 323 327 327 329 328 326 326 325 326 329 330 331 332 331 330 331 333 334 337 335 334 332 330 331 332 333 332 331 331 330 329 333 333 333 327 326 325 326 330 333 329 330 331 327 332 332 335 337
333 330 330 330 325 324 325 327 323 321 320 320 326 328 324 325 327 325 327 326 327 328 328 327 329 328 329 329 330 330 331 332 332 333 333 332 332 333 333 332 330 328 328 329 329 334 334 332 328 329 329 323 321 322 330 330 330 327 331 329 330 331
333 331 330 329 325 327 328 329 330 327 328 325 322 324 326 327 326 327 325 325 327 328 327 327 327 327 327 327 329 329 330 330 330 332 331 329 329 328 330 330 330 328 328 326 326 328 334 332 333 329 319 321 322 319 315 321 327 328 327 325 328 329
332 330 329 327 328 329 327 326 327 328 325 324 324 323 323 323 325 323 324 324 325 326 326 326 327 327 325 325 327 329 329 329 328 329 328 327 327 327 328 329 329 330 328 327 324 327 330 333 331 331 329 321 317 315 317 320 324 326 330 328 327 325
331 330 328 328 329 325 323 321 318 316 315 316 315 318 319 320 321 322 320 324 324 326 326 327 326 326 325 325 327 328 329 327 327 327 327 326 325 325 324 325 329 329 329 331 328 327 326 331 332 333 334 331 323 321 319 322 321 315 327 331 330 329
330 328 328 328 328 324 323 322 321 318 316 316 316 318 322 323 322 321 323 324 325 328 327 327 327 326 325 324 326 327 328 327 325 326 325 326 324 324 323 323 326 326 327 327 328 325 325 324 329 331 332 330 332 330 330 324 316 320 315 322 327 330
329 326 328 329 327 325 323 322 322 320 317 317 317 318 321 323 325 322 323 324 324 326 327 327 326 326 326 326 326 325 325 324 321 321 321 321 323 323 324 324 326 327 326 326 325 325 324 325 323 325 330 329 328 327 330 329 326 321 320 316 319 330
328 327 328 329 326 325 324 323 322 321 317 318 320 321 320 321 321 323 323 322 323 324 325 325 324 325 324 321 319 319 319 318 317 316 314 315 319 320 323 324 324 324 325 325 324 324 322 321 322 322 322 322 324 323 326 327 326 323 320 315 315 320
327 326 327 329 327 326 325 324 322 320 319 317 319 319 319 320 322 323 322 322 322 322 322 322 323 323 321 319 319 319 318 317 317 315 314 316 316 318 319 321 322 323 324 323 323 323 323 322 322 323 322 321 320 320 320 320 321 319 319 320 314 315
327 325 327 328 326 326 326 326 323 322 320 319 319 320 318 321 321 321 321 321 321 321 322 320 321 322 321 320 321 319 319 318 318 317 315 315 316 315 317 317 318 320 320 320 320 320 320 321 320 320 320 319 317 317 316 316 316 316 316 314 314 314
326 325 327 327 327 326 325 326 325 324 321 321 321 320 320 320 320 320 321 319 320 320 321 321 321 320 320 320 321 320 320 319 318 318 316 316 316 315 315 316 316 317 317 318 318 316 317 316 317 316 318 318 317 317 317 316 316 316 315 314 313 312
325 326 327 326 325 326 326 326 324 324 322 321 322 321 320 320 322 319 320 320 319 318 320 320 320 320 320 321 320 321 320 318 317 318 317 315 316 316 316 316 316 316 317 316 316 316 314 314 314 314 313 315 314 314 315 316 316 315 315 315 314 312
325 326 326 326 326 325 327 327 326 325 324 320 321 322 321 320 322 320 320 320 319 318 319 320 321 321 320 320 321 322 321 320 318 318 317 317 317 317 317 315 316 316 316 316 316 315 314 314 314 313 313 311 312 312 313 314 314 314 313 312 312 312
324 327 326 326 326 325 325 327 326 326 325 324 321 319 320 321 323 321 321 322 320 319 319 320 321 323 322 322 322 322 322 321 319 318 317 317 317 317 316 315 315 317 316 316 316 315 314 314 312 312 311 311 310 311 311 311 313 312 312 312 311 311
324 327 327 326 327 325 325 326 328 328 328 327 322 321 319 320 322 324 324 321 320 320 320 320 322 324 324 323 323 323 322 321 320 319 318 317 317 316 316 315 315 316 315 315 315 315 315 314 313 312 311 311 311 310 310 310 311 311 312 313 312 312
325 327 327 328 327 326 326 327 329 330 330 330 329 326 321 323 326 327 326 324 321 321 321 321 321 324 324 325 324 324 322 322 321 319 318 317 316 316 316 315 315 315 315 316 315 313 314 314 313 313 313 311 311 310 311 311 310 312 313 313 313 312

ECMWFFLT2_sfc_thetae_003.txt.gz
Theta_e
349 349 348 351 351 350 344 344 345 348 347 347 348 347 345 344 344 344 345 343 344 352 348 349 348 349 346 350 348 348 347 348 347 346 345 345 344 343 343 344 344 343 342 342 342 341 341 339 339 340 341 342 342 341 341 339 336 336 337 327 336 338
347 349 349 349 348 347 346 346 349 350 350 348 347 346 345 346 348 345 338 345 350 350 349 345 345 345 346 345 347 348 348 348 347 347 346 345 344 343 343 343 344 343 343 342 341 337 339 341 340 339 338 342 341 340 342 340 338 335 335 334 338 339
346 347 348 347 347 345 349 350 351 352 351 349 349 348 347 345 345 345 342 345 350 349 347 349 350 344 343 344 343 346 347 348 348 347 346 342 345 343 344 343 342 342 341 341 336 332 335 335 336 339 339 342 340 338 340 340 339 339 336 338 337 340
343 343 346 343 344 346 345 348 350 348 348 348 348 346 346 343 342 344 348 348 349 346 343 349 345 345 345 342 342 346 345 347 348 346 347 346 344 344 343 343 342 342 341 336 332 329 330 332 335 334 337 339 337 337 340 341 338 338 338 335 334 340
347 347 346 347 347 345 347 351 349 351 351 349 348 347 347 348 343 342 341 344 341 344 345 347 345 343 342 342 343 340 343 343 342 340 347 339 338 343 343 340 341 338 336 334 333 335 333 333 336 334 336 337 338 338 339 340 338 336 338 338 337 338
346 346 348 347 344 346 348 345 347 346 346 345 344 345 345 349 343 343 342 347 341 344 342 345 343 343 343 343 341 342 344 344 344 339 342 337 339 339 336 337 338 336 336 337 336 337 335 334 333 333 333 337 338 339 338 339 339 339 340 339 338 340
341 346 347 344 346 347 347 344 342 343 341 339 344 340 344 343 343 344 346 344 342 342 342 341 341 341 341 342 341 344 345 344 341 341 340 338 337 337 336 336 338 336 337 337 336 336 335 334 335 331 332 333 336 336 337 338 337 337 339 340 339 340
342 344 344 342 344 343 344 346 346 346 347 344 344 341 342 343 343 347 344 343 345 343 339 338 339 339 347 342 341 344 344 350 342 342 342 343 338 336 335 335 337 336 335 335 334 335 335 334 334 335 332 333 334 336 337 337 339 338 339 340 339 341
339 339 341 341 342 343 345 344 346 347 342 347 346 344 344 343 342 343 344 342 345 346 342 341 340 338 342 341 344 341 343 342 342 340 341 341 339 335 335 335 336 335 336 335 334 335 334 334 335 335 333 332 333 333 335 337 338 337 338 339 340 340
335 335 337 338 339 341 342 345 345 345 345 344 346 344 347 346 344 345 341 344 345 345 344 340 341 342 342 342 341 342 342 340 341 342 340 339 338 336 335 334 335 335 334 335 334 334 334 334 333 335 334 333 331 333 337 335 337 336 337 338 339 340
333 337 333 331 335 337 339 338 340 345 344 344 343 345 346 345 344 342 343 345 344 343 345 345 344 343 343 343 342 344 345 346 344 342 341 339 340 338 336 336 334 334 334 334 334 333 332 333 334 333 335 333 332 333 334 336 335 336 336 337 338 341
334 337 337 332 334 333 334 335 336 339 343 343 345 343 344 343 342 345 344 346 346 344 344 346 345 343 338 341 341 341 344 344 343 343 340 339 340 339 337 334 334 335 336 334 333 334 335 333 333 332 333 333 333 334 333 334 334 334 335 337 338 338
333 337 332 334 332 334 337 334 334 335 342 344 344 344 342 341 344 345 345 346 345 345 344 342 344 342 342 340 342 342 341 341 340 338 338 340 340 340 336 334 333 334 333 334 334 334 333 334 333 334 335 334 334 333 333 333 335 336 335 335 335 336
335 331 335 333 335 332 334 336 336 336 340 346 343 342 342 343 343 343 344 345 345 343 343 344 341 342 341 340 341 340 341 339 342 343 341 340 343 339 337 335 332 332 332 333 334 333 332 331 330 331 334 335 336 336 334 332 333 334 335 335 334 335
337 335 332 334 329 333 335 333 334 335 335 338 343 342 341 343 343 343 343 343 342 342 341 343 341 340 337 338 340 342 341 338 343 342 339 340 341 339 337 336 337 332 332 333 332 334 332 337 334 333 335 334 332 333 334 333 333 333 334 335 335 336
338 338 337 336 337 337 334 334 334 334 336 337 334 338 340 341 341 342 341 340 341 340 341 339 340 341 340 339 339 339 338 342 339 341 338 338 338 336 339 339 339 338 332 331 331 332 334 335 335 334 335 335 335 335 334 334 333 332 333 335 334 335
338 337 337 335 336 337 334 333 334 334 334 334 332 333 334 336 338 340 339 340 340 341 340 339 339 340 341 341 339 341 337 338 339 336 339 338 339 338 337 337 336 336 334 333 331 331 334 336 335 335 336 335 334 335 334 334 332 332 331 331 332 332
338 339 335 334 334 332 334 332 329 332 333 330 332 331 332 332 335 338 338 338 337 338 337 337 338 339 342 341 340 334 334 338 338 338 338 341 339 339 337 335 334 333 334 333 331 330 331 333 333 334 336 336 336 336 335 333 333 332 330 330 330 330
339 337 335 334 335 336 334 333 330 328 327 326 330 331 331 331 332 334 336 337 337 337 336 337 337 338 339 338 339 336 335 339 338 336 338 338 338 336 334 333 333 334 336 333 333 334 333 332 331 331 330 334 338 337 336 336 333 333 331 330 330 330
338 334 334 334 331 330 328 326 326 328 327 328 330 329 332 330 331 329 333 335 335 334 334 335 336 336 338 338 338 336 335 338 338 335 334 333 336 338 334 333 333 331 332 334 334 335 335 333 332 331 331 332 333 334 336 336 334 333 332 331 331 331
336 333 330 329 327 326 326 325 326 326 325 324 326 328 326 330 330 330 331 328 328 328 331 332 331 331 332 332 333 337 336 337 337 335 334 332 333 332 333 335 334 333 332 330 328 333 336 336 332 329 333 331 332 331 334 332 334 331 330 332 332 331
335 330 328 329 327 327 327 325 324 325 324 323 321 323 324 327 328 329 328 327 328 327 329 331 331 331 331 331 331 332 335 335 337 336 334 334 333 331 331 332 331 330 330 328 326 332 335 333 326 324 323 324 330 333 333 328 326 331 331 332 332 331
333 328 328 331 327 327 328 329 327 323 323 324 327 328 325 326 327 324 328 328 330 330 329 328 328 327 330 329 330 330 331 333 335 336 335 334 333 331 331 331 330 329 326 328 331 334 334 332 326 327 326 322 320 320 326 329 328 328 331 333 332 331
333 329 329 330 327 330 330 330 328 328 326 324 322 324 326 326 326 325 324 328 328 328 328 329 328 327 328 328 329 329 330 329 331 332 331 332 329 329 334 333 333 332 331 328 328 329 334 334 333 327 318 320 321 320 316 321 324 330 329 328 326 325
332 329 329 329 329 330 329 329 326 327 326 322 321 321 323 323 324 324 325 326 326 329 328 326 326 326 324 326 327 328 328 329 328 330 330 328 327 327 328 330 331 330 330 328 326 329 332 334 331 335 328 321 318 317 316 322 324 326 331 326 324 324
330 329 328 329 331 329 325 324 322 318 315 317 317 319 319 320 322 321 320 326 326 327 327 327 326 326 325 325 327 327 327 326 327 329 328 327 326 324 325 326 329 331 331 331 329 326 325 332 333 333 332 332 324 321 321 322 321 315 329 331 327 326
330 327 330 328 331 326 324 323 322 320 318 319 318 322 323 324 321 321 325 326 326 328 328 327 326 326 325 325 326 326 327 325 324 324 324 325 324 325 323 324 326 326 327 328 329 326 324 325 330 329 330 330 328 328 327 322 316 319 317 325 330 329
329 327 329 328 330 326 324 323 322 321 320 320 321 321 323 323 324 323 323 325 326 327 326 327 326 325 326 325 325 324 323 323 321 322 321 322 323 324 326 326 326 326 326 326 326 326 325 327 325 325 328 325 327 327 325 322 321 320 319 316 321 330
329 327 329 328 328 326 326 324 323 321 319 321 322 321 322 322 321 323 323 324 325 324 325 326 325 323 320 319 320 319 320 319 318 317 316 317 321 323 325 325 325 325 325 325 325 325 323 322 322 321 322 324 327 324 324 324 324 324 319 317 318 319
328 327 329 328 328 326 326 325 323 322 321 320 322 320 321 320 321 322 322 322 322 322 322 323 323 321 320 319 319 319 318 317 317 315 315 315 317 320 322 323 324 325 325 325 325 325 323 322 322 322 321 321 320 320 322 322 321 319 319 322 315 315
328 327 329 328 328 326 327 325 324 324 322 321 322 321 320 320 320 322 320 321 322 321 321 321 321 322 322 321 320 320 319 318 319 319 317 316 318 316 318 319 320 321 321 321 320 321 320 320 320 318 317 317 316 317 317 315 317 317 316 314 314 314
328 326 329 328 328 327 326 326 326 325 322 322 322 320 321 320 320 322 321 320 321 321 320 321 321 320 321 321 321 320 320 320 319 320 318 319 318 317 318 319 319 318 319 319 319 318 317 316 316 316 315 315 315 316 317 316 316 316 315 314 314 311
325 327 329 328 327 327 327 326 325 324 323 323 322 321 323 321 322 321 321 320 320 320 320 319 320 320 321 322 321 321 320 318 319 319 318 316 318 318 318 318 318 318 318 316 316 317 315 315 314 312 311 314 313 314 315 316 316 315 316 316 313 310
325 327 329 327 326 326 327 327 327 326 323 323 321 323 322 322 322 320 321 320 320 320 320 321 321 321 321 322 322 322 321 320 319 319 319 320 320 319 319 316 318 318 317 318 318 317 316 316 316 314 313 312 311 312 313 315 314 315 315 313 311 311
327 326 329 327 326 326 326 328 327 326 324 323 322 321 321 322 323 322 322 322 321 321 321 322 321 323 321 323 323 322 321 319 319 319 319 319 318 318 318 317 317 318 318 317 317 316 314 315 314 313 314 311 311 312 310 312 312 313 313 313 313 313
327 326 328 327 326 325 326 328 328 326 326 325 323 323 321 322 323 324 324 323 321 321 322 322 324 324 322 323 323 322 321 320 319 319 319 319 318 317 318 317 315 317 316 316 317 318 317 316 315 316 313 312 313 311 313 311 311 312 311 313 312 313
327 327 327 327 327 326 326 327 328 327 326 326 325 323 321 323 325 325 325 324 321 321 324 324 324 325 322 323 324 323 321 321 321 319 319 318 318 317 318 317 317 317 317 317 317 314 316 315 316 315 313 314 311 312 312 312 314 314 313 313 314 313

ECMWFFLT2_sfc_thetae_006.txt.gz
Theta_e
346 348 348 349 350 349 349 350 349 349 349 350 349 349 346 347 347 348 349 348 346 346 345 345 345 342 345 345 347 347 346 346 346 345 345 344 344 343 343 343 343 344 343 342 341 342 342 341 341 342 341 342 342 339 337 339 336 336 330 337 337 337
346 346 346 348 348 348 348 349 349 347 349 349 348 349 347 346 348 346 345 347 346 346 346 345 343 343 344 344 345 348 346 346 346 345 345 345 345 344 343 343 344 344 342 342 341 338 338 340 340 340 342 342 339 337 337 341 339 335 334 335 336 339
344 345 346 347 347 347 347 348 347 348 348 347 348 347 346 346 346 345 344 343 345 345 344 344 345 343 344 346 345 348 347 347 346 345 345 345 344 344 344 343 344 343 343 343 339 335 335 336 335 340 339 339 337 338 340 340 339 341 334 335 335 340
345 346 346 345 346 346 347 348 347 346 346 345 346 345 343 344 344 344 345 344 343 340 340 342 346 345 343 343 346 348 348 348 347 346 343 344 344 344 343 344 343 343 342 338 332 330 332 333 331 334 337 336 335 337 338 339 335 336 333 335 337 341
344 345 344 345 344 346 346 346 346 346 345 345 344 345 346 343 343 342 341 342 343 340 338 343 343 342 343 343 343 342 342 344 343 342 344 338 340 343 341 339 339 340 335 332 329 328 329 332 332 330 331 332 337 337 336 338 342 334 333 335 338 341
344 343 343 342 343 344 344 345 345 347 343 342 341 342 340 340 342 342 343 344 341 339 341 345 343 344 342 345 343 344 344 347 343 340 343 338 339 339 337 335 336 333 332 332 332 335 337 334 331 333 336 336 338 339 338 337 336 337 333 333 339 340
343 343 341 341 342 342 340 341 344 345 340 335 337 337 336 340 343 344 341 341 340 340 342 342 343 341 341 342 340 342 341 342 342 342 341 341 336 337 337 335 335 334 333 334 335 335 336 335 337 333 332 334 337 336 336 336 335 336 333 333 339 341
339 340 339 341 340 339 340 340 340 344 344 342 339 337 339 343 342 343 343 341 341 340 338 335 341 340 341 339 338 339 339 338 341 341 340 344 340 335 336 336 335 333 332 335 335 337 335 334 334 333 332 333 335 335 335 340 336 337 335 333 336 340
339 336 337 340 338 341 338 337 338 340 340 342 341 341 341 340 342 343 341 340 341 341 341 337 339 338 339 337 337 337 337 339 339 340 338 341 339 336 338 336 338 336 337 335 334 334 334 334 336 335 332 332 333 333 336 335 338 335 335 334 332 337
335 334 337 337 336 336 337 337 337 337 343 341 339 341 341 340 339 340 339 339 337 341 341 339 342 337 337 337 336 339 339 340 338 340 340 339 344 343 342 340 337 337 332 336 331 332 333 335 334 335 332 331 331 333 334 335 336 337 335 335 334 336
333 341 332 333 335 337 339 337 337 342 341 340 340 337 339 340 342 340 340 338 339 340 339 340 341 341 340 339 336 339 343 342 342 342 342 342 342 341 341 335 335 334 336 334 334 334 333 334 332 331 334 330 331 329 333 337 335 335 335 336 334 335
332 340 337 330 334 333 337 334 337 338 337 336 336 338 338 337 339 339 338 338 338 338 337 340 338 342 341 342 339 340 340 342 341 343 342 341 341 341 339 333 334 336 338 336 338 335 336 334 333 330 331 330 331 332 331 333 333 333 334 335 335 335
332 342 338 334 334 334 341 335 335 335 338 337 335 335 333 335 339 342 342 338 338 338 338 337 342 344 340 338 339 337 338 339 342 340 338 339 340 342 342 339 337 339 334 335 337 334 333 333 331 334 334 330 332 330 331 331 332 335 335 334 336 338
334 331 338 334 343 333 337 335 341 338 342 344 341 336 334 337 340 341 341 337 340 340 340 344 341 343 345 341 339 336 336 337 342 341 339 341 340 340 339 339 338 334 333 332 335 334 333 332 334 334 333 333 332 334 332 330 332 333 335 333 335 336
338 335 334 334 335 335 339 334 333 335 337 344 342 339 341 337 341 341 341 338 338 339 340 342 342 343 343 341 337 336 335 337 339 339 339 340 340 341 339 338 335 336 333 334 331 334 335 332 332 331 333 334 332 333 333 331 332 332 332 334 335 334
338 338 338 338 339 339 339 336 338 336 338 342 337 336 341 339 338 342 339 337 337 339 339 336 341 342 341 341 338 338 336 340 339 339 339 338 338 337 339 338 337 338 332 331 331 332 335 333 331 332 333 333 333 333 332 331 332 331 330 334 332 335
338 338 338 338 338 338 342 336 335 338 334 336 337 334 334 336 337 338 338 338 339 339 338 340 340 342 343 340 337 337 338 338 340 339 337 338 338 338 335 336 335 336 336 332 330 331 333 333 332 333 333 332 331 332 332 332 332 331 332 330 331 332
339 338 339 338 336 340 335 334 335 331 334 331 334 335 337 332 334 336 338 337 338 340 340 339 340 339 340 336 337 335 336 338 337 337 336 335 334 336 337 337 335 335 335 333 332 331 331 332 334 333 333 333 334 334 333 333 332 332 331 330 330 329
339 337 337 337 340 335 340 331 333 334 329 334 331 332 335 330 332 335 336 337 335 340 338 339 339 339 337 336 336 337 338 337 338 337 336 333 333 334 334 335 334 334 335 333 333 332 333 333 332 332 330 333 334 333 334 334 333 333 332 331 331 331
338 336 337 338 335 331 332 334 330 334 327 327 327 328 333 330 332 332 334 334 335 339 335 340 336 337 336 336 336 337 336 337 337 335 335 332 330 330 331 330 331 331 331 332 334 332 330 329 329 330 330 330 331 331 333 334 333 332 332 330 330 330
335 336 333 330 332 328 331 331 337 329 329 334 326 329 328 329 328 328 327 324 328 330 334 336 338 338 334 336 335 337 338 335 335 335 333 330 331 330 331 331 330 332 331 329 330 331 329 329 327 325 329 328 328 331 332 331 330 331 331 331 330 330
334 334 335 334 342 338 336 326 331 327 327 325 321 323 324 327 327 329 331 333 336 334 333 335 335 335 336 334 335 335 337 337 336 334 333 332 331 331 330 332 331 330 331 328 327 330 330 329 324 322 321 321 323 327 330 329 326 329 333 332 330 329
332 333 334 336 332 333 332 333 334 329 330 321 323 326 323 324 326 325 332 330 331 332 336 327 331 333 335 332 332 333 333 334 333 332 331 329 330 330 331 331 329 328 327 328 327 330 328 328 324 325 324 319 316 317 322 325 329 329 331 333 332 328
331 332 334 332 333 334 333 333 331 325 324 323 322 326 326 327 326 326 325 328 330 331 327 326 328 326 325 331 337 332 332 331 332 333 330 329 331 329 329 330 329 330 328 323 323 326 330 328 327 323 315 315 317 316 312 317 321 327 333 331 327 327
330 331 331 332 333 331 330 330 328 323 322 323 326 325 325 325 325 326 326 327 330 332 329 329 329 326 325 326 327 328 330 330 332 331 331 329 329 329 329 329 330 329 326 324 323 326 328 328 327 328 324 317 314 312 313 318 320 322 328 328 327 325
329 330 329 332 331 330 329 326 326 322 319 321 322 324 321 321 325 325 322 329 326 326 327 328 325 326 326 328 331 328 330 327 329 328 327 328 326 327 329 328 330 329 329 328 328 324 323 325 328 327 329 327 323 317 316 321 319 313 325 327 327 328
329 329 329 331 329 329 327 324 324 321 321 321 322 326 326 326 324 324 327 327 328 332 326 328 327 326 325 326 326 326 328 325 324 325 325 324 322 323 322 323 328 328 327 326 328 322 322 321 326 324 324 326 326 326 327 321 316 317 313 321 324 325
328 328 328 330 328 327 325 324 324 322 323 325 324 322 324 325 327 326 326 325 328 328 326 327 326 323 322 321 323 323 322 323 325 323 323 322 323 323 324 324 325 326 325 327 326 323 321 322 321 319 323 321 322 325 325 324 322 319 316 313 318 325
328 328 329 331 326 326 326 324 325 324 323 325 323 323 322 322 323 326 326 329 326 324 326 324 320 321 320 320 321 321 320 318 317 318 318 320 322 324 325 324 324 324 323 323 323 324 323 321 322 322 322 322 322 322 324 324 324 321 317 313 314 316
327 328 328 329 326 326 326 324 325 324 325 321 322 321 321 323 324 327 325 323 323 324 324 325 325 322 321 320 321 321 319 321 319 316 315 316 320 321 322 322 323 323 323 321 321 320 318 318 318 316 319 325 321 320 321 321 321 320 319 317 313 312
327 327 328 328 326 326 326 324 325 324 325 320 321 322 321 321 322 324 321 322 323 324 324 323 324 325 323 321 320 322 321 319 320 321 318 318 318 315 319 321 319 318 318 318 318 317 317 316 317 315 314 313 312 314 314 313 313 314 313 312 310 310
327 327 328 327 326 326 326 324 326 325 326 323 323 322 320 320 321 321 322 322 322 322 321 323 324 323 322 323 323 322 323 322 323 323 322 321 319 319 320 320 320 320 318 318 318 316 314 313 313 314 313 313 314 316 313 311 313 314 313 311 311 307
325 327 327 327 326 326 326 324 326 325 327 325 324 323 322 322 322 322 321 322 320 319 320 320 322 321 323 323 324 323 322 321 320 321 319 316 317 319 319 318 317 317 317 316 316 315 314 313 313 312 312 313 312 313 312 315 315 314 315 314 314 309
325 327 326 326 326 326 326 325 327 325 326 324 324 325 322 323 323 323 323 323 321 320 319 321 321 321 323 324 325 325 323 321 322 322 323 323 322 320 319 316 318 317 317 318 317 316 315 315 314 313 313 311 312 311 312 316 313 315 313 312 310 309
325 326 326 326 326 326 326 326 327 325 326 324 324 324 324 324 324 325 324 323 324 322 322 321 321 322 322 324 324 322 322 321 322 321 320 320 322 321 320 316 317 318 317 317 316 316 315 314 314 312 312 313 317 311 312 310 312 312 310 311 309 309
325 326 326 326 325 326 326 327 327 325 325 325 323 324 325 324 324 328 325 323 326 326 324 323 323 321 322 324 322 322 320 322 321 321 321 320 320 319 320 317 317 318 316 319 318 317 316 315 315 314 313 315 312 311 313 310 313 312 312 313 312 311
324 328 326 325 326 327 327 327 327 327 325 326 323 323 323 326 325 328 328 324 327 327 327 325 324 322 323 324 323 321 320 320 321 321 321 321 320 320 321 318 318 318 317 318 317 316 317 315 315 316 314 313 316 313 310 315 315 313 313 313 314 312

ECMWFFLT2_sfc_thetae_009.txt.gz
Theta_e
346 347 348 348 348 348 350 351 351 352 351 351 351 350 350 350 350 349 348 348 346 345 343 344 344 344 347 345 346 347 346 346 346 346 345 344 344 344 343 343 343 343 342 342 342 342 343 342 341 343 343 341 343 339 334 335 333 335 334 335 335 334
345 345 347 348 348 348 348 349 346 347 349 348 349 349 347 346 349 346 346 344 341 343 340 339 340 348 342 344 346 347 346 346 346 346 345 344 344 344 343 343 343 343 342 342 341 336 337 341 342 343 342 342 336 334 334 334 334 334 335 334 335 338
342 344 346 346 346 347 346 345 345 346 348 349 349 348 345 346 343 342 343 341 341 339 342 341 337 343 343 345 345 347 347 346 346 345 345 345 344 344 344 343 344 344 342 343 338 330 330 330 331 341 342 336 333 333 334 334 332 332 333 335 335 341
342 344 344 343 344 344 343 343 344 344 344 344 345 345 343 343 343 342 341 338 338 340 339 337 344 345 344 342 343 346 347 346 345 345 346 344 345 344 343 343 343 344 343 341 333 330 331 331 330 328 331 331 331 331 332 332 332 332 334 339 337 341
344 344 343 343 343 343 343 343 343 343 342 342 341 340 340 340 341 340 338 339 341 338 337 336 337 338 339 340 340 339 342 342 339 339 344 337 339 341 340 339 338 339 336 335 332 328 328 330 330 329 329 330 331 332 333 332 331 332 334 336 338 341
344 343 343 342 343 345 344 341 340 341 340 339 339 338 337 338 339 339 340 339 338 335 335 336 335 337 339 337 337 337 338 338 337 339 341 336 336 337 337 336 337 337 334 331 329 327 327 329 329 328 327 328 330 331 332 331 331 333 335 336 339 341
341 342 342 343 343 342 340 341 340 339 337 336 335 334 335 336 339 339 339 337 335 334 335 335 334 335 338 337 336 336 336 336 336 337 339 335 336 337 336 333 334 333 332 329 328 328 329 329 328 327 326 328 330 332 331 331 330 332 334 336 339 341
340 340 339 342 340 338 339 339 340 341 336 338 335 333 333 334 339 339 338 334 338 334 332 335 334 335 337 336 334 334 333 334 335 336 336 337 334 334 335 333 332 332 330 329 329 330 329 329 327 326 327 328 328 328 329 332 330 331 333 335 337 340
340 339 339 339 338 338 338 339 339 335 334 339 334 334 335 337 337 337 338 336 337 334 333 332 334 335 334 332 333 333 333 332 334 334 334 335 336 333 333 333 331 331 330 329 328 329 330 330 328 328 328 328 328 328 329 332 331 331 332 334 335 339
338 338 338 337 336 335 335 335 336 336 336 340 335 335 337 335 337 336 334 337 338 336 333 332 332 334 333 331 332 332 333 333 334 334 333 333 335 333 333 332 331 331 330 329 328 329 329 328 329 328 328 328 329 328 329 330 332 330 330 332 333 337
338 340 337 336 335 334 335 334 334 336 338 336 335 337 337 336 336 334 333 334 336 337 334 333 334 332 333 333 332 333 334 336 333 334 335 335 336 335 332 331 331 329 329 328 329 330 330 328 328 328 329 328 328 326 329 329 329 331 331 329 331 335
335 337 335 336 337 335 334 335 335 337 336 336 335 333 334 334 339 333 333 334 336 336 335 333 331 333 332 333 332 333 334 335 334 335 335 335 334 335 333 332 332 330 332 330 329 329 330 328 327 327 328 328 329 329 327 328 328 330 332 331 331 333
334 335 333 333 334 333 334 336 334 334 334 336 335 332 331 333 335 334 335 335 331 332 333 331 332 332 332 332 330 331 334 334 335 332 332 333 336 334 333 331 329 331 329 329 328 328 330 327 328 330 330 330 329 330 330 327 328 329 332 332 330 331
329 329 330 331 331 328 332 333 334 333 336 333 332 332 334 333 334 332 332 335 335 335 333 333 333 331 332 331 332 332 331 332 334 332 332 333 333 333 332 331 329 328 332 327 326 327 327 328 329 330 330 331 331 330 330 329 328 328 331 331 332 331
328 326 329 327 327 328 330 333 334 333 331 330 331 332 332 334 334 335 334 332 333 333 336 334 333 332 334 334 333 330 330 332 334 332 332 332 332 333 331 330 329 329 327 326 327 330 329 329 328 329 330 330 330 331 330 329 330 328 328 330 333 333
330 328 326 326 326 327 329 331 332 336 331 330 329 330 331 333 333 334 331 331 333 333 334 333 334 336 334 334 333 332 331 332 334 333 333 332 331 329 330 332 331 330 325 326 329 328 329 327 327 328 328 328 329 329 329 329 329 329 329 328 329 333
328 329 328 329 328 325 325 326 328 331 332 330 329 327 329 331 331 332 331 330 332 335 333 331 332 335 336 333 332 332 331 332 333 332 330 330 329 330 330 332 328 331 328 326 328 329 328 328 328 327 328 328 328 329 329 328 328 329 330 328 327 327
330 329 328 326 325 323 322 324 321 325 332 330 330 331 332 331 331 331 330 330 331 331 332 332 331 331 333 334 332 330 329 330 332 333 330 328 326 328 329 331 329 330 330 328 327 328 327 326 330 330 329 328 327 329 328 328 329 330 328 328 328 327
328 327 324 326 327 324 321 319 318 319 321 324 329 330 331 330 331 333 332 331 333 334 333 332 332 332 333 334 331 329 328 330 331 329 329 326 326 329 329 329 329 328 329 329 328 328 327 326 328 328 330 328 328 326 327 328 328 327 327 328 329 330
326 325 326 324 322 320 317 317 317 319 320 323 324 325 325 327 329 330 331 331 332 333 334 334 333 332 332 332 331 329 329 331 332 330 327 326 325 326 326 326 326 327 328 329 328 327 326 325 324 326 325 326 327 328 328 327 326 326 326 327 327 327
325 326 326 322 319 318 317 317 317 315 317 320 321 322 321 319 318 319 321 323 324 325 325 329 333 331 331 336 332 330 330 328 329 330 328 325 325 326 327 325 325 324 325 324 324 325 325 326 323 321 323 324 323 327 328 327 324 325 327 325 326 324
324 324 324 323 321 320 321 320 317 316 317 319 319 318 317 318 321 323 324 324 324 323 323 324 326 329 332 331 331 330 330 329 329 328 328 328 327 328 327 326 325 323 325 322 321 324 326 324 318 318 317 317 318 320 327 323 323 323 326 326 325 324
324 323 323 323 323 321 321 322 319 316 318 317 318 319 318 320 322 321 320 321 320 321 322 319 319 327 330 331 331 329 330 329 328 329 327 327 327 326 327 325 323 322 321 322 322 324 323 322 318 320 317 313 311 311 314 318 323 324 327 327 326 326
324 324 324 324 323 320 319 319 319 318 319 319 318 320 319 319 319 319 319 320 320 319 319 319 321 321 321 324 326 328 328 327 327 326 325 325 325 325 326 325 324 324 322 318 319 321 324 323 323 317 311 310 311 310 307 310 315 322 327 326 324 325
323 324 323 325 321 318 317 316 316 316 318 317 318 316 315 315 317 321 320 319 320 321 321 321 320 321 323 321 321 324 325 326 325 326 326 326 326 325 325 324 325 324 322 319 318 321 323 325 323 324 317 312 308 306 307 313 314 316 321 322 325 325
322 323 323 321 321 318 315 313 312 311 311 313 313 312 312 314 315 316 317 318 319 320 320 319 319 320 320 320 318 319 319 319 319 322 325 324 326 326 326 326 325 325 324 323 320 319 317 321 322 322 323 320 315 311 312 316 313 308 317 322 323 325
323 322 324 322 322 320 315 313 312 312 313 313 312 313 315 317 317 317 318 318 319 320 321 319 317 316 316 317 315 314 315 317 319 320 321 319 318 319 321 325 326 323 323 323 322 317 317 317 320 320 321 321 321 321 321 315 310 312 307 313 318 319
323 323 324 322 321 320 316 313 313 313 315 315 315 314 316 317 318 319 318 317 318 316 315 315 314 314 314 316 313 311 311 314 316 318 320 318 318 319 320 321 321 320 321 322 320 319 316 317 316 315 319 317 318 321 321 319 318 315 310 307 310 318
324 322 323 322 321 318 317 314 313 315 317 316 315 316 317 318 318 318 317 316 314 312 312 312 312 312 311 313 316 313 310 309 312 315 318 316 317 319 318 318 317 317 315 315 318 319 318 316 317 315 315 316 317 318 318 317 319 317 312 307 308 311
324 323 323 321 320 318 317 316 314 316 315 315 315 314 315 316 317 317 315 314 313 312 312 313 313 313 313 314 313 313 312 311 310 315 316 315 315 314 313 313 314 315 314 313 313 313 314 312 311 311 315 318 315 315 315 315 316 316 316 313 308 309
324 324 323 321 319 318 316 317 316 317 315 313 313 314 314 314 315 313 313 313 312 313 312 313 314 313 312 312 313 315 311 311 313 317 314 311 312 313 312 312 313 313 312 310 309 309 310 310 309 308 308 309 310 311 309 308 306 309 308 306 305 305
323 324 323 320 319 318 316 317 317 316 315 314 314 315 314 314 313 312 313 313 313 312 313 313 312 311 312 314 314 313 314 313 314 312 312 312 313 314 314 313 311 311 311 310 310 309 306 306 306 307 306 308 308 308 308 307 309 308 308 306 305 303
322 321 322 320 319 318 316 317 318 316 315 316 315 314 314 314 313 313 314 313 311 311 311 312 312 312 311 312 314 312 312 310 311 312 311 313 313 312 311 311 311 310 310 309 308 308 306 305 306 306 305 306 306 307 308 308 309 308 308 308 307 303
321 322 322 320 320 319 316 317 318 316 316 317 315 315 314 314 314 315 315 313 312 312 311 311 312 311 313 314 314 314 313 312 312 314 314 312 311 311 312 311 311 311 310 310 309 307 307 306 305 305 305 304 304 305 305 306 307 307 306 305 304 303
321 322 322 321 321 322 321 319 320 318 317 317 316 315 315 316 315 315 315 314 313 313 313 313 313 313 314 314 313 312 312 311 311 310 312 312 315 313 312 313 313 311 310 309 310 309 307 306 307 305 304 306 307 305 304 305 306 307 308 306 306 305
320 320 321 322 321 322 322 320 319 318 317 318 317 316 316 317 316 316 316 315 314 314 314 314 314 314 314 314 312 312 312 311 311 312 311 310 311 311 310 310 310 309 309 313 309 308 308 307 306 306 306 307 305 305 305 308 308 306 306 308 308 306
320 321 321 321 322 323 323 321 320 318 317 317 317 316 316 316 316 316 317 316 315 315 315 315 315 315 316 314 313 311 312 311 311 311 311 312 312 310 310 311 310 308 308 311 310 309 308 307 307 307 306 307 306 304 305 307 306 308 308 307 307 306

ECMWFFLT2_sfc_thetae_012.txt.gz
Theta_e
346 346 346 346 346 347 349 350 350 351 351 351 350 350 349 350 349 349 348 348 346 343 342 343 344 343 347 345 346 347 346 346 346 345 345 344 344 344 344 344 343 342 342 343 342 342 342 343 343 342 343 342 340 331 330 331 331 333 333 334 335 332
345 346 346 347 347 347 348 349 346 347 348 348 349 350 348 347 348 345 347 344 341 344 339 338 341 348 344 345 345 346 347 346 346 346 344 344 344 344 344 344 343 342 342 341 341 332 333 340 340 340 341 343 331 329 331 331 331 332 334 332 334 335
345 345 345 346 346 346 345 344 344 345 347 349 349 348 345 346 343 343 341 341 341 340 337 337 338 344 344 346 345 346 346 346 346 346 345 344 344 343 344 343 344 343 342 342 335 327 325 325 325 338 337 330 328 329 331 331 331 332 332 333 332 339
345 345 344 344 345 343 343 343 343 344 344 344 344 344 342 342 342 340 339 338 337 339 337 333 347 346 346 343 342 346 346 346 345 345 345 344 344 343 343 344 344 344 343 340 330 326 327 325 325 325 323 326 328 328 329 330 330 331 332 337 334 341
345 344 343 344 344 342 342 342 343 344 344 342 341 341 340 340 339 338 336 336 336 335 334 333 333 335 336 338 336 338 342 340 337 336 344 335 335 337 338 334 335 337 331 331 330 329 326 326 327 327 326 326 328 328 329 330 330 332 333 335 336 341
344 343 343 342 342 343 343 340 341 342 341 340 339 339 338 338 337 337 336 336 335 333 333 333 332 332 334 335 337 338 338 337 336 337 339 336 335 335 333 334 333 332 331 330 331 329 325 328 326 326 326 325 326 328 328 329 331 332 333 333 337 341
342 342 342 343 343 343 340 339 340 340 338 337 337 336 335 336 336 336 336 336 333 332 332 330 331 331 334 335 336 335 336 336 336 336 337 335 335 335 335 333 331 331 330 329 330 328 326 325 325 326 326 325 325 327 328 328 331 332 333 334 339 341
342 341 341 343 342 340 339 339 340 343 337 340 336 334 334 336 337 335 336 335 336 332 332 330 331 331 333 333 334 334 334 334 334 335 337 334 334 333 333 332 330 330 331 330 328 327 326 326 325 325 325 324 324 326 328 329 331 333 334 334 336 340
341 341 340 341 340 339 338 338 340 337 334 342 332 332 333 336 335 336 334 334 336 331 331 331 330 331 331 331 332 333 331 331 331 333 334 333 334 332 333 333 330 330 329 328 325 326 326 327 325 324 324 325 326 326 328 328 330 332 333 333 334 338
341 340 340 339 338 337 337 337 336 335 334 340 332 333 335 335 333 333 333 333 334 332 330 331 331 332 331 330 330 330 330 329 330 330 330 331 332 331 331 332 331 330 330 327 326 326 328 325 325 325 324 324 325 327 327 327 328 331 332 332 333 336
340 342 339 338 336 336 336 336 336 334 336 336 333 335 332 333 332 331 332 335 336 334 332 330 330 331 332 331 329 328 328 329 330 330 331 331 332 333 331 331 331 330 328 327 327 326 328 325 325 325 326 325 324 324 328 328 328 329 331 331 332 334
338 339 337 336 337 334 334 335 336 334 335 335 335 334 334 332 334 330 332 333 335 333 333 329 329 329 330 329 329 329 329 330 331 330 332 333 333 335 332 331 331 330 329 327 326 326 326 325 325 325 325 326 325 326 325 327 328 328 329 329 331 333
337 337 335 334 335 333 333 334 334 334 334 336 334 333 333 333 332 330 331 331 331 332 331 329 327 328 330 328 328 327 329 330 332 333 332 332 333 332 331 329 327 328 327 326 325 326 328 327 326 327 326 328 327 327 326 326 326 327 328 328 329 331
334 335 333 333 333 332 333 332 333 332 336 333 331 331 333 332 332 329 330 330 330 330 329 329 328 327 327 328 327 327 329 329 331 331 330 331 331 329 328 328 326 326 330 325 324 325 326 326 326 327 328 328 328 327 327 326 325 328 328 327 328 330
333 332 334 331 332 330 332 333 331 331 330 330 330 330 330 331 331 331 331 331 331 331 330 330 329 328 328 328 328 328 328 330 332 331 332 330 330 329 327 327 326 325 324 325 327 328 327 325 326 326 326 327 328 328 328 327 327 326 328 328 328 328
329 328 326 327 326 329 332 331 331 334 328 328 329 329 329 331 331 331 330 329 329 331 332 330 328 329 327 328 329 329 329 331 334 332 332 330 330 328 328 328 327 325 323 324 327 325 325 325 325 325 325 326 327 328 327 328 328 328 327 327 329 329
325 325 325 326 326 328 330 330 331 330 328 326 325 325 327 329 331 329 327 327 328 330 330 328 329 330 328 329 331 331 330 332 333 331 330 328 327 329 329 329 325 325 325 324 326 325 325 325 326 326 327 327 327 327 327 327 328 328 328 326 325 328
325 325 324 325 326 326 327 329 329 329 331 326 325 326 327 328 329 327 326 326 328 329 329 327 327 328 329 331 332 331 331 332 332 331 329 326 325 327 327 328 326 325 326 327 325 325 324 326 328 328 326 326 325 327 326 326 327 329 326 326 326 325
324 323 323 323 323 322 321 321 324 327 326 326 326 326 327 326 326 327 326 326 327 328 329 327 327 328 327 332 330 328 328 328 330 329 327 326 326 327 327 325 326 325 326 325 326 326 325 326 328 328 328 325 324 325 324 325 325 326 326 325 327 328
323 322 322 320 319 316 317 320 322 322 324 324 324 326 324 325 326 326 327 327 327 327 328 328 328 327 327 329 327 326 327 327 329 328 326 325 324 324 326 325 324 325 325 325 326 325 325 325 324 324 322 322 323 324 325 324 324 323 323 324 324 327
321 322 320 316 315 313 314 316 320 322 321 319 321 319 319 318 321 323 326 328 328 328 328 329 329 327 326 332 327 327 326 327 328 327 325 324 324 325 325 324 323 322 322 321 322 324 324 324 322 318 320 318 320 325 328 324 322 322 325 322 322 322
321 321 318 317 317 315 315 318 319 320 319 318 318 316 315 316 318 322 321 322 323 323 325 327 327 325 328 327 326 327 325 325 326 326 325 325 323 327 325 325 323 321 321 320 321 324 323 319 315 314 314 314 314 318 324 321 322 321 324 323 321 320
321 321 319 318 317 317 316 317 319 317 319 315 316 316 317 319 319 317 316 317 318 318 318 321 325 327 326 327 326 325 324 324 324 327 325 324 323 322 323 324 322 322 320 320 322 324 321 318 315 315 314 311 308 308 313 315 318 319 324 322 321 321
322 321 320 321 320 317 318 317 318 318 316 316 315 319 316 316 316 316 317 318 319 316 317 318 322 327 324 325 324 324 323 323 323 324 323 322 321 323 324 322 321 321 321 317 317 320 321 319 316 315 312 308 307 307 303 311 312 316 322 322 321 320
321 320 320 321 318 318 318 316 316 316 317 315 315 314 314 313 316 319 316 316 316 316 318 318 318 319 321 320 321 321 322 322 322 321 323 322 320 322 323 321 322 320 317 317 318 321 320 320 321 320 313 308 306 304 305 310 310 311 318 318 320 322
319 320 319 316 318 318 317 315 314 313 312 311 311 311 311 313 312 313 314 315 316 317 317 315 315 315 316 318 318 320 321 321 321 323 323 322 322 323 322 322 321 321 320 318 319 318 316 319 320 320 319 315 312 308 309 314 309 306 313 316 317 320
320 319 317 316 317 318 315 315 314 314 314 312 311 311 311 312 314 314 315 315 315 314 313 312 312 311 311 313 312 314 315 316 317 318 321 320 320 321 323 323 321 321 320 320 319 314 316 315 317 317 318 318 320 318 315 312 309 307 304 308 312 315
320 319 317 316 315 316 315 314 313 313 314 312 312 312 313 313 313 316 314 313 311 311 312 311 310 310 312 313 312 312 314 315 317 318 319 317 316 317 319 319 317 318 320 318 316 316 314 314 314 314 318 315 315 318 317 316 312 311 305 305 307 311
320 319 317 316 315 315 315 314 314 314 313 313 314 315 315 315 315 315 312 309 309 309 309 309 310 310 311 312 314 310 311 314 315 315 318 316 315 316 316 314 313 313 313 313 316 315 315 312 311 312 314 314 315 314 314 315 316 312 309 305 305 307
320 319 318 316 315 314 315 315 314 315 314 313 315 314 314 314 313 312 309 307 307 308 308 310 310 310 309 310 310 311 311 312 313 315 315 311 311 311 312 312 312 311 311 311 311 312 310 307 308 309 313 314 311 312 312 310 309 311 311 309 306 307
320 321 320 317 314 313 314 315 315 316 315 314 314 314 313 311 311 309 308 307 308 309 309 309 309 309 310 311 311 312 310 311 312 315 313 310 310 311 310 310 310 309 309 308 307 307 307 307 307 308 309 309 310 310 309 305 305 306 305 302 302 302
319 320 319 317 314 313 314 315 317 316 315 315 315 314 314 313 311 309 308 308 309 309 308 307 308 309 309 309 310 309 311 309 310 308 310 311 311 310 310 309 308 308 308 307 307 307 305 304 304 305 305 306 305 307 306 306 306 306 304 303 302 301
318 318 319 317 315 314 315 316 316 315 315 315 315 315 315 313 311 310 309 309 308 308 307 308 307 308 307 307 309 308 307 308 308 309 309 309 308 308 308 308 308 307 306 305 304 304 303 302 303 303 303 303 304 305 304 305 305 305 305 304 302 299
317 318 319 318 315 313 315 316 316 315 314 315 314 315 314 313 311 311 311 309 309 308 307 308 308 308 309 309 309 310 309 308 308 308 308 308 308 308 308 308 308 307 307 305 305 304 303 303 303 302 301 302 302 302 302 305 304 305 303 302 300 300
318 317 317 318 317 314 315 317 317 315 315 315 315 315 314 313 312 312 311 309 309 309 309 309 308 309 310 309 309 308 308 307 308 308 309 309 311 309 309 310 309 308 307 307 307 306 303 303 305 303 303 301 303 302 303 304 305 304 305 304 303 302
318 317 318 319 318 316 316 319 319 316 316 316 315 315 314 314 313 313 312 310 310 309 310 310 310 311 310 310 309 309 308 307 307 307 307 308 308 308 308 307 306 306 306 310 307 305 303 303 303 303 302 301 302 301 303 303 304 303 304 304 304 303
319 319 319 319 319 317 316 318 319 318 317 316 315 314 314 313 314 314 312 311 310 311 311 311 311 312 311 309 309 309 308 307 307 307 307 307 307 306 307 308 307 306 307 307 308 306 304 305 304 303 303 302 301 302 303 303 303 305 305 303 304 302

ECMWFFLT2_sfc_thetae_015.txt.gz
Theta_e
347 347 347 346 346 346 348 350 349 349 349 349 349 349 349 349 348 348 347 348 345 341 340 341 343 340 346 342 345 346 346 345 345 345 344 344 344 344 343 342 342 341 341 341 342 341 340 341 341 342 341 339 339 332 331 330 331 333 331 331 332 327
344 345 346 346 346 346 348 348 345 346 348 347 348 349 347 345 347 342 347 344 339 343 338 337 340 346 340 343 344 346 345 344 345 344 344 344 344 344 343 343 342 341 341 341 341 327 328 333 338 339 339 337 328 328 329 329 330 331 331 329 330 332
343 345 344 344 345 346 345 344 344 345 346 347 348 347 343 345 340 340 339 338 339 338 336 338 339 343 343 346 344 345 345 345 345 345 344 344 344 343 343 343 343 342 342 341 328 325 322 323 323 334 335 328 325 327 328 328 329 331 330 329 327 337
344 345 344 344 344 343 343 343 344 345 344 342 342 343 341 341 340 337 337 336 335 336 335 335 347 347 346 342 341 345 346 345 346 345 344 343 343 343 343 343 342 343 337 332 327 325 324 323 325 323 322 324 324 326 328 328 329 329 329 334 329 339
345 345 344 344 344 344 344 345 345 344 342 341 339 338 340 338 337 336 335 334 334 335 333 331 331 335 337 337 334 335 337 336 336 335 343 334 335 336 337 332 331 332 327 329 328 326 325 326 325 325 323 323 326 325 327 329 328 329 330 331 332 340
345 344 344 344 343 344 344 344 344 344 343 341 339 338 339 337 336 335 334 335 333 331 331 329 330 331 334 333 333 334 334 333 332 334 338 335 334 333 331 331 330 329 329 329 328 326 325 327 326 324 324 324 325 327 328 328 328 328 329 330 333 341
343 342 342 343 343 344 342 343 344 343 341 339 337 337 338 336 335 334 334 334 331 329 330 329 329 329 331 331 333 333 332 332 331 332 336 336 335 334 332 331 330 328 326 328 329 327 325 325 323 324 324 324 325 327 328 328 328 329 330 330 336 341
341 341 341 342 342 342 341 341 343 344 340 342 337 335 336 335 335 333 334 332 334 330 329 328 328 328 330 330 331 331 331 331 332 332 334 334 333 332 332 330 330 328 329 329 329 328 325 324 323 322 323 323 323 325 327 327 330 331 332 331 333 340
341 341 341 342 341 340 340 341 342 339 339 343 335 334 334 335 334 333 332 333 336 330 328 327 327 328 328 329 330 330 330 331 330 330 331 331 331 331 330 330 328 328 326 326 325 326 325 325 323 322 321 323 323 324 326 326 329 331 331 332 333 337
341 340 340 340 338 338 339 340 339 338 339 340 333 332 333 334 333 332 331 333 333 330 329 328 327 328 328 328 329 328 329 328 329 329 330 331 330 329 329 329 328 327 327 325 325 325 326 325 324 322 322 322 323 326 326 327 328 330 330 331 331 333
340 342 339 338 337 337 338 337 338 336 338 335 333 334 333 332 332 332 332 333 332 332 327 328 327 327 329 328 327 326 327 328 328 328 328 329 329 330 328 328 329 327 326 326 327 325 325 325 321 323 323 324 323 325 326 327 328 329 330 330 328 330
340 340 338 338 339 336 335 337 336 334 336 335 334 333 332 331 334 331 331 330 331 331 331 328 328 328 328 327 327 327 326 328 329 328 328 328 328 331 329 329 330 328 327 326 325 325 324 324 322 325 324 325 324 325 325 326 327 328 328 328 327 328
339 339 336 336 336 334 334 336 334 333 335 335 334 333 332 330 330 330 329 329 330 331 330 328 326 328 331 326 326 327 326 329 330 327 327 328 329 330 330 328 327 329 326 324 323 323 326 324 325 325 327 327 325 325 326 326 327 328 326 327 328 328
336 335 334 334 333 332 332 332 333 333 336 334 333 332 332 330 331 330 329 328 329 330 329 327 327 326 326 326 326 325 325 326 328 327 327 327 328 327 328 327 325 325 329 323 322 322 324 325 324 325 326 326 326 325 325 324 325 326 325 326 327 327
335 333 334 333 333 331 330 332 332 332 331 331 332 332 331 329 331 330 329 329 329 330 329 328 327 326 325 325 325 324 325 328 328 328 327 327 327 325 325 326 324 324 323 324 325 326 325 324 324 324 324 325 325 326 327 326 325 325 326 324 324 326
333 331 330 332 330 330 330 329 330 332 328 328 330 329 328 328 328 328 329 328 327 330 329 328 327 326 325 325 325 325 326 327 328 327 328 327 327 326 325 325 325 324 323 323 326 323 324 323 323 324 324 325 324 326 326 326 326 326 325 324 326 326
330 330 328 329 327 326 328 328 328 328 327 326 325 325 326 326 328 328 327 326 326 329 329 328 328 328 326 325 325 326 326 327 329 329 327 326 326 327 326 326 323 324 325 324 324 324 323 323 324 324 324 324 324 325 325 325 326 325 327 324 324 326
328 328 326 326 326 327 327 327 326 325 329 325 323 324 325 327 327 325 325 324 326 329 329 326 326 326 325 328 328 327 326 327 328 326 326 326 326 326 324 324 324 324 325 325 323 324 323 323 325 324 323 324 324 325 326 326 325 328 325 326 326 326
325 323 322 324 326 325 324 324 323 323 323 322 322 323 325 325 325 324 323 324 326 327 329 326 327 328 325 329 328 325 325 327 327 327 326 324 324 324 324 322 325 323 325 324 323 323 324 325 326 326 325 325 325 324 325 325 324 323 324 326 327 328
322 322 322 322 323 322 323 322 321 321 322 322 321 324 322 323 323 323 324 325 325 325 327 327 325 325 326 327 325 325 326 327 327 326 324 324 323 323 323 322 323 324 323 324 324 323 324 324 322 322 321 320 322 324 325 323 321 321 321 322 325 326
320 321 321 319 320 321 320 318 319 319 317 317 320 318 318 317 321 321 324 324 325 326 325 327 327 325 325 330 326 325 324 325 326 325 324 324 324 323 323 321 322 322 322 320 320 322 322 322 320 317 315 315 317 325 327 322 319 319 321 320 321 324
319 319 319 318 319 319 318 321 319 318 316 316 317 317 315 314 317 321 320 322 323 323 323 324 327 325 326 326 326 326 325 325 326 325 325 325 324 326 325 323 321 321 320 320 320 323 321 319 315 312 314 312 312 316 320 318 321 322 323 320 319 319
318 317 316 316 315 315 315 319 319 316 319 313 313 315 315 318 318 315 314 316 317 317 320 322 323 326 326 326 326 325 325 325 325 325 325 325 324 323 322 322 320 320 319 321 321 321 319 318 316 315 313 311 308 306 311 311 314 320 324 320 317 319
318 316 316 318 318 316 318 317 317 316 314 313 314 317 313 313 313 314 314 314 314 313 315 319 321 324 323 323 323 323 324 325 325 326 326 325 323 324 322 320 320 321 320 317 316 316 321 319 316 315 311 308 305 304 302 309 310 314 321 321 318 318
318 316 318 320 317 318 318 315 315 315 315 314 314 312 312 313 312 318 313 313 313 313 315 316 317 318 323 320 318 319 320 321 322 323 324 324 324 325 325 321 321 319 316 319 317 318 319 321 320 318 313 308 305 304 302 308 309 311 316 317 316 318
317 318 317 315 317 318 318 315 314 313 311 309 310 310 310 311 311 310 311 312 312 312 312 311 312 314 318 320 317 317 318 320 320 321 321 320 323 325 325 324 321 320 318 319 318 317 316 320 321 320 317 313 313 308 306 313 311 307 310 315 315 318
319 317 316 315 317 319 316 315 315 314 313 312 311 308 308 309 310 311 311 311 310 309 309 310 310 310 313 315 313 313 314 315 317 318 322 320 319 321 324 325 324 322 321 320 318 314 317 316 316 318 318 320 321 316 314 312 309 306 306 308 309 312
319 318 315 315 316 318 316 314 312 311 312 311 311 310 309 310 311 313 310 309 308 307 308 309 310 310 313 315 314 313 314 315 316 317 318 315 315 316 317 318 319 319 320 319 316 316 314 314 315 315 318 315 316 317 316 314 311 310 304 303 307 309
318 316 314 315 316 316 316 314 313 313 311 311 311 312 313 313 311 309 307 306 306 306 307 308 309 310 311 314 316 312 313 314 314 315 317 315 314 314 313 313 313 314 313 313 314 313 314 312 311 313 315 315 314 314 315 315 315 309 305 301 303 303
317 314 313 314 315 314 315 315 313 312 312 312 313 312 311 310 308 306 306 305 305 306 307 307 307 308 309 310 311 312 313 312 312 313 314 311 311 311 310 310 309 310 311 310 308 311 311 308 310 312 314 313 313 310 309 305 306 309 308 306 306 303
316 314 313 313 313 313 314 314 313 313 313 313 312 312 311 308 307 305 305 305 305 305 306 306 307 307 308 309 310 312 311 311 312 315 312 310 309 309 307 308 308 308 307 307 306 306 307 307 308 309 309 310 310 308 306 303 303 304 303 300 300 301
315 314 312 312 312 313 313 313 313 313 313 314 313 313 312 310 307 305 304 305 305 305 304 305 305 307 306 308 310 308 309 308 309 308 309 309 309 308 308 307 306 306 305 305 306 306 304 304 304 304 304 304 304 305 304 304 304 303 302 301 300 298
314 314 314 314 313 312 312 313 314 313 314 314 314 313 312 311 307 306 305 304 304 304 304 304 305 306 305 305 308 307 307 308 307 308 308 307 306 306 306 306 305 304 303 303 302 302 302 301 302 302 301 301 302 303 303 302 303 303 302 301 300 297
314 315 314 314 315 314 313 314 314 314 314 315 313 313 313 312 308 307 307 306 305 304 304 304 304 305 306 306 306 307 307 305 305 305 306 306 306 306 306 306 305 304 304 302 303 302 302 301 301 300 300 301 301 302 301 302 302 302 300 300 299 298
314 314 314 314 314 314 313 314 314 315 315 314 314 314 314 313 310 307 307 307 305 304 304 304 305 305 307 305 305 305 305 306 305 306 306 307 309 307 307 307 306 305 305 303 303 303 301 302 302 300 300 301 302 300 301 301 301 302 303 302 301 299
315 315 314 314 314 315 313 314 314 314 315 315 316 315 315 313 311 309 309 308 307 305 305 305 304 306 306 306 306 306 306 305 305 306 306 306 306 307 305 305 304 304 304 306 303 302 301 302 301 300 300 299 301 300 300 301 302 301 301 302 302 299
316 316 315 315 315 315 315 315 314 314 315 315 315 315 315 313 311 311 309 308 308 307 306 306 306 308 306 305 306 306 305 304 305 306 306 306 306 305 304 305 304 303 304 302 304 302 301 302 300 300 300 300 300 301 300 301 302 303 302 301 301 300

ECMWFFLT2_sfc_thetae_018.txt.gz
Theta_e
347 347 347 346 346 345 347 349 348 349 349 349 348 349 348 349 348 347 347 347 344 341 341 341 342 341 346 344 345 346 345 345 345 345 344 344 344 343 342 342 341 341 342 342 340 337 337 338 340 340 339 340 342 334 332 332 332 336 334 336 337 330
346 347 347 346 346 346 347 347 345 346 347 346 348 348 346 344 347 342 346 343 340 344 338 338 339 345 342 344 344 345 345 345 345 344 344 344 344 343 343 342 342 342 341 341 337 328 327 332 337 337 338 336 333 331 331 332 332 333 335 335 335 333
345 346 346 345 345 346 345 345 344 344 345 347 348 346 343 345 340 341 341 341 342 338 338 341 341 343 343 345 344 345 344 344 344 344 343 344 343 343 342 342 342 342 341 337 329 326 325 324 326 334 334 329 329 330 331 331 332 333 333 334 332 335
344 345 344 344 345 344 344 345 345 343 342 342 342 342 341 341 340 340 340 338 336 338 337 338 345 347 345 342 340 344 345 345 344 344 343 343 343 343 342 342 342 342 337 333 328 328 327 326 326 325 326 328 329 329 330 331 332 332 332 335 330 336
343 343 343 343 345 344 345 345 345 342 340 339 340 339 339 338 338 337 336 336 336 336 333 331 331 336 337 336 334 335 338 336 336 337 340 336 334 334 334 331 333 334 331 335 332 328 328 328 327 326 326 327 329 329 330 332 332 331 331 334 334 337
344 343 343 344 344 344 345 344 343 343 342 339 338 338 338 337 336 335 334 336 336 332 332 331 331 333 334 334 336 337 337 335 334 337 339 337 335 334 329 330 331 332 332 332 332 331 329 330 326 325 326 327 329 331 330 331 331 332 332 333 335 338
343 344 344 345 344 344 344 344 344 343 341 339 337 338 339 336 335 334 334 336 333 331 331 329 330 330 332 332 334 336 337 334 333 335 340 337 337 336 331 331 331 331 328 331 331 329 327 327 326 326 326 326 328 329 330 330 331 331 332 333 335 339
343 343 342 344 344 343 343 343 343 344 341 341 339 338 339 336 335 333 334 335 335 331 331 329 329 330 332 332 333 335 335 335 334 334 338 337 336 334 334 333 332 330 330 329 329 328 327 326 325 324 326 326 326 328 329 329 330 331 332 332 334 339
342 342 342 343 342 342 343 342 341 338 338 344 338 338 338 336 334 332 333 335 335 330 328 328 328 329 330 330 332 333 334 334 332 331 335 333 332 332 333 333 332 330 328 327 327 327 328 327 325 324 324 325 325 327 328 329 330 332 333 333 334 337
342 342 342 342 341 341 342 341 340 339 339 343 335 335 337 335 333 332 331 333 334 330 329 328 328 328 330 329 330 330 332 331 331 330 332 332 331 331 331 330 330 329 329 327 328 327 328 326 325 325 324 325 325 326 328 328 330 332 333 334 334 336
341 342 342 341 340 340 342 341 340 338 339 337 333 335 335 334 332 332 332 332 331 331 329 328 328 327 330 329 329 329 329 329 329 329 330 330 331 332 330 331 330 330 329 327 328 327 327 326 324 325 325 325 325 327 327 329 331 332 333 333 333 334
341 342 340 340 340 339 340 340 339 339 339 336 335 333 333 333 335 332 331 330 330 330 330 328 328 328 329 328 328 328 328 329 329 329 330 329 329 331 331 330 331 330 329 328 327 325 326 325 325 326 326 325 326 327 327 329 331 331 332 333 333 334
341 341 339 339 339 339 339 340 339 338 338 337 335 332 331 332 332 331 330 330 329 330 330 328 327 328 332 329 329 327 327 330 330 330 329 330 331 330 331 330 327 330 327 326 326 326 327 326 326 326 327 327 326 326 327 328 329 330 331 331 332 333
339 338 336 337 337 337 337 337 338 336 338 336 334 331 331 328 330 330 331 330 330 331 329 328 328 328 329 327 327 327 327 326 329 330 329 330 328 328 329 329 327 327 331 325 325 325 326 326 326 326 326 327 327 326 326 327 328 329 329 329 330 331
339 335 337 335 335 334 334 336 335 335 336 335 334 332 331 330 330 329 329 329 329 330 331 329 329 328 327 327 326 325 325 327 329 331 330 329 327 326 327 327 326 325 325 326 326 327 326 325 326 325 326 327 327 327 327 327 327 327 327 327 328 329
336 333 334 334 331 331 331 332 333 335 333 334 334 333 332 332 332 331 330 328 330 331 329 329 329 328 327 326 326 324 325 327 329 330 331 330 327 326 326 326 326 325 325 326 326 324 324 324 325 324 325 325 326 327 326 326 326 326 326 327 328 329
333 333 330 330 328 328 327 328 331 332 330 331 330 331 331 330 331 331 330 328 328 332 329 328 328 328 326 327 326 326 326 327 329 330 329 327 327 327 327 326 324 326 326 325 325 324 324 324 324 324 324 324 325 326 325 326 326 327 327 326 326 327
333 331 328 327 326 326 325 327 327 329 331 327 327 328 329 330 329 329 329 327 327 330 329 327 327 327 326 327 327 328 327 327 329 329 327 327 327 327 326 325 323 324 325 325 324 324 324 324 325 323 323 323 324 325 325 325 327 328 328 327 327 327
329 326 325 324 326 324 323 323 323 323 322 323 325 325 327 328 326 326 326 327 328 330 330 327 327 328 326 331 330 328 326 328 329 326 325 324 324 325 325 324 324 323 325 324 324 324 324 325 325 324 324 323 324 324 325 326 326 326 327 327 330 330
324 323 323 324 325 323 323 322 321 321 321 322 321 325 323 324 324 323 325 326 327 326 329 327 325 326 328 330 329 328 326 328 328 327 324 323 323 324 324 323 324 324 323 324 325 325 325 324 323 323 322 323 324 325 324 324 324 324 324 326 327 328
321 322 323 323 323 322 320 317 316 318 318 317 321 320 320 317 322 322 324 324 326 325 326 327 326 324 325 331 326 325 325 326 326 326 324 322 323 324 324 324 324 324 323 321 323 323 324 324 321 319 319 320 323 326 326 322 322 323 323 322 324 326
320 321 322 323 324 322 318 319 317 317 314 316 319 318 317 315 317 320 321 322 325 324 324 325 327 325 328 326 325 324 323 324 325 324 324 324 324 326 325 324 323 322 322 321 320 323 321 321 317 317 317 314 316 319 322 322 323 324 323 321 321 323
320 320 319 321 322 320 315 317 315 314 318 313 313 315 315 318 318 314 314 315 317 318 324 324 325 327 327 327 326 325 323 324 324 326 324 324 326 325 325 323 321 321 319 320 321 322 320 319 316 317 316 314 311 310 315 317 320 322 323 322 321 324
318 316 317 320 321 316 318 316 315 315 313 313 315 317 314 314 313 313 313 313 315 314 320 323 325 328 328 326 324 324 326 326 324 325 324 324 324 324 323 322 322 321 319 317 316 317 321 319 317 316 312 310 310 309 307 310 312 317 320 321 322 323
316 315 316 320 318 318 317 315 314 315 316 314 314 312 312 312 312 317 314 312 311 312 317 321 323 325 326 323 323 325 326 326 326 326 327 326 325 324 324 322 321 321 319 318 318 317 319 320 320 321 316 311 309 308 307 312 312 315 317 321 320 321
314 315 316 316 318 319 318 316 315 314 312 310 310 310 309 310 309 309 310 311 309 310 312 314 316 320 323 322 320 321 323 324 325 326 326 326 326 326 323 323 322 322 320 321 320 317 317 320 319 320 319 317 315 311 310 314 314 310 316 316 317 320
315 315 315 316 318 319 316 316 317 316 315 313 312 308 307 308 309 310 309 308 307 309 309 311 313 316 317 318 316 317 319 321 322 324 325 325 326 326 325 324 324 322 322 322 320 316 317 317 319 319 318 319 320 317 316 314 311 309 312 314 315 317
316 316 314 316 317 318 317 315 314 313 313 311 311 310 310 310 310 310 307 307 307 307 309 310 312 313 315 316 315 314 317 319 321 323 325 323 323 323 323 323 323 322 321 321 319 318 317 317 318 316 318 317 318 318 317 315 314 313 309 309 310 313
316 315 313 315 317 316 318 316 315 313 312 310 310 312 313 312 309 308 306 305 307 307 308 309 311 312 313 316 318 315 316 317 318 319 322 319 320 319 319 319 318 318 318 316 318 317 317 316 316 316 317 317 315 315 315 316 315 313 310 306 307 306
314 313 313 314 316 315 315 315 313 312 311 311 313 311 310 308 306 305 305 305 305 306 307 308 309 310 311 312 313 315 314 315 315 317 318 314 312 312 312 313 313 314 314 313 312 316 316 313 315 316 318 316 315 312 311 311 312 312 311 310 308 305
312 311 312 313 314 314 313 314 313 312 311 311 311 311 309 306 305 305 305 305 305 305 306 307 310 309 310 311 313 315 312 312 315 317 313 310 310 309 309 310 309 309 308 309 309 309 310 311 313 313 313 314 314 312 310 309 310 308 308 305 304 304
311 311 311 312 312 313 313 312 313 312 312 312 312 312 310 307 305 305 304 305 304 305 305 306 307 309 309 310 311 310 311 310 310 309 309 309 309 308 308 307 307 307 306 306 308 309 307 307 306 306 306 307 307 307 307 308 307 306 306 304 304 302
312 310 311 311 311 311 311 312 312 312 312 313 312 312 310 308 305 305 305 305 304 304 304 306 306 307 307 307 309 308 308 309 309 310 308 307 307 307 307 306 306 305 305 305 305 306 305 304 305 305 304 305 306 306 306 305 306 304 303 303 303 301
313 310 310 310 310 311 311 312 312 312 313 314 312 312 311 310 308 308 307 306 305 305 305 305 305 306 306 307 307 308 308 307 307 307 307 307 307 307 306 305 305 305 304 304 304 304 303 303 303 303 304 305 305 305 304 304 304 304 303 304 302 302
312 310 310 310 311 311 313 314 314 315 315 314 313 313 312 313 310 309 308 306 304 303 305 304 305 306 308 305 306 306 307 306 306 307 308 308 308 307 308 307 306 305 305 304 304 304 303 304 304 303 304 304 304 304 304 304 305 305 305 305 304 302
312 310 310 311 312 313 315 315 315 314 314 316 316 314 313 313 311 310 309 307 305 304 304 305 305 306 306 306 306 307 307 305 305 306 307 306 306 306 306 306 305 304 305 307 303 303 303 303 303 303 303 303 304 303 304 305 305 305 305 305 304 302
311 311 312 313 314 314 315 314 314 314 314 314 314 314 314 312 311 310 309 307 306 305 305 305 307 309 306 306 306 306 306 305 305 305 306 306 306 305 305 306 304 304 304 304 305 303 303 303 302 303 303 304 304 304 305 306 306 306 305 304 304 304

ECMWFFLT2_sfc_thetae_021.txt.gz
Theta_e
349 349 349 349 350 350 349 349 349 349 349 349 349 349 348 348 348 348 348 347 346 351 351 348 347 345 346 346 345 345 345 345 345 344 344 343 343 342 342 342 342 342 341 339 338 336 337 338 338 339 340 343 342 345 344 343 342 340 340 340 340 339
349 350 350 349 349 351 350 349 349 350 347 347 349 349 349 348 347 348 347 349 350 350 348 347 347 344 347 346 345 345 345 344 344 344 344 343 342 341 341 342 342 341 338 337 336 339 338 336 336 338 339 341 344 344 344 343 342 340 340 341 340 340
349 349 348 350 349 350 351 350 347 346 350 346 348 348 347 347 347 349 349 348 350 349 346 345 347 346 345 345 346 345 344 344 343 343 343 344 343 342 342 343 342 340 338 335 342 339 337 336 337 335 339 343 344 344 344 343 342 341 339 340 339 338
343 347 346 347 347 345 346 343 346 346 346 348 348 347 347 347 347 347 347 346 346 346 346 346 345 346 344 345 346 344 344 344 343 343 343 343 343 343 342 341 341 340 339 341 341 339 335 335 336 339 342 343 342 344 343 343 340 341 341 338 337 337
347 347 346 345 341 343 345 345 347 345 346 346 347 347 347 347 347 346 346 346 345 345 345 345 348 348 344 344 346 346 345 342 342 343 342 342 341 342 342 341 341 340 340 340 339 340 338 335 336 337 339 342 343 343 343 343 342 340 341 341 340 336
344 345 345 344 343 344 344 345 345 345 345 347 346 346 346 346 346 345 346 346 345 344 344 344 348 347 345 345 344 344 344 343 342 342 343 340 340 340 339 339 340 339 339 339 340 340 339 337 335 335 335 340 342 343 342 340 341 341 342 341 340 337
343 345 344 346 344 345 345 345 346 345 345 344 346 344 344 346 345 345 346 345 344 344 344 344 345 346 344 344 342 342 341 342 342 341 342 339 340 339 339 338 338 339 339 339 338 338 337 337 337 334 335 335 339 341 342 341 341 341 341 340 340 338
342 343 344 344 345 346 345 346 344 344 346 345 344 343 345 344 344 345 345 346 346 345 343 340 344 344 343 344 344 342 341 342 342 341 341 341 338 338 338 339 340 339 337 337 335 337 337 336 336 337 335 335 336 339 341 340 341 342 341 341 340 340
342 342 343 345 343 344 344 343 344 344 343 345 344 344 345 344 343 344 345 346 345 344 344 344 343 343 344 344 344 343 342 341 342 342 341 341 339 340 339 339 339 337 338 337 337 338 337 336 337 338 336 335 335 336 339 341 341 340 341 341 340 340
341 341 343 344 343 343 343 341 342 343 344 346 344 344 344 343 343 343 344 345 346 345 344 343 343 343 342 342 343 343 343 342 341 341 340 341 342 341 340 339 339 338 335 337 336 338 337 335 333 335 335 335 335 335 338 339 340 339 340 341 341 341
342 344 343 341 342 342 343 342 343 343 343 345 345 344 344 343 342 343 344 344 344 344 343 344 343 341 342 341 343 343 342 341 341 341 342 342 342 341 341 341 340 338 337 337 337 337 336 335 334 333 335 333 334 336 337 339 338 339 339 340 340 342
342 344 344 341 342 341 341 342 343 342 342 345 344 343 342 341 342 342 341 342 341 341 341 342 342 341 339 340 340 341 340 341 341 341 341 341 342 341 341 340 340 342 342 340 338 337 338 335 335 333 334 333 335 336 336 338 338 339 339 340 340 341
342 344 342 341 340 340 341 341 341 341 343 344 343 342 340 338 337 337 333 336 337 337 336 337 335 333 334 336 337 338 339 340 339 339 340 341 341 342 342 341 340 341 340 339 338 337 335 337 336 336 336 334 336 334 335 336 338 338 338 339 339 340
343 341 342 341 342 340 341 341 342 341 342 343 342 341 340 334 336 334 333 333 335 333 333 334 332 332 333 333 332 331 334 336 337 337 338 339 339 340 340 340 338 338 336 337 336 337 336 335 335 335 336 335 337 337 336 334 337 338 339 338 339 340
342 342 341 341 340 340 341 340 341 341 341 341 341 340 339 332 334 335 334 334 332 332 333 333 333 334 332 332 331 333 335 337 337 338 339 339 339 339 341 339 337 336 336 337 337 335 335 334 334 334 336 337 335 335 337 337 337 337 336 339 340 339
342 342 342 341 342 342 340 340 341 341 341 341 340 339 339 336 334 334 335 335 335 334 332 332 333 333 332 332 334 336 337 336 336 339 339 339 340 339 340 339 339 338 335 335 335 335 335 334 333 332 334 336 337 337 337 337 337 336 337 337 336 339
342 341 340 340 340 339 339 339 340 340 340 339 338 338 337 337 337 334 334 335 335 336 334 333 333 333 333 333 335 336 337 336 337 338 339 338 339 339 340 338 338 338 337 335 333 332 333 332 331 332 333 334 335 336 336 337 336 337 336 337 336 336
342 341 340 338 338 337 336 337 338 338 338 336 335 335 335 336 335 335 334 333 334 337 337 334 334 333 332 334 335 336 335 335 335 337 337 338 338 337 338 339 337 337 336 335 333 330 329 330 331 332 332 333 334 335 335 336 336 336 337 335 335 336
340 339 337 336 336 335 335 335 335 334 334 333 333 333 334 335 334 335 334 334 335 336 336 335 335 333 331 334 334 334 334 335 335 337 335 335 335 335 336 338 337 333 336 336 334 332 330 331 332 331 330 330 332 334 335 335 334 334 335 335 335 335
339 337 336 335 334 334 334 333 331 331 332 333 333 332 333 334 335 335 336 336 336 335 335 335 335 334 334 334 335 335 334 334 335 335 335 334 333 334 335 335 335 334 333 332 333 331 331 330 332 330 328 329 330 332 333 332 333 332 332 334 335 335
337 336 335 334 334 333 332 331 332 334 334 333 332 332 332 333 334 336 336 335 335 335 335 335 334 334 334 334 334 334 333 332 333 333 334 333 333 333 335 335 334 334 333 331 329 331 330 332 328 325 327 327 328 330 331 330 332 332 331 332 333 334
336 336 337 336 335 335 335 334 334 333 333 332 332 332 332 333 334 333 334 334 335 335 335 335 335 334 334 332 332 332 332 331 332 332 333 333 333 332 331 332 332 330 331 331 328 329 329 330 325 324 322 322 325 328 329 330 329 329 330 331 333 334
336 337 337 337 336 335 335 334 335 333 333 330 331 333 333 333 333 331 332 334 335 337 335 335 335 334 334 333 333 333 332 332 332 332 332 332 332 331 332 332 333 330 327 330 328 328 329 330 325 325 326 322 319 320 324 327 329 328 328 332 333 330
334 336 336 336 336 336 334 332 334 333 332 333 330 329 330 329 328 327 327 328 331 334 336 335 334 333 334 333 333 333 333 333 332 332 331 331 330 330 331 332 332 332 331 325 325 323 328 328 327 324 318 321 320 319 316 319 323 326 328 328 329 328
333 333 334 335 334 333 330 330 328 329 329 327 328 328 328 326 327 327 326 328 329 332 336 335 335 334 334 333 333 334 333 332 332 333 332 331 330 330 331 332 332 331 331 329 325 325 326 328 328 331 326 318 315 315 315 320 321 322 327 326 327 328
332 331 332 334 333 332 331 329 328 326 325 325 324 325 324 323 323 325 324 324 325 329 334 336 335 335 334 334 334 333 332 332 332 331 332 331 331 330 329 331 332 331 329 332 329 326 325 327 328 329 330 331 329 321 317 321 320 314 325 327 327 324
330 330 331 332 333 332 332 332 332 332 331 329 325 324 325 326 326 323 323 324 324 327 330 335 335 335 335 335 334 333 333 333 332 331 331 331 330 331 330 330 332 331 332 330 329 326 326 324 326 327 328 330 328 328 328 321 317 319 315 316 319 319
329 329 330 331 332 333 332 332 332 331 330 329 328 324 325 324 323 322 322 322 324 325 327 331 333 333 334 334 334 333 332 332 331 331 331 330 330 331 331 331 332 333 331 331 330 326 326 327 326 323 327 326 327 328 328 328 325 321 317 310 309 314
328 328 328 330 331 331 332 332 331 330 327 326 326 325 324 321 320 322 322 322 324 324 326 327 328 330 330 331 333 333 333 332 331 331 331 330 331 331 331 331 330 330 330 330 331 329 328 326 328 325 325 325 326 326 326 327 326 324 318 314 311 310
327 326 327 329 330 329 330 330 329 329 327 324 325 323 322 319 319 321 321 322 323 325 325 326 326 326 328 328 330 332 333 333 331 331 330 330 330 330 330 330 330 331 330 330 330 330 329 329 329 329 329 328 326 324 325 324 324 321 320 319 313 310
326 325 325 327 328 328 329 329 329 328 327 325 325 323 320 319 318 320 320 321 323 323 325 325 326 326 327 327 329 330 330 330 331 330 328 328 330 329 329 329 329 329 330 329 328 327 326 327 327 326 326 327 326 325 323 321 320 321 318 315 312 311
325 325 325 326 327 326 326 326 327 327 327 327 326 324 322 320 319 319 320 319 320 322 323 323 325 326 326 326 327 327 327 327 326 327 327 328 328 327 326 325 326 326 325 326 328 328 327 326 327 326 326 325 322 323 323 321 320 321 319 316 315 311
324 324 324 324 324 324 324 324 324 325 326 327 327 326 324 322 321 320 320 319 320 321 322 323 324 325 324 324 325 325 326 325 325 325 324 324 324 323 323 322 322 323 324 325 326 326 324 325 325 322 318 320 318 318 317 319 319 317 317 316 314 310
325 323 322 321 321 322 322 322 324 325 326 325 325 325 324 321 321 322 321 321 321 321 322 324 323 323 322 322 323 324 324 323 322 322 322 322 321 320 322 320 322 322 322 321 322 322 320 321 321 321 321 318 318 317 317 319 318 316 314 313 310 310
321 319 319 320 321 321 322 323 323 324 326 325 324 324 323 323 321 320 320 321 321 322 322 321 321 321 320 322 322 323 323 322 321 321 321 321 320 320 321 320 320 320 319 319 320 320 319 319 318 318 320 318 318 317 316 316 315 313 312 313 313 312
317 319 321 321 321 324 325 324 323 324 324 324 324 323 321 319 320 322 322 322 321 322 321 320 320 321 320 321 322 322 321 320 320 320 320 319 319 319 320 320 318 319 316 317 319 319 318 318 318 319 318 318 316 314 316 315 314 315 313 314 313 314
320 320 320 319 320 325 326 325 322 324 323 322 322 323 322 321 322 322 322 321 320 320 322 322 321 322 321 321 321 322 321 320 320 320 319 318 318 318 319 319 318 318 317 318 318 317 318 317 317 317 317 318 315 314 314 317 315 316 316 317 316 315

ECMWFFLT2_sfc_thetae_024.txt.gz
Theta_e
348 347 352 353 354 349 347 346 346 346 347 348 347 347 348 348 348 348 348 347 347 349 350 349 348 346 346 347 346 345 345 345 344 344 343 343 343 342 342 342 341 339 338 338 338 338 338 338 338 339 340 344 342 346 346 343 344 343 342 341 341 340
350 351 346 345 343 348 343 345 347 348 350 346 345 346 349 348 347 348 348 348 351 349 349 348 348 345 348 346 347 344 345 344 344 344 343 342 342 342 342 342 341 339 336 338 338 339 337 338 337 340 341 344 346 344 344 344 344 342 342 342 341 339
345 345 343 343 343 342 347 344 347 346 345 345 346 348 347 347 346 346 344 348 350 349 347 348 348 344 347 343 347 344 344 344 343 343 343 343 342 342 342 342 340 340 338 335 342 337 336 337 339 337 342 346 345 343 344 343 342 343 342 341 341 340
345 345 343 350 342 348 344 348 345 344 343 342 350 345 345 344 347 349 350 350 348 348 348 350 344 344 345 344 347 344 343 343 343 343 343 344 343 343 342 342 341 338 341 341 338 334 335 336 338 343 344 343 342 344 343 342 340 342 342 338 338 340
346 346 346 347 350 347 346 347 346 345 348 347 345 344 345 349 349 349 349 349 346 348 347 348 348 345 345 345 343 343 343 342 340 340 343 341 340 341 343 343 339 340 339 337 335 336 337 337 340 341 342 343 343 344 343 342 341 341 342 342 340 340
348 348 346 346 348 348 350 348 348 348 348 344 347 347 348 348 349 349 349 348 348 348 347 348 347 346 345 346 344 343 343 344 343 339 339 339 339 340 339 341 339 337 336 337 336 336 337 337 338 339 339 345 344 343 342 340 341 341 343 342 340 340
345 346 347 348 348 344 342 342 342 344 345 341 339 343 348 349 348 348 349 348 347 346 345 347 345 345 344 345 344 344 342 340 341 339 339 340 341 338 338 339 338 337 336 335 334 334 334 336 337 336 338 341 343 342 342 340 341 341 342 342 340 340
341 346 346 347 345 344 345 343 342 343 343 343 341 343 345 347 347 347 348 348 349 346 343 343 344 345 344 345 344 345 344 340 339 340 340 342 342 339 336 337 337 335 334 335 333 334 333 334 336 338 336 337 341 342 343 341 343 343 342 342 340 341
343 344 346 347 346 346 341 341 341 343 343 340 340 338 342 346 347 349 350 348 348 346 344 343 341 344 344 346 346 346 344 342 341 340 341 341 342 342 340 336 335 334 335 334 334 335 333 334 337 338 337 337 338 340 342 343 344 341 342 341 342 340
342 342 344 344 343 341 345 341 340 337 340 339 342 341 345 346 348 348 347 347 347 346 345 343 342 342 343 345 346 347 345 344 342 342 340 341 343 343 340 338 336 335 333 335 335 334 334 333 333 336 337 337 337 337 342 341 342 341 342 341 341 340
342 344 343 341 341 340 343 342 339 340 341 340 346 348 348 347 347 347 347 347 342 340 338 337 339 335 336 341 343 339 338 341 344 340 340 344 343 342 343 339 338 336 336 336 335 333 332 333 333 333 335 334 335 337 338 341 340 340 340 342 341 342
342 344 340 339 342 338 341 340 341 343 344 345 349 349 346 347 347 346 340 337 339 337 335 335 333 332 334 341 335 336 335 338 338 337 338 334 335 338 340 338 336 339 340 340 336 335 335 333 335 333 334 332 334 335 335 337 336 340 339 342 341 342
341 344 341 343 344 342 341 343 345 345 347 349 349 348 346 345 346 336 335 338 336 334 334 335 335 336 337 338 340 341 339 339 339 337 337 335 336 337 339 339 338 339 339 340 338 336 332 334 335 335 335 334 336 333 334 335 337 339 340 340 339 342
341 338 343 343 344 344 346 345 344 346 348 348 347 346 344 344 344 339 337 337 336 333 335 335 333 333 335 337 340 341 341 341 339 336 337 336 336 335 338 339 337 337 336 338 337 338 333 333 332 334 336 334 337 337 336 333 336 337 338 338 340 343
343 340 343 342 343 344 343 343 343 345 346 346 346 344 343 342 343 343 340 337 337 336 335 336 334 334 336 337 338 339 341 342 337 338 343 342 337 337 337 339 337 336 336 338 339 338 337 337 333 333 335 335 334 334 336 335 336 334 333 337 342 341
344 343 343 344 345 344 344 346 347 345 349 347 345 344 343 341 341 341 342 339 336 337 336 335 335 335 336 337 338 341 341 342 341 341 341 340 337 340 340 340 340 338 335 336 336 336 338 338 339 338 336 336 335 334 335 336 336 334 335 338 336 341
343 342 344 345 344 345 346 346 346 345 344 345 343 342 341 342 341 340 341 342 341 340 339 337 338 336 336 337 337 339 341 341 341 340 341 341 335 336 340 338 339 340 339 336 335 334 337 338 337 337 340 341 340 339 338 340 339 340 338 337 338 339
343 344 347 344 344 344 344 345 344 343 344 341 341 341 341 340 340 339 340 339 341 341 340 340 340 339 339 338 338 338 337 339 340 340 340 340 340 341 341 337 339 340 339 339 336 335 335 336 336 337 338 339 338 337 337 340 339 338 337 334 336 337
341 346 346 344 343 343 342 342 342 342 341 340 340 340 338 338 340 339 339 340 339 340 339 339 340 340 339 338 339 338 336 337 339 339 339 339 338 340 340 342 339 339 342 339 338 338 337 337 336 336 336 336 336 337 338 338 337 338 337 338 338 336
340 345 345 342 342 340 340 339 338 339 338 338 338 337 339 337 339 338 339 339 338 340 339 339 339 340 339 340 339 338 337 337 338 335 336 336 336 337 337 337 339 338 339 339 339 339 339 337 336 335 334 335 336 337 337 336 337 337 336 336 338 338
340 343 342 340 339 339 338 338 338 337 335 336 335 338 337 338 337 336 338 335 338 337 339 339 340 341 340 339 340 339 338 337 338 336 336 332 337 337 334 335 338 338 336 336 336 339 338 338 334 331 334 334 335 335 334 334 335 335 335 336 337 336
341 342 342 342 341 339 339 337 336 334 334 334 333 333 333 336 337 337 338 337 337 337 338 338 338 341 342 340 339 338 338 337 337 338 338 337 338 337 337 336 337 335 336 335 335 336 337 336 331 328 326 327 329 332 333 334 331 330 332 333 334 334
341 342 343 343 341 339 339 340 338 336 334 332 335 336 334 335 337 335 338 337 337 338 336 336 337 339 340 338 339 339 338 339 338 338 337 336 337 336 337 336 336 334 333 335 333 336 337 334 328 331 331 325 320 321 327 330 332 330 331 333 334 333
342 343 343 342 340 341 341 342 342 340 339 336 335 338 338 338 335 334 334 336 336 337 336 335 334 334 335 338 340 340 341 340 339 338 337 335 335 334 335 336 335 334 335 330 329 330 335 337 334 330 324 321 323 321 314 321 326 328 331 331 332 331
343 343 342 341 341 341 340 340 341 341 340 338 337 335 333 331 332 330 329 332 333 336 335 334 334 334 333 334 335 337 337 337 338 339 339 337 335 334 334 334 335 334 333 331 329 329 331 334 336 336 330 324 322 318 315 322 325 325 331 328 329 330
343 342 341 342 341 340 339 337 334 331 330 330 329 330 329 328 328 329 325 327 329 334 334 334 333 332 332 333 334 334 335 333 334 335 336 337 336 335 335 333 334 334 330 334 333 329 328 332 334 336 335 335 328 320 321 323 323 317 328 330 327 326
343 341 342 341 341 341 339 338 336 334 332 330 328 330 332 331 330 327 328 328 329 333 333 333 333 332 332 333 333 334 335 334 333 334 334 334 333 335 333 334 335 334 332 332 334 330 327 329 332 333 333 334 334 331 330 323 321 321 318 321 324 323
343 342 343 342 341 341 339 337 336 335 332 330 330 331 332 332 332 329 327 327 329 330 333 332 332 331 332 331 332 332 333 334 332 332 331 331 332 333 334 336 336 335 333 332 331 328 328 331 328 329 333 332 330 331 331 329 328 322 319 315 315 320
343 343 342 343 341 341 339 338 336 334 332 332 332 331 331 330 328 329 327 328 329 328 331 333 331 331 331 330 330 330 332 332 332 332 331 331 333 335 337 337 336 334 332 331 332 330 328 328 330 329 330 331 331 328 328 329 329 327 319 316 313 314
341 341 341 342 341 340 340 338 335 334 333 331 331 330 329 327 327 328 326 328 328 328 328 329 331 331 331 329 330 330 329 332 332 331 329 331 333 334 336 336 337 336 334 332 332 332 330 329 331 333 332 331 328 328 328 327 326 325 323 322 315 313
340 339 340 340 340 341 340 338 335 335 333 333 331 330 327 327 326 326 325 326 326 325 328 327 328 330 330 329 329 329 330 332 333 332 329 328 329 328 331 332 334 335 336 335 333 334 332 331 330 329 329 328 328 327 326 324 324 325 324 321 316 315
336 337 337 337 340 339 338 338 338 336 333 334 333 330 327 326 325 324 324 324 324 324 325 326 327 327 328 328 328 327 330 330 330 331 329 328 328 328 329 330 331 331 333 334 335 334 334 332 331 330 330 330 329 330 329 327 327 326 323 321 319 317
332 336 337 338 338 338 337 337 336 335 334 334 332 330 328 326 326 324 324 323 323 323 323 323 325 326 326 327 326 327 328 327 328 329 329 327 328 328 327 327 328 330 330 331 331 333 332 333 333 330 330 330 326 327 326 326 326 324 323 322 320 316
326 331 334 335 335 335 335 335 336 335 334 333 332 331 328 326 326 324 324 323 324 322 322 324 325 326 325 325 326 328 330 329 329 329 329 329 328 327 327 324 326 326 327 329 331 333 332 331 330 328 327 324 324 324 323 323 323 323 322 320 317 316
321 323 327 331 331 331 331 334 334 333 333 333 331 330 328 327 327 325 325 324 324 324 323 324 324 325 325 325 327 328 328 328 328 328 328 328 326 326 326 324 324 325 325 326 326 326 326 327 325 324 324 321 320 318 316 316 316 316 315 317 317 316
320 321 322 326 328 330 330 331 333 334 334 333 331 330 328 326 326 326 326 324 323 324 323 324 325 324 325 325 326 325 325 324 324 324 325 325 325 324 325 324 321 323 322 323 324 324 323 324 324 323 321 319 316 315 316 315 316 315 314 317 317 315
320 322 323 325 327 330 333 332 332 333 333 333 331 329 328 329 328 328 327 324 323 323 325 324 324 325 325 325 324 323 322 322 321 321 322 322 323 323 324 322 321 320 321 322 321 320 320 320 320 319 320 319 316 317 318 319 317 317 317 317 316 316

ECMWFFLT2_sfc_thetae_027.txt.gz
Theta_e
346 350 344 344 346 343 346 343 344 347 348 349 348 349 348 348 347 348 348 348 347 345 344 345 347 342 347 346 345 345 344 344 344 344 343 342 341 340 340 340 339 338 338 339 339 339 340 339 339 339 343 345 343 345 345 343 340 337 337 336 338 338
344 347 344 344 343 346 348 347 346 349 349 348 349 349 348 347 348 346 347 347 347 346 345 344 345 344 346 346 345 344 344 344 343 344 343 342 342 341 340 339 338 338 337 339 338 336 336 340 340 340 341 344 345 344 344 342 341 338 338 339 338 340
346 346 343 343 346 345 348 346 344 344 345 345 347 348 346 345 345 343 342 344 347 345 343 344 347 342 343 344 344 345 344 344 344 343 343 343 343 342 341 339 339 339 339 338 338 337 334 333 337 341 343 345 345 342 343 342 341 340 337 339 337 341
344 347 347 348 348 348 349 347 344 341 345 349 346 345 345 343 341 341 341 345 347 343 344 343 344 343 344 345 345 345 344 344 344 344 343 343 343 343 342 340 339 339 340 338 338 336 336 337 337 339 342 343 342 343 343 340 338 339 337 338 337 341
346 348 346 345 346 347 348 347 341 342 343 346 346 347 344 340 340 339 341 344 344 340 342 344 342 343 342 342 341 342 344 343 342 343 343 341 341 342 342 339 336 337 336 337 336 337 337 337 341 338 341 341 343 344 341 341 339 334 337 338 338 341
346 346 345 346 345 347 347 342 344 344 344 346 344 344 344 344 342 340 339 342 343 340 341 344 342 337 338 342 341 337 338 338 338 338 341 339 340 342 340 339 336 335 337 337 336 337 337 339 338 340 339 341 342 343 340 338 336 340 338 337 340 340
341 343 345 347 345 344 345 343 344 343 343 343 347 345 344 343 341 339 340 338 341 343 339 343 341 339 338 339 341 345 344 342 339 339 336 337 338 339 340 340 340 339 336 334 333 334 335 337 339 337 340 341 341 341 341 339 339 338 339 336 339 340
345 346 340 340 344 343 343 343 346 345 344 344 346 346 345 345 342 340 339 337 337 339 338 340 341 341 340 341 338 338 340 341 342 347 336 345 343 340 339 340 340 336 332 334 334 333 333 332 335 338 338 340 340 341 341 339 341 341 339 337 336 340
343 344 343 342 341 341 342 344 348 348 346 345 346 347 346 343 343 340 341 339 335 340 340 340 341 341 342 342 340 340 341 340 338 338 338 338 336 337 337 338 337 333 335 335 334 334 333 334 335 337 337 338 339 338 340 341 341 340 341 339 336 339
342 344 343 344 344 344 344 343 345 346 346 346 346 347 345 343 343 342 340 338 340 341 339 342 341 341 341 340 342 339 340 342 341 339 340 340 340 339 336 336 336 334 332 334 333 333 333 333 333 336 336 335 337 338 340 339 339 338 338 340 337 339
342 342 342 341 344 342 343 341 341 345 346 345 346 346 344 342 340 339 339 338 339 340 341 342 342 341 342 340 340 340 340 341 342 342 341 339 340 340 339 337 335 335 333 334 334 332 332 332 334 333 336 335 334 339 338 340 338 338 337 340 337 337
342 341 343 341 343 342 343 344 345 346 347 346 345 344 342 341 338 337 339 340 341 342 342 343 342 342 341 344 342 342 340 342 342 341 340 340 340 341 341 339 339 336 337 338 334 332 332 333 332 330 333 332 335 336 337 338 337 338 338 337 339 337
343 345 340 342 342 343 345 345 346 345 344 341 343 342 341 340 339 341 342 342 343 342 341 341 342 341 341 341 342 342 341 341 342 343 340 340 340 341 342 342 341 338 339 337 334 334 332 331 333 333 333 333 336 333 334 335 336 338 337 338 339 341
340 340 342 338 344 344 345 344 343 342 342 343 346 342 337 342 343 341 342 342 343 343 342 341 340 340 339 342 342 340 339 339 341 343 340 338 340 338 340 341 338 337 337 336 335 333 332 333 334 333 335 332 334 335 335 333 334 337 338 342 341 337
344 339 339 341 340 343 342 340 341 339 344 343 340 341 339 342 344 344 342 341 342 342 341 339 339 339 341 340 340 339 339 337 341 341 339 339 340 338 339 340 338 335 335 335 333 332 332 332 332 333 335 336 331 333 335 334 334 337 335 340 340 338
337 336 338 340 340 340 340 342 340 339 341 340 343 342 342 341 343 342 342 342 343 342 341 340 339 339 340 340 339 338 342 336 338 338 338 337 336 336 337 336 335 334 331 332 332 334 335 333 334 333 335 335 335 335 337 336 335 336 336 337 337 337
334 332 335 336 339 335 337 338 338 340 338 343 344 343 341 342 341 341 342 341 342 343 341 340 340 339 340 340 340 338 338 333 337 338 336 337 337 337 336 335 333 332 333 330 332 331 334 335 336 338 338 339 340 337 339 336 335 335 337 338 338 341
336 337 337 337 334 336 337 339 339 342 342 340 340 338 338 338 339 338 339 339 341 341 341 342 341 339 338 341 339 338 336 335 335 334 336 336 336 337 336 335 333 333 333 332 332 331 333 333 335 335 338 339 340 339 338 337 336 336 336 336 337 337
336 336 334 334 335 336 341 343 344 343 341 340 339 337 337 336 336 338 338 340 340 340 339 341 340 339 340 339 340 340 338 334 335 335 334 333 328 331 332 333 332 332 333 332 333 335 335 334 334 334 335 337 339 339 337 337 337 338 337 338 337 337
337 336 334 333 331 333 339 340 337 337 335 334 335 335 337 335 339 338 338 339 339 340 339 340 340 341 340 339 340 338 337 335 335 336 334 332 330 331 330 331 332 332 331 333 332 335 336 333 333 333 333 335 336 338 335 335 337 337 336 337 338 337
337 336 333 328 329 335 338 335 335 333 331 333 333 335 335 336 337 336 337 336 338 337 338 339 339 341 342 340 339 340 337 335 334 334 334 333 332 331 333 336 336 333 332 329 332 334 335 339 332 330 333 333 334 335 333 334 335 334 335 336 336 337
337 336 334 332 334 339 336 333 333 333 331 329 330 331 330 332 333 336 336 337 337 337 338 338 339 341 342 341 338 335 337 337 337 337 338 338 337 335 334 334 335 333 334 331 331 334 333 331 327 325 326 325 327 331 332 332 331 331 332 334 335 335
338 335 333 332 335 337 337 338 337 334 332 331 334 334 331 332 333 332 337 336 338 338 336 336 338 339 339 340 341 339 337 337 337 337 337 337 335 332 331 333 334 333 331 332 331 334 336 333 325 327 327 324 321 319 325 329 329 330 332 333 334 332
336 332 330 330 334 341 340 340 339 337 336 334 332 333 335 334 331 331 333 335 336 337 336 335 333 333 336 338 340 340 338 337 336 336 333 332 332 331 332 332 333 333 330 328 328 330 335 333 330 329 319 319 320 322 317 322 325 329 332 330 331 329
334 331 329 329 333 340 340 339 337 338 337 333 333 331 330 328 329 328 329 332 333 335 334 333 334 333 332 334 334 336 337 338 338 339 336 333 332 331 333 333 333 332 333 332 328 331 334 337 335 334 328 319 317 316 316 320 323 323 331 329 329 329
335 333 330 329 334 338 338 337 334 331 328 329 328 330 326 324 325 327 324 330 332 334 333 333 333 332 331 332 333 332 334 332 336 337 336 335 334 334 335 335 336 336 331 335 331 329 329 334 334 332 333 333 329 321 319 321 321 317 326 331 327 326
334 331 331 330 337 337 336 334 334 331 331 330 329 329 330 331 328 324 326 328 330 334 332 332 332 332 333 333 334 334 333 332 331 332 333 335 334 334 333 333 335 334 335 335 334 329 328 329 333 333 331 331 331 329 329 323 320 320 316 322 323 322
333 331 330 333 339 339 335 334 334 332 331 330 329 328 331 330 329 327 326 327 329 331 332 331 330 331 332 332 332 332 333 333 330 329 328 328 330 333 335 334 335 336 335 336 335 331 329 332 326 328 333 329 329 331 330 329 326 324 318 314 315 320
331 330 331 336 338 338 335 335 334 332 330 330 329 330 329 328 327 328 328 328 329 328 331 332 331 329 332 330 330 331 332 331 331 330 328 329 333 335 335 335 334 334 335 334 335 334 332 330 331 329 329 328 329 329 329 327 328 325 321 313 313 315
327 328 331 336 339 337 337 337 335 333 330 328 330 329 328 327 326 327 327 328 328 328 326 327 329 330 330 330 330 331 331 331 331 330 329 331 333 335 336 336 336 335 336 334 335 332 331 330 330 330 330 329 326 328 325 325 325 323 323 319 314 314
324 328 331 337 333 337 335 336 333 332 330 330 329 329 327 327 325 327 326 327 328 328 329 328 328 330 330 329 329 330 332 331 331 331 329 328 329 328 331 334 336 336 336 335 333 332 329 329 330 330 331 331 330 326 326 324 324 325 323 318 316 316
327 327 328 329 328 331 334 334 333 333 331 331 330 328 327 326 325 325 326 326 325 326 327 326 328 328 329 329 328 330 331 331 329 330 329 329 329 328 328 329 331 333 333 335 335 332 329 329 329 329 330 328 329 328 328 326 326 327 323 322 319 317
323 326 328 327 325 322 328 332 332 331 331 332 331 329 327 326 326 324 324 324 323 324 323 324 326 327 327 327 326 328 329 329 329 330 330 327 327 328 328 327 329 331 333 332 333 333 332 332 331 330 330 330 327 327 325 327 330 325 325 323 320 315
325 328 328 326 325 325 324 331 334 331 332 332 331 330 327 326 326 325 325 324 325 323 324 326 326 325 325 326 328 329 330 329 330 329 328 327 328 328 328 325 327 328 328 330 333 332 333 332 331 328 328 325 325 324 324 325 325 324 322 321 317 316
326 329 329 329 327 325 327 334 330 331 332 333 330 329 326 327 327 325 325 325 325 324 324 326 326 326 326 327 328 328 328 328 327 327 326 325 325 327 327 325 325 327 326 327 327 327 328 327 325 324 325 323 322 320 319 318 318 321 321 321 319 318
328 329 330 329 329 331 334 333 330 332 332 333 331 330 327 326 327 327 327 325 325 325 325 325 325 324 325 327 327 326 326 325 325 326 325 325 325 325 325 323 322 323 322 322 324 325 325 324 323 322 320 319 318 315 317 316 317 317 316 319 319 317
328 329 328 329 329 331 332 332 332 332 333 332 330 328 326 327 326 327 327 325 324 324 327 325 323 325 325 325 325 323 322 322 323 324 325 325 325 325 324 322 322 322 322 323 322 321 321 321 321 320 319 319 317 317 317 319 317 317 318 318 317 317

ECMWFFLT2_sfc_thetae_030.txt.gz
Theta_e
344 346 347 344 343 345 346 348 348 348 348 349 349 349 349 348 347 347 347 343 338 338 343 346 346 345 346 344 346 345 344 345 344 343 342 341 341 341 340 340 341 340 341 341 340 340 340 339 340 341 341 344 346 342 342 344 333 336 336 336 337 337
343 344 345 343 341 340 341 345 347 346 346 347 347 348 347 346 346 342 340 337 337 341 338 342 348 346 345 345 344 344 344 344 343 343 341 341 340 339 339 338 339 339 339 339 339 337 338 339 339 339 342 344 343 342 341 343 340 335 336 336 337 340
342 345 345 340 340 340 340 343 345 345 345 345 345 344 344 343 342 339 338 340 341 340 341 342 345 344 344 345 344 344 344 344 343 343 342 341 340 339 338 338 338 338 338 339 338 335 332 333 336 341 342 341 342 342 341 341 336 335 334 336 337 343
344 343 342 339 339 339 341 343 344 344 345 344 344 343 340 340 340 338 338 340 339 339 341 340 345 342 343 344 344 344 344 344 343 343 342 341 341 340 340 339 339 340 339 336 333 333 332 330 334 335 338 340 341 341 343 338 334 335 335 339 338 343
342 345 342 339 339 339 339 342 343 344 344 344 341 342 341 341 340 340 341 341 341 341 341 344 345 346 343 342 342 342 343 341 341 340 342 339 338 339 339 337 335 336 335 333 332 334 336 333 335 335 336 340 340 340 339 341 334 334 334 336 339 342
343 343 343 341 341 340 341 341 341 343 343 341 343 341 342 340 339 338 339 340 340 339 341 343 341 342 342 343 343 340 340 342 337 337 341 337 337 337 340 338 336 332 331 334 334 335 336 337 336 334 336 338 340 341 339 338 336 335 335 338 340 342
341 342 341 342 343 343 342 342 341 343 340 341 338 340 341 340 339 337 338 341 339 338 339 342 340 339 340 341 341 342 341 340 337 335 336 338 335 337 336 336 338 338 337 336 332 331 334 337 337 335 337 337 339 339 339 337 336 335 335 337 340 342
342 340 340 343 343 341 343 342 342 345 336 338 338 339 343 341 340 339 340 341 342 339 339 341 339 338 339 341 340 340 341 340 340 339 338 336 337 336 337 339 340 337 337 332 329 334 331 331 338 338 337 336 337 335 339 335 336 334 333 336 339 341
341 339 342 342 340 342 343 343 341 339 335 338 337 338 339 341 340 340 340 340 340 339 339 340 340 339 340 340 340 339 339 339 339 339 340 340 339 339 339 339 338 334 333 332 332 331 333 333 337 339 338 337 336 338 337 338 338 333 333 334 336 339
341 342 342 343 342 340 341 343 340 338 337 337 335 336 341 341 342 341 341 339 340 342 340 340 340 340 338 339 340 340 340 338 339 339 340 340 340 339 339 338 338 337 333 333 331 332 334 332 329 334 334 335 339 335 333 336 339 337 333 334 336 339
342 342 343 341 342 342 342 340 339 338 338 337 336 339 341 342 342 342 341 341 340 341 341 342 342 340 341 340 340 340 340 340 340 340 341 340 340 340 339 338 339 338 336 334 333 332 331 330 333 330 333 332 334 336 336 336 338 338 334 333 336 337
343 343 344 342 343 341 340 337 336 338 339 338 341 342 342 341 341 341 340 340 341 341 342 342 342 341 340 340 340 340 340 339 339 341 340 340 340 341 340 340 339 339 340 337 334 331 333 331 332 328 335 331 333 336 337 336 334 337 338 333 333 334
343 342 340 340 341 342 343 339 336 337 340 341 343 343 341 339 338 338 340 341 341 341 342 341 341 340 339 340 339 338 338 341 341 342 341 341 342 341 341 340 340 341 338 336 335 332 333 333 330 332 334 330 329 332 335 333 334 336 336 335 333 334
341 340 339 339 339 339 342 343 341 340 342 343 342 341 340 340 340 341 341 341 342 342 340 341 341 340 336 333 334 336 336 340 341 341 340 341 341 340 340 340 338 339 337 336 335 334 331 331 332 331 335 329 334 333 333 334 332 334 336 336 339 337
340 340 340 338 338 338 340 340 341 343 344 344 341 341 340 342 341 341 341 342 341 342 341 341 340 340 335 336 334 336 338 340 340 340 339 339 340 339 338 339 337 336 336 334 335 334 331 330 333 330 332 333 331 332 335 333 336 333 335 334 335 337
340 340 341 341 340 342 342 341 341 342 341 340 341 337 340 343 342 345 343 341 342 341 341 339 339 339 340 334 334 337 338 337 339 338 339 338 338 336 337 337 336 335 333 333 332 331 332 330 329 330 332 332 333 335 333 332 334 334 336 335 335 335
338 340 341 340 339 340 341 339 339 339 337 338 340 340 339 344 342 341 343 340 342 341 341 340 340 339 339 338 335 335 336 337 339 337 337 337 337 337 336 335 334 334 333 331 333 333 332 330 330 331 332 332 334 336 335 333 333 335 338 334 334 336
338 339 339 339 338 339 339 338 336 337 334 336 334 338 342 341 341 342 342 339 341 342 342 340 339 339 337 336 335 335 336 337 338 337 337 337 336 337 337 337 334 334 334 333 331 330 330 331 333 331 330 331 333 335 335 334 333 337 335 334 334 333
339 338 338 338 338 338 337 335 335 334 334 335 335 337 340 342 340 340 340 341 340 340 339 339 339 340 335 334 334 335 336 336 336 336 336 334 332 335 334 334 333 333 334 333 332 332 331 329 329 330 329 331 332 332 334 336 336 334 334 333 333 334
338 337 336 336 336 335 334 333 331 332 332 334 336 337 340 338 339 339 340 339 338 341 338 340 339 339 338 336 335 334 335 335 336 334 332 331 330 331 331 332 333 333 332 332 333 331 331 329 329 327 328 328 330 331 333 333 335 334 334 334 332 332
336 336 334 333 334 334 332 332 332 331 332 333 331 337 337 336 339 338 338 336 337 338 339 338 339 339 339 337 336 335 336 334 336 335 334 333 333 332 332 334 334 333 332 330 330 331 332 332 327 325 326 327 328 332 332 333 334 332 332 333 333 333
336 336 336 336 334 336 336 333 333 331 333 331 331 334 334 334 335 338 338 340 343 338 338 339 339 338 337 335 335 334 334 333 333 335 334 333 334 334 333 334 334 332 334 332 331 333 333 331 324 321 321 320 323 328 331 332 330 330 332 332 331 331
337 336 337 338 337 338 341 342 344 339 332 330 333 334 329 330 334 333 342 340 342 341 338 336 338 338 336 337 336 336 333 333 333 335 333 332 333 334 335 334 334 332 331 332 331 331 330 332 323 326 326 321 318 318 324 328 331 329 330 329 333 332
337 337 336 337 337 338 340 338 337 340 337 338 331 333 334 336 334 333 334 338 341 343 342 336 335 334 336 337 334 337 335 335 333 335 336 333 333 332 332 333 333 333 331 327 328 329 332 331 328 324 318 319 319 320 315 317 323 327 331 328 331 331
336 336 336 336 335 336 335 335 335 334 331 331 334 333 332 329 332 333 333 336 337 339 338 334 336 336 334 335 334 334 336 334 337 337 336 335 333 332 333 333 334 333 330 328 325 326 326 330 330 332 325 318 316 315 316 319 321 322 329 328 330 329
335 335 335 334 334 333 330 327 328 329 329 329 329 331 330 326 327 328 328 334 333 337 335 340 338 333 333 335 335 336 336 335 334 337 335 336 334 333 332 332 333 332 330 331 328 326 325 329 332 333 333 331 327 318 317 319 319 313 325 328 327 329
334 334 333 333 332 332 329 326 328 333 333 331 329 333 332 335 332 326 332 336 334 338 332 337 337 335 337 338 338 337 336 335 333 333 334 335 334 333 332 332 334 332 331 331 329 326 325 326 329 332 333 331 330 328 325 320 316 317 313 320 324 319
331 331 331 332 331 330 327 326 327 333 332 331 334 330 334 332 333 332 332 331 334 339 333 331 338 334 334 336 337 337 337 337 334 330 330 331 334 336 338 333 334 334 333 331 331 327 324 326 325 326 330 329 329 328 328 328 324 321 314 311 312 318
329 329 330 331 332 331 328 327 325 325 332 330 330 332 329 328 330 333 332 332 335 330 332 335 330 334 336 335 334 335 336 335 332 334 329 330 334 335 336 336 333 333 336 333 332 329 328 327 326 325 326 324 327 327 327 328 328 326 319 312 311 313
328 329 331 332 332 330 327 327 326 324 329 329 330 329 328 328 329 333 333 334 332 331 329 334 337 335 335 331 334 336 332 335 334 329 329 331 333 335 336 334 335 334 335 332 334 329 328 327 327 328 327 326 323 323 322 322 324 323 321 321 313 312
328 329 330 330 329 326 326 326 326 324 329 329 331 330 326 326 328 331 329 330 332 331 331 330 333 335 333 331 333 333 334 333 332 333 331 329 331 329 332 334 335 336 333 332 331 330 329 328 327 327 327 326 323 322 320 318 320 321 320 318 313 313
328 329 330 329 328 326 325 326 327 326 330 332 332 328 327 326 327 327 329 330 333 332 328 331 333 332 331 331 333 332 332 331 331 333 333 335 332 329 330 331 333 333 333 331 333 330 329 328 329 327 327 326 325 324 324 322 323 324 321 321 317 313
326 329 328 328 327 326 325 326 327 328 332 331 331 330 330 329 329 329 330 330 328 328 328 328 330 328 329 331 331 334 331 331 330 329 330 330 329 328 329 329 329 330 330 329 330 330 329 329 328 328 326 327 326 326 326 327 325 324 324 322 320 313
326 328 328 328 327 326 326 326 327 331 331 331 331 330 331 330 331 330 332 331 331 329 329 329 328 329 329 331 329 327 329 330 330 329 329 327 329 328 329 325 326 327 328 330 330 330 330 330 330 329 328 326 326 326 324 326 325 323 322 321 317 314
327 328 328 327 326 326 326 327 329 331 330 333 330 330 329 331 332 332 333 331 333 330 329 328 327 329 330 330 331 331 330 328 325 327 328 328 330 327 326 324 325 327 327 327 328 328 328 327 326 325 325 325 323 321 323 324 323 322 322 321 321 316
328 328 327 326 327 327 328 330 333 330 330 331 330 330 329 330 333 336 333 334 331 332 328 326 326 328 330 331 328 326 325 326 328 328 328 328 328 324 326 325 323 325 323 327 326 324 321 322 322 323 322 321 317 316 317 319 317 316 318 323 320 318
329 329 329 329 329 330 331 332 330 332 332 331 329 329 327 330 331 334 335 332 333 329 327 326 326 329 328 329 328 325 323 324 326 327 326 326 326 326 324 323 322 321 319 320 319 318 320 319 319 319 318 318 316 316 317 318 318 319 320 320 321 325

ECMWFFLT2_sfc_thetae_033.txt.gz
Theta_e
344 343 343 344 345 346 348 350 348 349 348 348 347 347 346 345 344 344 343 344 343 341 344 345 345 345 346 345 345 345 345 344 344 343 343 342 342 341 341 341 342 340 342 341 341 341 341 340 340 340 342 343 346 340 339 334 333 335 334 335 336 336
342 342 341 342 342 343 345 345 343 344 345 344 345 346 344 341 344 339 341 339 338 341 339 343 344 347 344 345 344 345 344 344 343 343 342 342 341 341 341 341 340 339 340 339 341 334 336 341 340 340 341 343 340 336 337 334 333 334 334 334 336 339
341 340 339 340 340 341 341 340 340 342 344 345 345 345 342 341 337 336 337 337 339 338 339 343 344 345 345 345 344 344 344 344 343 342 342 341 341 340 339 338 339 338 338 338 334 332 331 330 333 340 341 338 335 336 336 333 333 333 334 336 336 342
341 339 337 337 337 337 339 338 339 340 340 340 340 340 338 337 336 335 337 336 336 338 339 339 347 347 347 343 342 344 344 344 343 343 342 341 340 340 339 339 339 339 341 339 330 329 330 328 329 330 331 333 334 336 336 332 333 334 335 340 338 343
341 338 337 337 337 337 338 337 337 336 334 336 339 338 337 335 334 335 337 338 338 338 337 339 341 341 340 341 340 339 340 339 339 338 342 336 334 336 336 333 332 335 332 331 330 328 329 328 329 330 331 333 335 336 334 333 334 334 335 337 339 343
341 338 337 336 336 339 338 338 335 334 334 334 337 338 337 336 336 336 338 339 339 337 337 339 338 338 338 338 338 338 337 337 335 335 340 334 333 332 332 335 334 332 329 330 329 329 330 332 330 329 330 331 335 334 332 332 333 335 336 337 340 343
339 338 337 338 338 337 337 339 337 335 333 335 337 337 337 336 335 336 337 339 336 336 337 336 335 335 336 337 336 336 334 335 333 332 335 333 332 333 333 333 332 334 334 333 332 332 331 331 331 331 331 333 331 330 333 332 333 335 335 336 340 342
339 338 337 339 338 337 337 336 337 339 336 338 337 337 336 336 336 335 339 339 338 336 337 335 334 334 335 335 334 336 336 335 334 333 334 332 332 332 332 332 333 335 332 330 330 330 328 329 332 331 332 329 327 331 332 335 333 334 335 336 338 341
339 337 338 339 337 334 334 335 335 334 334 340 334 335 337 337 336 337 338 338 337 334 335 334 333 333 333 333 333 333 333 332 332 332 334 332 333 332 331 333 332 331 330 330 330 329 330 328 330 332 330 330 331 331 334 334 333 334 335 335 336 339
337 338 339 339 336 334 333 333 333 332 333 337 333 334 337 337 337 337 336 336 338 335 333 334 334 334 333 333 333 332 332 331 333 331 332 331 333 332 332 332 333 332 334 332 331 330 329 328 328 329 331 330 331 330 330 331 335 333 334 335 336 338
338 340 339 336 335 335 334 333 334 333 335 334 333 335 338 338 338 338 336 335 337 337 336 336 334 334 334 333 332 333 332 331 332 332 332 332 333 332 331 331 331 331 332 332 331 330 331 328 328 330 332 331 331 331 329 331 335 335 335 335 335 335
338 339 336 336 337 336 335 335 335 335 334 333 334 336 337 338 339 336 337 335 335 337 337 336 335 334 334 334 333 332 333 332 332 334 334 332 332 333 332 333 334 334 332 332 330 331 330 329 328 328 330 333 334 333 333 334 335 334 333 334 334 335
339 338 337 337 336 335 335 335 334 334 336 336 336 338 336 335 335 335 334 335 335 337 335 335 333 334 336 333 333 331 331 333 334 333 335 334 334 333 334 334 333 334 333 332 332 329 330 329 327 329 330 332 333 335 336 333 333 335 335 333 333 333
339 338 338 337 336 335 334 334 334 334 338 337 338 336 335 334 335 336 336 336 336 337 336 334 333 331 331 329 329 329 329 332 333 334 333 332 332 332 332 332 332 333 334 331 329 328 328 327 328 329 331 332 332 333 333 334 333 333 334 332 332 331
336 336 337 337 337 334 333 333 333 334 337 337 337 335 335 335 336 337 337 337 337 337 337 336 335 331 330 328 328 329 329 331 334 333 332 332 332 331 333 333 331 332 331 330 329 329 327 327 328 329 330 331 332 334 333 332 335 332 334 334 333 333
335 333 333 336 335 336 335 334 336 340 337 337 336 336 336 337 337 338 337 337 337 337 337 336 335 332 329 329 328 328 330 330 332 333 332 331 332 331 332 331 331 330 328 329 329 327 327 326 327 328 330 331 331 332 330 330 333 333 333 333 331 331
334 334 335 335 336 335 335 335 335 335 335 336 335 335 337 339 338 337 336 336 336 337 336 334 333 334 331 330 330 330 329 330 332 331 330 330 330 331 330 331 329 329 329 327 328 328 326 327 327 328 329 329 331 331 330 330 331 332 333 331 330 331
336 336 336 335 334 332 332 333 331 331 335 334 334 335 336 338 336 335 336 336 336 336 336 334 332 333 331 331 331 330 329 330 330 330 329 329 327 328 329 330 329 328 328 327 326 326 326 327 329 328 328 329 329 330 330 332 331 334 332 332 331 331
335 334 333 333 332 331 331 330 329 330 331 331 332 333 335 335 335 334 334 336 337 336 336 335 334 333 330 330 329 329 328 329 330 330 330 327 325 328 327 327 329 328 328 328 327 326 325 326 328 328 328 329 329 329 331 332 330 330 331 331 331 333
333 333 332 331 330 328 328 328 328 328 330 330 330 332 334 332 332 332 335 336 336 335 335 333 334 332 331 329 328 328 329 330 329 329 327 325 324 328 327 325 328 328 328 328 326 325 325 326 326 326 326 326 329 328 330 330 330 330 329 330 331 330
331 331 331 329 327 326 326 326 326 327 327 329 329 329 330 330 330 332 334 334 335 335 335 335 336 334 332 335 330 328 329 329 329 329 326 324 324 326 326 326 327 326 327 325 324 326 326 326 323 321 323 323 324 327 327 328 328 329 330 330 329 330
331 330 330 329 328 327 327 327 326 326 326 326 327 326 325 328 329 332 333 333 333 334 334 334 335 334 333 331 329 329 329 328 327 328 328 327 326 328 326 326 327 325 326 325 324 327 327 322 318 318 317 316 319 322 327 326 327 328 329 329 329 329
331 331 331 331 330 331 330 330 329 326 325 324 326 325 325 327 330 331 331 332 332 333 334 333 335 334 332 331 329 328 328 327 328 330 327 326 327 327 326 327 327 325 324 325 324 327 326 323 318 321 319 317 313 313 319 322 325 326 328 326 327 328
332 332 332 332 331 329 327 326 325 329 327 325 322 325 326 326 327 329 329 332 332 332 332 333 334 333 334 333 331 330 329 328 328 329 327 326 326 327 325 325 326 325 326 323 322 323 326 325 322 321 314 313 313 313 312 315 318 323 327 328 327 327
332 331 331 331 329 327 326 324 325 325 326 324 323 322 322 322 325 328 328 326 326 328 329 332 333 333 333 331 330 330 330 330 329 329 330 328 327 326 326 325 325 325 322 322 319 320 322 326 324 325 319 315 311 311 310 315 318 319 324 324 327 327
332 330 329 328 327 325 324 323 323 321 319 319 318 319 319 319 321 323 325 326 328 328 329 327 330 333 333 331 329 329 329 329 330 331 330 329 329 328 328 327 326 326 324 323 321 320 319 323 324 327 325 320 317 311 314 317 313 309 320 322 323 328
331 329 329 328 327 326 324 324 324 321 321 319 319 323 321 321 322 324 326 325 325 325 327 326 327 327 328 330 329 329 329 329 329 329 332 330 328 328 330 331 329 327 326 325 323 319 320 320 323 324 326 326 325 322 320 316 310 313 309 312 316 319
329 329 328 327 327 326 324 322 321 321 323 323 323 321 322 320 322 324 324 325 325 323 323 325 325 325 326 327 327 328 330 329 328 329 329 329 328 329 329 331 330 329 327 326 324 322 320 321 321 319 324 324 323 324 322 321 317 312 310 307 308 313
328 327 326 327 326 325 325 323 323 322 322 323 324 322 321 321 320 322 321 322 323 322 322 323 322 324 324 326 325 325 325 324 324 329 330 328 327 330 330 327 326 326 325 325 325 323 321 321 322 321 320 318 322 321 322 323 321 316 310 308 307 309
326 326 326 326 326 325 325 324 323 323 323 322 322 320 320 319 319 319 321 322 321 320 320 322 323 323 322 325 326 325 325 324 323 326 327 327 328 329 329 328 328 328 327 324 324 324 323 322 323 323 322 320 317 316 317 318 317 316 315 313 309 309
325 326 326 326 325 324 324 324 323 323 323 323 320 319 318 317 319 320 319 320 319 319 321 321 323 322 322 324 324 325 323 323 323 325 325 325 325 327 327 328 329 328 327 325 324 324 324 324 322 321 321 320 319 319 316 313 316 316 313 311 311 311
323 325 326 325 324 324 324 324 324 324 324 324 321 319 317 317 318 318 318 319 320 320 319 321 320 318 318 322 323 322 323 322 322 323 322 323 323 324 325 327 328 327 327 325 324 324 323 322 322 321 320 320 320 319 317 317 318 318 314 313 312 310
322 322 324 324 323 323 323 323 324 324 325 324 321 320 319 318 319 319 319 320 319 318 319 321 319 319 318 321 321 320 322 320 319 319 320 322 322 323 323 323 325 325 325 324 323 324 323 322 322 321 320 321 321 320 319 320 321 319 318 317 314 311
322 323 323 323 323 322 322 323 324 324 326 323 321 321 321 319 320 319 320 318 319 318 319 320 317 316 318 320 321 322 321 320 319 319 320 320 321 321 322 323 324 324 324 324 324 324 324 323 322 321 322 321 321 321 321 322 321 321 320 317 312 309
323 322 321 321 320 320 320 322 323 325 325 324 322 322 322 322 321 319 320 318 320 320 320 319 319 320 321 320 321 321 318 317 317 316 317 319 320 319 319 321 321 321 322 322 323 322 323 323 324 323 320 320 321 320 320 322 320 319 320 318 315 310
323 323 321 320 320 319 320 321 323 324 324 323 323 322 322 322 322 320 319 321 321 320 319 317 318 319 321 319 318 318 318 318 318 318 319 319 317 318 317 317 318 318 319 323 316 315 316 317 317 319 318 317 318 318 320 321 321 318 318 319 318 311
323 322 322 320 320 321 321 321 323 323 324 322 322 321 320 321 321 321 322 320 319 318 318 318 320 319 319 319 318 317 316 316 316 317 317 317 317 316 315 314 313 313 313 314 314 312 311 312 311 311 310 311 311 312 314 316 316 315 316 316 317 311

ECMWFFLT2_sfc_thetae_036.txt.gz
Theta_e
345 346 345 345 345 345 348 350 349 349 349 349 348 348 347 349 348 348 347 348 346 344 342 344 345 344 347 345 346 346 345 345 344 344 343 343 343 343 342 342 341 341 341 340 340 341 341 341 341 341 342 343 342 334 330 331 331 333 333 334 335 334
344 344 344 345 344 344 346 347 344 345 346 346 347 348 345 343 347 341 346 343 338 344 339 339 343 347 344 346 345 345 345 344 344 344 343 342 342 341 341 341 341 340 340 339 339 330 333 338 339 340 342 342 335 333 331 331 331 332 333 332 335 338
342 342 342 342 342 341 340 340 341 341 344 346 346 344 340 341 335 336 335 336 338 336 336 339 341 344 344 345 344 345 345 344 343 343 342 341 341 340 339 339 339 338 338 338 330 327 328 327 327 337 338 333 333 332 330 331 331 332 332 334 333 341
341 340 340 340 340 337 337 338 339 339 339 340 340 340 337 335 334 334 334 334 334 336 335 337 347 347 346 343 342 344 344 344 343 341 341 342 342 340 340 340 339 339 336 333 325 327 328 326 325 325 328 331 332 331 330 331 331 332 333 338 336 342
339 339 340 340 338 336 336 336 335 335 336 337 336 334 334 333 334 334 334 334 336 336 335 337 339 340 339 340 337 338 339 338 337 337 340 332 331 332 333 331 330 331 326 328 327 326 326 327 327 327 329 331 333 331 331 332 332 333 334 335 337 342
338 338 339 338 337 339 336 334 333 333 334 334 334 333 333 333 334 334 334 336 336 334 335 335 336 336 336 336 335 336 335 335 334 334 336 331 331 330 328 330 331 331 331 329 328 328 327 330 328 328 329 329 331 330 330 330 331 332 334 335 338 343
336 337 338 338 337 336 335 334 333 332 332 332 332 333 333 332 333 333 335 336 334 333 333 333 333 333 333 333 333 333 332 332 330 330 333 330 329 330 331 330 329 330 329 329 329 329 328 328 328 328 328 328 329 331 331 331 331 332 333 335 340 342
336 337 337 337 335 335 335 333 333 337 332 336 334 333 332 331 333 335 336 336 337 334 333 332 332 332 331 331 332 332 332 330 329 329 331 330 328 328 328 329 331 330 329 329 329 328 327 327 329 329 328 328 329 330 331 331 332 331 331 332 336 341
336 337 336 335 334 335 334 333 334 332 331 340 331 331 333 332 333 335 335 336 337 333 333 332 332 332 330 332 331 331 331 330 330 330 330 329 329 328 326 329 329 331 329 328 328 327 327 329 328 328 327 328 329 329 331 331 332 332 331 331 334 338
336 337 336 335 333 333 332 332 331 331 333 337 331 332 333 333 332 334 333 334 335 333 332 331 330 330 331 330 330 330 330 329 329 329 330 330 329 328 326 327 327 329 330 328 327 328 326 328 328 327 327 327 328 329 329 331 331 332 332 332 333 337
337 338 336 334 333 332 332 331 331 331 334 333 331 335 333 333 333 333 333 334 335 335 333 332 330 329 330 331 330 330 329 330 329 328 329 329 331 332 328 328 329 329 328 328 327 327 326 327 329 329 328 327 328 328 330 332 332 333 333 333 333 334
337 337 336 334 334 332 331 332 331 332 332 332 333 332 334 334 337 333 333 333 334 333 335 331 331 331 331 331 330 330 330 330 331 330 331 330 331 331 330 330 332 330 328 328 327 326 327 327 327 329 329 330 330 329 330 331 332 332 333 332 332 332
337 336 334 334 333 332 332 333 331 331 332 333 333 334 333 333 333 333 333 333 333 333 333 333 330 333 334 331 331 329 329 331 332 332 332 331 333 331 332 331 330 330 328 328 327 326 328 327 326 327 328 330 331 331 332 332 332 332 332 332 332 331
336 334 334 334 333 332 332 332 332 332 335 333 333 332 333 332 334 333 333 333 333 333 333 331 332 331 330 328 327 328 327 329 331 332 331 331 331 328 330 330 329 329 331 326 325 324 325 326 327 327 327 328 330 330 330 331 331 331 331 331 331 330
336 334 335 334 333 332 332 332 332 333 333 333 334 332 331 332 332 332 333 332 333 334 332 332 332 330 327 327 327 327 327 329 332 332 331 331 330 330 330 330 328 327 326 326 326 325 325 326 326 327 327 328 329 330 330 329 331 332 331 330 329 329
335 334 333 334 332 332 332 331 331 336 333 334 333 332 331 332 333 331 332 330 331 332 332 333 331 329 327 326 327 327 328 331 332 331 330 329 330 329 328 328 327 327 325 325 325 324 324 325 327 328 328 329 328 328 327 329 330 331 331 331 330 329
333 333 333 333 332 331 331 331 332 335 334 334 333 332 332 332 333 333 332 332 332 333 332 332 331 329 328 327 326 327 327 331 331 330 328 327 327 328 328 328 327 327 326 325 325 324 324 325 326 327 328 328 328 328 327 329 329 330 331 329 328 328
331 333 333 333 332 331 332 333 333 333 334 333 332 332 333 334 334 334 334 333 333 332 332 331 331 329 327 329 328 328 328 330 330 329 328 327 326 325 327 329 327 327 326 325 324 324 324 325 326 327 327 327 327 327 327 328 329 332 330 329 328 327
331 332 333 332 332 332 331 331 329 331 332 331 330 331 332 334 334 333 333 333 334 333 334 331 331 330 329 329 328 328 328 328 329 328 327 326 327 328 327 324 325 325 326 325 324 324 325 326 326 326 326 326 326 327 327 328 329 329 328 328 330 330
332 333 332 331 332 331 330 329 328 327 327 327 327 330 331 333 332 331 333 333 333 332 333 332 331 330 330 328 328 327 328 328 329 328 327 326 325 327 326 324 323 325 325 326 325 325 325 325 324 324 325 325 326 326 328 327 328 328 327 328 330 329
331 331 330 329 329 328 327 325 324 326 326 327 328 328 331 329 330 330 333 334 334 333 332 333 331 329 329 332 328 327 327 326 328 328 327 326 324 325 323 322 324 322 322 322 323 324 324 325 322 320 321 322 322 325 327 328 327 327 327 327 329 328
330 330 329 329 328 327 327 326 325 325 324 326 326 326 326 325 329 331 330 331 332 331 331 332 332 330 331 328 327 327 327 326 326 327 326 325 323 326 324 324 324 322 321 319 320 323 324 322 318 317 317 317 321 323 324 324 327 327 327 326 325 326
329 329 328 328 327 326 326 327 326 324 325 324 326 326 326 327 330 330 329 330 330 330 331 332 332 331 330 329 328 327 327 326 326 328 325 324 323 323 323 327 324 322 322 321 322 323 322 319 318 318 318 317 314 314 317 318 322 325 326 323 324 326
329 329 328 328 328 328 328 326 326 324 323 324 321 324 324 326 327 327 327 328 327 330 330 331 331 331 330 329 328 327 326 326 326 327 325 324 322 322 322 323 323 321 322 320 318 320 322 322 321 320 314 312 312 314 311 311 315 321 325 326 324 325
329 329 329 331 329 327 327 323 323 323 322 321 322 322 323 322 323 325 324 324 327 328 329 329 328 329 330 328 327 327 326 326 326 326 326 325 324 324 324 323 323 323 322 319 317 319 320 322 322 321 317 313 310 310 310 312 316 316 320 320 323 326
330 330 330 329 327 326 324 322 321 319 318 317 317 319 319 321 321 322 321 322 324 325 328 328 328 328 328 328 326 327 326 327 325 325 327 325 325 324 324 323 324 325 321 318 319 317 317 320 322 324 320 317 314 311 313 314 311 309 315 318 320 325
330 330 329 327 325 325 322 322 321 319 318 318 317 318 320 323 323 321 322 321 322 323 326 328 326 326 325 325 324 325 325 326 326 324 326 326 325 326 326 327 326 324 323 321 319 317 319 318 320 321 322 323 322 318 320 315 307 309 308 311 313 318
330 329 328 326 324 324 322 321 319 318 318 318 319 318 320 321 322 322 321 320 319 320 323 325 325 324 325 324 323 323 323 323 325 326 327 325 324 324 327 327 327 325 324 322 320 319 318 320 320 319 321 320 320 320 319 315 315 312 310 309 309 313
329 328 327 325 324 324 324 323 321 321 320 320 319 319 320 322 321 322 319 318 319 319 320 320 321 322 321 323 325 324 324 323 323 325 326 326 324 325 325 325 325 324 323 321 320 318 320 320 320 319 318 316 320 319 317 317 315 312 309 308 306 309
328 327 326 325 324 324 323 323 322 322 322 319 319 318 320 320 319 319 318 317 317 317 317 319 320 320 322 322 321 321 320 320 322 324 325 323 324 324 324 324 325 325 324 322 320 320 320 320 321 320 319 318 317 315 315 313 312 310 311 309 309 308
327 325 325 324 324 323 323 323 323 323 321 317 317 317 317 316 317 317 318 316 316 317 318 319 319 319 320 321 322 322 320 321 322 325 324 324 324 324 323 324 325 325 324 323 321 319 318 319 320 320 318 318 318 317 314 311 311 310 309 308 308 308
324 323 324 323 322 322 322 322 323 324 320 318 317 317 316 316 317 317 317 315 315 317 316 317 316 317 318 319 320 318 319 318 319 319 320 321 321 322 321 324 323 324 323 322 322 321 319 318 318 319 318 317 317 315 313 315 314 312 311 310 310 307
322 322 323 322 322 321 320 321 322 323 321 319 317 316 316 316 316 316 316 317 316 316 315 316 314 316 315 317 318 318 317 316 316 317 320 321 320 321 320 321 321 321 322 321 321 320 319 319 319 319 319 317 319 317 317 317 316 314 312 311 310 307
322 322 322 321 321 320 320 320 321 322 322 319 317 317 316 318 317 317 318 317 316 317 316 315 313 313 315 318 318 318 317 315 315 316 318 318 318 319 320 322 320 319 319 319 319 319 318 317 316 316 317 317 317 317 317 319 317 315 313 311 308 308
322 322 321 320 319 319 319 320 320 321 322 319 318 317 317 319 318 318 318 318 317 318 317 315 315 315 316 317 315 314 314 313 314 315 316 317 319 318 318 320 319 317 317 317 318 318 317 318 319 317 316 316 318 317 318 318 317 316 315 312 310 308
322 322 321 319 318 319 318 319 319 319 320 319 319 318 318 319 318 319 318 318 318 318 317 317 317 317 316 317 315 315 315 314 314 315 315 315 315 316 316 317 316 316 317 320 317 317 316 318 317 316 316 315 317 316 316 318 318 318 315 314 311 309
322 321 321 319 319 319 319 319 318 319 319 318 318 317 318 318 317 317 319 319 318 317 317 317 318 316 316 314 315 314 313 313 313 313 314 314 314 313 313 313 313 312 312 311 312 311 310 313 313 315 314 315 316 315 316 316 316 316 316 314 312 307

ECMWFFLT2_sfc_thetae_039.txt.gz
Theta_e
346 344 343 343 344 345 347 349 348 349 349 349 348 348 348 349 348 347 345 345 345 343 343 344 345 344 347 345 346 346 345 345 344 344 344 344 343 343 342 342 341 340 341 340 340 341 340 339 339 341 342 343 341 330 330 330 331 333 331 333 334 332
345 344 344 344 344 345 346 347 343 344 345 346 347 348 346 345 347 342 344 343 341 343 339 340 343 346 344 345 344 345 345 345 344 344 343 343 342 342 342 341 340 340 338 338 339 328 329 336 338 339 341 339 330 329 330 330 330 331 332 329 333 337
343 344 344 343 344 344 342 341 341 342 344 346 346 344 340 340 337 338 340 341 341 339 339 340 341 344 345 345 344 345 344 344 343 343 342 342 341 340 340 339 339 339 340 339 325 322 323 324 325 338 339 332 328 329 329 330 330 331 330 330 330 340
343 343 342 341 341 340 338 338 339 339 340 340 339 338 336 335 336 337 338 338 339 340 336 336 346 347 347 343 343 344 344 343 342 342 342 342 342 341 341 339 339 338 331 330 323 322 324 323 324 325 329 329 328 329 329 329 329 329 330 337 333 339
342 342 341 340 340 338 336 336 335 337 337 338 336 335 334 334 335 335 336 336 337 337 335 337 339 340 339 339 339 339 339 337 336 335 338 331 330 331 331 328 328 330 324 325 325 323 324 324 327 327 329 330 329 329 330 330 330 329 331 332 334 340
341 340 340 339 339 340 337 335 334 335 336 336 334 334 333 332 332 333 334 335 335 333 333 336 337 337 337 337 336 335 335 334 333 332 333 329 329 328 328 328 327 327 326 325 325 325 326 327 325 326 328 329 329 329 329 329 330 330 329 330 337 340
339 339 339 339 339 338 334 333 333 334 334 334 333 332 332 332 332 332 333 335 334 332 332 333 334 335 335 335 333 332 331 331 329 328 329 328 328 329 328 328 327 325 324 326 326 326 324 325 327 328 328 329 329 329 329 330 330 329 329 331 338 340
338 338 337 338 337 335 332 332 334 338 334 338 334 332 332 332 333 333 333 334 335 332 332 333 331 332 333 333 332 331 328 328 327 327 329 328 326 327 328 328 326 325 327 326 326 326 325 327 327 328 328 328 328 329 330 330 331 328 329 330 334 341
338 338 337 336 335 333 331 331 333 332 335 339 332 331 331 333 333 334 333 335 335 331 331 332 331 332 333 332 331 330 328 327 328 328 328 328 328 327 328 328 326 325 323 323 323 326 326 326 326 327 328 328 328 328 329 330 330 329 328 329 333 337
337 337 336 334 333 332 331 331 331 331 335 336 331 331 331 331 333 333 332 333 334 331 330 330 331 331 331 329 328 327 327 328 328 329 329 330 330 328 327 326 325 326 325 323 325 328 326 326 326 327 327 328 328 329 329 330 330 329 328 329 330 335
336 337 335 333 332 332 331 330 331 331 333 332 333 333 331 331 331 331 332 332 331 332 330 330 331 329 329 328 325 325 325 326 327 328 330 331 332 329 327 327 327 325 323 323 324 324 325 326 325 326 327 328 328 329 330 330 331 332 331 330 330 332
335 336 334 333 333 332 331 330 330 331 330 331 334 332 330 331 333 329 330 330 330 330 332 329 329 329 329 327 326 326 328 326 326 329 330 330 331 329 330 331 330 326 324 323 324 324 325 325 325 326 327 328 329 329 330 331 331 331 330 329 328 329
335 335 333 332 332 332 331 331 330 330 331 332 333 332 330 330 330 329 328 329 329 331 332 330 328 330 332 330 330 329 326 325 326 329 328 331 333 333 333 331 329 327 325 324 324 324 326 325 325 326 327 328 329 330 330 331 330 330 329 329 328 327
335 334 333 332 331 332 331 330 331 330 333 331 331 329 331 328 331 330 328 328 329 330 331 330 330 328 328 327 326 327 327 327 327 327 328 331 331 332 330 328 325 326 329 324 322 323 323 324 324 325 326 325 328 329 330 330 329 329 328 328 327 328
336 333 334 333 332 330 330 331 329 330 330 329 330 329 328 329 329 330 330 330 329 331 330 330 330 330 327 326 325 324 326 327 327 327 328 328 329 329 328 326 324 324 323 323 323 325 323 323 323 325 326 326 327 328 328 329 329 329 328 326 327 327
335 334 333 332 330 330 332 331 329 333 330 329 330 329 327 329 330 328 330 330 329 330 329 330 330 328 326 325 325 326 329 329 328 329 328 327 328 327 326 325 324 323 322 322 324 322 323 324 325 326 327 326 325 327 327 328 328 329 327 326 327 326
333 334 333 332 330 330 330 329 329 332 330 330 330 330 328 329 330 329 327 328 330 332 330 330 329 327 326 325 325 327 329 330 328 328 326 325 325 326 326 326 325 324 322 322 322 323 323 323 325 325 325 325 326 326 326 327 328 328 327 325 325 326
334 333 332 331 330 330 329 329 330 330 332 331 330 328 330 330 328 328 329 329 331 333 331 330 328 327 326 327 326 327 327 328 328 328 326 326 326 327 326 326 325 325 324 322 322 323 322 323 325 325 325 326 326 326 325 327 328 330 326 326 325 326
333 332 331 330 330 329 329 330 330 331 332 331 330 328 329 329 328 329 330 329 331 332 332 329 328 328 327 328 326 326 328 328 329 327 325 326 327 328 326 325 324 324 325 321 321 322 323 324 325 326 325 326 327 326 327 328 328 326 326 327 330 329
332 332 332 331 331 330 330 330 330 331 332 333 331 330 328 328 330 328 330 330 331 329 331 329 328 328 328 327 326 327 328 328 327 326 326 327 328 328 325 323 323 325 324 324 323 320 322 323 322 322 323 324 325 327 328 328 328 327 327 327 327 327
332 333 332 330 330 330 329 329 330 331 330 331 331 327 328 327 328 327 329 330 330 330 329 330 329 328 327 330 328 328 327 326 327 329 329 328 328 328 325 321 323 322 321 322 321 320 321 321 320 318 320 321 323 326 328 328 327 326 326 327 327 327
332 332 332 331 331 331 331 331 330 330 328 329 328 325 324 324 325 328 328 329 329 329 329 329 329 327 328 327 327 328 327 326 328 329 329 328 326 329 325 324 321 318 319 319 318 320 321 316 314 314 316 316 319 322 325 325 326 326 326 326 326 327
332 332 332 332 331 330 330 330 329 326 327 322 324 325 326 325 327 328 327 329 329 328 328 328 329 329 327 326 327 327 326 325 326 329 327 326 325 325 326 326 321 320 320 321 321 320 320 317 312 314 314 315 314 315 319 320 323 324 326 325 326 326
331 332 330 331 330 328 328 324 322 324 323 323 322 324 322 323 324 325 325 325 325 327 328 329 329 329 328 326 325 325 325 324 324 327 326 324 324 324 325 327 322 319 320 319 318 320 322 320 316 318 311 309 312 313 312 314 317 321 325 325 326 326
331 330 329 330 329 326 327 322 321 321 322 322 323 321 321 320 321 324 322 322 326 325 328 328 328 328 328 326 325 325 325 325 325 323 324 323 323 324 326 327 324 321 320 319 317 317 321 319 319 319 314 311 308 307 308 313 315 316 319 321 323 325
330 329 328 328 327 326 325 322 319 319 318 316 316 317 318 320 319 322 323 320 322 325 327 327 327 328 328 327 325 325 324 325 325 324 324 323 323 322 323 324 324 323 318 317 319 316 317 318 320 321 317 315 313 309 309 313 310 309 314 314 320 325
329 328 328 327 326 326 323 321 320 320 319 318 318 317 319 321 322 318 320 320 322 322 325 326 325 326 326 326 325 324 324 325 325 324 326 323 322 323 324 325 324 322 322 320 319 316 317 317 319 319 320 320 320 316 317 314 306 308 308 312 313 319
329 328 328 327 326 325 323 320 319 318 319 319 320 319 319 320 319 321 318 317 319 320 322 324 325 323 323 324 323 323 323 324 324 325 327 324 324 323 324 324 324 324 323 321 320 319 317 318 319 317 319 317 317 318 315 313 314 312 311 310 311 315
328 328 326 325 324 322 323 320 319 318 318 319 319 319 320 322 321 320 317 314 318 317 318 319 321 320 320 322 324 323 323 323 323 325 328 324 324 324 324 324 323 322 321 319 319 318 319 319 317 318 316 314 316 314 313 313 312 311 309 309 308 309
327 327 325 323 322 321 321 320 318 318 318 317 318 318 319 318 317 315 315 313 314 315 316 317 317 318 318 319 320 320 322 322 322 324 326 324 323 323 323 324 324 324 322 319 317 319 320 319 319 317 316 316 312 311 311 310 309 310 310 308 310 310
327 325 324 323 321 321 320 320 319 319 318 317 317 318 317 315 314 314 314 312 314 315 315 316 318 316 317 317 317 320 316 317 319 324 324 322 323 324 322 323 323 322 322 320 319 318 317 318 319 317 314 316 316 316 312 309 310 309 308 307 308 306
324 324 323 322 322 321 320 320 320 320 318 317 318 319 318 315 315 314 314 314 312 314 313 314 315 315 315 315 316 314 316 317 321 319 320 320 319 319 321 321 322 322 321 320 319 319 318 318 318 318 315 314 315 313 311 312 312 311 310 311 311 305
322 322 322 321 321 320 319 320 321 319 317 318 318 318 317 315 315 315 314 314 313 313 312 316 313 315 314 314 314 314 313 315 316 317 317 316 317 317 319 319 320 319 319 319 319 318 318 319 319 319 319 314 315 313 312 312 312 311 310 311 309 306
321 321 321 320 320 319 319 320 320 318 317 318 317 316 316 316 315 315 315 315 315 315 314 314 312 313 314 316 315 314 313 312 314 315 316 315 316 317 318 320 318 318 317 316 317 317 316 315 315 316 317 315 315 313 313 314 312 312 310 309 306 307
320 320 320 319 319 319 318 320 321 320 318 317 316 315 316 317 315 315 315 315 315 314 314 312 312 312 315 314 313 311 312 312 314 315 315 315 317 315 316 318 317 316 315 315 316 316 314 315 316 315 315 315 315 315 315 315 312 312 312 310 309 308
321 320 320 319 319 319 319 320 320 320 318 317 318 316 317 316 316 317 316 316 316 315 313 313 312 313 314 313 312 312 312 311 312 313 313 313 314 315 316 317 315 314 315 318 317 315 315 316 315 314 314 315 317 315 315 316 314 313 312 311 310 310
320 320 320 319 318 318 318 318 318 319 317 316 316 315 316 315 315 314 316 316 317 315 314 314 315 313 313 312 311 311 311 310 311 311 312 312 313 312 313 314 315 312 311 311 317 316 315 316 315 315 315 316 317 316 315 315 315 314 313 310 308 307

ECMWFFLT2_sfc_thetae_042.txt.gz
Theta_e
345 345 345 344 344 344 347 349 348 349 349 349 348 348 347 347 347 345 344 343 341 341 342 342 343 344 347 346 346 345 344 344 344 344 343 343 342 341 341 341 340 339 340 340 340 340 339 340 342 343 343 342 343 335 333 334 333 335 334 337 337 333
344 344 345 344 343 344 346 346 343 345 345 345 346 347 344 344 345 342 343 341 338 341 340 342 343 346 344 345 344 345 345 344 344 344 343 341 341 340 340 339 339 339 339 340 336 328 331 338 341 344 343 341 333 332 333 333 333 334 335 334 335 337
344 344 344 344 343 343 342 342 343 343 344 346 345 344 342 342 340 342 342 341 340 338 340 341 342 345 344 344 344 345 344 344 343 342 342 341 340 339 339 339 340 339 337 335 326 325 326 325 334 344 342 334 331 331 332 332 332 333 333 334 334 339
344 344 343 343 343 342 342 342 342 343 342 341 340 340 339 340 340 341 341 341 340 340 338 338 347 347 347 343 343 344 344 343 342 342 341 341 341 340 340 339 339 337 331 328 325 326 326 326 328 331 330 330 331 331 331 332 332 332 332 338 334 339
343 343 342 343 342 341 341 341 340 340 340 339 338 338 338 339 339 339 340 340 339 338 337 338 339 339 338 339 338 337 337 337 337 336 337 332 332 332 331 329 329 329 326 328 326 326 327 328 330 331 330 330 331 331 331 332 332 332 334 336 337 340
342 342 342 342 341 342 340 338 338 338 338 337 336 336 337 337 338 338 339 339 338 335 336 337 337 337 337 337 336 335 334 334 334 333 334 330 329 329 329 330 329 328 327 327 327 327 329 329 330 331 330 330 331 331 331 331 332 333 333 335 339 340
341 341 341 341 341 340 338 337 337 337 336 335 336 335 335 336 336 336 336 337 334 333 334 335 336 336 335 335 334 333 333 332 330 329 331 329 329 329 329 329 327 327 326 327 326 327 328 328 331 331 330 330 331 331 331 332 333 333 334 335 339 340
340 340 339 340 340 337 335 337 339 339 336 337 335 333 333 334 335 334 334 335 334 332 333 334 334 334 334 334 333 332 329 329 327 328 329 329 328 328 329 328 328 326 326 326 327 326 327 328 330 331 330 330 330 331 332 332 333 333 334 335 338 341
339 339 339 339 337 335 335 337 337 336 336 337 332 333 333 334 333 333 333 334 335 332 332 333 334 334 334 333 332 331 328 328 328 328 329 329 329 328 328 328 326 326 325 325 326 327 327 327 329 330 330 330 331 331 332 333 333 333 334 335 336 341
338 338 338 338 335 334 334 334 335 336 337 335 332 332 333 333 333 333 331 333 333 331 331 333 334 334 334 331 330 329 328 327 328 328 329 330 330 327 327 327 325 325 325 325 327 329 327 327 328 329 330 330 331 332 332 333 333 333 334 335 335 340
337 338 337 336 334 333 334 333 334 335 335 332 332 332 331 332 332 331 331 332 331 332 331 332 333 332 330 329 327 327 327 327 327 328 331 331 331 328 327 327 326 326 325 325 325 327 327 327 327 328 330 330 331 332 333 333 333 334 334 334 335 337
337 337 336 335 334 332 332 333 333 334 333 332 333 331 329 330 332 330 331 330 331 331 332 330 330 329 328 327 325 327 327 327 327 329 331 331 330 328 329 330 329 327 325 325 326 326 327 327 327 327 329 330 331 332 332 332 333 333 333 333 333 334
337 336 335 334 333 332 331 332 332 332 332 333 333 330 329 329 329 330 330 330 330 331 331 330 329 330 331 328 329 328 327 327 328 330 330 332 331 332 331 329 327 327 325 325 326 326 327 327 327 327 329 330 331 332 332 332 331 332 332 330 331 332
336 334 334 334 333 332 331 330 331 331 333 334 333 331 330 329 331 331 331 330 331 332 330 330 330 329 330 330 329 329 327 327 329 330 331 332 331 331 329 327 326 327 328 324 324 324 325 325 326 327 328 329 330 331 332 331 331 331 331 331 330 330
335 334 334 333 333 332 330 330 330 331 331 333 333 332 331 331 331 331 331 331 332 332 330 330 330 330 329 329 329 328 327 329 330 330 331 332 331 329 327 325 325 324 324 324 325 325 325 325 326 326 327 329 329 330 331 330 330 331 331 330 330 330
335 334 333 333 332 332 331 329 330 332 329 332 333 332 331 332 331 331 331 331 331 332 330 330 330 328 327 327 328 328 330 330 331 329 329 330 330 326 325 324 324 324 323 324 324 324 325 326 326 326 327 327 328 329 328 329 330 330 329 330 330 330
334 334 333 332 331 332 331 329 330 332 330 331 333 332 331 331 331 331 330 331 332 333 330 330 329 329 328 327 327 329 331 331 330 329 327 326 326 326 325 325 325 325 322 323 324 324 325 326 326 326 326 327 328 328 328 329 329 329 329 328 328 329
334 334 333 331 331 331 331 329 330 331 331 331 332 332 331 331 331 331 332 331 331 332 330 329 329 329 328 328 327 329 330 329 329 328 328 328 327 326 326 325 324 325 325 323 323 324 324 325 326 326 326 326 327 328 328 329 330 330 328 328 328 328
334 333 332 331 331 331 331 330 330 331 331 331 332 331 331 330 330 331 332 331 331 332 332 330 329 328 327 328 328 330 330 329 327 327 327 327 327 326 326 325 324 324 325 324 324 325 325 326 326 326 326 327 328 328 328 329 328 328 329 329 331 331
333 333 332 331 331 330 330 330 330 331 331 332 332 332 330 330 330 331 331 331 331 330 331 330 328 327 328 327 328 330 330 329 327 327 327 326 326 327 325 323 324 324 324 325 326 326 326 325 325 325 325 327 328 328 327 327 328 328 328 328 327 327
333 332 331 330 329 329 328 329 330 330 329 332 332 332 330 330 329 329 331 331 331 331 330 330 329 327 327 329 328 330 330 328 327 329 329 328 328 328 325 324 325 324 324 324 324 324 324 324 323 321 324 324 325 328 327 326 325 326 326 327 328 328
332 332 331 331 330 330 330 330 330 330 331 331 332 330 329 328 327 328 329 330 331 330 329 329 329 327 328 329 327 328 329 328 329 330 330 330 330 329 325 324 323 321 323 324 323 324 323 318 318 320 319 319 321 323 324 325 326 325 326 327 327 327
332 332 331 332 331 330 331 332 332 331 331 329 330 330 326 326 329 327 327 329 330 329 329 328 329 329 328 328 328 329 329 329 330 331 329 329 329 327 325 324 322 322 320 323 323 322 321 320 316 317 319 318 316 316 319 322 324 325 326 326 327 326
332 332 332 332 332 332 332 331 330 331 330 329 326 327 324 324 325 326 325 326 327 328 328 328 328 329 328 327 328 328 329 329 329 331 329 328 327 327 326 324 321 321 322 320 321 322 323 322 319 320 314 313 315 316 313 316 318 321 326 326 326 325
332 332 332 332 331 330 329 326 326 326 325 322 323 321 322 320 321 325 324 324 325 326 328 328 328 328 328 326 327 328 328 328 328 329 329 328 327 328 328 325 323 322 322 321 318 320 322 322 320 322 317 313 313 312 313 316 318 318 321 323 325 326
332 331 331 331 329 329 328 325 323 322 320 317 318 320 321 321 319 323 324 320 324 325 327 327 326 327 328 326 326 327 328 327 327 328 327 327 328 328 328 327 324 323 321 321 321 319 320 321 322 322 319 319 315 313 312 316 316 311 316 320 323 324
331 330 331 329 329 328 325 323 323 323 322 321 321 317 317 319 322 319 320 322 323 323 325 326 325 325 325 326 325 326 327 327 327 326 327 326 325 327 328 328 327 324 322 321 320 319 319 319 320 321 321 321 322 318 320 317 311 312 312 315 316 318
330 330 330 328 327 327 324 321 320 320 321 320 321 319 318 319 318 320 319 319 322 321 323 323 324 324 324 326 324 324 324 326 327 326 327 325 325 326 327 328 328 326 323 322 321 321 319 319 320 319 321 319 319 318 318 315 317 316 315 312 312 315
329 329 328 328 326 324 324 321 320 320 319 318 319 319 320 321 319 318 317 317 320 320 320 321 322 323 323 324 327 323 323 324 325 326 328 324 324 325 326 327 326 324 323 321 322 321 321 320 320 319 318 317 318 316 315 316 316 316 315 313 312 313
328 328 327 326 324 323 322 321 319 319 319 318 319 318 319 317 316 316 316 315 317 318 318 318 318 320 322 322 324 324 322 323 323 324 327 325 323 324 325 326 326 324 323 322 321 322 322 321 321 320 321 318 315 314 314 315 314 314 315 315 313 312
327 326 325 323 322 321 320 319 319 319 319 318 317 318 316 314 314 315 316 314 316 315 316 316 317 317 318 319 320 323 322 322 322 325 327 324 323 325 324 325 325 324 323 322 320 320 321 320 321 320 318 319 318 317 316 314 314 314 314 313 313 313
325 324 322 321 321 320 320 319 319 319 318 318 318 318 316 315 315 315 315 314 313 315 315 315 315 316 316 317 319 318 320 321 322 323 325 323 323 324 323 324 324 324 323 321 321 321 320 319 320 320 319 318 319 318 315 316 316 316 315 316 316 312
323 322 321 321 321 320 319 318 319 319 318 318 319 318 317 316 314 315 314 314 315 315 314 316 315 315 315 315 316 316 317 319 321 322 321 320 320 321 322 323 323 323 322 321 321 320 319 320 320 321 320 318 318 317 315 316 316 315 316 317 314 311
322 321 320 320 320 319 319 319 319 318 317 319 318 319 318 317 314 315 315 315 316 316 316 317 315 315 314 316 314 315 316 316 317 318 318 318 318 319 321 322 322 322 321 321 320 319 319 319 319 319 319 318 318 317 316 316 315 316 315 314 313 313
320 320 319 319 319 319 319 319 318 317 318 319 319 319 318 317 315 315 314 315 315 315 316 315 316 316 316 314 313 313 314 315 316 317 317 318 318 319 320 321 321 320 319 318 318 318 318 319 319 318 318 319 317 316 316 315 315 315 316 316 315 313
320 319 318 318 317 318 319 319 317 316 317 318 318 318 317 316 315 316 315 315 315 315 315 314 314 316 314 313 313 313 314 313 314 315 316 315 316 318 318 318 318 318 318 319 318 317 317 317 318 317 318 317 318 318 317 316 315 315 315 316 316 316
320 318 317 317 317 317 318 317 316 316 316 316 316 317 317 316 316 315 316 315 315 314 314 315 316 315 313 312 311 312 313 313 313 313 314 314 314 315 316 318 316 316 317 317 318 317 316 318 317 317 317 318 319 318 318 316 315 315 314 315 316 316

ECMWFFLT2_sfc_thetae_045.txt.gz
Theta_e
350 351 352 352 353 350 348 349 349 349 349 349 349 349 348 347 347 347 346 345 345 350 351 349 348 348 344 348 346 345 345 345 344 344 344 343 342 341 340 340 341 341 340 340 340 341 343 344 343 343 344 344 343 343 343 342 341 339 337 335 336 334
350 349 351 351 351 349 348 348 349 349 352 350 345 346 347 347 346 349 345 347 350 351 352 350 349 344 349 347 346 345 345 344 344 344 342 341 341 340 339 339 340 339 338 337 336 342 345 345 344 343 344 343 343 343 344 342 341 338 337 337 338 337
347 348 349 350 350 349 348 348 348 350 349 345 347 345 346 346 348 347 347 348 349 348 350 351 351 347 347 345 345 345 344 344 343 342 341 340 341 340 340 340 340 339 337 334 337 339 343 345 345 344 344 343 342 342 343 342 341 339 337 338 339 337
347 347 349 349 349 348 347 349 349 350 348 348 347 347 347 348 347 348 348 350 347 349 349 351 345 346 345 346 345 344 343 342 341 341 341 341 341 340 340 339 337 336 336 335 337 336 340 344 344 345 345 342 342 342 342 341 338 338 338 338 338 338
347 347 348 348 347 344 346 347 349 348 347 347 346 345 345 347 348 348 347 346 348 349 350 349 349 348 344 344 343 343 342 342 343 342 340 340 341 341 341 339 338 337 338 337 336 338 341 344 345 344 343 342 342 342 341 341 339 337 339 340 340 339
346 346 348 347 345 344 346 344 343 343 343 343 345 344 345 345 347 347 346 347 349 349 349 348 348 344 343 343 342 341 341 341 340 339 340 339 340 341 340 337 337 337 337 339 339 339 341 343 343 342 341 341 341 342 340 338 339 338 339 340 340 340
345 346 346 346 345 343 343 343 342 342 342 341 342 341 343 344 344 345 346 348 348 347 347 347 344 343 341 342 340 340 339 340 339 338 338 339 339 341 340 338 338 338 338 337 337 338 340 341 342 340 340 339 340 340 340 339 339 339 340 340 340 341
343 343 344 344 344 343 341 341 343 343 342 341 341 341 342 342 344 344 345 345 347 346 343 342 341 341 340 341 339 339 340 339 339 338 337 341 340 340 339 339 339 336 336 336 336 338 339 340 341 341 339 339 340 341 340 339 340 340 340 341 340 341
343 343 343 343 341 340 342 343 342 341 340 342 340 341 341 342 342 342 343 344 345 343 341 342 340 340 340 339 339 339 340 340 340 338 339 339 340 341 340 340 339 337 339 337 337 339 338 340 342 342 340 339 340 340 340 340 340 339 340 340 340 340
343 342 341 341 339 340 341 340 340 341 341 341 339 340 341 340 341 341 341 344 344 342 341 340 340 340 339 338 339 340 340 339 338 337 337 339 339 340 341 341 339 339 336 337 337 338 339 339 339 340 339 339 340 341 341 340 340 339 340 341 341 340
342 341 340 339 340 340 340 339 340 341 341 339 338 339 339 340 340 342 342 344 343 342 341 340 339 339 339 338 339 340 340 339 338 336 337 336 338 339 339 340 339 338 338 337 337 338 338 339 338 338 339 338 340 340 339 341 342 339 339 341 341 341
339 340 339 339 339 339 339 339 340 341 340 338 339 338 339 340 341 341 342 343 343 344 343 341 340 340 341 341 340 339 341 341 338 337 337 337 337 339 340 338 338 339 340 340 338 338 340 339 338 337 338 337 338 338 337 338 340 341 340 341 341 341
339 339 338 338 338 339 339 339 340 339 338 338 339 339 339 339 340 341 342 342 342 343 344 343 342 344 342 341 340 339 340 340 339 338 337 338 338 338 339 338 337 338 338 339 339 338 337 339 338 337 337 338 338 336 338 338 340 342 340 339 339 340
338 337 337 337 337 336 337 338 339 338 338 338 338 339 338 339 340 340 342 342 342 345 345 345 344 342 341 340 339 339 338 340 338 337 337 338 337 339 338 338 336 337 336 337 337 337 337 336 335 336 337 337 338 338 337 338 341 341 342 339 340 340
337 337 337 337 336 336 337 337 337 337 338 338 337 337 338 339 339 340 340 340 341 344 345 344 344 341 340 340 338 339 338 338 338 337 336 337 337 339 339 337 336 335 336 334 334 334 334 334 334 334 335 337 335 337 338 337 338 338 339 339 339 339
336 335 337 336 337 337 337 338 338 337 338 337 337 337 338 339 339 340 340 340 341 341 342 343 342 341 340 339 338 339 338 337 337 337 337 337 337 338 338 336 336 338 333 331 331 331 332 332 333 333 336 336 336 336 335 336 337 336 337 337 336 338
334 335 335 336 336 337 338 337 337 337 336 338 338 338 338 339 340 340 339 339 340 341 341 341 342 341 341 339 338 338 338 338 338 338 337 338 337 338 338 335 333 334 334 330 331 330 331 332 332 333 335 335 336 335 335 335 335 336 336 336 335 336
335 335 335 335 335 335 336 337 337 336 337 337 337 338 338 339 339 339 339 338 339 340 341 341 341 340 341 340 339 338 337 337 338 339 338 337 337 337 336 336 332 333 333 331 330 330 330 331 332 332 333 334 335 335 334 336 334 334 334 334 336 336
335 335 335 335 335 335 335 335 336 335 335 336 337 337 338 338 339 340 339 339 339 340 340 340 340 340 341 339 338 338 337 337 338 337 336 336 335 335 334 334 333 331 333 332 331 331 331 331 331 331 331 333 334 332 333 334 333 332 334 334 334 335
335 335 334 334 333 333 333 333 332 333 334 334 335 335 337 338 339 339 340 339 339 340 339 340 340 342 340 340 338 336 337 337 337 337 336 335 335 335 334 332 333 331 330 330 332 331 332 331 331 331 330 330 330 331 332 332 331 332 332 332 335 336
335 335 333 332 331 331 331 331 332 332 332 334 334 335 336 337 338 339 339 339 339 339 339 340 340 340 339 338 338 337 336 336 337 337 335 335 336 336 335 334 331 332 330 328 328 331 331 332 328 326 326 326 326 328 331 330 330 330 331 332 335 333
335 334 333 333 332 333 334 333 332 332 333 333 334 333 334 336 338 338 339 339 339 339 340 340 339 338 338 338 336 335 336 336 336 336 336 336 335 334 333 332 332 330 331 329 327 330 330 330 326 325 322 322 324 326 328 330 330 330 331 331 332 333
334 333 333 333 333 333 335 336 336 335 334 334 337 337 336 337 338 337 339 340 340 340 340 339 339 338 337 337 335 335 334 335 335 335 334 334 334 333 332 331 332 330 327 330 329 331 331 332 325 327 326 323 320 318 321 325 327 328 329 331 331 330
334 334 333 333 334 335 336 337 338 337 336 335 334 335 337 338 338 338 337 339 340 340 339 338 337 337 337 336 335 335 335 335 335 335 334 333 332 331 331 331 332 331 330 325 325 326 331 331 330 326 320 322 322 321 316 318 321 326 330 328 330 329
334 333 333 334 334 334 335 334 335 334 333 332 333 333 334 334 335 337 337 337 338 339 339 338 338 338 337 335 335 336 334 334 335 335 334 333 331 330 331 332 331 331 331 328 325 328 327 330 331 335 327 320 318 318 318 318 320 320 326 327 327 328
334 333 333 334 334 334 333 331 329 328 327 329 328 329 330 331 332 334 335 337 338 338 338 338 338 338 337 336 334 334 334 334 334 334 333 333 332 331 331 331 331 332 331 332 329 327 325 329 331 332 332 330 330 322 320 321 320 314 323 325 327 328
333 333 334 334 334 333 332 331 331 331 331 330 329 331 334 336 335 335 337 337 337 338 338 338 338 338 337 337 335 334 334 334 334 334 333 333 332 331 331 331 332 332 332 331 331 327 327 327 328 329 330 332 333 330 329 322 318 319 315 319 321 322
333 333 333 333 333 333 332 332 332 333 333 333 332 331 334 336 337 337 336 335 336 337 337 337 337 336 337 337 335 333 333 334 334 333 332 331 331 331 331 332 333 333 332 332 332 329 328 328 327 328 329 331 331 331 332 331 327 323 319 315 315 321
333 332 332 332 333 333 333 333 333 332 333 335 335 334 335 335 334 336 336 336 337 335 335 336 336 336 336 336 336 335 334 334 334 333 332 332 332 332 332 332 331 331 331 332 333 333 332 330 331 330 327 329 330 328 328 329 329 329 321 318 316 317
332 332 332 332 332 333 334 334 333 334 333 332 333 333 334 333 334 335 335 336 336 336 336 337 336 337 335 335 336 336 335 334 334 333 333 334 334 334 333 332 332 331 333 333 334 334 333 333 333 332 331 330 328 327 326 326 327 326 325 324 318 317
332 332 332 331 332 332 332 333 334 334 333 332 332 333 332 332 332 333 333 334 335 335 336 336 337 337 335 336 335 335 335 335 335 335 334 334 335 335 335 335 334 333 332 332 332 334 334 334 333 332 332 330 329 326 325 323 324 325 325 322 319 318
330 330 330 331 332 331 331 332 334 334 333 332 332 331 332 331 332 332 333 333 334 334 334 334 335 335 335 336 335 334 334 334 334 335 334 335 335 336 336 335 335 334 332 331 332 330 334 333 332 332 332 332 331 331 327 325 326 328 326 324 322 318
329 330 330 330 331 331 331 331 332 333 333 333 332 332 333 332 333 332 332 332 332 332 332 332 332 333 333 334 335 335 334 333 333 334 335 335 335 336 337 337 336 335 335 334 334 334 333 334 333 332 331 332 333 330 327 327 328 329 329 328 325 319
328 329 329 330 330 330 330 330 331 331 331 332 331 332 332 331 332 332 332 333 333 332 332 332 332 332 333 331 332 335 336 336 336 336 335 334 334 335 335 335 336 335 335 335 335 335 335 335 334 333 333 332 331 330 329 328 329 329 328 327 323 321
326 328 328 329 329 328 327 328 328 328 330 332 330 330 330 331 331 331 332 333 334 334 331 332 331 333 330 331 331 333 335 336 335 336 335 335 334 335 335 334 335 335 334 334 333 333 333 333 332 331 332 332 332 331 329 327 328 328 327 328 326 324
327 327 328 328 327 326 326 326 326 326 328 329 329 330 330 330 331 332 332 332 332 333 333 333 332 331 330 330 331 332 333 334 334 334 334 334 334 334 334 334 333 333 333 331 333 332 332 331 331 332 332 333 332 329 330 327 328 328 327 329 328 327
328 327 327 326 325 324 324 323 323 324 325 327 328 329 328 329 330 331 332 332 331 331 332 332 331 331 329 329 332 333 332 333 333 333 333 334 334 334 334 334 334 333 332 333 333 331 332 331 332 331 332 333 332 331 329 329 328 329 330 330 329 328

ECMWFFLT2_sfc_thetae_048.txt.gz
Theta_e
349 350 350 352 353 353 353 350 350 350 349 349 349 348 348 348 348 348 348 348 347 350 350 351 348 347 347 348 345 345 345 345 344 344 344 343 342 342 342 343 343 342 341 342 344 344 344 343 344 343 343 342 341 347 343 342 342 340 340 338 337 336
348 350 351 350 347 350 351 348 349 349 351 352 349 347 350 351 348 350 347 349 351 350 347 347 348 347 348 347 346 344 345 344 344 344 342 341 341 341 341 341 340 339 339 342 343 345 345 343 344 344 342 344 344 344 343 342 341 339 339 338 338 337
350 350 349 350 351 350 348 347 346 346 349 349 350 350 347 350 350 350 351 349 353 352 349 347 344 345 344 344 346 345 344 344 343 342 341 341 341 341 341 341 339 338 337 336 342 344 344 344 345 344 344 344 343 342 344 342 340 339 338 339 335 336
351 351 350 349 351 350 345 345 345 350 350 352 351 349 347 348 348 347 348 353 354 350 350 351 344 342 344 347 346 344 343 342 341 340 340 340 342 342 340 338 336 336 337 339 341 342 341 346 346 346 346 345 343 343 343 342 337 339 341 338 337 336
352 352 349 348 349 346 345 343 348 350 350 351 350 349 347 346 347 349 348 350 348 349 348 343 348 346 346 344 343 342 341 340 339 340 342 340 339 340 339 335 335 337 335 338 339 341 342 346 347 345 344 344 344 344 343 343 338 338 340 340 340 338
350 349 348 347 348 346 343 346 345 346 346 347 348 345 343 343 349 347 346 345 350 348 345 343 341 343 346 346 341 341 344 344 341 338 341 340 340 341 341 336 334 335 336 337 338 341 341 346 346 344 343 343 342 343 342 340 340 341 342 341 340 338
348 347 346 348 347 345 345 349 348 344 344 342 343 344 345 344 343 344 345 347 345 346 345 345 345 346 344 344 342 342 343 342 342 340 342 339 340 339 338 337 337 338 338 339 339 339 342 346 346 342 342 340 341 341 342 341 341 341 342 340 340 338
346 347 346 345 345 345 350 350 349 345 347 347 346 345 345 343 341 342 343 345 347 346 345 345 345 343 343 344 341 341 341 340 341 341 342 342 339 339 338 338 338 337 336 337 336 337 339 343 344 344 341 341 340 340 341 341 343 343 342 341 340 340
345 343 347 347 345 346 349 350 348 346 346 346 347 347 347 346 341 342 339 344 346 347 346 346 345 343 343 341 341 340 339 339 340 340 343 343 344 341 340 339 339 337 338 336 336 337 338 341 344 344 342 340 340 341 340 342 343 342 343 342 339 340
343 338 338 343 348 346 348 348 347 346 345 344 348 348 347 346 346 344 345 346 347 349 347 345 344 342 340 340 341 342 342 340 339 340 342 341 342 343 339 338 339 339 336 336 335 336 338 340 341 342 340 341 342 343 342 342 342 342 344 343 341 342
341 341 342 344 346 346 347 346 345 345 345 346 346 346 346 346 346 346 346 346 348 348 348 345 343 342 342 341 343 344 343 342 340 341 342 342 343 342 341 340 341 339 339 338 338 337 338 339 340 339 341 340 344 343 341 343 342 342 341 341 340 338
339 344 344 344 344 343 344 346 345 345 345 345 346 344 344 346 345 346 348 349 349 348 347 346 344 344 344 344 344 344 343 343 341 342 343 342 343 343 342 341 341 342 344 342 340 341 343 340 339 338 339 340 343 343 342 343 342 342 340 340 340 338
341 343 342 342 343 342 343 344 344 344 344 343 344 344 343 344 346 347 348 348 349 349 348 347 346 345 341 343 345 345 343 344 343 342 342 342 342 343 343 341 341 342 342 343 343 343 340 342 340 340 341 342 343 341 342 342 342 342 340 339 341 338
341 341 341 342 343 341 342 343 343 344 344 343 343 343 344 345 347 346 348 348 348 348 348 347 347 346 343 344 345 345 344 342 343 342 341 342 341 342 341 341 339 341 339 341 341 342 340 339 339 341 342 343 343 343 341 339 339 340 341 340 340 340
341 340 341 341 340 341 342 340 342 343 344 344 343 343 343 345 346 347 346 345 347 347 348 348 348 347 344 344 344 344 343 342 343 342 342 342 342 342 341 340 338 339 340 340 340 339 338 340 341 340 342 343 341 342 342 341 341 339 339 341 341 340
340 340 340 340 341 341 341 342 342 341 343 343 342 342 342 344 345 345 345 346 347 348 348 348 348 347 345 344 343 343 343 345 344 344 343 342 342 341 340 340 340 340 336 337 339 339 340 339 339 339 340 340 341 340 340 340 338 338 339 342 340 341
338 339 339 339 339 340 342 343 343 342 342 342 341 341 342 345 345 345 346 344 346 347 348 347 347 347 347 345 343 344 344 344 344 343 341 340 341 341 340 338 339 339 338 335 337 337 339 339 337 338 339 340 340 339 334 335 337 338 341 341 341 342
339 339 339 338 339 340 341 342 342 342 342 341 341 342 343 344 345 345 345 344 344 345 347 347 347 346 347 345 344 344 344 345 344 345 342 341 340 342 341 340 337 339 338 337 336 337 336 337 337 336 337 339 339 339 338 339 338 338 338 337 339 341
338 339 338 339 339 340 342 342 342 342 340 341 342 344 345 343 343 346 345 346 345 345 346 347 347 346 347 344 344 345 345 345 345 344 343 341 341 342 342 342 340 338 340 339 338 338 337 336 336 335 335 336 337 337 339 338 338 336 336 337 339 337
337 338 338 339 338 337 338 338 335 337 338 338 341 342 344 342 345 343 345 345 344 345 344 345 346 347 346 345 344 343 345 345 344 343 341 340 339 339 340 340 339 336 336 336 338 338 338 336 335 335 334 335 335 337 337 335 336 337 338 339 338 340
336 337 336 335 335 335 334 335 336 334 333 339 340 342 342 343 343 342 345 344 344 343 345 345 345 346 346 344 344 345 344 343 341 339 340 339 338 338 340 340 338 337 336 335 336 338 338 337 333 330 333 333 334 336 336 336 336 336 336 338 339 336
336 336 336 336 335 335 337 334 337 337 338 337 338 338 339 342 343 344 345 344 344 344 345 345 345 346 346 344 343 342 343 342 340 339 338 338 339 337 339 339 337 335 337 334 334 337 337 336 329 328 327 328 330 333 335 334 334 335 335 336 336 337
337 336 336 336 336 335 338 340 339 338 338 337 340 342 340 341 344 343 344 344 345 346 344 344 342 341 341 340 339 338 339 342 341 339 337 336 337 338 340 339 337 336 334 335 335 338 338 337 329 330 331 327 324 324 328 330 332 332 333 334 335 335
337 337 336 337 337 339 341 341 341 340 341 340 339 342 344 344 343 342 342 344 345 346 345 341 339 339 339 340 340 339 341 341 341 341 339 337 337 337 339 338 337 337 336 332 331 333 339 338 334 330 323 324 325 324 318 320 326 329 332 333 334 333
336 336 337 337 338 340 339 340 339 339 341 341 341 340 340 339 341 341 342 343 344 345 342 340 340 340 338 340 341 342 341 341 340 342 341 338 337 337 338 338 338 337 336 333 330 332 334 337 336 336 330 324 321 320 321 321 325 325 330 330 331 330
337 337 336 337 339 339 335 332 335 333 332 334 334 335 335 337 339 339 339 344 343 343 341 342 341 341 339 339 339 340 339 340 342 341 338 338 336 335 337 337 338 338 336 338 335 331 329 335 338 337 339 334 334 323 321 326 324 317 328 331 330 331
337 337 336 337 338 337 333 336 336 334 333 332 331 335 335 338 339 339 342 342 340 342 340 340 340 339 339 339 339 339 339 338 336 336 337 336 335 334 334 336 337 336 335 336 336 332 332 332 335 337 336 337 337 334 333 326 324 322 319 324 327 327
337 337 337 337 337 337 337 338 337 337 334 335 334 334 337 338 340 340 340 338 339 339 339 339 339 338 339 338 338 338 338 338 336 335 335 334 334 334 335 335 338 338 337 336 336 332 332 333 330 331 335 332 334 335 334 332 331 325 323 319 318 324
337 337 337 338 337 337 338 337 336 334 335 337 336 336 337 338 338 339 338 337 337 337 337 339 337 338 339 338 337 337 337 337 337 336 335 334 335 335 336 337 337 337 337 336 336 333 333 332 332 331 333 332 333 331 331 332 330 329 322 320 318 320
336 336 337 337 337 337 338 337 338 336 335 334 335 335 337 336 336 337 336 337 336 334 335 335 336 337 336 336 336 337 337 336 337 336 335 335 336 336 337 337 337 337 337 336 336 335 332 332 332 333 332 330 329 329 328 328 328 328 325 324 319 320
335 335 336 337 337 336 338 339 340 337 336 335 335 335 334 334 334 334 334 335 335 335 335 335 337 337 336 335 336 336 336 336 337 337 335 336 337 336 338 337 337 337 336 336 334 334 333 334 333 333 333 331 328 328 327 323 326 326 325 322 322 322
335 335 336 336 337 336 338 339 340 339 337 337 336 334 334 334 333 333 333 333 333 334 335 336 336 335 336 336 336 335 337 336 335 337 335 336 336 339 340 338 337 336 335 335 335 334 334 333 333 333 334 333 332 332 333 327 326 328 326 325 324 322
334 335 334 334 335 337 338 339 339 339 338 337 336 335 335 334 334 333 332 332 332 331 332 332 333 333 335 335 335 335 335 334 334 336 336 335 337 337 339 339 338 336 335 333 333 334 333 333 333 331 331 333 335 331 331 333 334 331 329 325 327 320
334 334 334 334 335 334 339 338 340 338 337 335 335 335 333 333 334 333 333 332 332 331 331 332 332 333 334 334 334 334 335 335 336 336 336 335 334 335 339 338 337 336 335 334 334 334 334 334 334 334 334 331 334 331 332 334 333 332 328 327 324 321
333 333 332 332 332 333 331 336 336 336 335 334 334 333 333 335 335 333 333 333 333 332 331 331 331 333 333 334 334 335 334 335 335 335 334 334 334 335 335 334 336 336 335 335 335 335 334 334 333 333 334 331 332 331 332 333 335 333 332 330 328 325
332 331 331 331 331 333 334 336 336 336 336 336 335 333 333 335 334 334 334 333 334 333 332 332 333 333 334 333 332 333 333 333 333 333 333 333 333 332 334 336 337 337 336 335 336 336 336 337 336 335 335 334 331 332 335 334 334 332 332 329 329 328
327 326 325 324 326 328 332 332 335 337 338 338 337 335 334 334 334 334 335 334 333 333 333 333 333 334 334 333 333 334 332 332 333 333 333 332 332 332 334 337 337 338 338 337 338 336 338 337 337 337 335 334 332 333 335 336 334 334 334 332 331 329

ECMWFFLT2_sfc_thetae_051.txt.gz
Theta_e
349 350 350 350 350 350 351 351 351 350 350 349 349 350 349 349 349 348 346 345 346 346 346 347 349 346 347 347 345 345 345 345 345 345 344 344 344 343 342 343 343 343 344 345 345 343 343 343 343 342 341 343 342 344 342 341 341 340 338 337 336 334
350 350 351 353 351 349 349 347 349 350 350 350 350 350 352 352 348 350 346 349 349 348 345 346 347 347 346 346 346 344 345 344 344 344 344 343 343 343 342 341 340 342 344 345 344 345 344 344 343 343 344 342 341 342 341 341 339 337 336 337 337 336
353 350 348 350 350 348 347 347 347 347 348 348 348 350 351 351 350 345 344 343 348 348 346 348 349 345 346 345 346 344 344 344 344 343 342 342 342 342 342 340 339 338 341 344 346 343 344 342 343 343 344 343 347 341 341 340 339 338 335 334 333 336
349 350 348 348 350 346 346 346 344 345 347 349 348 345 347 350 347 347 345 343 342 343 345 347 345 345 344 346 345 344 343 342 342 342 342 342 343 342 341 341 338 338 338 343 343 343 343 343 342 344 346 345 341 340 340 341 338 338 337 333 332 335
349 350 347 348 348 344 344 343 342 345 348 346 346 345 345 345 344 344 343 340 338 339 340 344 345 345 344 343 342 342 342 342 341 341 341 340 338 339 339 335 335 335 338 339 339 342 342 342 344 342 343 343 342 343 341 341 339 338 337 337 337 336
348 345 345 346 345 342 342 341 344 348 348 345 344 345 346 345 346 345 342 340 339 340 342 343 345 345 345 342 340 338 337 337 336 336 339 337 336 335 335 336 336 335 336 338 339 341 341 345 342 347 343 344 342 342 341 340 337 337 338 338 338 338
343 343 341 345 346 342 343 348 348 349 348 344 342 342 342 344 344 344 344 346 342 344 343 345 347 346 344 342 339 340 343 340 338 337 341 338 339 338 339 337 336 337 337 337 337 339 341 345 342 337 340 340 341 340 341 340 338 338 339 338 339 338
340 338 339 342 347 341 344 345 348 345 349 346 345 345 344 344 346 344 344 345 343 345 346 342 343 344 343 344 343 345 344 340 342 339 342 340 338 338 336 337 338 334 335 337 336 337 338 348 344 342 344 339 339 341 341 339 340 340 339 338 339 339
338 337 339 345 343 345 345 345 345 348 345 346 345 345 344 343 341 342 344 343 345 344 341 340 341 344 343 343 343 344 341 340 341 338 339 339 339 338 338 336 337 336 337 336 334 336 333 339 341 341 339 338 339 339 341 341 342 339 337 338 339 340
338 342 344 343 343 341 348 344 342 346 344 346 344 344 342 344 345 347 346 345 344 343 339 340 340 340 343 341 340 342 343 341 340 340 343 343 342 340 339 339 337 337 334 334 336 336 337 338 339 340 337 336 338 340 341 342 340 344 339 339 339 340
340 342 344 342 344 344 345 343 344 346 347 342 342 341 340 343 347 346 347 344 344 342 342 341 337 340 343 341 343 343 342 341 340 341 344 343 345 343 342 340 340 338 338 335 335 333 334 341 342 341 338 336 337 341 340 340 341 342 341 339 339 340
343 344 345 342 343 342 343 342 344 345 346 341 341 339 341 343 342 346 344 344 343 343 341 341 344 342 343 343 343 344 344 343 342 342 343 342 343 343 342 340 342 343 343 341 338 336 337 339 338 342 340 338 341 340 338 339 338 341 340 340 338 338
343 346 345 342 342 343 343 343 342 344 341 344 346 343 339 341 343 342 344 343 342 342 344 346 346 345 344 343 343 344 344 344 343 344 345 344 344 345 343 342 342 342 341 342 339 340 336 339 339 341 339 339 341 340 337 337 341 341 340 340 340 339
344 344 344 343 343 343 343 343 344 343 344 344 344 343 343 341 342 342 341 342 341 346 346 345 346 345 345 345 343 343 343 343 343 343 344 345 342 343 341 340 340 340 338 339 337 338 336 336 339 339 340 340 342 342 337 340 341 341 339 338 341 340
346 344 344 343 342 342 343 341 341 343 344 346 344 343 344 342 344 342 343 344 346 345 345 345 346 345 345 343 343 343 342 342 344 343 340 343 342 342 342 340 337 337 337 341 343 339 337 338 342 339 342 345 340 339 336 337 338 340 337 338 337 339
344 343 343 344 342 342 342 342 342 342 343 346 342 341 341 344 343 344 346 344 345 345 346 345 346 347 345 343 341 342 342 344 342 343 344 343 344 340 341 340 339 343 340 338 336 339 341 341 338 338 339 339 339 336 337 337 339 338 338 337 339 337
342 342 342 342 341 342 342 341 342 342 342 344 343 341 341 344 347 341 342 341 344 344 345 344 346 346 344 342 339 339 340 344 345 344 342 344 340 339 340 340 340 340 340 335 334 334 339 338 336 337 339 337 335 336 337 339 340 340 338 335 336 337
343 343 342 341 341 341 341 341 342 342 343 342 343 341 341 343 340 345 340 341 344 345 345 345 345 345 346 342 341 340 342 345 344 343 342 341 340 339 340 341 339 340 339 337 335 335 334 336 336 336 336 334 335 337 338 337 336 337 336 334 335 335
343 344 342 341 340 341 341 343 342 341 342 343 343 341 343 342 341 342 341 345 345 345 345 345 346 345 345 342 341 341 343 345 344 342 341 339 338 338 340 341 339 339 341 337 337 335 335 335 335 336 334 333 336 337 338 336 336 337 337 337 335 335
343 343 342 341 339 338 340 339 337 338 339 341 341 341 343 342 343 341 341 341 343 345 345 346 345 346 345 342 341 341 343 344 342 341 339 337 336 336 339 340 339 338 338 336 336 338 336 335 335 334 332 335 337 335 336 335 335 337 336 338 336 336
342 342 339 337 337 336 336 336 338 336 337 340 339 342 340 340 341 342 340 340 344 343 345 345 344 344 344 342 343 341 342 342 341 339 339 339 338 338 340 340 338 338 337 334 334 338 336 335 331 330 334 333 334 333 334 334 334 336 338 339 339 339
340 340 338 338 336 336 337 337 335 336 338 334 340 338 338 340 340 341 342 342 344 344 345 345 345 344 343 342 341 340 341 340 340 340 341 341 341 339 338 338 337 335 337 333 334 334 337 335 329 327 325 326 331 333 334 335 334 333 332 333 335 336
337 338 337 338 337 335 339 335 338 340 339 338 340 340 336 339 340 340 343 344 345 344 343 343 345 344 344 342 342 341 340 340 340 341 339 338 338 339 338 337 337 334 333 334 334 337 337 337 329 330 330 327 321 323 325 332 332 334 333 334 335 335
338 338 338 338 337 338 338 336 339 340 342 341 337 339 342 343 338 340 342 344 344 345 344 343 343 342 343 343 341 341 342 340 339 339 341 339 338 337 338 337 336 336 333 331 329 330 335 336 334 330 323 322 324 322 320 323 324 330 335 332 332 330
338 337 337 338 338 339 336 336 338 338 338 336 337 338 337 338 337 341 340 342 342 345 344 342 341 338 336 339 340 340 342 340 339 339 339 337 336 336 337 337 336 336 334 331 328 331 334 333 334 334 329 323 322 318 321 323 325 327 332 330 330 332
339 338 338 338 339 340 336 335 332 330 327 329 328 332 332 334 335 338 337 342 343 343 343 342 341 340 339 340 341 343 343 341 340 339 339 336 337 336 335 336 336 337 335 336 334 330 330 335 337 335 335 333 332 322 321 324 323 318 330 330 330 332
339 338 339 338 340 341 337 336 334 332 332 330 327 333 336 341 338 338 339 341 342 343 342 343 342 341 341 339 342 343 343 343 342 342 341 340 338 338 337 336 337 336 335 335 336 331 330 332 334 336 335 336 334 334 331 324 322 322 320 324 332 331
339 338 339 339 340 338 335 335 335 336 334 335 332 334 335 340 340 339 339 340 342 342 342 342 342 340 340 339 339 338 339 338 337 336 335 335 335 334 338 338 339 338 335 336 336 333 331 332 327 329 333 333 334 333 333 332 331 326 323 318 320 327
339 339 339 339 340 341 337 335 334 335 333 332 333 336 336 338 338 339 340 340 339 339 340 341 340 339 338 338 338 338 338 337 337 337 336 334 335 334 334 337 338 337 336 336 336 335 332 331 331 330 331 331 331 331 331 332 332 329 323 319 320 320
339 338 339 338 339 339 340 340 337 337 334 335 338 336 337 335 336 339 339 338 338 337 337 338 339 339 339 338 337 338 338 337 337 337 335 335 335 335 336 337 338 338 337 336 337 337 335 333 332 331 331 332 331 327 326 327 329 329 326 325 320 319
339 338 340 340 339 338 338 340 338 337 335 332 331 336 337 335 337 337 336 336 335 335 336 335 335 337 337 337 338 337 337 337 338 337 335 335 336 334 336 338 339 339 338 336 335 335 336 336 335 335 333 332 331 330 327 325 325 329 325 321 322 322
339 339 338 340 338 332 335 336 337 336 333 332 333 333 333 332 336 335 335 333 333 334 333 335 336 335 335 336 337 336 337 336 336 337 335 336 337 337 338 338 338 338 336 336 336 336 336 335 335 333 334 332 331 331 332 330 330 331 327 326 323 322
333 340 338 335 336 334 335 334 334 331 329 330 334 335 334 332 334 333 333 332 333 332 333 333 334 334 335 336 335 336 336 333 334 336 336 335 337 338 338 338 337 335 336 335 336 336 334 334 335 334 332 334 332 330 332 333 331 331 330 327 326 322
334 339 337 335 334 333 331 331 333 333 330 331 334 335 335 333 333 333 333 332 332 333 332 333 334 334 335 335 334 335 335 334 334 334 335 335 334 339 339 337 339 337 336 336 336 336 335 335 336 335 334 333 334 333 332 332 333 332 330 327 327 323
329 330 331 331 331 330 332 333 333 333 334 335 334 336 336 335 334 332 333 333 333 334 333 334 333 335 335 335 335 334 334 334 333 334 334 335 334 334 338 338 337 337 337 336 336 336 334 333 334 333 335 335 333 334 334 333 335 333 331 329 329 327
327 328 325 326 330 329 333 332 337 333 332 334 335 333 334 334 334 334 334 333 334 334 333 333 334 335 334 335 334 333 334 333 334 334 335 334 334 332 333 333 334 335 336 335 336 336 336 335 335 335 335 336 335 333 334 334 333 332 333 332 332 332
326 328 328 328 330 331 335 335 337 335 338 336 334 333 332 334 334 335 335 334 333 334 334 334 334 335 334 334 333 334 332 333 333 333 333 333 332 331 333 335 335 335 334 335 336 335 335 335 334 336 336 337 335 333 333 334 332 332 334 335 336 333

ECMWFFLT2_sfc_thetae_054.txt.gz
Theta_e
346 347 346 348 348 348 349 351 351 351 351 350 350 350 349 349 349 349 349 348 347 347 347 347 347 346 347 346 347 347 346 346 345 345 345 344 344 344 344 344 344 345 345 345 344 344 344 343 342 342 344 344 344 338 341 334 334 334 333 332 333 333
346 346 347 347 347 347 348 347 348 348 349 349 350 350 348 347 348 348 348 347 347 345 344 345 346 347 344 345 345 345 345 345 345 345 344 344 343 343 344 342 344 344 345 345 345 342 343 342 344 344 344 344 343 339 341 336 334 333 333 332 333 335
344 342 342 342 345 346 346 346 347 348 348 348 349 347 347 347 347 346 346 345 348 350 346 346 345 345 345 345 344 345 345 344 344 344 344 344 343 343 342 342 342 344 345 345 343 342 341 341 340 343 344 342 339 343 340 336 333 332 332 332 331 336
341 342 343 341 345 344 344 344 344 346 347 347 347 342 343 345 344 346 345 345 347 347 348 346 346 346 345 343 343 344 344 344 343 343 343 342 343 342 343 342 340 341 343 344 341 342 341 340 340 341 340 342 344 336 339 334 330 328 328 332 332 339
343 344 341 340 341 343 342 344 341 343 344 346 345 342 343 344 345 345 344 343 343 344 345 345 344 343 343 342 342 342 342 342 341 340 343 341 340 339 341 337 337 338 335 339 341 341 342 341 343 344 346 342 343 340 339 336 333 331 330 331 333 338
341 341 340 340 342 340 339 338 342 345 346 345 344 343 343 343 343 343 341 341 341 344 344 344 342 342 342 342 340 339 338 339 339 338 341 338 338 338 336 335 334 331 332 336 338 339 343 345 342 345 342 340 339 339 335 335 335 334 334 333 334 336
338 339 338 340 341 339 341 344 345 345 342 344 345 342 342 342 342 343 341 340 340 342 343 343 343 343 342 340 339 339 338 337 336 336 337 337 335 336 335 334 333 333 335 339 337 339 341 343 344 339 341 339 340 334 337 336 335 335 335 335 336 337
338 339 339 343 342 340 340 343 343 343 345 345 344 342 342 342 341 342 341 341 343 342 342 342 341 341 342 340 339 339 340 335 334 334 336 338 334 333 333 334 335 335 337 337 334 338 338 342 341 341 341 340 338 337 339 336 335 336 336 336 337 338
338 339 340 343 344 342 341 341 339 342 343 345 344 342 343 342 341 342 343 343 344 343 343 342 342 342 341 342 346 346 344 341 338 338 339 341 338 337 338 338 336 336 335 334 338 340 336 342 342 341 340 339 335 337 340 338 337 335 336 336 336 338
339 339 342 343 340 341 342 340 341 341 343 344 344 343 344 343 342 343 344 344 344 345 344 344 344 344 343 342 344 344 343 339 344 341 341 342 340 341 341 338 338 335 333 335 337 335 338 337 338 336 338 337 337 335 334 337 340 336 337 337 337 338
341 343 343 341 341 341 340 338 341 344 345 343 343 343 341 341 341 340 342 344 344 344 345 344 343 342 343 343 341 341 340 342 342 343 343 344 347 346 345 342 344 341 339 336 334 335 336 338 339 337 338 336 335 334 336 340 341 341 336 337 336 337
342 343 342 341 342 343 341 339 340 343 344 343 343 342 341 341 339 339 341 344 344 344 344 342 340 339 339 338 341 341 344 343 343 345 344 346 344 345 344 339 343 345 345 342 336 337 340 337 337 338 338 335 335 335 337 339 340 338 334 335 336 336
344 345 343 342 343 343 342 341 342 343 343 343 342 342 341 339 339 341 341 343 344 343 344 341 339 339 339 340 341 345 341 344 344 345 348 344 345 346 347 345 342 345 343 340 338 337 338 339 336 338 336 336 337 335 336 336 340 335 335 333 334 337
345 346 344 342 342 342 341 339 339 341 341 341 342 342 343 342 342 342 342 343 343 342 342 341 340 339 339 337 339 341 345 341 343 344 346 344 345 345 345 344 341 338 342 335 335 340 337 336 338 338 337 336 334 334 336 338 337 333 336 335 335 335
346 346 344 343 342 342 342 339 340 340 340 340 341 342 343 343 343 343 344 343 342 341 340 339 340 339 337 338 338 344 343 342 343 342 341 345 344 343 345 342 343 337 338 337 335 335 335 335 337 334 335 335 333 336 336 334 338 334 334 334 334 333
345 344 344 344 343 342 342 340 340 342 342 342 340 342 344 343 343 342 343 341 339 339 338 338 338 337 338 337 342 343 344 345 341 342 342 343 345 343 342 343 341 341 339 336 335 334 336 333 337 335 335 335 336 334 333 333 334 334 335 334 333 335
343 343 344 344 342 343 342 340 341 341 341 342 340 341 342 342 342 340 343 342 339 339 338 337 336 338 335 341 340 341 341 347 343 345 346 347 343 344 343 341 337 341 340 337 335 334 333 334 334 334 335 335 335 335 331 331 333 333 334 332 332 335
343 343 344 342 341 341 340 341 340 341 341 341 339 340 341 341 339 341 341 342 339 339 338 338 336 336 344 342 344 341 341 345 344 345 344 344 343 342 342 341 339 340 339 335 335 333 334 336 335 334 335 334 335 335 334 332 332 332 332 333 333 332
343 344 343 342 341 340 341 341 343 341 340 343 338 337 339 340 340 338 339 339 338 339 340 340 341 341 345 339 338 343 341 345 344 344 345 340 339 340 342 342 339 341 339 337 336 335 333 335 333 333 333 333 335 335 335 334 332 331 332 333 333 333
341 341 341 341 340 338 338 338 337 339 337 335 337 337 339 343 339 338 341 341 338 343 338 343 340 341 343 340 339 342 342 343 343 344 341 340 338 339 339 340 340 338 336 334 337 335 335 333 332 333 332 333 333 334 334 333 331 330 331 332 332 332
338 337 339 337 337 336 336 335 337 335 336 337 336 335 339 340 340 338 340 339 338 342 340 341 341 342 345 345 344 343 342 342 342 340 342 340 339 340 341 341 338 340 336 332 334 335 334 334 330 330 331 331 331 333 334 332 330 331 332 333 334 332
338 337 336 339 337 337 337 335 335 335 335 337 335 337 337 339 339 339 339 340 339 340 340 340 343 342 345 344 343 343 341 342 343 340 340 340 340 340 339 339 338 335 337 333 334 335 334 332 327 325 324 324 327 329 328 330 330 329 331 333 332 332
339 334 336 337 338 337 339 341 339 337 338 335 340 340 339 342 338 339 342 341 340 338 337 337 340 343 343 343 343 342 342 344 342 342 340 339 338 338 338 337 337 335 332 334 334 338 336 336 326 328 328 323 320 319 324 327 329 329 329 331 330 330
335 336 338 339 338 339 340 341 341 341 343 340 336 337 339 341 340 339 338 342 340 343 336 338 339 341 340 342 343 341 341 338 341 341 339 338 337 337 337 337 336 336 335 329 329 332 336 335 331 326 320 321 320 320 316 318 321 326 329 330 329 330
337 337 338 338 336 338 336 337 339 339 339 336 338 337 335 335 337 340 338 338 340 340 342 342 341 340 340 342 343 343 340 340 341 340 339 338 337 336 335 336 337 335 333 332 328 331 332 335 334 334 327 321 319 317 317 319 320 320 327 327 329 330
338 338 337 336 336 336 334 335 335 333 331 332 331 331 330 331 332 334 335 342 341 340 341 341 340 339 338 339 339 340 342 339 340 340 340 338 336 336 336 334 335 335 335 334 331 329 329 333 334 333 333 331 328 321 319 321 320 313 325 327 327 329
338 338 339 335 335 337 336 335 334 333 332 331 330 331 335 334 334 336 340 338 339 343 340 341 338 338 339 339 341 341 343 340 339 341 339 340 339 335 334 333 335 334 334 334 334 329 329 330 333 334 333 334 333 331 330 322 318 319 315 321 326 326
338 338 338 336 334 335 335 336 335 334 333 333 333 332 334 336 336 337 338 338 339 341 339 339 340 337 339 339 340 340 341 342 340 339 339 339 340 340 341 339 338 337 336 335 334 332 330 331 328 328 333 331 332 333 330 329 327 321 318 315 318 325
339 338 336 334 332 334 335 336 336 335 334 336 337 335 335 336 334 336 338 339 340 337 339 340 339 339 338 337 338 339 339 339 340 337 335 335 337 336 337 340 338 338 336 336 335 335 332 330 331 329 329 328 330 330 329 329 329 326 320 317 316 319
338 336 332 332 332 332 335 336 335 335 334 332 335 336 337 334 336 338 337 338 339 337 337 340 340 338 338 337 338 338 338 337 339 338 336 335 336 337 336 336 339 338 337 336 337 335 333 332 332 333 332 331 329 326 326 325 326 325 324 323 317 317
337 332 331 331 331 330 333 335 333 335 333 331 332 335 333 334 335 333 331 335 337 338 338 337 340 340 341 338 339 339 338 337 339 341 337 335 337 334 337 337 338 338 337 336 336 335 334 334 335 333 330 329 326 328 325 323 322 323 322 320 318 318
334 332 331 333 331 330 331 332 333 333 332 332 333 332 330 331 334 333 333 334 336 337 336 337 338 337 337 338 340 339 340 338 337 339 339 339 337 336 336 337 338 338 337 336 336 334 333 333 332 331 331 333 332 331 330 327 326 325 324 323 322 318
329 331 332 334 330 329 331 331 331 332 332 333 335 334 332 334 335 334 333 333 333 333 334 334 336 335 338 336 338 338 338 338 337 338 339 338 338 339 337 337 336 336 336 335 335 334 333 333 333 330 332 332 331 331 331 332 331 330 329 326 324 318
329 332 332 331 327 326 329 331 333 332 333 333 333 335 335 335 336 335 335 333 333 333 334 334 335 336 337 335 338 339 339 338 338 338 339 338 337 339 339 336 337 336 334 335 335 335 334 334 335 332 333 331 330 329 331 333 332 331 327 325 324 320
329 329 329 330 330 328 329 330 331 332 331 332 333 333 331 330 334 336 335 334 336 336 335 334 335 337 336 337 337 336 338 338 337 337 336 337 336 335 339 337 338 336 337 336 335 335 334 333 334 332 333 333 333 331 331 332 333 332 330 327 326 324
329 327 327 329 329 329 329 330 331 330 330 332 332 332 330 328 330 333 335 335 336 337 336 335 336 335 335 337 335 336 337 337 337 336 336 336 337 334 336 336 337 338 335 334 335 334 334 333 333 334 332 333 332 333 333 332 332 332 331 328 329 330
329 329 327 329 328 328 330 330 329 330 331 332 331 330 329 328 329 334 336 337 334 336 336 336 335 335 335 336 335 335 333 335 337 337 338 337 335 335 334 335 334 336 334 336 334 332 334 334 334 334 334 333 333 331 333 333 332 332 334 331 330 331

ECMWFFLT2_sfc_thetae_057.txt.gz
Theta_e
344 344 345 345 346 347 349 351 351 351 351 351 350 350 349 349 349 349 348 349 347 345 345 346 346 346 348 347 347 348 347 347 346 345 345 345 346 346 346 346 345 345 344 345 344 344 344 344 344 345 345 346 345 336 332 331 331 332 331 332 333 332
343 344 345 345 346 347 348 349 348 348 348 349 350 350 348 347 348 346 348 346 343 346 343 343 344 348 345 346 346 347 346 346 345 345 345 345 345 345 344 345 346 345 345 344 344 336 340 343 344 346 346 346 338 337 333 331 330 330 331 330 333 336
340 341 344 344 346 346 346 346 347 347 347 348 349 348 345 346 344 344 344 343 343 342 342 343 343 345 344 346 345 346 345 345 345 345 345 344 345 344 344 344 345 345 345 345 341 338 337 335 336 345 346 338 338 336 332 330 329 329 329 331 330 335
339 340 342 343 344 344 344 345 345 346 345 346 345 346 344 343 343 343 342 341 340 342 341 341 347 346 346 343 344 345 345 345 344 344 344 343 344 344 343 342 341 345 345 344 339 339 338 337 335 336 337 336 338 328 328 328 329 329 329 333 332 336
340 340 341 343 343 342 343 344 344 345 344 343 341 340 341 341 341 341 340 340 340 342 341 341 340 341 340 340 339 339 341 339 338 337 343 334 334 337 339 336 334 337 332 339 340 338 339 337 338 340 336 334 333 329 328 328 328 329 329 331 334 337
339 339 341 342 341 343 343 341 342 343 342 340 339 338 339 340 339 338 338 339 341 340 340 339 339 339 339 338 338 337 337 337 335 335 339 334 333 331 330 331 333 333 331 331 334 337 340 339 340 338 335 334 333 333 331 330 330 331 330 331 333 335
338 338 340 341 340 341 338 340 341 342 340 338 338 338 338 339 338 337 338 339 339 339 338 338 338 338 338 338 337 336 335 335 334 333 337 334 332 331 331 330 328 329 328 328 332 336 339 339 336 337 335 335 335 335 334 331 331 331 331 332 336 337
338 337 338 339 338 338 336 339 341 345 341 340 339 338 338 338 338 337 337 339 341 339 338 337 337 337 337 336 336 335 334 333 332 333 335 334 331 331 330 330 329 329 328 330 332 336 338 337 336 334 334 333 334 334 334 333 332 332 332 333 335 337
337 336 336 337 336 336 336 339 341 341 340 343 339 338 338 338 337 337 337 339 340 338 338 337 337 337 337 335 336 335 334 331 332 331 332 332 331 330 329 329 329 329 329 329 331 335 338 334 332 332 331 333 333 334 334 334 334 334 334 334 335 336
336 336 336 336 334 335 336 338 339 340 341 343 339 339 338 337 337 337 337 339 340 338 338 337 337 337 336 336 337 338 336 333 332 331 332 331 331 330 329 329 330 330 329 329 330 336 336 331 331 332 331 331 334 334 333 334 335 334 335 336 336 336
337 338 337 337 334 335 337 337 338 340 341 340 339 340 338 338 338 337 338 339 340 340 339 338 337 337 337 337 337 337 336 335 335 333 333 335 335 335 333 331 332 329 334 332 332 335 333 331 330 333 332 333 333 333 331 333 332 335 336 336 335 335
337 338 338 337 336 336 336 337 338 340 340 340 340 339 338 338 338 338 339 339 339 340 340 337 337 336 335 334 336 336 335 336 335 335 336 337 337 336 334 334 337 339 335 335 334 335 333 331 330 332 334 333 334 333 332 332 333 333 334 335 335 335
338 338 337 336 337 337 336 338 338 339 339 340 339 338 337 337 336 337 338 339 339 340 339 335 334 335 335 335 335 337 335 336 335 338 337 337 338 338 337 336 337 336 333 332 333 335 334 331 330 330 333 335 333 333 333 331 331 331 332 332 333 335
339 338 337 338 338 336 336 338 341 340 340 339 338 337 336 336 337 337 338 339 339 340 338 335 334 334 334 333 333 334 337 336 337 337 337 336 337 336 336 334 333 334 336 332 333 333 333 330 328 330 332 332 330 330 333 333 332 332 331 332 332 332
339 338 339 337 338 337 337 339 339 339 339 338 339 337 336 336 337 337 338 338 338 338 337 336 336 334 332 334 333 335 336 335 337 337 338 336 338 335 338 336 333 332 332 331 331 333 332 330 329 329 329 330 329 331 330 330 332 332 332 330 330 330
340 339 336 336 336 337 337 338 338 340 338 338 338 338 338 338 338 339 339 337 337 337 335 336 335 335 333 333 332 334 336 338 337 337 337 337 337 336 336 335 334 333 331 329 330 330 332 331 330 330 330 331 330 329 329 328 330 331 331 331 331 331
338 337 335 336 336 336 336 337 337 337 338 338 339 339 340 339 339 338 337 336 335 335 334 335 334 335 335 335 334 333 334 338 336 335 336 336 336 335 335 334 334 334 332 329 330 330 330 329 329 330 330 331 329 328 327 327 330 330 330 328 329 330
339 337 337 337 337 336 336 337 338 338 338 337 338 339 339 339 337 338 337 335 335 335 334 333 334 335 333 335 335 333 333 337 336 338 336 335 333 335 335 333 333 333 332 331 330 329 329 330 330 330 329 329 328 328 329 328 329 331 329 329 329 329
336 336 334 332 333 335 335 336 337 337 336 336 336 336 336 337 337 337 336 335 335 335 335 334 333 335 333 334 332 333 333 335 336 336 334 333 333 334 334 334 333 333 333 332 330 330 331 331 330 329 330 329 328 328 328 327 327 328 329 329 330 332
336 334 333 332 332 333 333 334 332 333 332 333 333 334 333 335 335 335 336 336 336 335 336 336 333 334 334 332 331 333 333 335 336 336 334 332 330 331 333 333 332 331 331 333 332 331 331 330 328 327 328 329 330 329 328 327 326 326 327 328 329 329
335 333 331 331 332 332 331 330 332 330 330 331 331 333 334 335 334 335 336 336 336 338 336 338 336 335 333 335 332 334 332 334 337 335 333 332 332 333 333 333 332 331 330 329 328 330 331 330 327 324 325 326 326 329 329 326 324 326 328 327 327 327
334 331 331 331 331 332 333 332 332 331 331 331 331 332 334 333 334 336 335 335 335 336 337 337 337 335 336 335 334 332 333 333 334 335 334 334 333 334 333 332 331 329 330 329 327 330 330 328 320 320 320 321 322 324 327 327 326 328 328 327 327 327
330 330 331 331 331 332 334 334 333 332 331 330 333 334 336 334 336 335 335 336 335 335 336 336 337 336 336 336 334 334 335 334 335 335 333 332 332 331 331 331 330 328 327 328 329 331 329 326 322 322 323 321 318 317 320 322 325 327 326 326 325 327
330 331 329 330 332 332 332 334 335 334 334 332 330 334 336 335 336 335 334 336 335 335 335 335 336 334 334 333 332 333 336 334 335 335 334 332 331 331 330 330 330 329 328 327 326 326 331 329 327 323 316 314 316 316 314 316 320 323 326 326 327 328
329 329 329 331 331 331 332 333 333 333 333 332 331 332 333 331 333 335 334 333 335 336 334 334 334 332 332 331 333 335 334 334 335 335 334 332 331 331 331 331 330 329 328 326 324 323 326 328 326 324 320 316 313 311 311 315 319 320 323 323 326 326
330 330 330 331 331 329 330 330 330 329 327 326 326 326 327 329 331 332 332 333 335 337 333 333 333 332 333 335 336 336 335 334 334 334 333 332 332 332 331 331 331 330 329 328 327 325 324 327 327 328 326 321 317 312 314 317 316 312 321 323 323 324
331 331 331 331 331 329 328 329 330 330 328 327 325 325 328 329 331 332 333 332 334 334 336 335 334 334 334 336 335 336 335 335 335 334 335 332 330 331 332 332 332 330 329 328 327 324 325 325 326 327 329 328 327 323 322 318 313 317 314 320 324 322
332 332 330 332 332 332 329 330 330 329 329 328 326 326 329 330 331 333 333 333 335 333 335 336 334 333 334 336 335 335 335 334 335 334 334 332 331 331 331 331 331 330 330 330 328 326 325 327 324 323 325 325 325 325 323 321 321 319 317 315 318 324
332 331 331 331 330 330 330 330 330 329 328 330 329 329 331 331 331 333 333 333 334 335 335 335 334 333 334 335 336 335 335 334 334 334 334 333 332 333 332 329 329 330 328 329 330 329 328 326 325 324 323 323 323 323 323 322 323 320 316 315 316 318
330 330 329 329 329 329 330 330 329 331 330 331 331 331 332 329 329 330 332 333 334 333 332 332 333 333 333 334 334 334 333 334 333 333 333 332 332 331 331 331 330 329 330 329 329 330 328 326 326 326 325 324 322 321 320 320 320 319 318 318 316 317
329 329 329 328 328 328 329 330 330 331 330 330 330 330 329 329 329 329 330 333 333 332 333 332 332 332 332 333 332 333 332 332 331 333 331 329 329 330 330 332 332 331 331 331 329 328 327 326 327 326 325 324 323 323 320 318 319 318 317 315 316 316
327 328 328 327 327 328 329 331 332 332 330 330 330 330 329 328 329 328 329 330 332 331 331 332 331 330 331 331 332 331 331 331 331 330 330 330 330 331 332 332 331 330 331 330 330 329 328 327 326 325 324 323 323 324 322 321 321 320 318 317 318 316
327 326 327 327 327 328 329 330 331 331 330 330 331 330 329 329 330 328 328 330 330 330 330 330 330 329 329 330 331 330 330 329 329 329 330 330 330 331 332 331 331 330 329 329 328 328 327 327 327 326 325 325 325 325 324 324 323 322 321 320 319 316
326 325 326 326 326 327 328 329 330 330 330 330 330 330 329 330 331 330 330 330 329 329 329 329 329 328 330 330 330 330 330 330 330 329 329 330 330 331 332 331 331 330 329 328 328 328 327 327 327 327 327 325 325 325 325 326 324 324 321 319 317 317
325 325 326 326 326 326 327 328 329 329 330 330 331 331 330 331 331 331 330 329 329 330 329 329 329 330 330 330 330 329 329 329 329 328 328 330 332 331 331 331 331 329 329 329 329 328 326 328 328 327 326 326 325 324 324 327 326 325 323 322 320 319
326 326 327 326 325 326 327 328 328 328 329 330 330 330 328 327 329 331 330 329 329 329 329 329 330 329 329 330 328 328 329 329 329 328 328 329 329 330 329 329 329 329 329 332 329 327 327 328 328 327 327 326 326 325 327 327 328 325 324 324 323 320
327 327 327 327 325 324 325 326 327 326 326 328 329 328 327 326 326 328 330 330 330 330 329 330 330 329 329 329 328 328 327 328 327 327 327 328 329 329 329 328 328 328 328 329 329 329 327 327 325 327 326 327 326 327 326 327 326 326 326 324 325 324

ECMWFFLT2_sfc_thetae_060.txt.gz
Theta_e
345 345 345 345 346 347 348 351 351 351 351 351 350 350 349 350 350 349 349 349 347 345 345 346 346 346 349 346 347 347 347 347 346 346 346 346 346 346 346 346 345 345 345 345 345 345 344 345 346 346 343 338 336 328 328 328 329 331 330 331 333 332
344 344 345 345 346 346 348 350 347 348 349 349 350 350 348 347 350 345 348 346 344 345 343 343 344 349 345 346 346 347 346 346 346 346 346 346 346 346 346 346 346 345 345 344 345 334 338 342 345 344 343 339 331 328 328 328 328 329 330 330 332 334
343 344 344 345 345 346 347 347 347 347 348 349 349 348 346 347 344 344 344 343 344 342 342 342 343 345 345 346 345 346 346 346 346 345 346 345 345 345 345 345 346 345 344 344 334 333 335 334 334 342 341 333 329 328 328 328 328 328 328 329 327 335
342 343 343 343 344 345 346 345 346 346 346 346 346 346 345 344 344 343 342 342 341 341 341 341 347 348 348 344 344 346 345 345 345 345 345 345 344 344 344 344 344 346 342 339 332 332 335 334 333 331 330 329 328 328 327 327 327 328 329 332 329 336
342 342 342 342 344 344 344 344 343 344 344 345 344 344 344 343 343 341 340 340 340 340 339 340 340 341 340 339 338 339 341 339 336 335 341 333 333 338 336 333 332 334 329 332 334 333 334 334 333 331 328 326 326 327 327 328 328 328 328 328 331 335
340 340 340 341 342 343 343 342 342 342 343 343 343 342 342 342 341 340 339 340 340 339 338 337 338 338 338 336 336 336 336 335 333 333 336 331 330 331 328 330 330 330 329 329 331 334 337 335 332 331 330 330 328 328 327 327 328 328 329 328 332 335
339 338 338 340 340 341 341 342 342 343 342 340 340 340 340 340 339 338 339 341 338 338 337 336 336 336 336 336 335 335 334 333 332 331 333 331 328 330 329 329 328 328 327 328 329 331 336 335 332 331 331 332 331 329 328 329 329 328 328 329 334 335
338 337 338 339 338 338 337 339 341 344 342 341 338 339 339 338 337 337 339 340 340 338 337 336 336 336 335 335 335 334 333 332 331 330 332 329 329 327 327 327 327 327 327 327 328 335 334 333 331 331 331 331 332 330 329 329 330 329 330 330 331 335
337 337 337 338 337 334 334 338 341 341 338 341 336 337 338 337 336 337 339 339 339 337 336 336 335 335 335 335 334 333 332 331 330 331 331 330 328 328 327 326 327 326 324 326 328 335 333 331 330 329 330 330 331 331 330 329 330 330 331 331 331 333
336 336 336 336 335 334 334 337 340 339 338 340 335 336 336 335 335 336 337 338 339 337 337 336 335 335 334 333 333 332 332 330 329 329 330 330 328 327 326 325 326 327 326 326 334 334 330 329 330 329 329 330 331 331 331 330 331 331 332 332 332 333
336 337 335 335 334 334 335 336 339 339 338 337 336 337 335 335 334 335 337 338 338 338 337 336 336 335 334 334 334 332 332 330 329 328 330 329 328 329 326 326 326 326 327 328 333 331 329 329 330 330 330 330 330 330 330 330 331 333 333 332 332 330
335 335 335 334 334 334 335 336 338 339 338 336 337 336 335 335 335 334 337 338 338 338 338 336 336 335 334 334 334 334 333 331 330 330 330 329 330 330 328 328 331 331 329 331 331 329 329 330 329 329 329 329 329 329 329 330 330 331 331 331 330 330
335 334 333 333 333 334 334 336 337 338 338 338 337 336 335 335 334 335 337 338 338 339 338 336 335 335 336 333 334 334 333 333 333 331 330 333 333 332 331 333 331 331 332 331 330 329 330 329 329 329 329 330 330 329 329 329 329 329 330 330 329 329
336 334 334 333 334 334 334 335 337 337 338 338 337 336 335 335 336 336 337 338 339 339 337 336 335 333 333 331 332 334 333 333 334 333 333 335 334 332 332 330 330 332 335 330 329 328 328 327 327 327 328 329 329 329 329 329 328 328 329 329 328 328
337 334 335 334 335 334 334 336 337 336 337 337 336 335 335 335 336 336 337 337 339 338 336 335 335 333 331 332 332 333 332 334 335 334 332 333 333 333 332 330 330 331 330 330 329 329 327 326 326 326 326 326 327 328 328 328 328 329 329 327 328 327
337 335 334 335 334 334 335 336 337 339 336 336 336 334 335 335 336 336 338 337 337 337 335 334 333 332 331 331 332 333 334 334 335 334 333 333 334 332 331 330 330 330 329 328 329 327 327 326 326 326 327 327 327 327 326 326 328 328 328 328 327 327
336 335 334 336 335 334 336 336 336 337 337 336 336 335 335 335 336 336 337 336 336 335 334 333 333 332 332 332 332 333 331 335 334 333 333 332 332 332 331 331 329 330 330 328 328 327 325 325 326 328 328 327 326 326 326 327 327 327 328 327 326 327
336 335 334 334 334 334 335 335 335 336 337 337 337 336 336 337 336 336 336 334 334 334 334 332 332 333 332 333 332 331 330 334 333 334 333 332 331 332 332 331 329 328 330 329 327 326 325 326 329 329 328 325 324 326 328 328 328 329 326 326 325 325
335 331 330 332 333 333 334 333 333 335 336 336 337 338 337 336 336 336 334 334 334 334 334 332 332 332 332 333 330 330 330 332 334 333 333 331 331 331 331 331 329 329 329 330 328 326 326 326 328 329 327 324 325 326 328 328 326 326 325 326 328 330
333 331 330 330 332 332 332 333 332 332 332 333 336 337 337 336 336 335 335 334 334 333 333 333 332 332 332 331 330 330 331 332 332 332 331 330 329 330 330 329 329 329 329 330 329 328 327 327 327 327 326 326 326 326 327 326 327 325 325 327 329 327
331 330 329 327 330 331 330 331 332 331 331 332 334 334 335 335 335 335 335 334 334 334 333 332 333 332 331 334 330 330 330 330 332 331 330 329 330 331 331 330 329 330 329 328 326 327 327 327 326 325 326 327 327 328 328 326 327 327 328 328 326 326
331 330 329 326 329 332 331 332 332 331 330 330 331 331 333 333 334 335 334 334 335 334 334 333 333 332 333 331 329 330 330 330 331 331 331 330 330 333 331 329 329 327 327 328 325 328 327 326 321 322 321 321 323 326 327 326 325 326 328 328 326 325
331 330 328 328 329 331 332 332 332 330 329 329 332 333 334 333 334 334 333 334 335 335 335 334 333 334 333 332 330 330 329 330 330 332 331 330 330 330 330 329 329 327 325 325 327 328 326 323 321 323 323 320 317 317 321 323 326 327 326 325 326 325
330 330 328 329 330 330 332 331 332 331 332 331 329 333 333 333 333 333 333 334 334 335 335 335 334 334 334 333 331 330 330 329 331 332 331 330 329 328 328 327 326 327 327 324 326 326 328 326 324 321 314 311 316 317 313 317 320 323 327 326 326 324
330 330 329 329 329 330 331 330 331 331 331 329 330 329 331 330 332 332 332 332 332 334 335 334 334 333 333 330 331 331 332 331 332 331 331 330 329 329 329 328 328 327 327 326 324 324 326 324 325 323 319 315 312 311 312 317 320 320 323 324 325 327
330 330 330 330 329 330 329 329 328 327 325 325 324 326 328 328 329 330 331 332 333 334 334 333 332 332 332 331 330 332 332 332 332 331 331 330 330 329 329 328 328 329 327 327 326 325 323 325 326 325 321 318 318 313 313 318 318 312 321 323 323 326
329 328 330 329 328 330 329 329 329 328 327 325 325 327 330 331 330 331 331 331 333 333 333 332 331 331 331 331 331 332 333 333 333 332 332 330 329 329 330 330 330 328 327 327 327 324 323 323 323 324 324 323 323 318 321 318 314 317 314 320 323 322
329 328 329 329 327 329 329 329 328 328 328 327 327 327 329 330 330 331 331 331 331 332 332 332 331 331 331 332 333 332 333 333 332 332 332 330 330 329 329 329 330 329 328 327 327 325 323 324 323 321 322 320 320 321 321 316 319 317 315 314 317 323
328 329 329 328 327 328 329 329 329 329 328 329 329 329 329 330 330 332 330 330 331 332 332 332 331 331 331 333 334 333 333 333 332 332 333 331 330 329 328 328 328 327 327 326 326 326 325 324 322 321 321 318 319 319 318 317 320 316 316 316 316 318
328 329 329 328 327 327 328 328 328 328 328 327 328 327 328 329 330 331 330 330 331 330 331 331 330 331 331 333 333 332 332 332 332 332 332 331 330 329 328 328 328 328 327 326 325 326 326 325 324 323 323 322 319 317 316 316 315 314 317 319 316 316
328 328 329 328 327 327 327 328 328 327 327 327 327 326 326 327 328 329 330 330 331 330 330 330 329 330 331 332 332 333 332 332 332 332 332 330 329 329 328 328 328 328 327 327 327 326 325 325 324 324 322 322 321 321 318 315 316 316 315 314 316 317
327 327 328 328 327 327 327 327 328 327 327 328 327 326 326 326 328 328 330 329 330 328 327 327 329 328 330 331 331 330 331 331 331 330 330 330 329 329 329 328 327 328 327 327 327 326 325 324 324 324 323 322 322 322 319 319 319 318 317 315 317 317
327 327 327 327 327 326 326 327 328 328 327 328 327 327 326 326 327 328 329 330 328 325 326 326 327 328 329 329 330 329 328 327 328 329 329 327 328 329 329 328 327 328 328 327 326 326 325 324 324 324 323 321 322 322 320 320 321 319 317 318 318 316
327 327 327 326 326 325 326 327 328 328 328 329 328 328 328 327 327 328 329 330 329 327 327 328 327 327 328 329 329 329 329 329 328 328 328 327 329 330 329 328 328 328 327 327 326 325 325 324 324 324 323 322 322 323 321 321 321 319 318 318 316 316
325 326 325 325 325 324 325 325 326 327 327 327 327 325 326 328 328 328 328 330 329 329 329 328 328 328 329 328 328 328 328 328 327 327 327 328 330 330 329 329 329 328 327 326 326 325 324 324 324 323 323 324 323 323 322 322 322 321 320 320 319 318
324 323 323 323 323 323 323 324 325 324 325 326 326 327 326 326 328 328 329 330 329 329 328 327 327 328 328 328 327 327 328 327 326 326 327 328 329 329 329 328 327 327 326 328 326 324 324 324 324 324 324 322 323 323 323 323 323 322 321 321 320 319
322 322 323 324 323 323 324 324 324 323 323 324 326 327 327 328 329 329 329 329 329 329 328 328 328 328 327 327 326 327 327 325 325 326 327 328 328 328 327 327 327 325 325 325 326 325 325 325 324 324 322 323 323 323 322 324 324 322 321 321 321 320

ECMWFFLT2_sfc_thetae_063.txt.gz
Theta_e
346 346 346 346 346 347 349 351 350 351 351 351 350 350 349 350 348 348 349 349 348 345 345 346 347 346 349 346 347 347 347 346 346 347 347 347 346 346 346 346 346 345 346 345 345 344 345 343 341 340 339 338 336 327 326 325 326 330 327 329 331 330
345 345 346 346 346 346 348 349 347 348 348 348 349 349 347 347 348 345 349 346 344 346 343 343 344 348 344 346 346 347 347 346 346 346 346 346 346 346 346 346 346 346 345 344 342 334 339 343 341 339 337 335 327 326 326 326 325 328 327 327 329 332
344 345 344 345 345 346 347 346 346 346 347 348 347 347 344 345 342 343 343 343 344 342 341 342 344 345 344 346 345 346 346 346 346 345 346 346 346 346 346 346 346 345 344 339 333 332 332 336 336 339 336 329 326 326 326 326 326 327 325 327 327 335
344 344 344 343 343 344 345 344 345 345 345 344 344 344 342 341 341 341 342 342 341 341 340 341 348 348 347 343 343 346 346 345 345 345 345 343 346 346 346 346 345 343 337 335 332 331 331 332 330 328 326 326 326 326 326 326 326 325 326 331 328 336
343 344 343 343 342 343 344 345 345 345 345 344 343 342 341 340 340 340 340 341 340 339 339 340 341 342 339 339 337 338 340 338 335 335 340 329 332 333 333 330 331 331 329 333 333 331 329 328 328 326 325 326 326 326 326 328 328 327 326 326 330 334
342 343 342 341 343 345 345 344 344 345 345 344 343 342 342 339 337 339 338 338 339 337 337 337 338 338 337 336 335 335 334 334 332 332 333 327 327 326 326 326 326 327 326 329 331 332 330 329 327 327 325 325 326 326 326 325 327 328 328 329 332 334
340 340 340 341 343 344 343 344 344 344 343 342 342 342 342 341 338 338 338 339 337 335 334 335 336 336 335 335 335 333 333 333 332 330 330 329 327 326 325 325 324 324 324 327 331 332 330 329 328 327 326 326 326 326 326 327 326 326 326 328 333 335
337 337 338 341 342 342 342 343 344 345 342 343 342 341 341 340 338 337 338 338 338 334 334 334 335 335 334 333 333 332 332 331 332 331 331 330 326 326 324 323 323 323 325 326 333 331 329 329 328 328 327 327 327 326 326 326 327 327 327 328 329 334
335 336 337 340 340 340 341 342 343 341 340 343 340 340 340 339 338 338 338 338 337 334 333 334 334 334 333 333 332 331 331 330 328 330 330 327 327 326 324 323 323 323 322 326 332 330 329 328 328 328 328 328 327 326 326 326 326 327 328 327 329 332
333 334 336 338 337 339 340 341 342 340 341 341 339 339 339 338 338 338 337 337 337 335 334 334 333 333 333 332 332 329 329 328 327 327 329 329 326 326 325 323 323 324 325 328 331 330 328 327 328 327 328 328 328 328 327 327 327 327 327 327 328 332
334 337 335 334 335 337 339 340 341 340 340 339 339 339 339 338 336 336 336 336 336 336 334 333 333 333 332 331 331 330 329 327 326 326 328 329 326 327 324 324 325 324 325 331 329 328 327 327 326 327 327 328 328 328 328 328 328 329 329 328 328 328
333 334 334 333 334 334 337 340 340 340 339 338 339 338 338 337 336 335 336 336 336 336 336 333 333 332 332 331 330 329 328 328 327 326 328 327 327 326 325 324 326 328 328 331 327 327 326 327 325 327 327 328 328 328 328 329 329 329 329 328 327 327
334 333 332 332 333 333 334 338 340 339 338 338 338 338 336 335 334 335 336 336 336 336 335 334 333 333 334 331 331 330 329 330 329 329 328 328 327 326 328 328 327 329 329 327 327 326 328 326 326 326 327 328 328 328 328 329 328 329 328 327 326 325
334 332 332 332 332 332 333 336 339 339 338 337 337 337 336 334 334 335 336 336 336 336 335 334 333 332 332 330 331 332 331 331 329 329 328 327 327 327 328 327 327 329 331 327 326 325 325 326 328 328 328 328 327 327 328 328 327 327 327 327 325 326
336 332 333 331 332 332 332 336 338 339 338 337 336 336 335 334 334 335 336 336 336 336 335 334 334 333 331 329 330 331 331 332 331 329 329 328 329 329 328 328 329 328 326 325 325 324 326 326 327 327 327 328 328 328 326 326 327 328 328 326 327 325
335 332 332 332 331 332 333 335 336 340 338 337 335 334 334 334 334 335 337 337 337 336 335 334 334 332 331 329 329 331 332 331 332 331 329 329 331 329 328 329 329 328 326 325 325 323 324 325 326 326 328 328 328 328 326 326 327 327 326 327 326 325
334 333 331 331 331 332 333 334 336 338 338 337 335 334 334 334 334 335 337 338 337 336 335 334 333 332 331 330 329 331 331 332 332 331 331 330 330 329 329 329 326 327 328 325 325 324 324 324 326 327 328 328 327 327 327 327 327 325 326 326 325 325
335 334 332 332 332 332 333 334 335 335 337 336 335 335 335 335 335 336 337 337 337 337 335 333 333 331 331 331 330 330 331 332 332 331 331 330 329 329 329 329 326 325 327 326 325 325 325 326 327 327 327 326 327 328 328 328 329 329 326 326 326 326
335 333 332 332 332 332 332 333 334 335 337 336 336 335 334 334 335 336 337 337 337 336 335 333 332 332 330 331 330 329 331 332 332 331 331 329 328 329 328 328 328 326 327 325 325 325 327 327 327 326 326 326 328 328 329 329 328 326 326 326 328 329
334 333 331 331 332 332 333 333 333 334 335 335 332 333 333 334 334 335 336 337 336 334 334 333 331 331 331 332 330 330 330 331 331 331 330 328 327 328 328 327 327 327 326 327 326 326 329 328 327 326 326 327 328 328 328 328 328 327 327 327 328 326
333 331 330 330 331 331 331 332 333 332 331 332 332 332 333 334 334 334 335 335 334 334 333 332 332 331 330 334 331 329 329 330 331 331 330 329 328 328 328 328 327 327 327 325 326 327 328 328 325 324 326 326 326 328 329 328 327 328 328 328 325 323
332 330 329 329 331 332 332 333 332 331 329 329 329 329 331 333 333 333 334 334 332 331 331 332 332 331 331 331 329 329 329 331 332 330 329 329 328 331 328 327 327 326 327 326 325 327 327 325 321 321 320 320 323 325 327 327 327 328 329 328 325 323
331 329 326 328 330 330 329 332 332 330 329 328 331 330 333 333 335 333 332 331 332 332 331 331 332 332 330 330 329 329 330 331 331 330 328 327 328 327 327 327 327 327 326 324 325 327 325 320 320 323 323 320 317 316 321 324 326 326 326 327 327 326
331 329 325 327 330 328 330 331 331 331 330 328 328 331 331 331 331 331 330 331 332 332 331 331 331 332 331 330 329 328 329 329 329 330 329 328 328 327 326 327 326 326 326 324 325 325 324 322 323 321 314 313 316 317 313 317 320 323 326 326 327 325
331 329 326 328 329 329 330 329 329 329 329 327 328 328 329 328 330 330 331 330 330 333 332 331 331 332 332 330 329 329 329 329 330 330 330 329 328 328 327 327 327 326 325 325 323 323 323 321 323 321 318 315 313 312 313 317 320 320 324 324 325 325
331 329 327 328 329 329 328 328 326 325 324 323 323 325 326 327 328 328 328 330 332 333 332 332 332 333 332 331 329 329 329 330 330 330 330 330 329 328 327 326 327 327 326 326 325 322 322 322 323 323 319 316 318 313 312 318 318 312 321 324 324 327
331 329 329 328 329 329 326 327 327 326 326 324 324 325 328 329 329 330 330 330 331 332 333 332 332 332 332 331 330 330 330 330 331 330 330 329 328 327 327 327 327 327 327 326 324 321 322 322 319 322 321 321 319 316 320 318 314 316 314 319 323 323
330 330 329 328 328 329 327 326 326 325 326 325 325 326 328 329 330 331 330 331 330 331 332 333 332 331 331 331 330 330 331 331 331 330 330 329 329 328 328 327 328 328 327 327 325 322 321 321 320 320 321 318 317 318 319 314 318 316 314 313 316 322
329 330 330 328 327 328 328 327 327 326 325 326 326 325 329 330 329 331 329 329 330 331 331 332 332 331 331 330 331 330 331 330 330 330 331 329 329 329 328 327 327 326 325 326 326 324 323 322 321 320 318 313 316 316 314 314 317 312 313 314 316 317
329 329 330 329 328 327 327 327 326 326 325 325 325 325 328 328 328 328 328 328 329 330 330 329 328 329 329 330 330 330 330 331 331 331 331 329 328 328 327 328 327 327 326 326 325 325 324 323 323 321 322 317 314 313 313 313 313 312 315 316 315 316
329 329 329 329 327 326 327 327 327 326 326 325 324 324 325 326 327 327 327 327 327 327 328 328 327 328 329 330 330 330 331 331 331 331 331 329 328 328 327 327 327 327 326 326 325 324 323 322 323 321 320 319 318 319 316 312 314 313 312 311 314 317
328 328 329 329 327 324 325 326 326 326 326 325 324 324 324 325 327 327 327 326 326 326 326 327 328 328 328 329 329 330 331 331 330 330 330 329 329 328 327 327 327 326 326 326 325 325 323 322 322 321 320 319 319 320 316 315 317 317 316 314 315 315
328 328 328 326 324 324 325 325 326 326 325 325 325 324 324 325 326 327 328 327 325 325 325 325 325 326 327 328 328 327 326 328 329 330 330 328 328 328 327 326 326 326 326 325 325 324 323 323 323 322 321 319 319 319 318 316 319 317 314 316 317 315
324 325 324 323 323 323 323 324 325 325 324 325 325 325 325 325 325 326 327 327 326 326 325 325 324 325 326 327 328 328 328 328 329 329 328 328 328 328 327 326 326 326 325 326 325 324 324 323 323 322 322 320 320 320 317 319 319 317 316 316 315 315
323 323 322 322 322 322 323 324 325 326 324 323 324 325 325 325 325 325 326 328 328 327 326 325 325 326 327 327 328 328 327 328 328 328 327 327 328 327 327 327 326 326 326 325 325 324 322 322 323 321 320 321 321 319 319 318 319 318 319 318 317 316
320 319 320 322 322 323 323 324 326 327 326 324 324 325 324 324 324 325 326 328 328 327 327 326 326 327 327 329 328 328 328 327 326 326 326 326 327 327 326 326 325 325 325 326 324 323 322 322 322 321 321 319 320 320 320 320 320 319 319 319 318 318
320 319 320 321 321 323 323 324 326 326 325 324 324 325 325 325 325 325 326 328 329 328 328 327 327 328 327 328 328 327 327 325 325 325 326 326 327 327 326 326 325 324 324 324 324 323 321 322 322 321 320 320 321 321 320 320 320 319 319 319 319 320

ECMWFFLT2_sfc_thetae_066.txt.gz
Theta_e
347 348 347 347 347 347 349 351 350 351 350 350 350 350 349 350 350 348 348 348 347 345 345 346 346 346 348 345 345 345 346 346 346 346 346 346 346 346 345 345 345 345 344 343 342 342 342 341 341 340 339 337 335 328 327 328 330 334 332 333 335 334
347 347 347 347 347 346 348 349 346 347 347 347 348 349 347 346 348 346 347 345 344 346 343 343 345 347 344 346 345 346 346 346 346 346 346 346 346 345 345 345 345 344 343 344 343 340 341 342 341 339 337 334 328 328 328 329 330 331 331 331 334 335
346 346 346 346 346 346 346 345 346 346 346 347 346 346 344 344 341 343 343 343 344 343 342 343 344 345 345 346 345 346 345 345 345 346 346 346 346 346 346 344 343 342 341 340 337 337 336 336 337 339 336 329 328 328 328 329 329 329 329 332 331 335
345 346 345 345 345 345 345 345 344 343 343 342 343 343 341 341 341 342 342 342 341 342 341 341 346 347 346 343 343 345 345 345 345 345 345 344 346 346 345 343 342 340 337 335 334 335 334 333 330 328 328 328 328 328 328 329 329 328 329 334 329 336
345 345 344 344 344 344 345 346 345 344 343 342 341 340 339 339 340 341 342 342 341 340 340 340 341 342 340 339 339 339 338 335 335 335 338 331 331 336 336 334 334 334 333 333 333 332 331 329 328 328 327 328 328 328 329 329 329 329 329 331 336 335
344 344 343 343 344 345 346 345 345 345 344 343 342 341 339 338 339 341 342 341 340 339 339 340 339 338 338 336 336 335 334 333 332 333 334 329 327 328 329 331 331 331 331 332 331 330 330 328 327 327 327 328 328 328 328 329 330 330 331 332 335 333
342 342 342 344 344 344 344 345 345 345 343 342 343 341 340 339 339 340 341 342 339 338 339 339 338 337 336 335 335 334 333 332 331 330 332 328 327 326 327 328 328 329 330 331 331 330 329 328 327 327 327 327 328 328 328 328 329 329 330 332 335 334
341 341 342 344 343 343 343 344 344 345 343 344 343 341 340 339 338 339 340 340 340 338 338 339 338 338 335 334 334 333 332 331 330 329 331 328 327 325 326 326 327 327 331 331 330 329 329 328 327 327 327 327 328 328 328 328 329 329 330 331 334 335
340 340 341 343 342 342 343 343 343 342 341 344 342 341 340 339 338 339 340 339 338 336 337 338 338 337 335 335 333 332 332 331 330 330 330 329 328 326 325 325 326 327 329 330 330 329 329 328 328 328 328 328 328 328 328 329 329 330 331 331 332 334
339 339 341 342 341 342 343 342 342 342 342 343 341 342 340 338 337 339 338 337 337 336 336 337 338 337 336 334 333 332 332 330 330 329 330 330 328 327 325 325 326 327 329 330 329 330 329 328 328 328 328 329 329 329 329 330 330 331 331 331 333 336
338 340 341 341 340 341 342 342 341 342 342 340 341 341 340 339 337 338 338 337 336 336 335 335 336 336 336 334 332 331 331 329 329 328 330 330 328 328 326 325 326 327 329 330 329 330 329 328 328 329 330 328 329 329 330 330 331 332 332 331 332 333
336 339 339 339 340 340 341 341 341 341 341 340 341 340 339 339 338 337 337 336 335 335 336 334 334 334 334 333 332 331 330 329 330 327 329 328 328 328 326 326 328 329 331 330 328 328 329 328 328 329 328 329 329 330 330 331 332 331 331 331 330 331
336 337 337 338 339 340 341 341 340 340 340 340 340 340 339 338 338 338 337 336 335 335 336 334 334 334 335 332 332 331 330 330 329 328 328 328 329 327 329 329 329 330 329 328 328 327 328 328 328 328 328 328 330 330 330 331 331 331 331 330 330 330
334 335 335 336 337 339 340 340 340 340 340 339 340 339 338 338 338 338 337 336 335 336 335 334 334 333 333 331 331 331 330 330 329 328 328 329 328 328 328 329 329 329 330 328 327 327 327 327 328 329 329 329 329 329 330 330 331 330 330 330 329 330
335 333 335 334 336 337 338 339 340 340 339 339 339 339 338 337 337 338 338 336 336 336 335 334 334 333 332 331 331 331 330 331 330 329 328 328 329 328 328 328 329 328 326 326 327 327 327 327 328 328 328 329 329 330 330 330 330 330 330 329 330 329
334 332 333 333 333 335 337 339 340 340 339 339 338 338 338 337 337 338 338 337 336 336 335 334 334 333 332 331 331 331 332 332 331 330 328 329 329 328 328 329 329 328 325 325 326 326 327 327 327 327 328 329 330 330 330 330 330 329 329 330 330 329
332 333 332 331 331 332 335 337 339 339 338 338 337 337 337 337 336 337 338 336 336 336 335 334 334 333 332 331 330 331 332 332 332 330 329 330 329 329 329 329 328 329 328 325 325 325 326 327 327 328 328 328 328 329 329 329 329 328 329 328 327 329
333 333 331 330 331 331 333 336 338 338 338 337 337 337 336 336 335 333 333 335 337 337 336 334 333 333 332 332 331 331 331 331 332 331 330 330 329 329 329 330 327 327 327 326 325 325 325 326 327 327 327 327 327 328 328 329 330 330 328 328 328 328
334 333 331 331 330 329 331 334 337 337 337 336 336 336 336 335 334 333 333 335 338 337 336 334 334 333 332 332 331 330 330 331 331 331 331 329 328 328 329 329 328 327 327 327 326 326 326 327 326 326 326 327 328 328 329 329 329 329 329 328 330 330
334 334 332 332 331 331 332 333 333 335 335 335 335 334 333 334 333 333 334 336 337 335 334 333 333 332 332 332 331 330 330 331 331 331 330 328 328 328 328 328 328 327 326 327 328 328 328 327 327 326 326 327 328 328 328 329 328 327 327 329 331 330
334 333 331 331 331 331 330 331 333 333 333 334 333 333 332 332 333 334 335 335 336 336 334 333 333 332 331 334 332 331 330 331 331 331 330 329 329 329 329 329 328 328 326 325 326 329 328 329 326 324 326 325 326 328 329 329 328 328 328 327 326 326
334 333 332 332 332 332 332 332 332 333 334 333 332 331 330 332 332 333 334 335 336 336 334 333 333 332 332 332 331 329 330 331 331 331 331 330 329 330 329 328 328 326 328 326 325 328 328 327 323 321 320 321 323 326 327 328 327 328 329 328 326 325
330 332 332 332 332 332 332 332 332 332 333 331 332 332 332 332 332 332 333 334 335 335 334 332 333 333 332 331 331 330 330 329 328 330 328 328 329 328 328 328 328 326 325 327 327 328 327 325 322 324 324 320 316 316 321 324 327 327 328 328 328 327
328 330 329 331 333 332 332 332 331 330 330 331 329 330 331 332 331 332 331 333 333 333 332 331 332 333 332 331 330 330 329 329 329 330 328 327 326 327 327 328 327 327 326 323 325 325 327 324 325 322 315 315 316 317 313 317 320 324 327 327 327 327
329 330 328 331 331 332 332 330 330 330 330 329 329 328 327 327 330 330 331 331 331 332 331 331 332 332 332 331 330 329 328 329 329 330 329 328 327 327 328 328 328 327 326 325 323 325 326 325 325 325 320 315 312 312 313 318 320 320 325 325 326 326
330 330 328 329 331 331 330 329 327 326 324 324 323 324 323 324 326 327 329 331 331 332 331 331 331 332 332 331 329 328 329 330 330 330 329 329 329 328 326 326 328 327 326 327 326 324 323 326 326 323 320 319 319 314 313 319 319 313 323 325 325 326
330 330 329 329 330 330 328 329 328 328 326 324 323 325 327 328 328 329 330 330 330 331 332 331 331 331 331 332 330 328 329 330 330 330 330 329 328 327 328 328 329 327 327 326 326 323 323 323 325 324 323 322 322 319 321 320 315 316 313 320 324 324
330 330 330 329 329 330 329 328 327 325 326 325 324 324 325 327 329 328 329 329 330 331 332 332 331 331 331 331 330 329 329 329 329 329 330 329 329 328 327 329 329 328 327 327 326 324 324 324 321 322 323 322 320 320 321 320 322 317 316 313 316 324
329 329 329 329 329 329 329 328 326 325 325 326 326 325 326 328 328 329 328 330 330 330 332 332 332 331 330 331 332 329 329 329 329 329 330 329 329 328 328 327 327 327 326 326 326 326 325 323 323 321 319 316 319 319 318 319 320 318 317 314 315 317
327 327 326 327 328 329 328 327 325 325 324 325 326 325 325 327 328 329 329 329 329 328 329 330 331 331 330 330 330 330 330 330 329 330 330 329 328 328 328 328 328 328 327 327 326 326 325 325 324 323 323 319 317 316 317 318 317 317 319 319 315 316
329 329 329 329 328 327 326 326 325 325 324 324 324 325 324 326 328 328 328 327 327 327 329 330 330 330 330 330 330 330 329 329 330 331 330 328 327 328 328 328 328 328 327 327 326 326 325 325 325 323 322 321 321 320 319 316 317 317 316 315 317 317
327 328 329 328 326 325 325 325 324 324 324 324 325 325 324 325 327 327 328 326 327 328 328 328 329 328 328 329 329 329 330 329 329 330 329 328 327 329 329 329 328 327 327 327 327 326 325 324 324 323 323 322 322 322 320 319 320 320 319 318 318 317
324 327 327 325 325 325 324 324 324 324 323 324 325 326 325 324 325 327 328 327 325 325 325 325 327 327 328 328 329 328 328 328 328 329 329 328 328 328 329 329 328 327 327 326 326 326 325 324 324 323 323 322 322 322 321 320 321 320 318 319 319 317
323 324 325 324 322 321 321 321 322 322 323 324 326 326 325 325 326 327 327 327 326 326 325 326 327 327 328 328 329 329 329 328 329 328 328 328 328 328 328 328 328 327 326 327 327 326 326 325 324 325 325 322 321 322 321 320 321 320 319 319 318 318
323 322 321 321 321 321 320 322 322 323 324 325 327 326 325 325 325 325 326 326 326 326 325 326 326 327 327 328 328 328 328 328 328 328 328 327 328 328 328 328 328 327 327 327 326 326 325 324 324 323 323 324 323 322 321 321 321 321 321 321 320 319
322 321 320 320 321 321 321 323 323 322 324 326 326 327 325 324 325 326 326 327 326 326 326 325 325 325 325 326 327 327 327 328 328 328 328 328 328 327 326 327 326 327 326 327 326 325 325 324 324 324 324 324 323 323 322 322 322 322 322 322 321 321
319 321 320 321 321 321 322 322 323 323 323 323 324 325 326 325 324 324 324 325 327 326 325 326 325 326 326 326 326 326 326 327 327 327 328 328 327 327 327 327 326 325 325 326 326 325 325 324 324 324 324 323 324 324 322 322 322 322 322 321 321 322

ECMWFFLT2_sfc_thetae_069.txt.gz
Theta_e
351 351 352 352 353 352 350 351 351 351 350 350 350 349 350 349 348 348 348 348 348 349 349 349 349 348 346 347 345 345 346 346 345 344 345 345 345 345 345 345 345 345 344 343 342 342 341 341 340 339 338 337 336 336 336 336 336 335 335 336 337 336
351 350 352 353 353 353 351 350 353 351 350 350 350 350 349 349 349 349 347 350 351 351 349 349 349 348 348 347 346 346 346 346 345 345 345 346 345 345 345 345 344 344 343 343 342 341 342 342 340 338 336 335 334 335 337 338 337 336 336 336 336 335
350 350 350 350 350 350 350 350 350 349 349 349 349 349 349 349 348 348 349 350 352 353 350 349 349 348 348 346 346 346 345 346 345 345 345 345 345 346 345 345 344 343 343 343 343 343 342 341 339 337 335 335 336 336 337 338 338 337 336 336 336 336
351 350 349 349 351 351 350 349 348 348 349 349 349 349 348 348 350 350 350 352 352 352 352 352 348 348 347 347 347 346 345 345 344 345 345 345 346 345 344 344 344 343 342 343 344 342 341 340 337 337 337 336 336 336 337 337 335 336 337 335 335 335
351 349 349 349 349 348 349 348 348 348 349 348 348 348 351 351 350 351 351 351 351 350 350 348 347 348 346 347 346 345 345 345 345 345 344 344 344 344 344 344 343 342 343 343 341 342 340 337 337 336 337 336 337 337 336 337 336 336 336 337 336 335
348 348 348 348 348 349 349 348 348 348 347 347 347 347 347 349 350 350 350 350 350 351 347 347 348 347 346 346 345 343 343 343 343 342 343 342 342 344 344 344 343 343 342 343 342 340 339 337 336 335 335 336 336 337 336 336 337 336 337 336 336 333
348 348 348 349 349 348 348 349 349 348 346 345 347 346 346 346 348 349 349 349 349 346 346 345 346 347 345 345 344 343 342 344 343 342 343 342 342 344 343 342 343 343 342 341 339 338 337 337 337 335 335 334 335 336 337 337 337 337 337 337 335 333
347 347 348 349 348 347 347 348 347 348 347 345 345 344 344 345 346 347 348 348 348 346 344 344 344 345 344 345 344 344 344 342 343 341 342 341 340 342 342 342 343 341 340 339 337 336 335 335 336 337 335 335 336 337 337 336 337 337 337 336 337 335
347 346 348 348 346 347 347 347 347 346 346 345 344 344 344 345 344 345 347 346 345 344 344 344 344 343 343 343 343 343 343 343 343 341 340 339 340 341 342 341 341 340 341 339 337 336 334 335 337 338 336 335 336 337 338 338 337 336 336 336 336 335
345 345 346 346 346 345 345 346 346 345 345 345 345 345 345 344 344 345 345 345 345 345 344 344 344 343 341 342 342 343 343 343 342 342 340 338 339 340 340 340 341 340 338 338 337 337 335 335 334 337 337 336 337 337 338 338 336 336 336 336 337 335
344 346 345 343 345 345 345 345 345 346 346 345 345 345 344 344 344 344 345 345 345 345 345 345 344 343 342 341 342 342 341 342 342 341 342 340 340 340 339 340 341 339 339 338 338 337 335 335 335 336 337 334 337 338 337 338 337 337 336 337 336 337
344 344 345 343 344 344 344 344 345 345 346 346 346 344 343 344 344 344 345 344 345 344 344 343 343 342 342 340 341 340 341 341 341 342 342 341 339 339 339 337 340 343 342 341 339 338 338 335 335 336 336 337 337 337 335 337 337 337 337 336 337 336
343 343 344 343 342 343 345 344 345 345 345 345 346 344 342 342 343 345 346 344 345 345 344 342 342 342 342 342 341 340 340 341 342 343 343 343 341 340 338 338 340 341 340 340 339 338 336 337 336 336 337 337 337 335 336 336 336 337 336 336 336 337
342 342 342 343 344 342 344 344 344 343 344 344 344 343 343 343 343 344 344 344 344 344 343 344 342 342 343 342 341 340 340 340 341 344 343 343 340 340 338 338 337 338 338 338 337 337 335 335 335 335 335 336 336 336 337 335 335 336 337 336 337 336
341 342 342 342 342 342 344 343 343 343 343 344 343 342 342 342 343 342 343 343 343 343 343 343 343 343 341 341 341 341 340 340 341 341 340 341 340 340 339 337 337 337 336 336 336 336 336 335 334 334 334 335 335 335 336 335 336 335 335 336 337 336
341 340 341 342 342 342 343 346 344 342 343 343 342 343 342 342 342 342 342 342 343 343 343 343 343 342 340 341 340 340 340 340 340 340 340 341 341 338 339 338 339 338 333 333 333 333 334 333 334 333 334 335 335 335 336 335 335 335 335 335 335 336
339 338 339 340 342 342 343 343 343 342 342 343 342 342 342 342 342 342 342 343 343 343 343 343 343 342 342 341 341 341 340 341 341 340 340 341 338 339 339 338 339 339 338 333 333 331 332 333 332 333 333 334 335 335 335 335 335 335 335 335 335 335
336 338 338 338 338 340 342 342 342 342 342 341 341 341 343 342 341 342 343 342 342 342 343 343 342 341 342 342 341 341 342 342 341 342 340 340 339 339 340 340 336 337 337 335 333 332 331 332 332 332 332 331 332 335 334 334 335 335 334 333 334 334
337 336 335 336 336 337 339 341 343 342 341 341 341 343 343 342 341 342 342 342 341 342 342 343 342 341 341 341 340 341 342 342 342 341 341 339 338 339 340 340 337 333 335 335 333 333 332 332 331 330 330 331 333 333 334 334 335 335 334 334 335 334
333 333 332 333 334 336 337 336 336 339 339 339 340 339 340 340 342 342 341 340 340 341 340 341 341 341 340 340 339 341 343 342 343 342 340 338 337 337 337 336 336 333 332 332 332 332 332 331 330 330 329 332 332 332 333 333 334 333 334 336 337 337
331 332 330 331 332 333 333 334 336 336 336 338 338 340 338 339 338 341 338 338 339 340 340 340 339 340 339 339 340 342 343 341 341 341 341 340 339 338 338 337 335 334 331 330 330 332 332 332 329 327 330 330 331 333 333 332 331 331 334 335 337 336
332 331 332 333 335 335 335 335 336 336 337 339 338 337 336 336 335 335 335 336 337 338 338 338 339 339 338 339 339 339 340 338 338 338 336 337 337 336 337 337 335 332 333 331 329 331 331 331 328 325 324 324 328 330 330 332 330 330 332 332 332 332
331 332 334 334 336 334 336 336 336 336 337 336 339 339 339 339 336 336 336 335 335 336 338 338 338 337 338 339 339 338 338 339 337 335 334 334 333 331 333 332 332 330 328 331 330 331 332 334 328 329 328 324 320 320 325 330 332 332 332 332 332 332
332 335 335 335 336 337 337 337 337 337 338 337 335 335 333 336 334 334 334 336 336 337 338 338 337 337 337 339 339 338 338 337 335 335 335 334 332 331 331 331 332 332 330 327 327 328 333 333 332 327 320 321 321 321 318 320 324 328 332 330 331 333
332 332 334 335 336 337 337 336 337 336 336 334 333 332 332 331 332 333 334 333 333 336 337 336 337 337 336 338 338 338 337 337 336 336 335 334 333 331 331 333 333 332 331 330 327 328 330 332 332 333 327 321 319 317 317 322 323 325 330 329 330 330
333 333 333 335 336 336 335 335 333 331 328 328 328 327 329 329 329 329 330 333 334 335 336 335 337 336 336 337 337 336 338 337 337 336 335 335 334 333 332 331 332 334 333 335 332 327 327 330 332 331 334 334 329 322 320 322 321 317 327 329 329 329
332 333 333 334 336 335 335 335 333 332 332 331 328 329 332 334 332 332 334 333 334 335 334 335 335 336 336 337 336 335 337 338 337 337 334 334 334 331 331 331 332 334 333 334 333 328 327 327 330 331 331 331 330 330 329 323 318 322 317 323 327 328
333 333 333 334 335 335 334 332 332 332 333 331 330 331 331 331 333 333 333 332 333 334 333 334 334 334 335 336 336 335 337 339 338 337 335 335 334 334 333 333 334 334 334 333 332 331 329 329 326 327 330 329 330 331 331 332 329 323 321 318 320 328
333 333 334 333 333 334 334 333 332 330 328 330 330 330 331 332 332 333 332 332 332 332 332 333 334 334 333 334 336 336 337 337 338 337 334 334 335 334 333 331 331 331 332 333 335 335 332 329 330 330 328 327 330 330 329 331 331 329 323 321 319 321
330 333 333 332 332 332 333 331 330 331 331 331 330 330 330 330 330 331 331 332 332 331 331 332 333 333 333 333 334 335 336 336 336 335 335 336 333 332 333 333 333 332 333 333 335 333 332 332 332 333 331 329 327 328 328 327 327 326 326 326 320 319
330 331 332 332 332 332 332 331 331 333 332 330 330 329 328 329 330 329 328 328 330 331 331 332 333 333 332 333 334 334 335 335 335 336 336 334 333 333 334 335 335 334 334 335 332 333 333 334 334 334 332 330 329 328 326 325 326 326 326 323 322 321
328 329 331 332 331 331 331 331 332 332 330 330 329 328 327 328 329 329 329 329 330 330 330 331 332 332 332 333 333 334 335 334 334 334 335 335 334 334 336 336 335 334 334 336 336 333 333 333 333 333 332 331 331 331 332 330 330 329 327 326 325 322
325 327 328 329 328 328 328 327 327 327 328 328 329 330 330 330 331 331 332 331 329 328 328 327 330 329 331 332 333 332 333 333 333 334 335 333 333 334 335 336 335 334 334 333 333 333 333 334 333 332 332 333 333 332 332 333 333 331 330 330 327 322
320 324 325 326 327 326 327 328 329 329 329 329 329 329 330 330 332 332 333 334 330 329 328 329 330 330 331 331 331 332 333 335 334 334 333 333 333 333 333 333 334 333 334 334 334 333 334 335 335 335 335 332 333 332 333 334 333 332 330 328 326 324
315 317 318 321 325 327 328 328 329 329 330 330 330 330 330 331 331 331 332 331 329 329 327 328 330 332 331 331 330 331 332 333 334 333 333 333 333 332 332 332 332 332 333 335 333 331 333 335 334 333 332 331 331 331 330 331 332 332 330 329 329 328
313 314 314 316 319 324 327 329 330 329 330 330 330 331 331 331 331 332 331 331 331 329 329 329 332 332 331 330 330 330 331 331 331 333 333 332 333 332 332 331 332 332 331 333 334 333 334 335 334 335 334 333 333 331 333 332 332 332 331 331 331 330
311 313 313 314 316 319 322 325 327 328 329 329 329 329 330 331 331 332 331 331 332 330 330 330 330 330 330 329 329 329 330 331 330 331 331 332 332 331 332 331 331 331 331 332 334 334 335 331 333 333 333 332 334 334 334 334 332 333 333 333 332 331

ECMWFFLT2_sfc_thetae_072.txt.gz
Theta_e
354 350 354 355 355 353 353 351 351 350 350 350 350 350 350 349 348 348 348 348 349 351 351 351 350 348 346 347 347 346 345 344 344 345 346 346 347 347 348 347 346 345 344 343 342 341 341 340 340 339 338 337 336 341 341 342 342 342 340 339 339 336
352 350 354 353 354 354 354 352 353 353 352 351 350 350 351 350 348 349 348 350 352 352 349 349 349 347 347 347 347 345 345 344 344 345 346 346 346 346 347 347 346 345 343 342 341 343 342 341 339 338 337 336 340 341 344 343 342 339 340 340 338 337
350 350 352 353 353 353 354 354 353 352 349 348 350 351 349 348 350 347 350 351 350 351 352 351 350 346 347 346 347 345 344 344 344 345 346 346 346 346 345 346 345 344 343 342 344 343 343 340 339 337 336 341 342 342 344 343 342 341 340 339 338 337
351 351 352 349 352 353 353 354 353 353 352 351 352 350 349 350 350 351 352 352 352 351 352 353 347 347 346 346 347 345 344 343 343 344 345 347 346 346 345 345 344 343 342 343 346 342 341 340 337 340 342 340 339 341 343 343 339 339 340 338 337 336
353 353 352 352 352 352 354 353 352 351 351 347 351 351 351 351 352 352 351 352 353 353 352 351 351 348 344 345 345 345 345 343 343 344 345 345 346 347 347 346 345 341 344 345 344 344 343 341 341 340 341 340 341 342 342 342 340 341 340 339 337 334
352 352 354 353 353 353 354 352 352 351 350 351 351 350 352 352 351 352 351 352 352 353 353 350 350 348 346 345 344 342 343 341 340 341 343 342 342 345 345 344 342 342 344 346 346 344 342 342 340 341 339 340 341 342 341 340 340 340 340 338 337 334
354 354 355 355 354 353 352 353 353 352 350 348 351 349 349 352 352 353 353 353 352 351 350 348 349 349 346 345 343 342 341 344 342 341 342 342 343 345 342 343 344 344 345 344 343 342 341 341 341 339 340 339 340 340 340 339 338 338 338 337 337 334
354 354 355 354 354 353 354 354 354 351 351 350 349 348 348 352 353 352 353 353 353 348 346 348 350 348 348 346 344 344 343 343 341 340 341 340 341 341 341 342 343 344 342 343 340 341 340 341 340 342 339 340 340 340 340 338 339 339 338 338 338 335
352 351 353 353 352 353 354 354 353 352 350 349 348 347 346 349 351 352 353 352 352 348 345 343 347 349 347 345 345 344 342 342 342 339 340 338 340 341 342 342 342 342 343 342 341 342 339 340 342 342 340 339 341 341 341 340 339 336 337 337 338 335
350 350 350 353 352 351 353 352 353 352 350 349 348 348 348 346 348 350 350 352 349 348 346 345 345 346 346 345 345 345 343 343 341 341 339 340 339 340 341 341 343 342 340 341 341 341 340 340 339 341 340 340 340 340 340 338 337 336 337 337 338 336
350 350 350 348 351 351 353 352 351 351 351 350 349 349 348 347 347 348 349 353 350 349 350 349 347 346 346 344 345 344 343 343 341 341 340 339 341 341 343 342 343 341 342 341 340 340 339 340 339 340 341 338 340 340 338 339 337 337 336 336 337 337
349 350 350 347 349 350 350 351 352 351 350 351 350 349 348 348 346 347 348 352 352 350 350 350 350 349 347 344 344 344 343 344 343 341 342 340 339 341 342 341 343 343 343 342 342 342 342 340 340 338 339 340 339 339 337 337 337 338 337 337 336 337
348 349 349 348 346 347 350 350 351 351 351 350 351 350 349 348 348 348 349 351 350 349 350 349 350 350 347 345 344 343 343 343 342 342 343 343 340 342 341 341 342 342 342 342 341 341 340 341 339 339 340 340 338 337 339 338 338 338 337 337 337 337
345 343 341 341 342 344 347 349 349 350 350 351 349 348 348 348 348 347 348 350 349 348 348 349 349 349 347 346 346 343 342 342 342 344 343 343 339 339 338 340 339 340 339 340 339 340 338 339 339 339 340 339 339 340 339 337 338 337 337 338 337 338
340 342 341 341 338 341 343 342 345 347 348 350 349 348 348 348 346 347 348 346 350 348 346 348 348 348 347 346 346 344 342 342 343 343 341 342 340 339 339 338 337 337 339 338 338 338 339 340 338 337 339 339 339 339 339 339 338 338 338 339 338 338
339 343 342 341 341 341 342 342 343 344 346 348 347 348 347 348 347 347 348 347 347 348 343 343 344 341 344 346 345 345 344 345 345 342 340 340 341 339 339 338 339 338 337 337 338 338 338 339 338 337 339 338 338 338 340 339 340 340 339 339 339 341
341 342 342 341 342 344 346 345 345 344 345 347 347 347 347 348 347 347 347 346 347 348 347 342 342 345 346 346 345 345 345 346 345 343 341 340 339 339 339 338 339 339 339 336 336 336 337 339 337 337 337 338 337 338 340 341 340 339 340 340 341 339
343 343 342 342 343 344 345 346 345 346 347 346 347 347 348 347 347 346 347 345 346 347 347 344 341 342 345 345 346 346 345 345 344 343 341 341 339 339 340 340 339 339 340 337 335 335 336 337 337 336 336 337 337 337 340 341 341 339 340 339 339 339
344 342 340 342 341 341 343 346 345 346 345 346 347 347 348 347 347 347 346 345 345 346 346 345 342 338 339 345 345 344 344 343 342 341 341 340 339 338 339 341 341 340 341 340 337 337 336 335 335 335 335 336 339 340 341 341 341 339 340 340 341 340
345 342 341 342 341 340 341 339 339 343 342 343 345 344 347 345 347 345 345 345 345 346 345 346 344 339 336 341 346 344 343 342 342 342 340 338 336 336 338 340 340 338 336 337 338 337 337 335 335 335 334 337 339 340 340 340 341 341 341 340 339 338
347 344 341 339 338 337 336 338 339 339 339 342 342 343 342 345 345 345 345 344 344 344 345 343 335 335 336 339 338 341 341 341 341 342 341 339 338 338 339 343 340 338 336 335 335 337 336 337 333 333 334 335 337 339 340 340 339 340 339 337 336 335
345 342 341 341 340 338 339 338 338 338 340 341 341 340 340 342 343 343 344 345 345 344 344 345 341 336 338 339 338 337 338 340 342 342 343 343 342 340 340 339 341 336 338 335 334 336 336 335 331 329 327 328 331 335 339 339 337 338 339 340 337 335
339 339 340 342 341 340 340 342 341 340 341 341 346 346 345 345 346 345 345 345 343 341 340 341 343 339 337 337 338 336 336 339 336 340 343 342 344 342 342 341 339 335 334 336 335 337 337 337 331 332 331 328 324 325 331 334 337 336 336 338 336 337
339 339 339 341 340 342 342 343 344 343 343 341 340 345 346 345 344 344 343 343 342 341 340 339 340 341 339 336 337 336 336 337 338 343 341 340 341 341 343 341 339 337 335 332 332 333 338 339 336 331 323 324 326 325 321 322 327 332 337 338 338 338
338 338 338 338 339 340 341 341 341 341 341 341 341 339 338 338 341 342 341 341 340 340 339 340 341 341 342 339 338 336 335 337 336 341 341 341 340 339 341 341 340 339 337 335 333 335 336 339 337 338 334 326 323 322 323 327 329 329 334 333 337 336
337 338 338 339 340 341 340 339 338 335 332 333 334 334 334 335 338 339 338 341 340 339 339 340 341 342 338 336 337 337 336 335 334 340 338 342 340 341 341 340 340 340 337 338 336 332 332 337 340 338 336 338 333 324 323 328 327 321 332 333 333 333
338 337 338 339 340 340 339 340 338 336 335 335 333 335 338 340 339 339 339 340 341 342 340 338 340 341 339 336 337 339 335 335 336 336 340 344 341 339 337 339 340 338 338 338 334 331 333 334 335 333 336 338 336 334 332 329 324 325 323 328 333 333
337 337 338 338 340 340 340 339 338 337 338 338 337 337 339 338 339 338 338 339 340 341 341 340 338 338 339 338 337 336 336 336 335 333 339 341 342 341 339 340 340 339 340 336 331 333 333 333 330 329 335 336 336 335 335 335 334 329 324 321 325 332
335 336 339 338 337 338 338 338 337 337 337 338 339 337 336 337 335 336 337 339 339 338 338 340 339 338 338 337 337 335 335 335 334 335 335 340 341 339 337 338 339 339 340 336 337 336 333 330 332 333 332 333 334 333 332 334 335 334 325 322 323 326
332 334 337 337 337 337 338 337 337 337 338 337 337 336 336 335 335 336 336 337 339 337 336 338 338 336 337 336 335 335 335 335 334 334 337 336 336 335 335 337 338 337 340 339 339 335 332 334 334 337 334 334 332 331 331 331 332 331 331 329 324 323
327 330 333 336 337 336 337 337 335 335 335 335 334 333 333 334 334 334 336 336 338 337 337 337 337 337 337 335 334 334 336 336 335 336 335 335 335 337 336 337 339 339 337 338 334 332 332 334 336 332 333 333 332 332 331 329 330 331 330 328 325 325
324 324 327 330 333 333 334 334 333 333 332 332 332 332 332 331 333 333 335 335 336 335 335 337 338 337 334 334 334 335 335 335 335 337 335 336 335 335 337 337 338 338 337 337 335 333 334 338 335 333 334 334 334 334 332 330 330 330 330 329 328 326
322 325 326 327 328 331 333 333 334 333 333 334 333 333 333 333 334 334 334 334 336 334 335 335 335 334 334 335 335 334 334 335 334 334 334 334 335 336 337 336 336 337 339 335 335 336 337 333 335 329 333 335 336 334 333 333 332 331 332 332 329 325
321 323 325 326 326 327 330 333 333 333 333 332 333 334 334 333 334 334 335 335 337 336 335 335 336 336 336 336 335 335 335 335 334 334 335 335 336 337 336 335 336 337 334 335 335 336 337 338 337 335 336 336 336 334 334 333 332 332 332 331 329 327
318 321 323 323 325 326 327 329 331 332 332 333 333 334 334 334 334 334 335 335 336 337 337 336 336 337 337 337 337 336 336 336 335 335 336 334 334 335 336 336 337 338 335 334 332 332 337 337 336 335 334 334 336 335 334 334 333 333 333 333 331 329
317 318 319 319 320 322 324 327 329 329 331 333 333 334 334 334 335 337 336 335 336 337 337 337 338 338 337 337 337 336 336 336 336 336 335 336 336 335 334 335 337 333 332 335 333 331 336 336 337 336 334 336 337 334 335 335 335 335 333 334 333 331
315 315 315 317 319 321 321 323 326 327 328 330 332 332 333 335 337 337 337 335 335 336 337 338 337 337 336 337 337 336 334 335 336 336 336 337 336 336 336 334 334 334 334 334 334 334 336 335 337 336 332 335 335 335 337 339 337 336 334 334 334 332

ECMWFFLT2_sfc_thetae_075.txt.gz
Theta_e
348 350 348 349 349 349 349 350 350 350 350 351 350 349 348 348 348 348 348 349 350 351 351 351 348 346 346 346 347 345 345 344 344 345 346 347 347 348 348 347 345 344 344 343 342 341 340 340 339 338 338 340 339 341 342 341 341 340 339 338 337 336
348 346 348 349 348 349 350 349 349 349 348 350 351 349 349 347 347 349 349 349 350 348 348 348 347 346 345 348 346 345 345 344 344 345 346 346 347 347 347 347 345 344 343 342 341 340 341 340 339 337 340 338 338 342 344 343 342 340 340 338 337 336
347 346 347 348 348 349 349 349 347 349 348 348 350 350 349 347 345 346 347 348 350 352 349 347 347 344 345 346 347 344 344 344 344 346 346 346 347 346 346 346 345 344 343 343 342 342 337 335 337 339 339 339 343 344 344 343 343 341 339 337 336 336
346 347 349 348 349 350 349 352 348 350 348 346 348 346 349 348 346 346 346 351 354 351 349 351 347 346 347 347 346 344 343 343 344 345 346 347 346 346 345 345 344 344 343 342 344 342 340 337 337 341 343 344 340 342 343 342 339 340 340 337 335 335
349 349 349 348 349 349 350 350 351 350 347 350 346 348 348 347 348 347 347 348 351 349 349 351 349 346 344 344 344 344 343 343 343 343 345 344 347 347 348 346 344 343 342 343 341 343 341 339 342 343 342 341 342 342 341 342 339 337 338 337 336 335
350 350 349 349 350 350 352 350 346 347 347 345 347 349 349 349 349 352 347 346 349 349 349 347 347 345 343 344 342 342 339 340 340 339 341 340 340 347 346 344 341 339 341 344 345 344 342 341 340 339 340 343 341 342 341 339 338 338 338 336 335 335
350 350 349 352 350 349 350 348 347 347 346 345 348 346 349 350 348 346 346 346 346 348 350 349 347 347 343 343 342 340 337 338 339 339 337 340 341 342 343 343 341 341 343 343 342 341 339 340 341 339 339 340 340 339 340 338 337 337 337 337 336 334
345 350 350 348 347 346 347 345 345 346 344 347 349 346 347 348 347 349 348 347 348 349 346 346 343 347 349 342 342 343 342 338 337 339 338 340 341 342 342 343 343 341 342 341 340 339 338 339 340 341 340 339 339 340 340 338 339 338 337 336 336 335
345 343 345 347 346 346 345 346 345 346 347 346 345 347 349 348 347 348 347 346 347 347 344 342 344 344 347 344 347 343 343 341 340 340 337 339 341 341 343 343 343 342 343 342 340 339 338 338 341 341 340 337 340 339 339 338 338 336 337 337 337 334
345 344 344 347 344 343 345 345 344 343 345 347 347 348 348 349 348 351 348 351 350 349 347 346 347 345 344 344 344 344 342 342 340 339 338 340 340 339 340 342 342 343 339 341 339 339 338 338 337 339 339 340 339 340 339 337 337 336 337 338 337 333
347 345 347 344 343 345 346 346 343 344 345 348 348 349 349 349 347 348 349 352 352 350 349 344 346 346 346 343 341 344 344 342 340 340 340 338 340 340 342 342 342 341 341 340 339 339 337 337 338 337 339 338 339 340 339 339 337 339 337 337 337 335
343 345 342 343 344 345 346 345 347 349 348 348 352 348 348 349 347 347 349 351 352 348 348 348 344 345 343 340 342 345 344 342 341 342 340 338 338 340 342 342 342 343 343 341 341 340 340 337 336 337 337 340 339 340 337 337 338 338 339 338 337 337
344 343 343 342 345 346 347 347 348 347 348 348 349 349 347 348 349 350 351 351 351 349 348 344 348 350 342 343 343 342 343 343 342 341 341 340 339 340 340 342 343 343 343 343 342 341 338 339 339 339 339 338 338 337 338 339 340 340 339 338 338 337
346 346 345 345 345 345 347 348 349 348 348 349 347 346 347 349 350 347 348 350 351 350 349 349 349 348 348 345 343 339 340 345 344 344 342 342 338 339 337 339 339 342 341 341 341 341 338 338 338 339 340 339 338 339 339 338 339 340 339 340 339 339
346 347 347 346 346 348 349 347 347 348 348 348 348 346 347 348 346 346 347 347 351 350 350 349 348 349 346 344 341 342 339 338 343 344 345 342 340 339 338 335 338 339 341 340 340 340 339 340 338 338 339 339 339 339 340 341 341 339 338 340 340 340
348 349 349 348 349 350 349 349 348 347 348 349 346 347 346 347 348 346 346 346 350 350 350 349 348 347 346 346 344 342 341 342 342 345 343 347 344 339 337 336 339 340 337 339 339 339 339 339 340 339 340 338 339 339 340 340 339 339 339 339 339 339
348 349 349 350 350 350 350 348 349 349 347 348 346 345 344 347 348 347 347 346 346 349 350 349 347 347 347 347 345 341 339 341 342 345 344 340 342 343 340 336 338 338 339 338 337 337 339 340 340 340 340 340 339 340 341 339 339 339 341 339 337 338
349 349 349 348 348 348 349 349 348 347 347 347 347 346 346 346 347 348 347 346 346 347 349 349 349 347 346 345 344 343 341 339 341 344 343 342 342 343 342 339 337 339 338 339 337 337 337 339 339 339 338 339 339 337 339 339 339 339 339 336 338 338
346 347 346 346 346 347 347 347 348 346 347 347 347 348 347 346 346 348 346 346 346 347 348 349 347 346 344 343 342 341 340 340 340 342 337 337 339 339 340 341 340 337 338 339 338 338 338 338 337 338 336 338 339 339 340 339 339 340 341 339 339 340
345 345 346 346 345 343 343 341 341 342 343 345 347 345 348 347 348 347 347 346 346 347 346 347 346 344 344 342 341 341 339 338 337 338 339 337 336 335 338 339 340 340 338 339 337 337 338 337 336 337 335 336 339 339 338 338 339 339 339 338 340 339
345 345 342 341 341 340 340 339 340 339 339 342 344 345 346 348 347 346 346 345 342 344 344 345 341 336 339 340 340 342 340 338 339 338 338 339 338 339 339 338 342 341 339 337 337 337 337 338 334 332 335 336 337 338 339 338 337 339 338 338 342 336
344 343 342 343 343 342 342 340 340 339 341 344 342 341 342 345 347 347 346 344 344 342 342 344 342 339 341 340 339 340 342 340 339 340 341 341 340 341 337 335 340 337 336 340 335 336 336 336 331 328 329 328 333 337 337 335 335 336 338 337 339 336
342 341 341 342 342 341 342 343 342 343 341 342 342 338 339 339 341 341 340 340 342 342 342 343 339 342 341 340 340 341 341 340 339 338 339 337 338 338 335 337 335 335 334 336 335 337 337 336 329 330 331 330 327 325 328 331 334 335 335 338 338 337
339 341 341 343 341 343 344 344 344 344 346 346 341 342 341 341 342 341 339 340 340 341 342 343 343 342 342 340 340 339 342 339 339 337 339 335 335 337 336 336 333 333 338 331 330 333 338 337 332 331 325 325 326 324 320 323 327 331 336 336 336 336
340 340 341 340 341 343 343 343 343 343 345 343 343 343 342 341 342 342 340 341 341 341 341 343 344 342 339 341 340 341 341 342 339 341 337 337 335 336 336 337 335 334 333 334 331 333 336 337 335 340 332 326 322 319 319 325 328 330 335 333 334 335
339 340 340 341 342 342 341 340 339 339 339 339 338 338 337 337 336 339 338 343 341 340 343 344 343 342 340 340 341 340 341 339 337 337 339 340 338 338 335 337 336 334 333 337 334 332 333 338 340 341 340 337 335 324 322 329 325 320 330 333 334 334
338 339 339 341 342 341 340 340 340 339 338 337 336 339 340 340 340 340 342 342 342 343 343 342 342 342 342 341 341 339 339 340 338 337 336 338 337 336 336 335 337 338 335 334 336 332 332 335 337 339 339 338 337 335 334 327 323 326 322 327 331 333
337 338 340 341 340 341 340 339 339 338 338 338 338 338 339 340 342 342 342 342 343 344 344 342 342 341 341 341 342 341 340 340 338 338 334 334 336 337 338 337 336 337 339 338 340 335 334 335 331 330 337 336 336 336 335 333 332 324 323 319 322 329
332 335 338 339 340 339 339 339 338 338 337 338 339 339 340 340 339 340 339 340 341 342 343 343 341 340 340 339 339 340 337 335 336 337 333 334 336 338 337 337 336 337 338 339 339 339 336 334 332 331 333 332 332 331 333 333 332 332 326 323 324 326
331 333 335 337 337 339 339 339 337 337 338 337 338 338 339 338 337 339 339 339 339 340 341 341 343 344 341 340 339 338 338 338 338 336 334 335 335 336 336 337 337 335 337 335 339 339 337 335 334 335 334 333 329 329 333 330 330 329 331 327 323 323
329 330 332 334 336 337 337 337 337 336 335 335 336 337 336 336 337 338 338 338 338 338 339 340 342 343 340 339 339 338 339 339 336 334 333 333 336 338 337 338 337 337 333 334 336 337 336 335 337 336 337 334 331 330 329 326 328 329 329 327 327 326
326 328 329 330 332 334 335 335 336 336 335 335 335 333 332 333 334 335 337 335 338 337 338 340 341 341 340 339 338 337 338 339 336 335 333 332 335 339 340 338 336 334 335 335 335 335 334 334 339 336 337 335 335 336 333 330 329 330 329 329 326 324
323 325 326 328 329 330 331 333 334 335 335 335 334 334 334 334 335 334 335 334 335 334 336 338 339 339 339 339 338 337 337 336 336 336 336 337 338 339 339 335 335 335 334 333 333 335 333 337 338 336 336 337 337 335 333 334 334 333 332 331 329 324
322 324 325 326 328 328 330 331 333 334 334 334 335 335 335 334 335 337 337 336 335 336 335 337 338 338 339 340 339 339 337 337 338 338 337 337 337 337 337 336 335 335 335 334 335 333 334 337 337 336 336 336 336 335 337 336 333 333 330 330 328 325
321 322 323 323 325 325 327 328 330 331 332 333 333 333 334 335 334 335 335 337 337 335 334 335 336 339 339 339 340 340 339 338 337 337 338 338 337 336 336 335 337 335 338 335 334 336 336 335 334 335 337 337 337 336 334 335 333 333 332 331 329 328
321 322 322 322 323 324 325 326 327 327 327 328 329 331 332 334 335 337 337 335 338 338 336 336 335 334 337 338 338 338 339 338 337 337 338 336 334 333 336 338 338 337 333 333 332 334 336 335 335 335 334 334 336 335 337 334 335 336 334 332 331 331
320 321 321 322 322 323 324 324 325 324 324 325 326 327 329 333 335 336 336 338 338 339 338 334 334 333 337 335 336 338 338 338 337 337 338 338 338 338 337 337 337 336 333 334 337 336 335 335 335 333 332 332 334 335 337 335 334 332 333 335 333 333

ECMWFFLT2_sfc_thetae_078.txt.gz
Theta_e
346 346 346 347 349 348 348 350 350 350 349 348 348 349 349 349 349 349 348 350 350 349 348 347 345 343 346 345 346 346 345 344 345 344 345 346 347 347 347 346 345 344 343 342 341 339 338 337 340 338 342 340 343 337 339 334 335 335 333 334 334 334
348 349 348 348 348 349 348 348 348 349 348 348 348 348 348 348 348 347 349 349 349 348 348 346 346 345 344 343 345 346 345 344 344 344 345 346 347 347 346 346 345 344 343 342 340 337 338 339 339 341 339 339 339 335 343 339 337 335 334 333 334 335
348 348 346 345 346 348 347 347 347 347 347 349 347 346 346 345 345 345 346 345 349 350 347 346 349 345 345 346 346 345 345 344 344 344 346 345 346 347 346 346 345 344 343 342 340 334 333 332 334 338 339 338 336 339 342 338 336 334 333 333 332 336
348 345 346 345 342 346 348 350 349 346 346 346 348 348 346 346 347 349 345 349 347 346 345 347 346 345 347 345 344 344 344 344 344 345 346 345 346 346 346 346 345 345 344 340 337 334 331 332 334 334 335 338 338 340 340 336 334 334 332 332 331 336
347 346 344 342 342 341 342 344 346 346 347 348 343 344 344 342 344 343 348 347 346 345 345 344 344 345 345 344 342 341 342 341 343 343 346 343 344 344 344 344 343 344 341 338 337 340 333 333 336 336 337 339 341 340 339 337 335 333 332 332 333 336
346 344 343 342 342 343 344 342 343 346 346 346 345 345 344 342 343 344 347 347 348 346 345 343 344 345 344 346 341 338 339 340 340 340 344 342 343 345 343 343 339 338 338 339 340 340 338 337 338 342 338 341 342 341 337 335 334 333 332 332 332 335
344 343 341 342 344 341 341 343 344 345 344 345 346 345 343 343 342 344 346 346 346 346 343 342 343 343 343 342 341 339 337 339 338 337 338 338 340 345 343 342 339 337 338 340 340 337 341 342 341 337 338 336 337 337 336 335 334 333 332 331 333 335
343 344 342 345 344 342 341 340 343 346 345 347 347 345 343 344 343 344 344 346 346 347 345 342 340 342 341 341 341 342 338 338 337 337 336 336 339 339 340 341 340 337 337 338 339 340 339 338 342 340 335 339 338 340 341 334 334 333 332 331 332 333
343 342 343 344 342 344 343 343 343 344 344 345 346 345 346 346 343 344 345 346 345 347 345 344 343 342 342 342 343 343 343 345 338 337 337 335 337 340 341 342 340 338 338 338 338 340 335 338 341 342 338 336 339 338 337 334 333 333 332 331 331 332
343 342 344 344 344 342 343 342 343 344 345 344 344 345 346 346 346 347 347 346 347 347 345 344 343 343 342 342 343 342 344 340 342 346 338 334 339 341 341 342 341 338 336 338 335 337 341 339 336 339 338 337 338 339 339 335 334 333 333 332 331 333
345 346 344 343 344 343 344 342 342 344 344 345 346 346 344 344 346 345 345 346 346 346 345 345 344 344 343 343 343 343 342 343 341 339 337 336 341 341 340 340 341 339 340 338 342 336 338 337 333 336 338 334 338 339 337 341 337 334 333 331 331 332
346 347 343 343 344 343 343 343 343 343 342 343 348 346 347 346 345 346 345 344 345 345 345 346 346 345 343 343 342 341 343 341 341 342 338 336 336 340 340 339 340 341 344 347 341 338 335 335 332 332 336 338 338 338 337 337 336 335 334 331 330 330
346 346 344 343 342 343 344 344 345 344 345 345 348 347 345 343 345 343 343 343 344 343 344 347 347 346 345 343 343 342 341 340 341 342 341 339 337 339 340 341 345 343 347 343 342 338 336 335 333 333 335 336 338 337 335 336 337 336 334 333 332 330
346 345 345 345 345 344 345 346 347 347 347 348 347 348 345 345 344 343 342 341 341 343 345 349 346 347 345 344 341 340 340 340 342 341 341 339 339 339 336 338 340 342 342 338 337 334 333 334 332 336 338 336 336 336 336 335 336 338 338 335 335 331
346 347 346 346 345 346 347 347 346 347 347 350 347 346 346 345 344 343 341 340 341 342 343 344 346 346 341 341 342 341 340 341 343 343 342 341 341 340 337 335 338 337 341 341 340 338 336 336 336 335 336 338 337 337 338 338 337 337 337 339 337 335
346 348 347 348 347 350 348 350 349 346 350 352 348 345 346 347 345 348 346 344 340 341 344 342 341 342 345 343 342 341 341 342 341 343 340 340 342 337 336 335 337 338 336 333 336 336 340 336 338 336 336 337 340 337 337 338 337 337 336 336 335 336
346 347 348 348 348 348 353 349 350 349 345 347 349 345 346 343 344 343 346 343 342 342 343 340 340 341 341 341 343 343 344 343 342 342 341 339 339 339 337 339 341 338 337 333 335 336 334 335 336 334 335 337 339 338 338 337 337 337 340 336 335 336
348 348 350 350 349 350 349 350 349 345 345 342 344 347 346 346 342 343 339 340 340 342 342 341 342 344 342 340 339 339 341 342 341 341 340 338 335 337 338 339 335 337 337 336 336 333 334 337 335 335 332 336 338 337 338 337 338 340 339 335 336 337
347 349 349 351 349 349 349 348 347 346 343 345 346 345 348 344 340 342 341 339 337 341 345 345 346 346 342 342 342 339 341 340 341 341 339 337 337 338 338 338 336 334 337 336 332 331 333 335 334 334 334 332 338 337 338 339 339 338 339 338 340 339
347 348 347 348 346 347 346 345 341 343 341 344 345 348 346 344 342 341 341 339 338 340 343 342 342 346 345 343 342 341 341 341 340 340 338 335 335 336 335 335 335 334 335 336 335 333 334 333 332 332 331 332 336 337 339 338 338 339 337 337 339 339
345 346 345 343 343 343 343 343 343 341 345 344 340 343 342 342 343 342 342 341 341 340 340 342 343 342 344 342 341 342 341 340 339 338 337 337 336 336 337 336 337 335 332 332 332 332 334 336 330 327 330 331 334 337 337 337 336 337 335 336 339 335
345 345 344 345 345 343 346 343 342 341 342 342 343 340 340 339 339 339 340 342 343 342 341 341 341 340 341 341 340 340 340 339 339 338 338 338 338 337 336 336 335 333 334 331 328 331 335 331 326 325 324 326 329 334 334 335 335 335 335 336 336 336
342 343 343 344 344 342 345 345 343 345 343 343 344 342 341 340 341 341 342 341 341 341 340 339 340 339 341 342 341 339 339 340 340 339 338 337 338 337 337 335 334 332 330 331 330 332 333 331 327 329 328 325 321 321 326 329 334 335 335 334 336 335
341 342 343 343 342 345 345 347 347 346 345 347 343 344 344 343 343 341 339 340 341 342 341 341 341 337 339 342 341 339 340 340 340 340 338 337 335 335 336 335 334 333 331 327 328 328 332 334 331 327 319 320 322 322 317 321 325 330 334 334 334 333
340 341 342 342 344 345 344 344 347 345 347 345 345 342 343 341 340 340 340 342 342 342 341 341 342 341 340 341 341 340 340 340 340 339 338 336 335 335 336 336 335 332 331 329 326 328 331 333 333 331 325 323 321 317 317 322 325 327 332 331 332 333
338 339 339 341 343 342 342 343 342 339 338 339 338 338 334 336 338 337 337 342 343 343 342 341 341 341 341 341 340 340 340 339 340 339 337 336 336 337 335 334 335 332 330 331 329 329 328 331 332 331 331 331 334 321 320 324 323 317 329 332 332 333
337 337 339 339 341 341 341 340 340 338 339 338 337 338 343 344 342 342 341 341 343 346 342 341 342 341 341 341 340 340 340 339 339 339 338 336 335 335 335 333 335 335 332 332 331 327 327 327 331 330 332 331 335 334 334 325 320 323 318 325 329 329
334 335 336 337 338 340 338 338 338 338 337 336 339 338 340 341 344 343 341 342 342 344 344 343 341 341 341 340 340 340 339 338 338 340 338 336 335 335 336 335 335 336 334 333 332 328 327 328 325 327 330 328 329 333 334 333 330 322 321 319 322 328
330 332 332 334 335 337 338 338 338 337 336 337 337 337 337 339 340 342 341 341 340 341 343 343 343 342 341 339 338 340 340 338 337 335 337 337 335 335 335 334 333 332 331 331 332 331 330 328 328 325 326 326 328 331 332 332 331 329 324 320 319 321
326 328 330 331 332 333 335 336 336 335 335 335 335 336 337 336 337 338 337 339 336 336 338 339 342 342 340 340 336 335 338 338 336 336 336 335 334 334 331 332 332 332 332 332 333 332 329 330 330 330 329 328 327 329 328 327 328 327 328 325 319 321
324 326 327 328 330 331 332 333 333 333 333 333 333 333 333 333 334 334 335 336 339 336 335 337 340 339 338 337 336 337 336 337 338 337 336 334 334 333 333 333 334 333 333 332 332 332 330 330 330 328 330 331 330 329 327 325 324 326 325 321 320 322
324 325 326 326 328 328 329 329 329 331 331 332 332 332 332 332 332 332 333 334 336 338 339 338 339 338 335 336 333 334 334 334 336 336 335 335 334 334 334 334 333 332 332 334 333 331 331 328 329 329 330 332 332 332 330 328 329 329 327 325 324 323
321 324 324 325 325 326 327 327 327 328 328 328 328 329 331 332 333 332 332 332 333 333 334 335 336 334 337 336 334 334 333 332 334 335 336 335 335 335 334 333 332 333 333 333 333 331 330 329 329 329 329 331 332 331 332 332 332 330 330 330 326 321
320 323 323 324 324 324 325 326 326 326 325 324 325 326 328 328 330 332 333 332 332 333 333 334 335 336 336 335 334 335 334 335 336 335 335 336 335 335 335 333 333 331 331 334 334 334 333 332 331 331 332 330 330 329 331 331 331 332 330 329 326 324
320 322 323 323 324 323 323 324 325 324 324 324 324 325 326 328 329 329 331 333 333 332 332 334 334 336 336 334 333 332 332 333 334 335 335 336 336 336 335 334 334 333 332 333 332 332 332 333 331 331 331 331 330 330 330 329 331 331 330 331 328 326
319 320 320 322 322 323 323 323 324 323 324 324 323 324 324 325 326 327 327 329 332 333 332 334 335 334 336 336 334 331 331 331 333 334 335 335 334 334 334 333 332 331 331 333 331 332 332 332 331 332 332 333 330 330 332 332 332 331 331 330 328 329
318 319 320 321 322 321 322 321 322 325 322 323 322 322 323 323 324 325 326 327 329 330 332 333 334 335 335 335 334 334 332 332 332 332 332 333 331 331 335 333 331 330 329 331 332 330 330 331 332 333 333 332 332 331 329 333 333 332 332 331 331 330

ECMWFFLT2_sfc_thetae_081.txt.gz
Theta_e
343 343 343 344 345 346 347 350 349 349 349 349 350 350 349 349 349 348 348 349 348 345 343 343 344 343 347 345 346 346 346 346 345 346 345 344 346 347 346 346 344 344 342 341 340 340 338 340 340 343 344 344 343 334 333 331 332 333 333 333 335 334
342 342 343 344 345 346 347 349 346 346 347 348 349 350 348 347 350 346 348 347 344 346 343 342 341 347 341 344 344 347 345 345 345 346 346 345 346 346 346 345 344 344 342 341 340 333 335 342 342 343 344 344 336 333 334 332 332 332 332 332 334 335
342 343 344 344 345 346 345 344 345 345 346 348 349 349 346 348 345 345 345 346 345 343 344 342 342 344 343 346 344 346 346 345 345 346 346 345 345 346 346 345 345 344 343 342 337 331 330 329 328 339 342 337 332 333 333 331 331 331 330 332 330 336
343 342 341 341 344 344 343 343 343 344 344 344 344 345 343 343 343 344 344 344 343 342 342 339 349 346 345 342 344 345 345 345 345 346 346 345 345 346 346 345 345 345 344 342 335 332 329 327 326 329 329 331 332 334 332 331 330 330 330 333 331 336
341 341 340 340 341 341 341 342 342 342 342 342 342 342 340 340 340 340 341 342 341 341 340 339 339 340 341 340 337 336 338 337 337 338 345 337 338 341 342 340 341 342 339 338 335 332 331 327 330 331 331 332 334 335 332 331 330 329 328 330 332 337
340 339 339 338 338 339 339 339 339 341 341 341 340 339 338 338 339 340 341 343 343 340 340 338 338 339 340 338 337 336 335 333 335 336 342 338 338 338 339 340 340 340 339 338 335 334 335 333 329 331 331 333 334 334 331 330 330 329 329 330 334 335
340 339 338 339 339 339 337 338 339 340 340 339 339 339 337 337 338 339 340 342 341 339 337 336 337 336 336 336 336 335 333 333 334 335 339 336 337 339 339 339 338 337 338 337 336 336 336 336 332 332 333 334 333 332 331 330 329 329 329 330 334 335
339 338 336 339 338 336 336 336 339 342 341 343 341 339 337 338 338 338 341 340 342 339 336 335 334 335 335 334 335 337 334 333 334 334 336 334 333 339 338 339 338 336 334 334 335 336 336 337 335 334 333 332 334 331 330 330 329 329 329 329 332 334
338 338 337 339 338 337 336 338 339 339 339 346 340 339 338 340 338 339 340 340 341 339 338 336 335 335 335 334 335 337 337 335 333 332 332 331 331 334 338 337 337 336 334 333 333 334 333 333 333 333 332 331 334 332 331 330 329 329 329 329 329 332
340 338 338 340 339 338 337 337 337 338 337 341 338 340 341 341 339 339 339 340 341 340 338 338 338 337 336 335 336 336 337 336 335 336 333 330 330 331 334 335 336 336 335 334 333 333 333 333 332 333 333 332 331 332 331 330 329 329 329 328 328 332
340 341 339 339 338 338 339 337 338 339 340 339 339 340 340 341 341 341 340 341 342 339 336 338 338 338 337 337 337 337 336 336 336 335 333 333 333 334 334 335 336 335 335 334 337 335 333 332 332 332 334 332 332 332 330 330 330 329 329 328 329 330
339 340 338 338 339 338 339 338 340 340 340 340 341 339 338 340 341 339 340 338 338 337 337 338 340 341 339 338 337 337 336 336 336 336 336 334 332 333 334 335 337 337 337 340 337 334 333 332 330 330 333 331 334 332 331 330 330 329 329 329 329 331
341 340 337 336 337 337 338 341 339 339 339 341 342 342 341 337 335 336 337 338 337 338 337 337 338 337 340 339 338 337 336 337 336 335 335 335 335 333 334 334 334 337 340 338 336 334 335 332 331 330 331 333 333 334 333 330 330 329 329 329 329 329
341 341 338 337 338 337 338 339 341 340 341 340 340 338 338 339 338 338 337 337 338 339 338 338 337 337 340 338 337 337 336 336 336 335 334 333 332 333 333 331 333 335 339 334 331 331 332 330 331 331 331 331 329 329 331 330 330 329 329 328 328 328
340 339 340 339 339 339 339 342 342 341 342 342 337 337 339 340 339 338 337 337 339 338 340 340 339 338 339 338 338 337 336 336 336 335 335 334 334 334 334 332 331 333 334 333 331 332 331 329 332 329 330 330 330 330 333 332 331 330 329 328 327 327
342 341 339 340 340 341 341 342 342 347 342 341 339 338 338 339 339 339 339 337 337 337 338 340 339 337 338 335 337 337 337 337 337 337 336 334 334 333 333 332 332 332 331 331 332 332 333 330 333 330 329 330 330 333 331 332 331 331 331 329 328 327
341 342 341 341 341 341 342 342 342 342 342 341 339 337 338 338 337 339 338 336 336 336 337 339 338 336 336 336 336 338 338 338 338 337 335 333 332 333 333 333 331 333 333 330 330 331 327 328 330 330 330 330 331 332 331 331 332 331 334 330 329 328
341 343 343 343 342 341 341 342 341 340 343 339 340 339 339 338 337 337 336 335 335 335 338 338 338 338 335 334 336 336 337 338 337 336 335 333 332 332 332 333 332 331 333 331 330 328 326 329 330 331 330 331 330 330 331 332 332 337 331 330 331 329
342 343 343 342 341 340 340 341 340 340 339 340 339 339 340 338 337 337 335 336 337 337 338 337 337 336 336 336 335 334 334 337 336 334 334 333 331 331 331 332 331 330 332 332 330 328 328 329 329 329 329 330 330 330 330 332 333 332 334 331 332 335
340 339 338 339 336 337 337 337 336 337 336 338 339 339 339 338 337 336 335 336 336 337 338 336 335 334 334 335 334 333 333 336 336 334 333 332 331 331 330 330 331 331 330 331 331 330 330 330 329 328 328 329 330 330 331 331 331 333 333 332 334 334
339 340 338 335 334 333 332 334 335 335 334 336 337 338 336 337 338 337 337 337 335 336 338 338 338 336 335 336 334 335 335 336 336 335 334 332 332 332 332 331 330 330 329 328 328 330 331 331 327 324 326 327 328 331 332 332 329 329 329 332 333 332
339 339 338 336 336 336 336 334 333 334 334 334 336 334 332 332 335 336 336 336 336 335 335 336 338 338 339 337 336 336 336 336 336 335 334 334 333 334 332 332 331 328 329 328 327 329 331 329 323 321 320 319 321 325 329 330 329 330 330 331 333 331
338 338 337 336 333 332 335 336 335 335 335 335 336 334 334 333 335 333 333 334 336 337 337 336 337 337 337 338 337 336 336 337 336 335 334 333 333 333 332 332 331 329 326 327 327 330 331 329 324 324 323 320 316 316 322 326 328 329 330 330 331 332
336 337 336 337 335 335 336 336 336 337 337 336 335 338 336 335 334 333 333 335 335 336 337 336 337 337 337 337 337 336 335 334 334 334 332 332 333 333 333 332 331 329 328 325 326 326 331 330 328 324 317 318 317 318 315 319 322 326 330 330 331 331
335 334 335 335 336 336 337 336 337 336 336 335 335 333 333 332 333 334 335 333 335 336 337 336 337 336 336 336 337 337 334 332 333 333 332 332 333 333 333 333 330 329 328 327 325 325 327 330 329 329 324 318 315 314 316 316 321 322 328 328 330 331
333 332 332 332 334 335 336 335 334 331 329 330 329 330 328 327 329 330 331 333 337 338 337 337 337 337 336 335 333 335 335 333 333 332 332 333 332 332 331 331 332 331 330 329 328 325 322 327 330 329 328 324 322 317 317 319 320 315 325 328 328 330
329 328 329 330 331 332 333 334 334 333 331 330 328 329 331 333 333 333 333 332 335 337 339 338 337 336 334 333 334 334 333 333 332 332 333 332 331 331 331 331 333 331 329 330 328 325 324 325 327 328 328 328 325 325 326 321 316 316 317 322 324 326
325 325 326 327 328 329 329 331 331 331 331 331 330 329 331 332 334 334 334 334 334 334 338 337 336 335 335 333 332 333 333 332 331 331 332 332 332 333 333 332 332 333 331 329 328 327 325 326 323 323 327 326 325 327 327 326 325 319 317 316 320 325
322 323 324 325 326 327 329 328 329 328 328 330 331 331 332 332 331 333 332 332 331 332 333 334 335 336 334 335 333 333 331 329 330 330 331 331 332 332 331 331 331 331 329 329 329 329 327 326 326 323 324 324 324 325 326 326 326 324 318 315 316 320
321 321 322 323 324 325 326 326 325 325 324 324 325 327 329 329 329 330 330 330 331 330 331 331 333 334 332 333 332 331 330 328 329 331 332 332 331 331 331 331 331 330 331 329 328 329 328 328 328 326 325 324 323 322 323 322 323 323 322 320 315 319
320 320 321 321 322 322 324 325 324 323 322 322 323 324 324 326 327 329 329 330 330 331 332 331 332 333 332 331 329 330 330 330 328 330 331 331 332 332 331 331 331 331 331 329 327 328 328 328 328 326 326 325 323 323 322 320 320 322 321 319 317 319
318 319 319 320 321 321 322 323 322 321 321 321 322 322 323 324 326 326 327 327 329 330 330 331 331 330 331 331 330 328 330 328 328 329 330 332 332 332 331 331 332 331 331 330 328 329 328 327 328 327 327 327 326 325 324 324 324 325 323 322 320 317
315 316 317 318 318 318 319 319 319 318 318 320 319 320 322 323 323 323 324 324 326 327 328 328 329 330 330 331 330 328 328 327 327 328 330 331 331 333 332 331 332 332 331 330 328 328 328 328 327 326 327 328 328 328 326 328 328 325 325 325 322 318
314 315 315 316 317 317 318 318 318 318 318 318 318 319 320 321 322 322 323 323 324 325 325 326 328 329 330 331 330 329 328 328 329 330 330 330 331 331 331 331 332 331 331 331 330 328 328 329 328 327 327 327 328 329 329 330 329 328 324 320 320 320
313 314 315 315 315 315 315 316 317 318 317 318 318 319 319 321 319 320 321 321 322 322 322 324 326 328 331 331 331 330 328 327 327 328 329 329 331 330 329 330 330 329 330 330 330 328 328 328 327 327 326 327 327 328 329 329 328 329 327 323 323 323
312 313 313 315 314 314 314 315 315 316 317 318 319 317 317 318 318 319 320 319 319 319 320 322 324 326 329 330 330 330 329 328 327 328 328 328 329 329 327 326 326 328 328 331 328 327 327 328 327 327 327 328 327 326 328 329 328 328 329 327 326 325
311 311 312 313 314 314 314 314 314 315 315 315 315 315 315 315 316 318 318 318 317 318 319 320 323 325 326 328 329 330 330 329 328 327 327 327 328 328 328 327 327 329 329 328 328 327 328 328 328 328 328 329 328 328 328 329 329 328 328 328 327 326

ECMWFFLT2_sfc_thetae_084.txt.gz
Theta_e
342 342 343 342 342 343 346 348 348 350 349 349 350 349 349 349 348 347 347 349 347 341 339 339 339 342 347 343 347 347 346 346 346 345 346 346 346 347 345 345 343 343 342 342 341 340 341 341 341 344 345 342 339 329 329 329 330 332 332 332 334 332
341 342 342 344 344 345 346 347 344 344 345 347 348 349 346 344 348 343 348 345 341 343 337 335 338 346 341 342 343 346 346 346 345 345 345 345 346 346 346 345 344 344 342 342 342 333 334 339 342 343 344 339 331 329 329 330 330 331 331 331 333 335
340 341 342 342 344 345 344 343 343 343 346 348 347 346 343 344 341 341 342 342 342 339 338 338 338 343 342 346 343 346 346 346 346 345 345 344 345 346 345 345 344 344 343 343 335 330 327 326 325 339 339 332 330 329 329 330 330 330 330 331 329 336
340 341 341 341 342 342 341 341 340 342 342 342 342 343 339 339 338 339 339 339 339 342 338 335 348 348 345 340 340 346 346 346 346 346 345 344 345 346 345 345 344 345 344 338 331 331 330 327 325 325 328 330 330 328 329 329 329 329 329 333 329 336
340 340 339 339 341 339 339 339 339 339 340 339 338 337 336 336 336 337 337 338 338 339 337 335 337 337 336 335 335 335 336 335 335 335 344 334 335 338 339 335 335 337 332 332 333 332 330 330 329 327 328 330 331 329 328 329 329 328 329 329 331 336
339 338 337 337 338 342 339 337 337 338 339 339 338 335 334 335 336 337 337 339 339 336 336 334 335 335 335 334 334 333 332 331 331 333 338 333 333 333 333 334 334 334 335 333 333 332 331 334 332 328 328 330 331 329 328 327 327 328 328 329 334 336
337 337 337 338 338 337 336 337 338 338 338 336 337 335 333 334 335 337 338 339 336 335 334 334 334 333 335 334 334 332 331 330 330 331 334 333 331 332 333 334 334 335 335 335 336 334 333 332 332 331 330 331 331 329 328 327 327 327 327 330 335 336
337 336 335 337 336 335 334 338 342 344 339 341 338 335 333 335 336 336 338 340 341 335 333 333 334 334 334 332 333 333 333 329 329 330 331 335 332 331 333 333 334 335 336 337 336 334 333 333 333 333 332 330 331 328 327 327 327 327 328 328 331 335
337 336 335 336 335 334 334 336 338 337 337 345 337 336 336 335 335 337 338 340 340 336 335 335 334 335 334 333 333 334 332 331 330 331 329 331 331 329 333 334 334 335 334 334 334 333 332 332 333 333 333 330 330 328 327 327 327 327 327 328 329 333
336 336 337 337 334 334 333 334 335 335 337 342 337 337 336 335 336 337 337 337 337 336 337 336 335 335 335 334 333 332 335 333 331 331 329 329 328 328 329 331 333 334 334 332 331 331 332 331 330 330 331 330 329 328 328 327 327 327 327 327 328 333
339 340 338 337 335 333 334 333 334 335 338 337 338 340 339 338 336 335 336 337 337 337 336 337 337 336 334 333 333 333 334 333 334 332 331 330 327 328 327 329 331 332 333 333 332 332 332 330 328 329 330 329 329 328 328 327 327 327 327 327 327 329
338 339 338 338 340 336 334 335 336 336 336 337 340 338 338 336 338 336 337 336 336 335 336 335 336 336 335 335 334 334 335 334 334 334 333 331 329 328 329 331 332 333 333 334 333 331 331 330 328 328 329 329 329 328 328 327 327 327 327 327 327 328
338 338 336 337 338 335 334 336 336 337 337 339 339 339 336 334 334 336 336 337 336 336 336 334 334 334 339 336 335 334 333 334 334 334 333 332 332 330 330 330 330 332 332 334 332 330 333 329 328 328 328 329 329 328 328 327 327 327 327 327 327 327
339 338 337 336 336 336 336 337 338 337 339 337 337 336 336 334 335 335 335 335 336 335 336 334 333 334 333 333 333 334 334 333 334 332 332 331 330 329 329 329 329 330 335 333 331 330 329 327 329 329 328 327 328 327 328 328 327 327 327 327 327 328
341 338 340 337 338 337 338 339 339 337 338 336 335 335 337 336 335 335 335 334 335 335 335 334 333 333 332 333 334 334 334 334 333 331 332 331 330 330 329 328 328 327 330 331 330 329 328 327 328 327 326 327 326 329 329 328 328 326 326 327 327 327
341 339 339 338 338 338 338 339 339 341 338 336 335 334 335 336 336 335 335 333 334 335 335 335 336 334 332 332 333 334 333 333 332 331 331 331 331 330 328 328 328 327 326 328 328 327 327 328 327 326 326 327 327 330 328 328 327 327 327 327 326 327
338 338 338 338 338 338 338 338 339 340 339 337 335 334 335 336 336 336 335 334 333 334 334 334 334 334 333 332 332 331 332 333 332 332 331 330 329 328 328 330 327 328 329 327 328 328 324 325 327 327 327 327 327 328 329 328 329 328 329 326 325 326
339 339 338 338 338 338 339 338 337 338 340 337 335 335 335 336 334 335 335 334 334 333 334 333 333 332 330 330 331 331 331 332 332 332 332 330 330 329 329 330 329 329 330 328 327 327 326 326 327 328 327 326 326 326 328 329 329 334 330 328 325 325
339 339 338 339 338 338 336 336 335 335 337 335 335 336 336 334 334 333 333 334 333 333 334 333 333 333 330 331 330 330 329 331 334 334 333 332 330 330 329 329 329 329 329 329 328 327 327 326 327 327 327 325 327 327 327 329 330 329 329 329 329 328
338 338 337 336 335 334 335 334 332 334 335 334 333 335 335 334 333 333 333 333 331 331 333 333 331 330 329 329 330 329 328 331 333 333 333 331 330 329 329 328 328 329 328 327 328 326 326 326 326 324 325 324 326 326 328 328 328 328 329 329 329 329
337 336 334 333 332 332 331 330 330 333 332 334 334 334 334 334 334 333 332 332 332 332 331 332 333 331 328 330 332 330 330 330 331 333 332 332 331 329 329 328 326 327 328 326 326 325 327 327 324 322 322 323 323 326 329 329 327 327 328 328 330 330
336 336 335 333 333 332 332 333 331 331 330 331 335 333 332 333 333 334 333 333 332 331 330 330 333 332 331 331 331 330 330 331 331 332 333 333 330 332 329 329 328 327 327 327 326 326 327 327 321 321 319 317 318 321 325 326 326 327 327 327 329 330
333 333 333 336 333 331 333 333 332 332 332 332 332 330 331 331 333 333 332 333 333 332 331 332 332 333 334 333 332 331 332 332 331 330 331 332 333 332 331 331 330 330 325 326 327 328 328 327 323 321 320 319 316 315 318 321 324 326 327 327 327 329
330 331 330 332 334 334 335 334 334 333 333 331 331 335 332 330 331 331 331 333 333 333 333 333 334 334 334 334 334 334 332 331 330 330 331 331 330 330 332 331 331 329 328 324 324 325 329 329 326 321 315 317 316 313 310 316 320 323 326 326 326 328
327 328 328 329 330 332 334 334 334 333 332 331 331 330 330 329 328 332 333 330 333 334 333 334 333 333 333 333 334 332 332 331 330 329 331 331 331 331 332 333 332 329 328 325 323 324 326 328 327 328 323 316 314 312 314 314 317 319 324 324 326 328
325 325 326 327 328 330 331 331 331 329 328 328 327 326 328 328 326 327 329 330 331 333 333 334 334 334 333 334 333 331 331 332 331 330 330 330 330 330 329 329 330 328 327 328 325 324 324 327 329 328 326 325 322 317 315 316 317 314 321 326 326 328
324 324 326 326 327 328 328 329 328 328 328 328 327 328 331 330 329 331 332 331 332 333 333 331 332 332 332 332 332 331 331 330 331 330 331 329 328 328 328 328 330 329 328 328 327 324 324 324 327 328 328 326 325 324 324 319 316 314 316 322 325 324
323 324 324 326 326 326 325 325 324 324 325 325 326 326 329 329 331 331 330 330 331 331 333 334 331 330 331 330 330 329 330 330 330 331 331 330 330 330 330 331 331 330 330 329 327 325 324 324 322 323 327 326 325 325 325 323 320 318 316 316 320 325
322 322 323 324 325 325 325 323 323 322 322 324 325 326 328 328 328 329 328 329 329 330 330 332 333 333 331 331 331 329 329 328 328 328 330 329 329 330 330 329 329 329 327 327 327 327 325 324 324 323 324 324 325 324 324 323 323 322 316 314 315 320
319 320 322 322 323 323 323 323 321 321 321 321 322 323 324 324 324 325 324 325 328 328 328 328 329 331 330 332 331 331 330 329 328 328 329 329 329 329 330 330 330 328 328 327 328 327 326 327 327 326 325 324 322 322 322 321 321 321 320 319 313 317
316 317 318 320 321 321 320 320 320 320 320 320 321 321 320 319 320 320 321 322 325 326 327 327 327 328 328 330 330 331 328 327 328 329 330 328 328 328 329 331 331 328 328 328 327 328 327 327 327 326 326 325 324 323 320 319 320 320 319 317 316 315
315 315 317 317 317 318 318 318 318 318 318 318 319 319 318 317 317 318 320 320 322 322 322 324 325 325 326 329 331 330 329 326 326 326 326 327 328 329 330 330 330 329 329 330 330 329 327 326 326 326 326 326 326 325 324 323 322 322 321 320 319 317
312 313 315 315 314 314 315 315 315 315 315 317 315 316 316 316 317 318 318 318 319 318 320 320 322 323 325 328 330 329 329 328 327 327 327 327 327 328 330 331 331 330 330 330 330 329 328 327 326 325 326 326 326 325 325 325 325 323 324 323 320 317
311 313 314 313 312 312 313 314 315 315 315 315 315 315 315 315 316 316 317 317 317 318 318 318 320 321 324 326 327 329 330 330 329 328 328 327 327 328 329 329 330 330 330 331 331 330 329 328 327 327 327 326 326 326 326 326 325 324 322 321 320 318
310 312 313 312 312 312 312 312 313 314 314 315 315 314 314 316 315 316 316 315 315 316 316 317 318 319 321 322 323 325 327 327 326 327 328 328 328 327 327 327 327 327 327 327 327 328 328 328 327 327 326 327 326 326 326 327 326 325 326 324 322 321
310 311 312 312 311 311 311 311 312 312 312 313 315 314 312 313 312 314 315 314 313 313 314 314 315 316 316 318 319 320 321 322 323 323 324 326 327 327 327 326 326 325 324 328 327 328 327 327 327 327 326 326 326 325 326 327 327 327 327 326 324 323
309 310 311 311 310 310 311 310 310 310 310 310 311 310 310 310 310 311 312 312 311 311 311 311 313 314 314 315 315 315 315 317 317 320 320 322 319 319 321 325 325 325 325 327 328 327 325 325 326 327 326 326 326 326 326 327 327 327 327 326 326 325

ECMWFFLT2_sfc_thetae_087.txt.gz
Theta_e
340 340 340 342 342 340 345 347 346 346 346 347 347 348 347 347 347 347 348 347 345 339 337 338 338 340 346 342 346 346 346 344 345 345 345 345 344 345 344 344 343 342 343 342 341 342 341 342 344 343 341 340 339 329 328 327 327 330 328 329 332 328
339 340 340 342 342 343 344 346 341 342 344 346 348 347 345 342 348 341 347 342 338 340 335 333 336 347 340 342 343 346 345 346 344 344 344 344 345 345 345 344 343 343 343 343 342 331 330 336 342 343 341 338 329 327 328 328 328 329 329 327 331 333
339 340 341 342 343 344 342 341 340 342 345 347 347 346 342 342 336 338 341 339 340 336 333 334 335 341 342 346 342 345 346 345 345 345 345 345 345 345 345 344 344 344 343 343 331 327 326 324 326 341 339 330 326 327 328 328 328 329 328 328 328 337
339 340 341 341 341 340 340 339 339 340 340 340 340 341 336 336 335 335 337 338 337 337 336 330 347 350 345 338 338 346 346 345 345 344 344 343 346 345 345 345 344 344 337 333 330 328 327 325 323 326 327 327 326 327 328 328 328 328 328 332 328 337
338 339 340 341 340 338 338 338 337 337 337 337 336 334 333 333 333 334 335 338 336 337 334 332 332 334 333 333 332 332 333 334 332 332 342 329 328 331 334 329 329 333 330 332 332 329 327 327 326 327 328 327 327 327 327 329 328 327 328 327 329 337
338 337 337 338 339 342 339 335 335 335 336 336 336 333 332 333 335 336 336 337 340 336 334 332 332 333 334 332 333 331 329 330 330 331 340 332 329 331 331 331 332 333 332 333 332 332 328 331 329 326 328 328 328 327 327 327 327 327 327 327 331 336
336 336 336 337 337 337 335 335 336 336 336 333 333 332 330 331 332 335 336 337 336 333 332 332 332 332 333 332 332 331 329 328 327 329 336 332 330 331 331 332 332 333 331 332 334 333 331 330 329 329 327 330 328 327 327 326 327 327 326 327 333 337
336 336 335 336 334 334 334 336 337 343 337 338 335 331 330 330 332 334 338 336 338 333 332 331 331 332 332 331 332 331 329 328 327 329 331 331 328 327 331 332 331 330 332 333 334 334 332 331 330 329 329 329 329 327 326 326 326 326 326 327 330 336
336 335 334 335 334 333 333 335 337 335 334 343 333 333 333 332 332 334 336 337 337 334 332 331 330 330 330 330 330 330 329 329 328 329 327 329 329 326 327 329 330 332 330 332 332 333 332 331 329 330 329 328 329 327 326 325 326 326 326 327 328 333
334 335 335 334 333 332 331 334 336 336 336 340 334 334 333 332 332 332 333 335 336 333 333 332 331 331 330 331 330 329 331 330 329 328 327 327 327 326 325 326 329 331 334 333 333 333 331 331 330 329 328 329 329 327 326 325 326 326 327 327 327 331
335 338 335 334 332 333 334 333 336 336 338 336 335 335 334 333 332 332 333 334 335 335 333 333 332 332 331 331 329 329 331 330 330 329 328 328 325 326 325 326 328 329 330 331 332 332 331 330 329 327 327 329 328 327 326 326 326 326 327 327 327 328
334 336 335 334 335 335 335 334 336 335 335 335 337 335 336 337 338 334 334 333 333 333 334 332 331 333 334 333 331 330 330 330 331 329 329 328 326 326 326 327 327 328 329 330 331 331 331 329 328 327 327 327 327 326 326 326 326 326 327 327 327 328
338 337 337 337 336 335 335 336 335 335 335 337 337 336 336 335 336 336 334 334 333 333 333 331 331 331 335 335 334 331 331 332 332 331 329 329 329 327 327 327 327 328 327 329 329 330 331 326 326 326 326 327 327 326 326 326 326 326 326 327 327 327
339 336 337 338 337 336 335 334 333 333 337 336 336 336 337 333 334 334 333 333 334 334 333 332 332 332 332 332 333 333 331 331 331 330 329 328 329 327 327 326 327 326 331 328 328 329 327 327 327 326 326 326 325 325 326 325 325 325 326 326 327 327
338 335 338 336 337 335 334 335 334 334 336 335 333 333 334 333 334 334 332 332 332 334 336 335 334 332 331 330 332 332 332 333 332 330 329 328 328 327 326 327 326 327 326 325 326 328 328 327 326 327 325 326 326 329 327 326 325 325 325 325 326 326
336 335 336 336 335 334 335 333 335 339 334 333 333 331 332 333 334 333 333 332 332 333 333 333 333 331 331 330 331 332 333 332 331 329 329 328 329 328 326 327 327 325 325 326 326 326 325 326 326 326 325 326 327 329 328 328 327 326 325 325 325 326
336 335 335 335 333 333 333 335 335 336 335 333 332 333 333 332 333 333 332 332 331 332 332 332 332 333 332 331 331 332 331 330 330 330 329 327 327 328 327 329 328 328 327 325 325 326 326 324 325 325 325 326 327 328 328 328 328 327 327 325 325 325
336 335 334 334 333 332 333 334 333 333 338 334 333 333 332 332 333 333 332 332 331 331 333 332 331 332 332 332 330 328 328 330 332 332 330 327 328 326 326 327 327 327 328 326 326 326 326 325 325 325 323 324 325 326 327 327 328 331 327 325 325 325
336 335 333 334 334 332 332 331 330 331 333 332 331 332 332 332 332 332 331 332 331 332 332 331 332 333 332 332 332 330 330 330 330 333 332 330 328 327 326 326 327 327 327 328 328 326 326 326 326 324 324 323 324 325 327 327 328 328 327 326 326 327
334 335 334 333 332 331 329 328 327 329 330 331 331 332 331 332 332 332 332 332 331 328 330 331 331 331 332 333 332 331 329 328 328 330 332 332 331 329 328 327 327 327 327 327 328 327 324 324 323 322 323 323 324 324 325 327 327 327 328 327 327 327
335 334 331 330 329 329 328 329 328 327 328 329 330 331 331 331 331 331 331 331 331 331 329 328 331 329 328 331 329 326 325 326 327 328 330 332 332 331 331 330 329 328 327 326 326 326 325 326 324 323 321 322 323 325 326 328 327 327 327 328 328 327
330 331 332 332 331 330 328 327 325 327 327 328 330 331 330 331 332 332 331 332 331 331 330 329 330 330 331 329 329 330 331 331 331 331 332 332 332 333 332 330 329 327 329 327 327 327 326 324 321 321 319 316 318 322 325 326 325 326 326 327 328 327
327 327 328 331 330 329 328 329 328 328 328 329 332 332 331 331 332 331 330 330 331 331 331 329 329 331 330 329 330 332 333 332 332 332 331 330 331 331 332 332 330 327 326 327 327 328 327 326 323 321 320 318 317 315 317 320 324 326 327 326 327 327
326 327 327 329 330 329 331 331 331 331 331 331 331 336 333 333 332 331 332 332 332 331 332 332 332 331 330 328 327 329 331 330 330 330 328 329 330 330 330 330 330 329 329 325 326 326 329 328 326 321 316 316 315 314 314 316 319 322 325 326 326 326
326 326 326 327 327 328 330 329 330 330 330 327 329 330 330 330 330 331 332 331 332 333 332 331 331 331 332 331 330 329 328 328 327 326 327 327 328 328 329 329 330 329 328 326 325 326 326 328 327 327 323 317 314 313 315 315 315 317 321 323 325 326
324 324 324 325 326 327 327 327 327 326 324 324 324 326 326 326 327 328 328 329 330 332 332 330 330 330 331 331 329 329 328 328 327 327 327 327 328 328 327 327 328 328 327 328 326 324 323 326 328 328 327 326 324 318 315 315 316 313 319 323 323 325
323 323 325 325 325 326 324 324 325 324 324 324 323 325 328 328 328 329 329 329 329 330 331 330 330 329 329 330 329 328 327 326 327 327 328 327 328 328 329 329 330 329 328 327 327 323 323 324 326 327 328 327 327 326 323 318 315 315 314 319 324 323
322 323 324 324 324 325 322 322 323 323 324 323 323 324 325 326 326 327 326 328 329 328 330 331 329 329 330 331 331 331 330 330 330 330 330 329 327 328 329 330 331 331 330 329 327 324 324 325 322 323 327 326 326 326 324 323 322 319 316 314 317 324
321 321 322 323 322 323 324 322 322 322 321 322 324 323 323 323 323 324 323 325 326 327 327 328 328 329 329 330 332 331 331 330 329 329 329 329 328 328 328 329 329 329 329 328 328 327 325 324 324 323 323 323 325 324 323 323 323 321 317 314 315 319
318 319 320 321 321 320 321 321 320 320 319 319 321 320 320 319 320 321 320 321 322 322 323 324 325 326 326 327 329 330 330 329 328 328 330 329 329 329 329 329 330 330 330 328 328 328 326 326 326 326 325 324 322 323 322 321 321 320 320 319 315 315
316 316 317 318 319 318 318 318 317 317 317 316 317 317 316 316 317 318 317 318 319 320 321 321 322 323 323 324 326 328 329 329 329 329 329 328 328 328 328 329 330 330 330 329 328 327 326 326 326 326 326 325 324 323 321 319 319 320 319 317 316 316
314 313 313 314 315 316 316 316 315 314 314 314 314 314 313 313 315 315 315 314 315 317 317 318 319 319 319 322 323 324 327 326 324 325 326 327 328 328 328 329 329 330 330 330 330 329 329 327 328 327 326 326 326 325 324 323 322 322 320 319 318 317
311 311 311 311 311 312 312 312 313 313 313 314 312 312 312 312 313 313 312 311 311 311 313 313 314 314 316 318 319 319 321 321 320 321 323 321 320 319 320 324 327 328 329 328 329 328 327 328 328 327 326 327 327 326 325 326 324 323 322 322 319 317
310 310 310 310 310 310 310 310 311 311 312 312 310 310 309 309 310 311 311 309 309 309 309 309 311 312 313 314 314 314 315 314 316 318 315 312 312 312 313 317 321 322 324 326 327 327 327 327 327 327 328 326 326 326 326 326 325 324 323 321 319 319
309 309 309 309 309 308 309 309 309 310 310 311 310 308 308 309 308 308 308 307 307 307 307 307 308 309 310 309 310 309 309 310 311 312 309 308 307 309 310 312 314 314 317 318 318 322 325 326 326 327 327 327 326 326 326 327 326 324 324 323 322 321
308 308 308 309 308 308 307 308 308 307 308 309 310 308 307 307 307 307 306 306 305 305 306 305 306 307 306 306 306 306 306 306 308 308 307 307 305 306 307 309 309 310 310 312 311 314 319 324 326 326 326 327 326 326 327 327 326 326 325 324 323 323
308 307 307 307 307 307 307 307 306 307 306 306 306 305 305 305 305 306 306 305 305 305 305 305 305 306 305 305 305 305 304 304 306 304 303 304 304 303 304 305 304 305 306 308 309 310 314 318 322 325 326 326 326 326 326 326 326 326 326 325 325 324

ECMWFFLT2_sfc_thetae_093.txt.gz
Theta_e
346 346 345 346 346 346 345 346 346 346 346 347 347 348 348 348 348 349 349 347 347 348 348 348 348 347 346 347 346 345 344 344 345 345 345 344 344 345 344 344 342 341 339 339 341 343 344 345 344 344 344 344 343 343 342 340 339 338 338 337 337 336
344 344 345 345 346 346 346 346 347 347 348 348 347 347 348 349 349 349 348 347 348 347 347 348 347 346 347 347 346 346 345 345 344 344 344 344 345 344 344 343 342 340 339 339 337 344 346 345 344 344 344 343 343 341 342 341 340 338 338 339 338 337
344 344 344 345 345 346 347 347 347 348 348 348 348 348 348 347 347 346 346 345 346 346 346 347 347 346 346 345 346 346 345 345 345 345 345 345 345 344 343 342 341 339 337 336 340 341 344 345 345 344 343 344 342 341 341 340 339 340 338 338 338 337
343 343 344 344 345 346 346 347 346 346 347 347 347 347 346 346 346 346 345 345 346 344 345 347 345 346 346 347 346 345 344 345 344 344 342 342 342 341 340 340 339 337 338 341 341 339 340 343 345 346 346 343 341 341 340 340 340 340 339 336 336 337
342 343 344 344 344 344 346 346 345 346 346 346 345 345 345 345 346 345 345 345 346 346 346 346 347 348 347 348 346 346 346 345 345 344 341 342 342 342 343 343 343 340 342 342 340 340 340 341 343 343 342 342 341 341 340 340 340 339 339 339 338 337
343 342 344 344 344 345 344 344 344 345 344 344 344 345 345 345 346 346 345 345 346 346 346 346 346 346 346 347 346 345 345 344 344 343 342 343 341 340 342 342 342 342 341 343 342 341 339 339 339 340 340 341 341 341 340 341 339 340 340 339 339 337
342 342 342 344 345 344 344 344 344 345 343 343 345 344 344 345 345 345 346 346 345 345 346 349 348 346 345 345 345 345 345 345 344 344 344 342 342 342 342 342 342 343 343 343 342 341 339 339 339 338 339 338 339 340 341 340 340 340 340 339 340 337
342 342 341 345 344 343 344 344 345 345 344 345 345 345 345 345 345 346 346 347 346 347 346 345 345 345 345 345 345 345 345 344 344 344 344 344 343 342 341 342 343 341 340 341 341 343 342 341 341 342 340 340 340 341 341 340 341 341 340 341 339 338
342 341 342 343 342 344 345 345 345 345 344 345 345 344 345 344 345 345 345 345 345 346 345 344 344 344 345 345 346 345 344 344 344 344 343 344 344 343 342 341 341 339 340 339 340 342 341 341 343 343 341 340 342 342 342 341 341 340 339 339 340 338
341 341 341 342 341 342 343 342 344 344 345 345 344 345 344 344 344 344 346 344 345 345 344 344 344 344 343 343 344 344 345 345 344 343 343 343 343 343 342 342 341 339 336 337 337 340 340 340 340 342 341 341 342 343 342 341 340 339 340 340 341 340
341 342 342 340 341 342 342 342 342 344 344 344 345 345 345 345 345 346 345 345 345 345 344 344 344 343 342 342 342 341 342 343 343 343 343 343 345 344 343 342 342 341 340 338 339 339 339 339 339 338 342 339 342 342 342 342 341 341 340 340 340 341
342 343 342 341 342 340 342 342 343 344 344 344 344 345 345 345 344 343 343 343 344 344 344 344 343 342 342 342 342 341 341 342 343 343 342 342 342 343 343 342 342 343 344 343 343 342 342 339 338 337 339 341 342 341 341 341 341 341 340 341 340 340
342 343 343 342 342 341 342 342 343 343 344 344 344 345 344 344 344 343 342 343 343 343 342 342 342 341 340 341 341 341 342 342 342 343 343 344 344 343 343 342 342 342 343 343 343 343 341 342 339 339 341 341 341 340 341 341 341 341 340 340 340 339
342 342 342 342 341 341 341 342 343 344 344 343 345 346 344 343 344 343 343 343 343 343 342 343 341 341 340 339 339 339 340 341 343 343 345 344 343 343 342 342 341 341 340 341 341 341 342 339 339 340 341 342 342 342 342 340 340 340 340 340 340 340
342 341 341 340 340 340 340 341 342 342 344 344 345 344 343 342 342 342 343 343 342 342 342 342 341 340 340 339 338 338 339 340 341 342 343 343 342 343 342 341 340 340 341 341 341 341 340 340 340 340 341 343 342 342 342 341 341 341 339 340 340 340
341 340 339 339 340 341 341 342 343 343 344 343 343 341 341 341 340 342 343 342 342 341 341 341 340 339 338 338 337 337 338 340 340 342 342 342 341 340 339 339 340 339 337 338 339 340 341 339 339 339 340 341 341 341 340 341 341 340 340 340 339 339
339 339 339 340 341 341 342 342 343 344 344 344 342 339 341 340 340 340 341 340 341 341 341 340 340 339 340 339 338 337 339 340 341 341 342 341 341 340 338 337 339 339 338 336 336 336 338 339 338 339 339 339 339 339 340 340 341 341 341 340 340 340
341 341 341 341 342 343 344 344 345 343 343 342 340 339 339 340 338 339 340 341 340 341 341 340 341 340 342 341 341 341 341 342 342 342 341 341 340 340 340 338 336 339 338 336 335 335 335 336 337 336 337 338 338 338 338 339 340 340 339 339 340 339
341 343 343 343 343 344 345 344 343 342 341 341 341 340 340 339 339 340 339 339 339 339 339 340 340 340 340 340 340 339 340 341 341 342 340 339 338 339 338 338 336 336 338 337 335 335 334 334 333 333 334 335 337 337 338 338 338 339 338 338 338 338
343 345 344 343 344 343 343 342 341 342 340 339 339 337 337 337 339 339 338 338 337 337 338 339 339 340 340 340 339 339 339 339 339 339 338 337 337 337 336 336 336 335 334 335 336 335 335 333 332 332 331 333 336 336 337 337 338 338 338 338 338 338
341 344 343 341 342 342 341 339 339 338 336 336 335 335 335 335 336 336 337 337 336 336 337 338 338 338 338 338 338 339 337 337 337 337 336 335 335 335 335 335 334 334 332 332 333 334 335 334 331 329 332 333 333 337 337 336 336 337 337 337 338 336
340 341 341 342 341 340 341 340 339 336 335 335 335 333 332 333 335 336 336 336 336 336 336 337 337 336 336 337 336 335 335 334 334 334 334 334 334 334 333 333 333 332 333 332 331 333 334 333 329 327 324 326 330 332 336 335 334 335 336 337 337 336
338 339 340 341 341 339 339 339 339 336 334 332 335 334 333 333 334 333 334 335 335 335 335 335 336 336 336 336 336 336 335 335 335 335 334 333 333 333 333 332 332 330 330 333 332 334 334 334 327 330 331 326 323 323 329 331 333 333 334 335 335 335
335 337 338 339 338 339 338 339 338 336 336 334 331 332 332 333 333 333 332 334 334 334 333 333 334 335 335 336 336 335 336 336 335 335 334 332 331 331 332 332 332 331 330 328 329 330 335 335 334 328 321 321 322 322 318 323 327 331 336 335 336 333
333 335 336 337 338 338 337 336 335 334 334 332 332 331 329 328 330 331 331 331 331 332 331 331 332 333 334 334 335 335 335 335 335 335 334 333 331 331 332 332 332 331 330 328 326 329 332 336 334 336 325 322 321 319 319 322 325 326 333 332 335 335
331 331 333 335 337 338 338 337 336 333 330 329 326 325 324 324 325 326 326 329 329 328 328 329 329 330 331 332 331 332 333 332 332 332 332 332 331 332 332 332 332 332 331 331 329 328 329 334 335 334 334 331 328 319 318 323 324 318 330 333 333 334
328 328 330 332 334 336 334 333 332 330 329 327 323 323 325 325 325 325 327 327 326 326 324 325 326 327 327 328 328 328 329 329 327 327 327 326 325 325 327 330 331 332 332 332 332 327 327 328 331 333 334 333 333 334 332 324 319 321 317 326 331 332
325 325 327 330 330 332 331 331 330 328 326 324 323 321 322 323 325 325 324 324 325 323 322 320 319 319 321 322 322 323 324 323 322 323 323 321 321 322 323 325 327 328 331 331 331 328 327 328 325 326 332 332 331 332 332 332 329 323 319 316 321 330
323 324 324 326 326 327 328 328 328 327 324 323 323 322 321 321 321 322 321 321 320 319 319 318 316 316 318 318 319 320 319 318 320 319 317 317 318 318 318 320 321 321 322 324 326 327 327 326 327 326 327 328 329 330 331 331 330 330 323 320 320 322
320 321 321 322 323 323 323 323 323 323 322 321 321 321 320 318 318 319 317 317 317 316 316 315 316 316 316 317 317 317 317 316 317 317 316 314 315 316 316 317 318 319 320 320 321 321 320 324 326 327 328 326 325 326 326 326 328 327 326 323 318 319
317 318 319 320 320 319 320 320 319 319 318 318 318 317 316 315 315 315 315 314 314 314 314 314 315 314 314 315 315 315 314 313 313 314 312 313 313 313 314 315 317 317 317 317 318 318 318 321 323 323 324 325 323 323 320 321 323 325 323 320 320 321
316 317 317 318 318 317 317 317 317 316 315 315 315 314 313 312 312 312 312 312 312 312 312 312 312 311 311 312 313 311 311 310 309 309 309 309 309 309 310 312 313 314 314 315 315 314 315 316 317 318 320 323 324 325 324 324 324 324 322 322 322 320
314 315 315 316 315 316 315 315 315 314 314 314 313 312 311 310 311 310 310 310 310 309 309 309 308 309 309 310 310 308 308 307 307 307 308 307 307 308 308 310 310 310 310 311 312 311 311 312 313 314 315 318 320 321 322 325 325 324 324 324 322 320
313 314 314 314 314 313 313 314 314 313 313 312 311 311 310 309 309 309 309 308 308 307 307 307 307 307 308 309 309 308 307 307 306 306 307 306 306 307 307 307 308 307 307 307 308 308 308 309 309 311 311 312 315 316 318 322 323 324 323 322 321 321
312 313 313 313 313 312 312 312 312 312 312 311 310 309 308 309 308 308 308 307 307 307 306 306 306 307 308 308 307 307 306 306 305 306 306 305 305 306 306 306 307 307 307 306 306 306 306 306 306 306 307 308 310 312 315 318 320 322 322 322 322 321
312 312 312 312 311 311 311 311 311 310 310 310 310 309 308 308 307 307 307 306 306 306 306 306 306 306 307 307 306 305 305 305 305 305 305 305 304 304 305 305 305 305 305 306 305 306 305 306 306 306 306 307 307 308 311 313 315 317 317 318 319 322
311 311 311 311 311 311 310 309 309 309 309 309 308 307 306 307 307 307 307 306 305 305 306 306 305 306 306 306 305 305 304 304 304 304 304 304 303 304 304 304 304 304 303 304 305 305 305 305 306 306 306 306 305 306 308 310 311 312 314 316 317 319

ECMWFFLT2_sfc_thetae_096.txt.gz
Theta_e
349 349 348 348 348 348 346 347 348 347 348 349 349 350 349 349 349 349 349 348 349 349 349 349 350 349 348 348 347 345 344 344 345 345 344 344 344 344 343 341 341 340 339 342 345 346 346 345 344 344 344 343 344 343 344 344 344 343 342 340 341 340
347 346 347 346 346 346 346 345 347 348 349 349 349 350 351 350 349 351 348 350 349 347 346 346 347 342 346 349 348 346 345 344 344 344 344 344 344 343 342 342 339 339 338 339 344 348 348 345 344 344 343 344 343 343 344 344 344 342 342 342 341 339
346 346 345 345 345 346 346 346 346 347 348 347 348 348 348 348 348 348 347 345 347 347 344 344 347 344 345 340 348 346 345 345 345 344 343 343 343 342 341 340 338 339 339 337 343 345 348 346 346 343 344 344 346 343 346 345 344 343 341 342 342 339
345 344 343 342 344 344 344 346 344 346 346 348 347 346 347 347 347 348 347 347 345 347 348 348 345 347 348 347 345 346 344 344 343 341 337 345 341 341 340 338 340 339 339 342 343 341 342 345 346 348 347 345 344 344 344 344 340 342 343 340 340 339
343 344 344 343 344 342 346 345 345 346 346 345 345 345 346 347 347 347 347 346 348 349 348 348 349 350 348 348 347 347 348 345 345 346 342 345 344 343 347 342 336 340 342 342 340 342 343 345 347 345 346 344 344 345 343 344 342 341 344 344 344 340
344 345 345 343 344 344 344 344 345 345 345 346 345 344 344 345 345 347 346 347 349 351 351 351 352 352 352 352 351 347 346 346 343 343 344 343 341 344 344 341 338 337 339 342 342 342 342 342 342 343 342 343 343 345 343 341 342 343 344 343 345 340
343 343 345 345 345 343 343 345 345 345 344 344 344 344 343 345 347 346 347 349 351 350 350 350 351 352 351 352 351 350 350 350 348 346 345 342 344 344 342 340 339 338 340 341 341 341 341 342 342 340 341 340 342 342 343 342 342 342 343 343 344 340
343 343 345 346 345 342 344 345 345 344 344 344 343 344 345 346 347 347 348 352 352 352 348 347 349 350 350 352 351 351 350 349 349 348 349 344 342 341 340 340 341 338 336 339 339 341 340 340 342 344 342 341 342 343 344 342 342 344 343 344 344 341
343 343 344 345 344 344 345 346 347 346 345 345 346 346 345 347 347 345 347 347 349 350 349 348 348 349 350 350 350 351 349 349 350 350 350 347 344 342 341 340 341 339 337 338 339 341 341 341 344 344 342 341 343 342 342 342 344 342 343 342 344 342
343 343 344 344 343 344 344 344 346 348 347 348 346 346 348 346 346 346 347 350 351 352 350 348 349 350 349 348 349 352 351 350 349 349 348 350 348 343 341 342 340 339 336 336 335 338 340 340 340 342 340 341 342 342 343 343 342 342 344 345 345 344
343 344 344 343 344 345 347 347 347 349 350 348 347 348 349 350 350 351 351 352 351 351 351 351 349 349 349 346 347 346 346 348 348 349 348 349 350 349 348 344 342 340 340 339 338 338 338 339 338 338 340 339 342 344 342 343 343 343 344 344 345 346
345 345 345 343 345 344 346 346 347 350 349 348 351 350 350 351 350 349 350 352 351 350 349 349 347 348 348 347 346 345 346 346 346 348 349 350 350 349 348 347 346 346 344 342 339 339 339 337 336 335 337 339 340 340 340 342 343 344 344 345 344 345
347 347 346 346 345 346 347 346 347 347 349 348 349 348 349 350 350 349 349 351 351 349 348 346 346 346 345 345 345 345 346 347 349 347 348 347 349 350 349 348 348 347 347 347 344 341 337 339 338 337 337 339 340 338 340 342 343 343 343 343 343 342
349 348 349 348 346 346 347 348 348 348 348 348 350 349 348 349 349 349 350 350 349 348 348 348 347 345 345 343 344 343 344 344 347 348 348 350 348 348 347 347 346 346 345 346 345 346 343 341 338 339 340 341 342 341 340 339 340 341 343 345 344 345
349 348 348 347 347 346 347 345 346 348 348 349 348 348 349 349 348 349 349 347 347 347 348 346 345 345 343 343 342 342 343 342 346 348 347 348 346 346 347 346 346 344 345 345 345 345 344 344 344 344 346 346 345 346 346 345 345 344 342 344 346 345
348 348 346 346 347 348 347 347 347 346 348 350 347 345 346 347 349 349 348 348 347 347 346 345 345 345 344 343 341 342 342 345 345 347 345 345 345 343 344 344 346 345 342 343 343 343 344 343 345 344 346 346 346 346 346 345 345 345 345 345 343 345
346 345 346 346 347 347 347 347 349 350 348 348 346 346 347 348 348 348 347 347 347 346 346 345 345 345 344 343 342 344 343 346 348 346 346 344 344 343 343 341 344 344 344 341 339 340 342 343 343 343 345 345 345 345 345 345 346 346 347 346 345 345
345 345 346 346 347 347 347 349 348 347 348 346 346 347 348 347 346 346 347 346 346 345 344 345 346 346 346 345 345 344 346 347 347 347 346 346 346 346 345 345 343 344 342 341 338 339 338 339 339 339 339 341 342 341 342 343 344 342 343 343 343 343
345 346 346 347 347 348 348 348 347 346 347 345 347 347 347 344 343 345 344 344 344 344 344 346 346 346 347 345 345 345 345 344 344 344 345 345 344 345 345 344 343 342 344 343 340 340 340 337 337 336 336 338 339 341 340 341 342 341 342 343 342 342
347 347 346 346 346 344 344 344 344 346 344 342 344 343 344 343 344 343 343 343 342 342 343 343 344 345 346 345 344 343 343 343 342 343 342 342 341 341 339 338 339 339 338 339 340 339 339 337 336 336 336 337 338 339 340 341 341 342 342 343 343 343
345 346 345 344 344 344 342 344 345 342 339 340 340 340 340 342 341 342 342 341 341 342 342 342 342 342 343 341 341 342 341 339 340 340 340 339 339 338 338 338 337 338 336 335 335 338 338 337 333 332 335 335 336 338 340 341 342 342 342 341 341 341
347 347 347 346 344 345 346 344 343 340 338 338 338 337 336 337 338 339 340 340 341 340 340 340 340 340 340 340 339 338 338 338 339 338 338 338 337 337 337 337 336 335 336 334 334 336 336 336 331 328 327 328 331 335 339 342 342 342 342 342 342 342
345 345 345 344 342 342 343 344 342 340 339 336 339 339 338 338 338 338 339 339 340 340 339 339 339 339 339 339 339 339 338 338 337 337 337 337 336 336 336 335 335 333 332 335 334 336 336 336 329 331 330 328 324 324 331 335 340 340 340 341 341 341
343 344 343 343 343 344 344 343 343 341 339 337 335 337 337 337 337 336 335 337 338 338 338 338 338 338 338 338 338 338 337 337 338 337 335 334 334 334 336 335 335 334 334 330 330 331 336 336 335 330 323 323 324 325 320 325 328 333 336 338 340 340
340 341 342 342 343 343 341 340 339 338 337 335 335 333 333 332 333 333 334 334 334 335 335 335 335 335 335 334 334 335 335 335 335 336 335 333 333 333 334 334 334 333 332 330 329 332 334 336 335 337 329 324 322 321 321 324 327 328 335 333 334 334
339 339 340 342 342 341 340 338 336 333 331 330 329 329 328 328 329 330 329 331 331 331 331 331 331 331 330 329 328 329 330 330 331 331 332 331 330 329 329 330 330 330 330 331 330 330 331 334 335 335 335 333 333 322 322 325 325 320 331 333 333 333
338 337 338 339 341 339 338 337 336 335 334 332 329 329 330 330 329 330 329 328 327 327 325 325 326 328 327 327 327 326 328 329 328 328 328 327 325 324 325 327 328 328 328 328 329 325 326 328 332 334 336 335 333 332 331 327 321 324 320 327 331 331
335 336 338 339 338 339 337 336 335 333 332 330 330 328 329 328 329 328 328 327 327 325 325 325 326 325 325 324 324 325 325 325 325 327 324 324 322 323 324 326 328 328 328 328 327 324 323 325 323 325 329 329 330 332 332 331 331 324 323 321 323 330
331 332 333 336 336 336 335 335 333 332 329 329 328 327 327 327 326 327 326 325 325 324 324 324 323 323 323 322 323 323 323 322 322 323 322 324 324 324 324 324 324 323 324 324 325 325 323 322 323 322 323 325 325 325 327 329 330 329 325 322 322 323
328 329 330 332 333 333 333 333 331 331 329 327 327 326 326 325 326 326 323 323 322 321 321 321 320 320 321 320 319 320 320 320 320 319 319 320 320 319 320 322 323 322 322 322 324 323 321 322 323 323 322 321 320 321 322 323 324 324 326 327 322 321
325 325 327 328 329 328 330 330 328 327 326 325 325 325 323 323 322 323 321 320 320 319 319 318 318 317 317 317 317 317 316 316 317 317 316 316 316 316 317 319 320 320 321 320 320 319 319 320 319 319 320 320 319 319 318 317 318 320 321 320 320 322
323 324 325 326 326 326 325 325 325 325 324 324 323 322 322 320 320 319 319 318 317 318 317 316 316 315 315 316 316 315 316 315 315 315 314 315 316 315 316 317 317 317 317 317 316 315 316 314 314 314 316 316 316 318 319 319 320 320 318 318 319 319
321 322 323 324 324 323 323 323 322 322 321 321 321 320 319 318 317 317 316 317 317 314 314 313 313 313 314 314 314 314 314 313 313 314 314 314 315 315 315 315 315 316 316 315 313 313 312 312 312 311 311 313 314 316 316 318 318 318 319 318 317 316
320 322 322 322 322 321 321 321 321 320 320 319 318 318 317 316 316 316 315 314 314 313 312 312 312 312 313 313 312 313 313 313 312 313 313 313 314 314 314 313 314 314 314 313 313 313 313 312 312 312 312 311 312 313 314 314 315 315 315 315 315 315
319 320 320 320 320 319 318 319 318 318 318 318 316 315 315 315 315 314 314 313 314 313 312 312 312 313 313 312 312 312 312 312 311 312 312 312 313 313 314 313 313 313 313 313 313 313 313 312 310 310 311 310 310 311 311 312 312 313 313 313 313 314
319 319 319 318 318 318 317 317 316 316 315 316 315 315 314 314 313 313 314 313 312 313 312 312 313 312 312 312 311 311 311 311 311 311 311 311 311 311 312 312 311 312 311 312 312 313 312 312 311 311 311 311 310 310 312 311 312 312 312 313 313 314
318 318 318 317 316 316 316 315 315 315 314 314 314 313 312 312 313 314 313 313 311 312 313 312 312 312 311 311 310 310 310 310 310 310 310 311 310 310 311 311 311 310 309 311 312 311 311 311 311 311 310 311 310 310 311 312 312 311 312 312 313 313

ECMWFFLT2_sfc_thetae_099.txt.gz
Theta_e
351 350 349 348 347 346 347 349 350 350 349 350 350 351 350 350 349 349 350 349 348 350 349 349 349 347 346 347 344 343 343 344 342 344 343 343 342 340 340 341 340 341 340 343 345 346 347 346 345 344 344 344 346 343 347 343 342 337 340 337 341 334
350 348 348 347 347 345 348 347 350 351 350 352 351 352 352 350 351 352 350 350 349 345 345 345 345 345 347 348 347 345 344 344 344 344 344 343 343 342 340 340 339 340 342 341 344 349 347 347 345 344 345 345 345 345 345 343 339 340 334 340 340 338
348 347 346 347 344 343 345 344 348 347 348 347 352 350 348 348 349 347 346 345 345 344 343 342 345 344 348 348 348 346 345 345 345 345 344 344 344 344 343 339 342 340 340 341 343 348 347 345 346 345 345 346 345 347 345 343 343 342 337 340 339 341
346 346 345 344 342 344 342 343 344 345 345 347 347 346 346 347 346 346 346 346 345 346 345 346 341 341 343 346 348 347 346 346 345 344 344 344 344 342 342 340 339 340 341 341 342 344 344 345 347 345 345 346 344 343 342 343 338 340 341 339 339 342
345 343 344 342 342 340 344 343 343 344 345 342 343 345 346 347 347 346 345 348 347 348 349 347 349 349 347 347 345 347 347 347 347 345 345 347 346 345 343 335 333 336 338 337 340 342 343 345 348 346 346 344 344 344 343 342 339 337 340 343 343 342
344 343 343 341 341 342 343 343 344 343 343 344 343 343 343 345 345 346 347 349 351 351 349 348 348 348 349 350 347 346 346 345 344 342 338 342 341 342 344 340 335 331 334 341 340 340 341 341 342 343 342 344 343 343 342 340 341 342 342 341 346 344
342 342 343 342 343 341 340 342 344 343 343 343 343 342 342 344 346 347 350 352 350 349 351 351 348 350 350 352 346 349 349 348 351 345 342 342 342 341 339 339 337 337 337 336 338 339 339 340 339 337 339 338 339 339 340 339 337 339 343 341 345 344
341 341 342 344 343 340 344 344 344 342 343 342 343 345 345 348 348 349 352 351 353 349 347 346 346 348 348 346 349 348 349 349 349 348 347 348 343 341 340 340 341 337 335 335 335 338 338 338 340 340 338 339 338 340 340 340 342 342 341 341 344 345
341 341 344 343 341 342 343 345 344 345 344 344 347 348 348 349 349 350 350 350 349 349 347 347 346 347 350 348 352 349 354 349 349 348 351 349 345 344 343 341 343 338 340 337 338 341 338 338 342 343 342 338 338 340 342 342 341 339 341 341 342 347
342 343 344 344 344 345 346 344 346 346 344 346 347 349 348 347 346 345 349 349 348 349 350 348 347 349 348 347 347 349 351 347 349 348 349 347 351 345 344 343 342 341 338 339 337 337 338 339 338 340 339 339 340 340 342 342 341 339 340 341 341 347
343 345 344 342 346 347 347 347 348 348 347 347 349 350 350 349 350 348 349 351 349 349 350 348 348 347 346 345 347 348 348 349 347 349 350 348 350 351 348 346 345 343 341 338 339 338 338 339 339 337 339 338 340 341 341 342 341 341 340 339 340 343
344 345 345 345 347 347 349 349 350 350 348 350 351 349 348 351 348 348 350 351 351 351 349 349 349 349 348 346 346 347 348 349 347 348 351 349 349 350 348 347 347 347 348 346 342 340 340 337 337 336 335 336 338 339 339 339 339 339 340 341 342 344
344 346 345 347 347 348 350 350 351 349 348 347 347 346 345 346 347 349 351 350 350 349 351 350 350 349 348 347 347 347 347 349 349 350 351 350 350 350 348 346 346 346 345 346 344 344 341 341 339 337 338 338 337 335 336 339 342 340 340 341 341 345
346 345 346 348 349 346 349 350 351 351 350 349 347 346 347 348 348 347 349 349 349 349 349 349 348 347 346 347 348 347 347 347 348 350 351 351 349 347 344 344 344 343 342 342 342 342 343 340 340 340 343 342 341 341 341 340 343 341 340 342 341 341
347 347 346 348 346 347 349 347 346 345 348 351 350 349 349 350 348 347 348 348 349 348 348 348 347 348 344 345 345 345 346 346 349 350 347 349 346 347 346 345 345 342 344 344 342 342 340 341 340 340 342 342 341 341 342 342 346 341 344 345 347 344
348 348 348 347 347 347 347 347 348 347 350 351 348 350 349 349 348 347 348 347 347 347 347 348 348 349 347 345 344 344 344 348 348 348 347 348 347 345 345 345 346 345 343 342 342 341 343 342 341 340 342 342 343 342 342 342 341 343 343 342 345 345
345 342 344 345 347 347 346 346 348 350 349 350 348 349 349 350 349 348 346 346 348 349 348 347 348 348 347 346 345 345 345 347 349 347 348 346 345 345 344 343 344 345 344 341 340 340 342 342 342 342 343 343 343 343 343 343 344 343 345 342 342 344
339 340 344 343 346 346 347 350 350 349 349 349 349 349 349 349 349 347 348 347 348 349 348 348 348 348 347 344 344 345 345 346 346 347 344 343 340 344 343 343 340 342 343 342 340 340 341 341 341 339 338 339 341 341 341 342 343 342 342 341 340 342
335 338 340 342 344 347 349 349 350 349 349 349 350 350 348 346 346 347 346 345 345 345 345 348 348 347 346 344 344 344 344 343 344 344 344 343 342 342 342 343 341 341 343 343 340 340 340 339 337 337 337 338 339 340 340 342 343 342 342 342 342 341
336 337 339 340 343 346 345 341 343 345 342 343 345 345 347 345 346 344 344 344 343 344 343 344 344 347 345 343 344 344 344 344 343 343 341 341 339 339 340 339 339 338 337 337 338 338 338 336 336 337 336 337 338 339 339 340 343 343 343 342 342 342
336 337 336 338 337 341 339 343 344 343 341 342 341 343 343 344 344 343 343 342 342 342 342 342 343 344 344 344 344 343 343 342 341 341 339 338 339 339 339 339 338 338 336 335 335 336 337 337 334 332 334 334 335 337 339 339 340 342 341 342 342 340
337 335 336 339 339 342 340 342 340 339 340 340 340 338 338 340 341 342 343 342 342 342 342 341 341 341 342 342 341 340 342 340 338 338 338 338 339 337 338 337 337 335 336 333 333 335 335 335 331 328 327 328 330 332 336 337 340 340 340 340 341 341
336 336 335 337 341 338 340 343 342 340 340 339 341 341 339 339 340 340 340 341 341 340 339 339 340 339 339 339 339 338 338 339 338 337 336 336 337 337 337 336 336 334 333 335 333 335 335 335 329 331 331 327 323 324 328 334 337 338 338 339 339 340
336 335 335 338 338 338 342 342 342 341 341 339 336 338 339 339 338 338 337 338 338 339 337 336 336 335 335 336 336 336 336 336 335 334 333 331 331 331 332 332 331 331 331 329 329 330 335 335 333 330 323 324 325 324 319 323 327 332 335 335 337 337
337 335 337 338 341 342 341 340 340 339 338 337 337 337 335 335 335 334 333 334 334 335 334 333 333 332 332 331 332 332 333 332 331 332 331 328 328 327 329 330 329 328 328 326 325 328 331 333 334 335 329 324 323 320 321 325 327 328 333 332 333 331
333 335 338 339 339 340 340 338 337 334 332 332 331 331 330 330 331 330 329 332 331 331 331 331 329 329 329 329 329 329 329 329 329 329 327 327 327 326 327 328 328 327 326 327 326 325 326 330 330 330 333 330 329 322 322 325 325 318 330 332 332 332
334 336 337 339 336 338 338 338 337 336 335 332 330 331 332 333 332 331 331 330 329 329 328 327 327 326 327 327 328 328 327 328 328 327 326 326 325 325 326 327 327 326 326 326 325 323 324 324 327 328 328 328 328 328 327 324 320 323 319 325 329 330
337 336 338 338 339 339 337 336 336 335 334 333 331 329 331 331 331 330 328 327 328 326 325 324 325 325 325 325 326 326 326 326 325 326 324 323 323 323 325 326 327 326 326 326 325 323 321 323 320 322 324 324 325 325 326 327 326 322 320 318 320 326
334 335 336 336 337 336 335 335 334 333 331 330 330 328 328 329 328 327 325 325 325 325 324 323 322 323 323 322 322 322 322 322 322 321 321 321 321 322 322 323 322 322 323 322 324 323 321 319 320 319 318 320 321 322 322 324 323 323 318 316 316 318
332 333 334 334 334 334 334 333 332 331 330 328 328 328 328 326 326 325 324 323 323 322 321 321 321 320 321 320 320 321 320 320 320 319 319 319 319 319 321 321 321 321 321 320 320 319 318 317 317 317 318 318 317 317 318 318 319 319 320 319 314 314
329 330 331 332 332 332 331 331 330 329 328 327 326 326 325 324 324 323 323 322 321 320 320 319 320 320 320 319 319 319 319 318 318 319 318 318 318 318 319 320 320 321 320 318 317 317 317 316 316 315 315 314 314 314 314 313 314 315 315 314 314 314
328 328 328 329 330 328 328 327 327 326 325 326 325 323 322 321 322 321 322 320 319 319 318 318 319 318 318 318 318 317 318 317 316 317 316 318 318 318 319 317 317 318 318 318 317 317 316 314 314 313 314 314 314 314 314 313 313 313 313 312 312 312
325 326 326 326 327 327 325 325 325 324 323 323 323 322 321 320 320 319 319 319 318 316 317 316 316 316 316 316 316 316 316 314 315 315 316 316 316 317 318 316 315 316 316 316 315 316 314 314 313 312 311 313 314 314 313 314 313 312 313 312 312 309
324 325 325 325 325 324 323 323 324 323 322 322 321 321 320 319 319 319 318 317 317 316 315 316 315 315 315 315 315 315 315 315 315 314 315 315 316 316 316 313 314 314 314 316 316 316 315 315 314 314 314 312 312 312 313 314 313 313 311 310 309 308
322 323 323 322 323 322 321 322 322 322 321 320 319 318 318 318 318 317 316 317 317 316 315 315 313 314 315 315 314 314 314 314 313 314 314 314 314 315 315 313 312 313 313 315 315 314 313 314 313 313 314 312 312 313 313 312 313 313 312 311 310 309
321 321 321 320 320 320 319 319 320 319 319 319 318 318 317 317 317 317 317 316 316 316 315 314 314 314 313 314 313 312 312 312 312 313 313 313 313 313 313 313 311 312 312 314 313 312 312 313 312 313 313 313 312 312 312 311 312 312 312 312 311 311
320 320 320 319 319 319 318 318 317 317 318 318 317 316 315 316 316 316 316 316 314 314 315 314 313 314 313 312 312 312 312 311 311 312 313 312 312 312 312 312 311 310 311 312 312 311 311 311 312 312 312 312 311 311 310 312 311 311 312 312 311 310

ECMWFFLT2_sfc_thetae_102.txt.gz
Theta_e
345 345 344 345 347 348 349 350 351 351 351 351 351 350 350 350 349 350 349 349 348 348 348 346 347 346 347 344 344 344 344 343 342 342 342 342 341 339 338 340 342 340 342 341 344 345 346 346 346 346 346 346 347 342 340 341 343 337 335 327 338 334
347 346 345 344 345 347 348 349 349 349 350 351 351 350 350 349 351 349 350 348 349 349 349 348 349 350 347 344 344 344 344 343 343 344 344 343 344 342 341 340 340 342 342 343 342 345 346 347 346 346 346 345 344 341 341 343 341 333 335 334 335 339
346 346 345 344 343 345 347 347 348 349 350 351 351 351 349 349 348 348 348 348 351 350 350 349 349 346 348 349 345 345 345 344 345 345 345 344 345 343 342 341 339 341 342 342 340 341 346 343 344 347 347 344 341 341 342 344 339 337 335 338 334 342
346 346 344 341 341 344 346 345 347 347 349 349 349 349 349 346 347 347 348 351 353 355 347 348 343 350 350 346 345 346 346 345 346 346 346 344 345 345 344 343 340 341 340 337 336 340 343 342 342 344 342 341 341 344 344 341 335 333 336 335 335 344
345 346 344 341 342 342 345 342 343 344 346 346 347 347 347 348 350 352 347 353 349 348 349 349 348 348 349 347 346 345 346 344 344 343 345 342 342 341 341 336 332 337 333 335 335 337 341 345 344 342 340 341 342 342 341 343 341 335 333 342 336 346
346 345 343 341 341 341 343 340 342 345 345 343 344 345 345 346 349 352 350 349 350 348 348 348 347 347 346 347 346 345 346 349 346 346 349 342 343 345 338 336 328 328 330 332 334 336 338 342 342 342 341 341 340 340 340 338 335 342 337 340 338 345
345 345 344 342 342 340 342 346 346 343 343 342 346 344 344 345 346 349 348 349 350 349 346 347 347 345 344 345 345 345 347 349 348 347 344 342 343 344 341 340 331 330 328 330 333 335 338 338 337 335 337 335 338 337 339 338 337 335 335 342 339 348
342 342 344 343 341 339 345 344 346 346 346 347 347 347 347 347 348 347 348 351 351 349 347 348 347 346 345 346 344 346 347 347 346 344 343 344 343 342 340 339 341 338 335 334 330 332 334 338 339 336 334 334 334 334 336 336 338 336 336 336 341 345
342 343 345 342 339 341 343 344 346 345 347 346 347 350 348 348 347 347 348 350 350 348 347 346 349 346 346 345 347 347 346 345 347 346 346 346 346 345 344 341 343 339 337 338 336 336 336 337 339 339 339 338 336 336 336 335 337 339 335 336 341 342
342 343 344 344 347 343 345 344 344 350 345 348 352 349 348 347 348 346 346 347 350 350 348 348 348 348 346 344 346 347 345 342 346 348 346 344 348 346 346 345 346 340 338 339 344 341 339 336 335 336 338 338 340 340 338 338 340 339 340 338 336 349
341 345 341 340 344 345 345 344 343 346 346 347 349 348 347 351 348 348 347 348 349 352 349 350 348 348 344 343 344 342 342 342 344 345 347 347 348 347 350 347 347 345 343 341 341 340 340 337 337 334 339 335 336 334 334 336 341 337 337 340 337 342
345 346 345 343 345 344 346 345 347 348 347 347 353 350 348 350 348 349 349 348 351 352 350 351 352 346 346 342 342 340 342 343 344 347 345 344 347 345 345 347 345 348 350 347 344 344 343 340 336 335 335 337 337 337 336 336 338 341 337 339 341 343
347 347 350 345 344 344 348 346 349 348 349 350 350 350 347 345 348 350 349 346 351 350 349 351 348 348 346 346 344 342 341 339 344 341 341 344 344 345 345 345 348 345 348 345 342 342 342 342 340 340 339 337 338 337 338 338 339 341 339 341 344 342
343 343 340 342 342 340 341 346 347 351 348 348 351 349 350 350 350 349 351 352 350 351 351 352 352 351 350 351 349 347 343 346 344 344 346 348 347 342 345 345 342 344 345 343 341 342 342 340 341 340 340 341 340 340 341 339 340 340 342 343 345 342
333 335 339 338 339 342 340 339 344 348 349 350 348 349 350 349 349 349 349 350 351 351 350 350 351 351 347 349 347 348 346 347 345 343 343 349 348 347 345 342 344 341 340 340 340 339 339 339 339 338 339 339 339 341 342 341 340 340 340 341 345 344
333 334 335 337 337 339 340 340 340 340 345 345 351 347 347 347 348 349 349 348 349 349 351 350 349 349 347 345 345 343 345 346 346 346 346 345 346 341 341 342 345 343 339 339 338 337 339 338 339 338 339 340 340 340 339 338 339 340 340 342 340 342
335 332 336 338 340 339 340 340 337 340 340 340 343 345 347 347 346 347 349 347 349 350 348 348 347 347 347 344 344 344 347 348 348 347 347 346 345 343 342 341 341 342 341 338 337 336 337 338 338 338 338 338 339 339 338 339 339 339 342 340 339 340
335 334 340 340 337 339 340 341 341 340 337 339 339 342 343 347 347 347 347 346 347 348 348 346 347 346 348 347 346 346 344 347 346 348 346 345 344 344 343 342 338 341 340 338 336 335 334 335 336 336 335 336 337 338 337 337 338 339 339 338 339 339
336 338 339 340 339 341 337 337 334 334 338 340 339 341 342 344 345 346 345 344 344 345 344 343 345 346 346 343 343 342 342 343 343 344 343 339 338 339 338 338 337 335 338 337 335 335 334 334 334 334 334 335 336 337 337 337 338 338 338 340 339 340
338 338 339 340 337 338 337 335 335 336 336 337 337 340 344 343 343 341 342 343 342 342 341 342 341 342 342 342 341 340 340 340 340 339 338 336 336 335 335 335 335 335 334 334 335 335 334 333 332 332 332 335 336 336 336 336 337 337 339 339 339 340
337 338 338 336 335 336 334 333 333 333 335 334 337 338 340 341 340 340 341 340 340 340 340 340 339 339 337 338 339 339 338 337 336 336 336 335 335 334 334 335 333 334 332 331 331 333 333 332 330 328 330 330 332 334 335 335 336 339 340 341 340 338
337 337 338 338 337 337 336 334 332 330 332 334 336 337 337 339 339 340 340 339 339 338 337 336 336 335 335 334 335 335 335 333 332 332 333 333 332 332 331 331 331 328 329 328 328 331 330 330 327 325 324 325 327 331 332 336 338 338 338 337 337 338
337 336 336 338 337 334 336 336 335 334 332 334 338 339 338 339 339 337 337 337 336 335 334 333 333 333 332 332 332 332 332 331 330 330 329 329 328 327 328 329 329 326 324 326 325 328 327 329 324 325 326 324 321 321 327 334 331 331 331 334 336 336
335 336 336 335 336 337 337 337 337 337 336 335 337 340 339 338 336 335 333 334 333 333 332 330 329 329 330 330 330 330 330 329 329 328 327 326 325 324 326 326 326 325 324 320 321 323 327 329 327 323 318 319 320 321 317 320 321 324 329 330 329 330
336 337 337 336 336 336 337 336 337 336 337 337 339 337 335 332 332 331 331 330 329 330 328 327 327 327 328 328 328 328 328 328 328 327 327 326 324 324 325 324 324 324 323 321 320 321 324 326 324 328 323 319 316 315 315 317 318 320 328 324 326 327
335 337 336 336 337 337 335 332 332 330 329 330 331 332 331 329 328 328 327 327 326 326 326 326 325 325 325 326 326 325 326 325 326 326 327 325 323 323 323 323 322 323 322 323 321 319 318 322 322 324 322 321 321 318 315 317 316 312 320 323 324 325
335 336 338 336 336 335 334 333 332 331 331 329 329 330 331 331 330 329 329 327 325 325 324 324 324 323 323 324 324 323 324 324 324 324 324 321 321 321 321 322 321 322 320 321 320 316 316 316 318 319 318 319 319 320 320 316 312 314 311 316 320 320
335 336 337 337 337 336 332 332 330 334 332 330 329 328 329 328 328 328 327 325 323 322 322 322 322 320 321 321 322 321 321 321 321 321 321 319 320 321 321 321 321 321 319 320 317 315 314 313 311 312 315 314 315 317 316 317 317 313 310 308 310 316
334 334 333 335 335 334 335 334 333 332 329 329 329 328 328 327 326 327 325 325 323 321 321 321 320 320 320 319 321 320 319 319 319 319 319 318 319 320 320 318 318 318 317 317 316 317 314 312 312 311 311 311 313 312 313 313 314 312 308 306 307 308
333 334 335 334 334 334 334 333 332 331 328 327 328 328 328 326 326 325 322 322 322 321 319 320 320 319 319 318 318 318 318 317 317 318 319 317 317 318 318 317 318 318 316 315 315 316 313 312 312 312 312 311 310 310 310 309 309 308 308 308 304 305
330 331 331 330 331 330 331 331 330 330 329 327 327 327 325 324 324 324 321 320 319 319 319 319 319 318 318 317 317 317 317 316 316 318 317 316 316 317 317 315 316 317 316 315 314 315 313 313 312 311 311 310 310 309 308 306 306 307 307 305 304 304
326 328 328 328 329 328 328 328 329 328 328 328 327 325 325 323 322 319 320 318 319 319 318 318 318 316 316 316 316 316 316 315 315 315 315 315 315 316 315 314 315 314 314 315 315 315 312 311 311 310 310 311 311 312 311 309 309 309 307 306 305 304
325 326 327 327 327 328 327 326 326 326 326 327 326 324 323 321 321 321 319 317 317 316 316 315 315 314 314 315 315 314 314 313 313 314 314 314 314 314 314 312 312 312 313 313 312 313 312 311 311 310 309 311 311 311 309 309 309 309 309 308 306 303
323 326 325 324 325 325 325 325 325 324 326 325 323 323 321 319 320 319 318 317 316 315 314 314 313 313 314 314 313 313 313 313 313 313 313 313 313 313 313 309 311 311 312 313 312 312 311 311 311 311 311 309 310 310 308 308 308 308 307 306 303 303
321 323 323 322 322 322 322 323 323 324 323 322 321 320 319 320 319 317 318 317 316 315 313 312 312 313 314 314 314 313 312 312 312 313 312 312 313 312 313 311 310 312 312 312 311 311 310 310 310 310 310 310 310 309 307 308 308 307 307 306 305 304
321 321 321 321 320 320 320 321 321 321 321 320 319 318 318 318 318 318 317 316 315 314 313 313 313 312 313 313 313 311 311 311 312 312 312 311 311 311 311 311 310 310 310 312 310 309 309 309 309 310 309 310 308 307 306 308 308 307 307 307 306 304
319 320 319 319 318 318 319 318 319 319 319 319 318 316 316 316 317 316 316 315 314 313 314 314 312 313 312 312 312 312 311 311 311 311 311 311 310 310 310 310 310 309 309 311 311 309 309 308 308 309 309 308 306 306 305 307 307 307 307 307 305 304

ECMWFFLT2_sfc_thetae_105.txt.gz
Theta_e
342 344 345 347 347 348 350 351 351 351 351 351 350 349 350 350 350 349 349 349 348 345 343 343 344 343 346 344 344 344 343 343 342 343 344 343 340 340 339 340 340 341 342 341 343 345 346 346 347 347 347 347 347 341 337 337 338 340 332 337 336 334
340 342 344 346 347 348 349 350 347 348 349 348 349 350 348 347 352 345 349 347 344 346 344 343 343 349 344 344 343 344 344 343 343 343 343 345 344 342 341 341 341 340 341 342 343 336 342 348 348 347 348 347 342 338 338 337 338 339 334 333 335 338
340 341 342 344 346 347 347 347 346 346 348 350 350 349 345 348 344 345 346 345 346 343 345 344 344 347 345 345 344 345 344 344 344 344 345 345 345 345 343 341 340 341 342 343 338 336 338 340 341 349 349 346 337 336 337 337 338 338 331 333 332 343
340 340 339 339 343 344 344 345 345 345 346 346 346 347 345 346 345 345 345 342 343 345 342 340 350 349 351 345 342 345 345 345 345 346 345 345 345 346 346 345 343 343 343 338 331 331 335 340 340 340 340 339 338 338 338 338 339 337 330 339 333 346
341 340 337 338 340 341 342 343 344 344 345 345 345 345 345 343 343 342 341 344 344 345 343 343 342 342 341 341 340 340 341 340 340 339 345 339 338 339 341 339 337 337 332 331 331 331 333 335 341 340 338 337 336 336 337 339 339 335 333 336 335 346
341 338 337 337 338 342 342 341 341 342 344 343 345 344 343 342 342 343 343 346 346 342 342 341 341 339 338 338 339 341 339 340 340 342 344 338 338 338 338 336 331 326 328 327 328 331 332 335 338 339 338 337 337 337 338 337 335 333 335 333 336 346
340 337 336 337 338 340 336 338 338 341 340 340 342 341 339 340 342 342 343 347 344 340 339 339 339 338 337 338 338 338 338 340 339 339 340 337 337 339 337 335 333 326 324 325 326 328 330 331 334 339 338 338 338 338 337 333 332 333 332 334 337 348
340 338 336 337 336 335 337 337 338 343 341 340 341 338 339 342 343 342 345 345 347 341 340 338 338 337 338 338 338 339 338 339 341 338 339 340 337 338 338 337 336 331 326 325 325 326 329 331 333 332 332 331 331 332 331 333 333 334 334 334 336 345
338 338 336 335 333 336 337 337 339 338 337 348 340 341 341 342 341 342 343 346 345 340 340 339 338 338 337 339 339 339 339 338 339 339 338 337 339 339 340 340 339 338 336 335 334 335 335 334 333 333 334 334 334 333 333 333 333 334 335 334 336 340
338 336 334 336 337 337 337 337 338 340 340 346 342 342 341 341 341 342 341 342 345 342 340 339 340 340 338 338 339 338 340 337 337 339 339 340 341 341 341 340 339 340 340 339 338 339 338 335 335 333 332 332 332 334 333 332 333 334 336 334 334 340
337 338 336 338 339 338 337 337 337 338 339 341 341 342 343 343 342 341 341 344 344 346 343 342 342 340 337 337 337 335 335 336 337 337 339 339 339 340 338 339 340 340 340 341 340 339 339 338 337 335 333 333 333 332 332 332 332 333 333 334 333 338
337 337 336 336 336 336 335 338 340 338 338 340 341 339 342 341 344 343 343 342 345 344 344 342 343 341 340 337 336 335 337 337 337 339 337 336 339 340 339 340 341 342 342 341 339 338 338 338 337 337 337 335 334 334 333 332 333 334 334 335 335 335
334 336 337 337 337 337 336 338 339 338 339 340 340 342 340 341 343 343 341 342 344 343 342 340 340 341 340 336 337 336 334 334 336 337 336 336 339 338 337 338 338 337 339 339 338 337 339 339 337 336 336 336 336 335 335 335 334 335 335 335 338 337
336 335 336 336 337 337 336 337 339 339 339 338 338 338 338 337 339 340 341 341 343 344 343 342 342 341 339 339 338 336 335 335 334 336 339 338 338 336 337 337 338 336 341 336 336 336 335 335 335 336 335 335 336 336 337 337 336 336 337 337 340 337
336 335 335 336 337 337 337 337 337 336 337 336 337 337 338 336 337 338 338 341 342 344 343 342 343 340 339 339 338 337 335 334 335 335 335 339 338 335 336 337 336 336 335 334 335 336 335 334 334 335 335 336 336 337 337 336 337 336 336 336 338 336
333 333 334 336 336 337 338 337 338 340 337 337 338 337 336 337 337 337 336 334 339 341 340 343 343 341 339 339 338 337 336 336 338 338 337 337 337 336 336 336 337 337 333 333 334 334 334 333 333 334 335 335 335 335 335 335 335 335 336 337 337 337
333 334 335 335 335 336 336 334 335 337 337 337 337 336 337 339 339 337 338 336 337 341 341 342 342 342 339 339 338 338 338 339 341 339 338 338 337 337 336 336 334 334 334 331 332 332 331 331 331 332 332 332 332 333 333 333 335 335 337 335 335 336
332 335 333 333 334 336 337 336 335 335 338 336 336 337 337 337 338 339 336 335 337 342 341 339 339 340 339 340 338 337 337 339 340 338 335 335 335 334 333 332 330 332 332 331 329 329 328 328 330 330 330 330 330 331 332 333 333 335 334 334 334 334
334 335 335 335 334 332 332 332 334 335 334 334 335 336 337 336 336 335 335 336 339 338 338 336 335 336 337 337 336 335 332 333 334 334 332 331 330 330 330 330 328 328 328 328 328 329 325 326 328 328 328 328 329 330 331 332 333 332 332 334 334 336
335 335 334 333 332 332 332 331 330 331 331 332 333 334 334 334 335 336 337 336 335 335 335 334 333 333 333 335 334 331 329 329 330 331 328 327 326 326 327 326 325 326 324 325 326 325 324 325 325 324 324 326 327 328 329 331 331 332 331 333 334 334
334 334 332 331 331 330 328 328 330 330 329 330 330 332 332 334 336 335 334 333 332 331 332 332 332 331 330 332 332 330 328 327 327 328 327 325 325 325 326 326 324 324 323 321 321 323 324 325 321 319 321 321 324 326 328 328 326 324 324 326 329 332
333 333 332 332 331 330 328 328 328 328 329 330 331 332 332 334 332 332 331 331 330 329 328 329 331 329 329 328 329 329 327 326 325 326 326 325 324 326 323 323 322 319 321 320 319 322 323 321 317 316 316 318 319 322 325 326 323 322 322 326 326 328
333 333 332 333 331 329 329 330 329 329 330 331 334 335 332 331 331 329 329 327 327 326 325 325 326 329 327 326 325 325 325 324 324 325 322 321 320 320 320 320 320 319 317 319 319 322 321 319 315 317 318 316 313 314 318 319 320 320 321 323 323 324
332 332 332 332 331 332 333 331 330 331 332 333 332 332 330 329 328 324 323 325 324 324 323 323 323 324 325 324 323 323 323 322 322 322 321 318 318 318 318 318 319 318 318 315 316 317 319 316 316 313 311 312 313 313 309 312 313 317 320 319 321 320
331 330 331 332 332 333 332 330 331 330 332 332 332 329 328 327 326 324 322 321 322 322 322 321 321 321 324 321 320 320 320 320 319 319 318 317 316 317 317 317 317 316 315 313 313 314 314 314 314 315 313 310 310 310 309 310 312 311 315 316 316 316
331 330 330 331 332 332 330 329 329 328 327 327 326 325 324 323 323 321 319 320 320 321 320 319 318 319 320 320 317 317 317 316 316 317 317 316 316 316 316 316 315 314 314 314 312 310 309 312 314 313 313 313 315 310 307 309 308 304 311 314 313 314
331 330 331 331 332 331 329 329 327 327 327 326 325 325 325 326 324 322 320 318 318 318 318 317 317 316 317 318 316 315 315 315 315 315 318 315 315 315 315 316 316 314 313 314 312 308 307 308 309 310 311 311 313 312 311 307 302 304 301 306 309 309
330 331 330 330 330 330 329 329 328 329 328 325 324 322 323 323 324 322 319 317 316 316 317 317 316 315 315 316 316 314 314 314 314 315 316 313 314 314 314 316 315 313 313 313 311 308 306 307 306 306 310 309 309 310 309 308 307 303 302 300 302 306
329 329 330 331 330 330 330 330 328 327 325 325 324 323 324 323 322 322 319 318 317 316 315 315 315 315 313 314 316 314 312 312 313 314 316 313 313 313 312 312 312 311 310 311 311 310 307 306 306 306 305 306 306 306 306 307 306 305 303 300 300 301
328 329 330 331 331 331 330 328 325 325 324 323 324 323 323 321 320 319 316 315 315 314 314 313 313 313 313 313 312 313 312 311 311 314 315 311 311 311 310 311 311 311 311 310 309 309 308 306 307 307 306 306 305 305 304 303 303 304 305 304 300 300
326 326 325 325 326 326 327 326 325 324 323 322 322 322 320 319 318 317 314 313 313 313 312 311 311 311 311 312 311 313 311 311 312 314 312 309 309 309 309 309 310 310 309 308 309 308 308 308 307 306 306 305 304 303 301 300 301 302 302 300 299 299
322 323 323 323 323 323 324 324 325 324 323 323 322 321 320 318 317 314 313 313 313 311 310 311 310 308 309 310 311 309 310 309 310 309 309 309 309 309 308 309 308 309 308 307 308 309 306 306 306 305 305 305 304 304 303 302 302 302 301 300 299 298
320 320 321 321 321 321 320 320 320 321 321 321 320 318 316 317 317 314 313 311 310 309 308 308 308 308 307 308 309 308 308 307 307 309 309 309 308 308 307 307 308 308 307 306 306 306 305 305 305 304 304 305 303 303 303 304 304 302 302 302 300 297
317 318 318 319 318 318 318 318 318 318 317 317 316 315 314 314 313 313 312 311 309 308 307 307 307 307 307 308 307 308 308 308 308 308 309 309 308 309 307 307 307 306 306 306 306 305 305 306 305 305 304 304 302 301 302 304 303 303 302 300 297 297
316 317 317 316 317 316 317 317 317 316 316 315 314 313 314 314 312 311 310 309 308 308 306 306 306 307 309 307 307 307 308 307 307 307 307 307 308 307 307 306 307 306 307 306 305 306 304 304 305 304 302 303 303 301 302 303 302 302 301 299 298 297
316 315 316 315 315 315 314 315 315 314 314 315 315 313 313 313 312 311 310 309 308 307 307 306 307 306 307 307 306 306 306 306 306 306 307 306 306 306 306 306 304 304 305 310 305 304 304 304 304 303 302 302 301 301 302 302 302 300 299 299 298 298
314 314 313 313 313 314 314 314 313 314 313 313 313 312 310 310 310 310 309 308 307 307 307 307 308 307 306 306 306 306 305 305 305 306 306 306 306 305 305 305 304 303 304 304 306 304 304 303 303 303 302 302 301 301 300 301 300 300 299 298 298 297

ECMWFFLT2_sfc_thetae_108.txt.gz
Theta_e
346 347 347 347 347 347 350 351 350 351 351 350 349 349 349 349 349 349 348 348 347 341 340 341 340 340 344 340 344 344 343 343 342 344 343 343 343 342 341 340 340 341 341 342 342 343 344 346 347 348 348 348 349 340 334 332 333 336 331 335 339 331
343 345 346 346 346 347 349 349 345 346 345 346 348 349 346 343 350 342 349 344 340 342 339 339 339 347 342 341 341 344 344 343 343 344 344 344 344 344 344 342 341 342 342 342 343 333 336 341 344 347 349 350 345 336 335 333 332 334 334 334 336 333
341 342 343 342 345 347 346 343 343 343 345 348 348 348 342 346 340 340 342 341 342 340 340 340 342 346 344 345 343 344 344 343 344 344 345 345 345 345 345 345 344 343 342 343 336 332 332 332 334 345 347 343 339 337 334 334 334 333 332 332 333 336
340 341 341 340 344 345 342 341 341 342 343 342 341 343 340 342 341 341 341 339 341 342 343 339 348 348 348 343 340 346 345 345 345 346 346 346 345 345 344 344 345 344 343 338 330 328 330 332 335 336 337 337 337 336 335 335 334 335 330 333 334 337
340 340 340 341 341 340 340 340 340 341 340 340 339 340 340 340 340 339 338 340 339 343 340 337 337 339 337 337 336 336 337 338 338 337 344 337 336 338 338 335 333 334 328 328 327 327 328 329 332 335 337 337 336 334 333 334 335 336 335 332 337 339
340 338 339 340 341 343 342 339 340 340 341 341 342 340 340 339 338 338 339 340 342 338 339 335 335 335 336 335 335 336 335 336 335 338 342 334 334 335 335 336 335 332 327 326 325 325 326 332 330 332 335 336 336 334 333 334 335 335 333 330 335 342
338 336 337 339 340 342 340 340 341 341 341 340 341 340 336 336 338 338 340 343 338 336 335 334 334 333 333 335 334 333 336 337 336 336 340 334 335 337 336 335 333 333 330 325 323 324 324 326 327 329 334 337 336 336 335 335 334 330 329 331 335 344
337 335 335 337 339 339 338 338 339 344 343 343 342 338 336 338 340 340 342 345 344 337 336 335 334 333 333 334 337 337 335 336 337 337 339 337 334 335 336 337 337 336 333 327 324 324 325 327 329 329 331 335 336 335 334 332 331 331 330 331 333 342
338 335 335 336 337 337 336 337 337 339 338 344 339 338 339 339 339 341 342 345 343 335 335 334 335 334 333 334 337 340 336 333 335 338 337 335 335 336 335 336 336 336 335 334 333 332 336 335 332 331 330 330 331 331 331 331 330 330 331 331 332 337
338 335 335 335 336 335 333 334 335 337 340 344 339 340 339 338 339 339 339 341 343 337 336 335 335 336 334 333 335 334 334 332 334 335 334 333 335 336 334 334 335 336 338 336 336 336 336 336 336 335 333 333 332 330 330 329 329 329 331 331 331 336
338 338 335 334 334 334 335 334 336 337 337 337 338 339 338 337 336 336 336 337 339 343 340 337 336 335 333 333 332 331 333 333 333 335 334 333 333 336 334 334 335 335 337 337 336 336 336 336 335 336 334 334 333 332 332 332 331 331 331 331 330 333
335 337 336 335 335 334 335 336 337 337 337 338 340 339 339 338 339 335 336 335 337 338 342 338 338 337 335 334 333 332 331 332 332 334 332 332 334 334 334 335 336 335 335 334 335 335 336 334 334 335 335 334 333 334 333 332 332 332 333 332 331 333
336 336 335 334 334 334 335 336 336 336 337 338 339 339 338 337 336 336 334 335 335 337 340 336 336 336 338 331 332 330 330 331 331 333 334 335 336 334 335 336 336 336 336 334 334 333 335 333 333 333 334 334 334 334 334 334 335 333 333 333 333 333
335 334 335 334 334 334 334 335 336 335 337 336 336 337 337 337 337 336 335 335 336 336 338 337 337 336 335 334 332 331 330 331 331 332 333 334 335 333 334 334 334 334 337 332 332 332 332 331 331 332 332 333 333 333 334 334 333 334 333 334 334 332
336 335 335 334 334 334 334 334 334 334 334 335 335 334 334 335 335 334 334 334 335 337 338 340 338 335 335 335 333 332 331 332 331 333 334 335 334 333 333 332 332 331 330 330 331 331 329 328 328 329 330 331 331 332 332 332 333 333 333 334 334 333
333 333 334 335 334 334 334 334 335 337 334 335 334 334 333 334 333 334 334 334 335 337 338 340 340 337 336 335 333 332 333 334 335 335 334 332 331 330 329 329 329 328 327 327 328 325 325 325 326 327 328 328 328 329 329 330 330 331 333 334 334 334
332 333 334 334 334 333 334 334 334 334 334 334 334 334 334 334 333 332 333 334 334 337 337 337 337 336 334 332 331 330 331 333 333 330 329 328 328 329 327 327 325 327 325 323 324 322 322 323 325 326 326 325 326 327 327 328 329 330 332 331 332 333
332 332 332 332 332 332 333 333 333 333 335 334 334 334 334 334 332 332 333 333 336 335 334 333 334 334 333 332 329 328 328 330 329 328 327 326 325 327 325 324 323 323 324 323 321 320 320 321 324 325 325 323 324 325 326 327 327 328 326 327 328 330
332 331 332 333 333 332 332 332 332 332 332 332 333 333 333 333 333 331 333 335 334 333 332 331 331 333 330 328 327 326 326 327 327 325 324 323 323 324 324 322 322 321 322 322 320 319 319 320 322 322 322 322 322 323 325 324 321 321 322 324 326 327
332 333 332 330 331 330 331 330 329 330 330 330 331 332 331 332 332 332 332 331 330 330 331 330 329 329 330 328 326 325 324 325 325 323 322 321 321 321 321 320 320 321 319 320 319 318 317 318 318 316 319 321 320 321 323 320 319 320 322 322 322 320
333 333 330 329 329 329 328 328 328 328 327 328 330 331 331 330 329 329 328 328 328 328 328 329 329 328 327 329 326 325 324 323 324 323 321 320 320 320 320 320 319 319 319 317 315 315 315 316 313 312 314 316 318 320 323 319 317 319 319 319 319 315
332 331 330 330 330 328 327 328 327 327 327 328 329 328 327 327 326 326 325 324 324 324 324 326 327 326 325 325 324 322 322 321 321 321 320 320 319 321 317 317 317 316 317 316 312 313 313 313 309 308 310 312 313 316 319 318 315 317 316 316 315 313
331 331 331 331 329 327 326 328 328 328 330 330 330 329 326 325 324 323 322 322 322 321 322 322 323 324 322 321 320 319 319 319 319 320 316 316 315 315 315 315 314 313 312 314 313 313 312 311 307 309 309 308 307 310 312 312 313 314 314 313 312 311
331 330 329 329 327 327 330 330 330 331 331 330 326 325 323 323 321 321 320 320 320 319 320 320 320 320 318 318 317 317 317 317 316 317 315 314 314 313 313 313 313 313 310 308 308 309 312 311 310 308 304 306 307 306 303 305 306 310 312 312 310 309
330 329 329 331 329 330 331 330 330 330 330 327 326 323 321 319 320 320 319 318 317 318 318 318 318 318 318 315 315 315 315 315 315 315 315 314 313 312 312 312 312 311 310 306 306 306 309 311 309 312 307 305 304 303 302 304 304 303 308 309 307 308
329 328 329 330 331 331 330 329 328 326 324 323 321 320 317 316 316 315 315 317 317 317 316 315 316 316 316 316 313 313 313 313 313 314 314 313 312 312 311 311 311 310 309 308 306 305 305 309 309 310 310 310 309 303 301 302 300 296 305 307 306 307
328 329 330 330 331 330 328 329 329 328 326 323 322 321 320 318 316 316 315 314 314 315 315 314 313 314 314 314 312 312 312 313 313 313 315 312 311 311 311 312 312 310 309 309 306 304 304 304 305 307 308 308 310 308 305 301 297 299 296 300 304 304
329 330 330 330 329 329 328 328 328 327 326 323 321 319 318 317 317 316 314 313 313 313 313 313 312 312 313 314 312 311 312 312 312 313 314 310 310 310 310 311 311 310 310 309 306 304 303 304 303 303 307 306 307 307 305 303 303 300 298 295 296 300
328 328 329 330 329 328 329 329 327 325 322 322 321 320 319 318 316 315 313 312 311 311 311 312 311 311 311 312 314 311 310 310 311 311 313 310 309 309 309 308 308 308 307 307 308 307 304 303 303 302 302 302 303 302 302 302 302 302 299 294 294 295
327 328 329 329 329 329 329 328 325 324 322 321 321 319 318 316 314 313 311 310 310 309 309 309 310 310 310 310 310 310 309 309 309 311 311 307 307 307 307 307 307 307 307 306 306 306 305 303 303 303 302 302 300 300 299 299 299 299 298 297 294 294
328 328 329 329 329 327 326 326 325 323 322 320 319 317 314 312 312 311 310 309 309 309 308 307 308 308 308 308 309 311 309 309 309 312 309 306 306 306 306 306 306 305 306 305 304 304 305 304 303 302 301 300 300 300 298 297 297 298 297 294 293 293
323 323 324 324 324 324 325 325 324 323 321 320 319 316 313 311 311 310 309 308 308 307 307 307 306 306 306 307 308 306 308 307 308 306 306 305 305 305 306 306 305 305 304 304 305 305 303 302 301 301 300 300 300 300 300 298 298 298 296 295 294 292
320 320 320 320 320 320 321 322 321 321 319 320 318 316 313 312 311 309 308 307 306 305 305 305 305 305 305 306 307 306 306 305 305 307 306 305 305 305 305 305 305 304 304 303 303 303 302 301 301 300 299 300 300 299 298 298 298 296 296 296 294 291
317 318 318 318 317 317 316 316 316 315 315 315 314 314 312 311 310 309 308 307 306 305 305 305 305 304 305 306 306 306 306 305 305 306 307 306 305 305 305 305 304 304 303 303 303 302 302 301 300 300 300 299 298 298 298 297 296 296 295 294 292 291
314 314 315 315 315 315 313 313 313 313 313 313 312 311 311 310 309 307 307 306 305 305 304 304 304 305 306 304 305 305 306 304 304 304 304 304 305 304 304 304 305 304 304 303 302 303 302 301 300 299 298 298 299 298 297 297 296 295 295 295 294 293
314 313 314 313 313 312 312 312 312 312 312 313 313 311 310 309 308 307 306 305 305 304 304 304 305 305 305 304 303 303 304 303 304 304 304 303 303 303 303 303 302 302 303 306 302 301 301 300 299 298 298 297 297 296 297 297 297 295 295 296 295 295
312 312 312 312 311 311 311 311 311 311 310 310 309 308 307 307 307 307 306 306 305 305 305 305 305 305 304 304 303 303 302 303 303 303 303 303 303 303 302 302 301 301 301 302 303 300 300 299 298 298 297 297 296 296 296 297 296 297 296 296 296 294

ECMWFFLT2_sfc_thetae_111.txt.gz
Theta_e
348 348 347 347 346 346 349 351 350 350 350 349 349 349 349 348 348 348 348 348 346 338 336 337 336 336 344 339 344 343 343 343 342 343 343 344 344 344 345 343 341 341 342 343 344 344 344 343 343 345 346 347 349 338 330 329 328 331 330 331 338 330
346 347 347 347 346 345 346 348 344 344 344 345 347 349 345 342 348 340 348 341 338 341 337 335 336 346 341 341 341 344 344 343 343 344 345 345 345 345 345 345 345 344 343 342 343 334 333 337 339 342 344 346 339 334 331 330 329 331 334 332 337 333
345 346 346 347 346 344 344 342 343 344 344 347 347 347 340 345 337 337 339 338 341 338 337 338 340 343 345 346 342 344 344 344 345 345 346 346 346 346 345 345 345 345 344 343 331 328 327 327 328 338 340 336 334 335 335 333 330 330 334 331 336 339
344 345 345 345 346 345 345 344 344 343 340 339 338 342 338 339 338 337 338 338 341 340 341 337 347 347 348 342 337 344 346 345 345 344 345 342 343 342 343 342 342 343 341 333 326 325 326 325 327 329 331 332 333 335 335 334 332 331 332 333 337 339
344 344 344 345 345 344 343 343 342 341 340 338 336 337 337 336 337 337 336 339 338 340 338 337 336 337 336 336 334 334 335 336 337 337 343 335 333 334 335 332 330 333 326 326 327 325 323 323 325 326 327 329 332 333 334 334 332 332 333 333 335 342
342 342 343 344 344 345 344 342 341 341 339 336 338 336 337 339 336 337 337 338 340 335 335 335 335 334 336 334 335 334 334 336 336 338 341 335 332 334 334 333 333 332 330 325 325 324 323 329 325 325 326 328 330 332 333 332 332 333 333 331 331 341
340 340 341 343 343 344 342 340 339 340 340 338 337 336 336 336 335 336 338 341 337 333 333 333 333 332 333 335 335 333 336 336 336 336 340 336 334 335 334 334 334 334 331 328 325 323 322 323 324 324 326 328 331 334 333 333 333 333 331 329 333 340
339 340 340 340 340 341 340 339 339 344 342 341 340 337 337 335 336 338 340 341 342 336 335 333 333 331 332 335 337 338 336 334 334 337 338 337 333 334 334 334 335 335 335 334 333 331 326 328 329 327 329 330 332 333 333 333 333 331 329 329 331 337
338 339 339 340 339 339 338 337 337 338 339 343 339 338 335 335 336 338 341 342 343 334 334 333 329 330 331 334 336 337 334 332 333 336 336 334 333 333 333 332 334 334 334 335 334 335 336 335 332 330 329 329 330 329 328 329 329 329 328 328 330 333
337 337 338 338 338 337 335 335 334 335 336 342 336 336 335 335 335 335 335 338 340 335 331 331 333 334 333 333 334 333 332 331 334 335 332 330 331 333 332 331 333 334 335 334 335 335 335 334 334 333 331 332 331 331 329 329 329 329 329 328 328 334
336 337 336 336 334 334 334 333 335 335 337 339 336 338 337 335 334 332 332 334 336 339 339 335 334 333 332 333 332 329 329 331 332 332 330 329 330 333 330 330 331 331 332 332 333 332 333 332 332 333 333 333 332 332 332 332 332 332 332 331 330 329
333 334 334 334 335 333 333 334 334 334 334 335 337 336 335 334 336 332 334 333 335 335 339 338 336 331 331 331 329 328 329 329 329 331 331 330 333 332 332 333 333 333 332 330 331 331 332 329 329 330 331 331 332 332 332 332 332 332 332 332 332 331
333 334 333 334 334 334 334 335 334 333 335 337 336 335 335 334 333 333 332 333 334 336 337 336 335 336 336 329 329 328 329 331 330 331 332 334 334 331 331 331 331 332 331 329 328 328 328 327 327 328 329 330 330 329 330 330 330 331 331 332 332 332
334 333 334 334 334 334 334 334 335 334 337 335 334 334 336 334 335 333 333 333 334 336 336 334 334 333 332 330 330 331 330 331 331 332 332 331 330 329 328 328 328 327 330 326 325 324 323 324 325 325 327 327 326 327 327 328 328 329 330 330 331 331
335 334 334 334 334 334 334 334 333 333 333 333 333 334 335 335 333 332 332 332 334 338 338 336 334 333 333 332 332 332 332 332 332 331 329 329 328 327 326 325 326 324 324 323 322 323 322 321 323 324 325 325 324 326 326 326 327 327 327 326 324 323
334 333 332 333 333 334 333 332 333 335 333 332 332 333 333 333 332 331 333 334 335 337 336 335 335 334 332 330 330 330 329 330 329 328 327 327 326 324 324 323 324 323 321 320 320 319 319 320 322 323 324 323 323 325 323 323 323 324 323 321 318 317
332 332 333 333 333 332 332 333 332 333 332 332 331 332 332 332 332 332 333 333 334 335 333 333 332 330 329 328 328 327 328 328 328 325 325 324 324 324 322 322 321 323 320 317 317 316 317 318 320 321 321 321 322 322 320 320 321 320 319 315 314 314
332 332 333 332 332 332 332 332 332 332 334 332 332 332 332 332 332 333 333 331 332 332 332 331 330 329 328 328 326 325 325 326 325 324 322 322 322 322 321 320 319 320 319 316 314 314 314 315 319 319 319 319 321 320 318 318 319 320 314 312 311 312
331 331 331 331 332 332 332 332 332 332 332 332 332 331 333 333 333 332 330 329 330 330 330 329 328 327 325 324 324 324 324 324 323 321 321 320 319 320 320 319 318 317 318 315 312 312 312 313 317 316 317 317 318 318 317 317 316 314 312 310 311 313
331 332 332 331 331 331 331 331 330 331 330 330 331 332 331 330 329 328 328 328 327 327 328 328 327 326 325 323 323 322 322 322 321 320 318 317 317 316 316 316 317 317 313 313 313 312 311 312 312 310 314 316 316 317 315 315 313 312 311 309 309 310
332 332 331 330 330 330 329 329 329 328 328 330 330 328 327 326 325 325 324 324 324 325 325 325 326 325 323 325 323 322 321 320 319 318 317 316 315 315 316 315 315 316 312 309 309 310 310 310 308 307 308 310 313 317 316 313 312 310 309 309 308 307
331 330 329 330 329 329 329 330 328 328 329 328 326 325 323 322 322 323 322 322 322 322 322 322 323 322 321 321 320 319 319 318 317 316 316 316 315 317 313 313 312 311 312 309 307 309 310 308 306 305 305 308 308 310 314 311 311 310 308 308 306 305
331 329 329 330 328 327 327 328 329 329 329 326 326 325 323 323 322 320 320 320 320 319 319 318 319 320 318 318 317 316 316 315 315 317 313 312 312 311 311 310 310 309 306 308 308 310 309 309 304 305 308 307 302 303 307 307 307 309 308 306 305 304
330 329 329 330 329 328 329 329 331 329 326 324 322 323 321 320 319 318 317 318 318 317 317 317 317 317 316 315 315 315 315 314 314 314 312 310 310 309 309 309 308 309 306 304 304 306 309 308 308 304 300 303 303 299 296 299 301 304 307 305 304 302
330 329 329 330 329 330 331 329 327 325 323 322 321 320 317 316 317 318 316 315 315 316 316 315 315 315 316 313 314 314 314 314 313 313 312 310 309 309 309 308 308 307 305 303 303 303 307 308 308 309 305 300 298 297 297 299 300 296 303 303 302 301
329 329 329 329 330 330 330 326 323 321 319 319 317 316 313 312 313 313 313 314 314 314 314 314 313 313 315 314 313 313 313 313 312 312 311 310 309 309 308 308 307 306 305 305 304 303 303 307 307 307 306 305 302 298 297 297 296 292 301 301 301 301
329 329 329 329 330 331 328 326 324 323 322 319 317 316 316 315 314 313 313 312 312 312 312 312 313 313 312 313 312 312 312 312 311 311 312 309 308 308 308 309 309 307 306 306 303 301 301 301 302 304 304 304 304 303 300 297 293 294 292 295 297 298
330 330 329 329 330 330 327 326 324 323 322 320 317 315 315 314 314 314 311 310 310 310 310 310 310 311 312 312 311 310 311 311 311 311 311 308 307 307 308 308 308 306 307 305 303 301 300 301 299 300 304 301 302 302 300 299 297 295 294 290 290 295
330 329 328 329 330 330 329 327 325 323 320 318 317 316 316 316 313 312 310 309 309 308 309 309 309 309 309 311 313 309 309 309 309 309 311 307 307 307 306 305 305 304 304 304 305 303 301 300 300 299 299 299 299 298 298 298 297 297 294 289 288 290
328 329 328 329 330 330 329 326 323 321 318 317 316 315 314 312 311 310 308 307 307 307 307 307 307 308 308 309 308 309 308 308 308 309 309 305 305 305 305 305 305 304 303 302 303 302 301 300 300 299 299 298 296 296 295 294 294 294 293 293 288 288
328 328 328 328 329 329 328 325 322 320 318 316 315 314 312 310 309 307 306 306 305 305 305 305 306 306 306 307 308 310 307 307 308 311 307 305 304 304 304 304 304 304 303 302 301 300 300 300 299 298 297 297 295 295 293 292 291 292 291 289 288 288
327 327 327 329 329 328 327 324 322 321 319 317 315 312 310 308 308 307 306 305 304 304 304 304 304 304 305 306 306 306 308 305 306 304 304 304 304 304 304 304 303 303 302 301 301 301 298 298 297 297 296 296 295 295 294 293 294 293 291 291 289 288
325 326 326 326 326 325 323 322 321 320 319 317 314 312 310 309 308 306 305 304 303 302 303 303 303 304 304 305 305 304 304 304 304 305 304 304 304 304 303 303 302 302 301 300 299 299 298 297 297 296 295 295 295 294 294 294 294 293 293 292 290 288
322 323 322 322 321 321 322 322 322 320 318 316 312 311 310 308 306 305 305 304 303 303 302 302 302 303 304 305 305 305 304 304 304 305 305 304 304 304 303 302 301 301 300 300 299 298 297 297 296 296 296 295 294 294 293 295 294 294 292 291 290 289
319 319 319 318 319 319 318 318 317 317 315 313 311 310 309 308 306 305 304 304 303 303 302 302 303 304 305 304 304 304 304 303 303 303 303 303 303 302 303 303 302 301 300 299 299 298 296 296 296 295 295 295 296 295 294 294 294 294 294 293 292 291
317 316 316 316 316 315 314 313 313 313 312 313 313 310 309 308 306 305 304 303 303 302 302 302 303 303 303 303 302 302 302 302 302 302 302 302 302 301 301 301 300 300 300 302 298 297 296 295 295 294 294 294 294 294 295 295 295 294 293 294 293 292
314 315 315 314 313 312 311 311 311 311 311 310 309 307 306 305 305 305 304 303 303 302 303 302 303 303 302 302 301 301 301 301 301 301 301 301 301 301 300 300 299 299 298 298 298 296 296 295 295 294 294 294 294 294 294 294 294 294 294 293 293 292

ECMWFFLT2_sfc_thetae_114.txt.gz
Theta_e
347 347 348 348 347 347 349 351 350 350 350 349 349 348 349 348 347 348 348 347 343 338 337 337 335 336 345 341 344 344 343 343 343 344 345 345 345 346 346 345 345 345 345 344 342 341 338 339 340 341 343 345 343 336 333 333 333 335 338 335 340 335
346 346 347 347 347 346 348 349 345 346 345 346 347 347 345 343 347 341 347 341 340 344 336 334 335 344 342 344 343 344 344 344 345 345 345 346 345 345 345 345 344 344 345 345 342 331 331 333 335 337 340 339 334 335 336 335 334 334 337 336 339 337
346 346 346 346 346 346 344 344 345 344 344 347 346 346 343 345 340 339 341 340 343 340 337 340 342 344 347 346 344 345 345 345 346 345 345 344 343 344 344 343 343 344 343 340 332 328 327 325 325 333 333 330 330 331 334 335 335 335 335 336 340 340
345 346 345 345 346 345 345 345 345 343 341 341 341 343 341 343 341 339 339 340 340 340 343 338 345 347 348 339 337 342 344 344 343 343 344 339 340 342 341 340 341 341 336 332 328 328 327 325 326 326 327 328 329 331 333 334 334 334 334 336 338 341
345 346 345 345 345 344 345 345 344 342 340 339 339 340 340 340 338 337 337 342 340 341 340 339 338 337 336 335 335 334 335 338 338 339 341 335 333 334 335 334 333 334 330 330 329 328 326 327 328 327 328 329 330 331 333 335 335 335 335 336 337 340
344 345 344 344 345 345 345 342 342 341 339 338 339 338 337 337 335 336 336 340 343 340 337 336 336 336 336 334 334 333 335 336 336 338 340 336 334 335 335 335 335 335 334 330 328 327 326 331 327 327 328 330 331 333 334 335 336 336 337 336 335 340
343 343 344 345 345 344 343 343 342 341 339 337 338 338 336 334 334 334 336 342 340 337 334 333 332 332 334 335 335 335 337 334 335 336 339 336 334 335 335 335 336 335 335 335 335 332 329 329 328 328 331 332 333 334 334 335 335 335 335 333 334 340
342 342 343 344 343 343 342 342 341 342 339 340 340 339 337 334 335 337 340 341 341 335 335 332 331 331 333 335 338 338 336 334 335 335 337 336 334 335 335 335 336 335 336 336 337 337 337 336 335 334 333 334 334 334 333 333 333 333 332 332 333 337
342 342 342 342 342 342 341 340 340 341 338 343 338 338 335 335 336 340 344 344 342 335 335 334 331 332 332 334 337 337 333 332 333 335 334 334 334 334 334 334 335 335 335 335 335 336 336 335 335 335 334 334 334 334 334 334 334 333 333 333 333 336
340 340 341 341 341 340 339 338 339 340 339 342 337 336 336 335 336 337 337 339 342 336 333 333 335 333 333 332 334 333 333 332 334 334 332 332 333 334 333 333 334 334 334 333 333 335 334 333 333 333 334 333 333 333 333 333 333 334 334 334 334 336
338 341 339 340 338 338 338 337 335 335 337 337 336 337 336 334 333 333 333 334 336 341 340 336 334 332 331 331 331 330 331 332 332 332 332 333 334 334 333 333 333 333 332 331 331 331 331 330 330 331 331 330 331 332 332 332 333 333 332 332 332 334
335 337 337 336 336 333 334 334 334 334 334 335 337 335 334 334 335 332 334 333 335 335 339 338 336 332 332 331 330 329 329 331 331 332 333 333 333 332 333 333 333 333 331 329 328 328 329 328 328 328 328 328 329 330 330 330 329 328 326 326 327 328
334 334 333 332 333 332 333 334 334 333 335 337 336 335 334 332 332 333 333 334 334 337 337 335 334 335 335 330 330 330 331 331 331 331 332 332 331 329 329 329 329 330 329 326 325 325 326 326 326 327 327 327 327 327 328 327 325 322 321 321 321 323
334 332 332 332 332 332 332 333 334 335 337 335 334 334 334 334 334 333 333 334 335 338 337 335 335 334 331 331 331 332 331 330 330 330 330 329 328 327 326 327 327 325 326 323 323 323 323 324 324 326 326 326 326 325 325 322 320 319 318 317 318 318
334 332 334 333 333 332 331 333 333 334 335 335 335 335 334 333 332 333 333 334 336 338 336 335 334 332 332 331 330 329 329 329 329 328 327 327 326 325 324 324 325 323 321 321 320 322 321 322 323 324 324 324 323 323 321 319 316 315 314 315 315 314
332 331 331 332 331 332 331 332 334 335 334 335 335 334 333 332 332 333 334 334 336 336 334 333 333 331 330 329 328 327 327 327 327 326 325 325 325 323 323 322 322 321 319 317 317 316 318 319 321 322 323 322 322 321 318 315 314 313 313 313 312 312
330 330 331 331 331 332 332 333 334 333 333 334 333 332 332 332 332 333 333 334 334 334 331 330 330 329 328 327 326 325 325 325 326 324 323 323 322 323 322 321 319 318 317 314 314 313 314 316 319 321 322 320 319 317 315 314 312 312 313 311 311 310
330 331 331 331 331 332 333 334 334 334 335 333 332 332 333 333 332 331 332 332 333 333 331 329 328 328 327 327 324 324 323 323 323 322 321 321 321 321 321 320 318 317 315 313 312 312 312 313 317 319 320 318 316 315 314 312 311 311 310 310 310 309
331 331 331 331 332 333 333 333 333 333 332 332 332 333 332 331 330 330 330 330 331 331 330 328 327 327 324 324 323 322 322 321 321 320 319 318 318 319 319 319 316 314 315 313 312 312 311 312 316 318 318 316 315 313 312 311 309 308 307 308 309 309
331 331 332 332 332 332 332 331 330 331 331 331 330 330 329 328 328 327 328 328 328 328 329 328 327 326 325 323 321 321 320 320 320 318 317 316 315 316 316 315 315 313 311 312 312 311 311 312 312 316 318 316 315 312 311 310 308 307 307 306 307 307
330 331 331 330 331 331 329 329 330 329 328 328 327 326 325 325 324 325 325 325 325 325 325 326 325 325 324 324 322 321 319 318 318 317 316 315 315 315 316 315 313 314 310 308 308 310 310 311 311 312 312 314 313 313 312 310 307 307 305 305 305 305
331 331 331 331 331 331 331 330 329 328 327 326 325 323 321 322 322 323 322 322 322 321 322 322 323 322 321 320 319 318 318 317 316 315 315 315 314 314 312 312 313 309 310 308 307 309 309 309 307 308 309 309 312 312 312 310 309 306 305 304 304 304
331 330 330 331 331 329 330 331 330 328 326 323 324 323 321 321 321 319 319 320 320 319 319 319 320 320 318 318 317 316 315 315 315 315 311 310 310 309 309 310 310 308 307 308 309 309 308 309 307 308 309 309 305 305 310 307 308 308 305 304 303 302
330 330 330 331 330 330 331 330 328 326 324 322 319 320 319 319 318 317 316 317 318 318 317 317 317 317 316 316 315 314 314 313 313 313 311 309 309 308 308 308 308 310 308 305 305 305 308 307 306 307 303 304 304 301 298 300 302 305 306 303 302 301
330 330 330 331 330 331 328 325 323 322 322 320 320 318 317 316 317 317 315 315 315 316 316 315 315 316 317 314 314 314 313 313 312 311 311 309 308 308 308 307 307 307 306 305 303 304 305 306 305 307 306 302 300 298 297 300 301 301 304 303 301 299
330 330 329 329 331 329 326 322 321 319 318 317 316 315 313 313 313 313 312 314 313 314 314 314 314 314 316 315 313 313 312 312 311 311 310 309 308 308 307 306 307 306 305 306 304 303 302 306 305 305 304 304 303 299 298 299 298 295 302 301 301 300
329 329 329 330 331 329 324 323 322 322 321 319 316 314 315 314 313 312 312 311 311 312 312 312 313 313 313 314 312 312 311 311 310 310 311 308 307 307 307 307 307 305 305 306 303 300 301 301 303 303 303 302 301 301 300 298 295 296 292 296 298 297
329 328 329 330 330 328 325 324 323 322 321 318 315 313 313 313 313 313 310 310 310 310 310 310 311 311 312 313 312 310 310 310 310 310 310 307 306 306 306 307 307 305 305 304 302 301 299 300 299 300 302 300 300 299 298 297 298 297 296 290 291 296
327 329 329 331 330 328 327 325 323 321 318 315 314 313 314 314 311 311 309 309 308 308 309 309 309 310 310 312 313 309 309 308 308 308 309 307 306 305 304 304 303 303 302 302 303 301 299 298 298 297 297 297 297 296 296 296 295 296 292 290 290 290
328 329 330 330 330 328 326 325 322 318 315 314 314 312 311 309 309 309 307 307 307 307 307 308 308 308 309 309 309 309 308 308 307 309 308 305 305 304 304 303 303 302 302 301 301 300 298 298 297 297 296 296 294 294 294 293 294 293 293 293 289 289
328 328 329 329 329 327 326 324 320 317 315 313 312 311 309 308 308 307 306 306 306 306 306 306 307 307 308 308 309 310 307 307 309 310 307 304 304 303 303 303 302 302 301 299 298 298 298 298 297 296 296 295 294 294 293 292 292 293 292 290 290 290
325 327 328 329 328 327 325 322 319 317 314 313 312 310 309 307 307 306 305 305 305 305 305 305 305 305 306 306 307 306 308 306 306 305 304 304 304 303 303 302 301 301 300 300 299 299 297 296 296 296 296 296 295 296 295 294 294 294 293 292 291 290
325 327 328 328 328 326 324 321 319 317 315 315 313 310 309 307 307 306 305 304 304 304 304 304 304 304 304 305 306 304 305 305 305 305 305 304 303 303 302 301 300 299 299 298 298 297 296 296 296 296 295 296 296 296 295 296 296 294 294 294 292 290
325 327 327 328 327 324 322 321 319 318 316 314 311 310 309 307 306 306 305 304 304 303 303 303 303 303 304 305 305 306 305 305 305 305 305 304 303 302 301 300 299 298 298 298 298 297 297 297 297 297 297 296 296 296 296 296 295 295 294 293 292 291
324 325 326 326 325 322 321 320 320 319 315 313 311 310 308 308 306 305 305 304 303 303 303 303 303 304 306 304 304 304 304 304 304 304 304 303 303 302 302 300 300 299 298 298 297 298 297 297 296 296 296 296 296 295 295 296 295 295 295 294 293 292
324 324 324 324 323 321 320 320 318 315 314 314 312 310 309 308 306 305 305 304 303 303 303 303 304 303 304 303 303 303 303 303 303 303 303 302 302 301 300 299 298 298 298 299 296 296 296 296 296 296 296 295 295 294 295 295 295 295 294 294 294 293
322 322 322 321 319 318 317 317 315 314 313 311 310 308 307 305 305 305 304 304 303 303 303 303 303 304 302 302 302 302 302 302 302 302 302 302 301 301 300 299 298 297 297 298 298 296 297 296 296 296 296 295 295 294 294 295 295 295 295 295 294 294

ECMWFFLT2_sfc_thetae_117.txt.gz
Theta_e
348 349 350 350 352 352 351 352 351 350 349 349 349 348 348 347 346 347 347 347 345 345 346 346 345 345 345 345 344 343 344 344 344 344 345 345 345 345 346 345 345 345 346 345 344 339 338 337 337 338 340 340 339 345 344 344 344 344 343 343 345 342
347 348 349 349 350 351 352 351 352 351 350 350 348 347 348 348 347 349 348 346 347 347 346 346 347 347 347 345 345 344 345 345 345 345 345 344 344 345 345 344 345 345 344 344 339 344 343 337 335 337 338 337 344 344 346 345 345 342 343 344 345 345
346 348 348 349 350 351 351 351 351 350 349 348 348 348 347 347 347 347 346 346 346 347 347 346 348 348 350 346 346 345 346 346 345 345 344 343 344 345 344 344 344 343 341 338 346 344 343 343 345 340 342 346 346 345 345 346 346 346 344 344 345 343
347 348 348 348 350 349 349 350 349 349 348 348 348 346 346 347 346 346 346 347 347 347 347 348 346 348 348 348 347 343 343 343 342 343 341 345 344 344 343 342 342 341 344 345 346 343 342 344 345 347 347 345 345 345 346 346 343 344 346 343 342 341
347 348 347 347 348 347 348 348 347 347 346 346 345 345 345 346 346 346 346 347 346 347 347 348 348 349 348 348 346 347 345 345 346 347 343 348 348 346 348 346 348 347 347 346 345 346 346 345 346 346 346 346 346 348 346 347 346 344 345 346 344 343
346 347 347 347 346 347 348 346 346 346 345 345 345 344 344 345 346 346 347 347 347 347 347 347 347 347 346 347 346 344 344 344 345 346 347 347 347 348 348 347 348 346 347 347 347 347 347 346 345 345 345 346 345 346 345 346 345 346 346 345 345 344
345 346 346 347 346 346 345 346 346 345 343 344 344 343 343 345 347 348 347 348 346 345 346 346 345 345 344 345 344 345 343 344 344 345 347 347 348 348 347 347 347 347 346 345 345 346 345 346 347 343 344 342 343 344 345 343 344 344 345 345 344 342
345 345 345 346 346 345 345 345 345 344 344 343 344 343 343 344 347 348 347 348 347 346 346 345 345 344 343 344 344 343 343 343 343 345 345 345 347 346 346 346 347 345 344 344 343 344 343 343 343 344 342 341 341 344 344 343 344 344 345 345 343 339
345 344 344 345 344 344 344 344 344 343 343 344 344 343 344 345 347 347 348 348 347 346 346 345 345 344 343 342 342 342 343 343 344 344 345 344 345 346 346 345 346 344 344 344 343 343 341 341 342 342 340 339 341 342 343 343 343 342 342 342 340 335
344 344 344 343 343 343 343 342 343 344 344 346 344 344 345 346 346 346 346 347 347 346 346 345 346 345 343 342 342 342 343 342 342 343 345 345 345 346 345 345 344 342 340 341 341 341 340 339 337 339 339 339 340 340 340 339 337 338 337 338 337 334
344 344 343 342 342 343 344 342 343 344 344 345 344 345 345 346 345 346 346 346 346 347 346 346 346 345 343 342 342 342 341 343 343 342 343 344 346 346 346 344 342 341 339 338 338 338 337 338 337 336 338 337 338 337 334 332 330 330 330 330 332 332
343 343 343 342 342 342 342 343 344 344 345 345 345 345 345 345 345 345 346 346 347 347 346 346 345 344 344 342 342 341 342 343 342 342 342 343 344 345 342 340 340 339 340 339 337 337 338 337 335 334 335 334 333 331 327 326 325 325 325 326 327 329
342 343 342 342 342 342 343 343 343 344 344 344 345 344 343 343 344 345 346 346 347 347 347 345 344 345 344 343 342 342 341 341 341 341 342 342 342 342 341 339 338 339 337 338 336 336 334 336 334 333 332 330 328 324 324 323 323 323 322 323 323 325
342 343 343 343 344 343 344 345 344 344 344 344 344 343 342 342 344 345 346 346 347 347 346 345 344 343 343 342 342 342 341 339 339 341 342 342 340 340 337 336 336 334 333 334 333 333 333 333 331 330 328 326 325 323 322 320 320 320 320 320 321 322
342 343 344 344 345 344 343 343 342 343 343 342 342 341 341 342 343 344 345 345 346 346 345 344 344 344 343 342 341 340 338 338 339 340 338 339 338 336 336 333 333 332 332 331 330 329 331 332 329 327 326 325 322 321 320 319 319 318 317 319 319 319
342 343 344 344 344 342 341 341 341 341 340 341 339 340 341 342 343 344 344 343 344 344 344 344 344 343 342 341 339 338 337 337 337 336 336 336 336 334 333 330 329 330 329 327 327 326 330 329 327 325 324 322 320 319 317 318 318 317 317 317 316 317
340 341 342 342 340 339 340 340 341 339 339 338 338 338 339 341 342 342 343 343 343 343 342 342 342 341 340 339 336 335 334 335 335 334 334 334 332 332 332 328 327 326 326 325 323 324 328 328 325 323 321 320 318 317 316 316 316 316 316 315 315 314
340 340 340 339 338 339 339 338 338 337 337 337 338 339 340 341 340 341 342 342 341 341 340 339 339 338 337 335 335 334 333 334 333 333 332 332 331 331 330 330 326 325 324 324 322 324 326 327 324 320 318 317 316 314 313 314 314 315 314 314 313 313
337 338 337 337 337 337 337 337 337 336 336 336 337 339 339 338 338 340 340 340 339 338 337 336 336 336 336 333 333 332 332 332 332 331 331 330 330 329 328 327 325 323 323 321 321 323 326 325 322 319 316 315 315 313 312 312 312 311 312 313 313 312
336 336 336 336 336 335 336 335 333 333 333 333 333 334 335 336 336 336 337 337 336 336 335 334 334 335 335 334 332 331 331 331 330 330 329 329 328 326 326 325 324 322 322 320 320 322 326 325 321 319 316 315 313 312 311 310 311 311 311 311 312 312
334 334 334 334 334 334 332 332 333 332 329 330 330 331 331 332 332 333 333 333 333 333 334 333 332 333 333 330 329 329 329 328 328 327 326 325 326 325 324 323 321 321 321 319 317 320 323 325 321 317 317 316 316 315 312 310 309 309 309 309 310 310
333 334 334 334 334 334 335 334 333 331 330 329 329 327 327 329 329 329 329 330 330 330 331 330 330 330 330 329 329 327 328 326 325 324 323 323 323 323 323 322 321 317 318 316 314 316 318 322 321 319 316 316 317 316 315 312 308 307 308 308 309 309
333 332 333 334 334 334 336 337 334 332 330 327 327 327 327 327 327 326 327 326 325 324 325 326 326 326 325 327 328 327 325 324 323 322 321 320 321 321 321 320 320 318 314 315 314 315 317 318 319 322 323 320 316 315 315 312 312 308 306 307 307 307
332 332 333 335 336 336 336 337 335 332 330 327 323 324 324 325 325 323 322 323 322 322 322 324 324 324 325 326 326 324 323 322 321 321 321 319 319 318 319 319 319 317 318 312 310 310 314 315 317 319 313 314 313 314 306 305 308 309 308 305 305 306
332 333 334 335 334 334 332 330 327 325 325 323 323 323 323 321 322 322 320 320 320 321 322 323 323 323 324 323 323 323 322 321 320 320 320 318 317 317 317 317 318 317 317 313 309 310 310 313 312 314 316 311 308 303 300 304 307 304 308 302 303 303
332 333 333 334 333 332 330 327 324 321 321 322 320 321 322 319 319 319 317 319 320 321 322 322 321 322 322 322 321 321 321 319 319 319 318 317 317 316 316 315 315 315 314 315 313 309 306 309 310 310 310 310 312 305 302 302 308 299 306 305 304 303
333 333 333 333 332 333 330 329 327 327 327 325 323 321 321 320 319 317 319 318 319 321 321 320 321 321 321 320 320 320 320 319 318 317 317 317 315 315 314 314 314 314 313 313 314 309 308 306 306 307 306 307 307 308 309 307 300 304 300 302 303 302
334 332 333 333 333 333 332 330 329 328 328 325 321 318 318 316 317 318 317 318 319 319 319 320 320 320 320 319 319 318 319 318 316 316 315 314 314 314 314 314 314 313 312 311 311 309 307 307 303 302 307 305 304 305 305 305 306 300 298 299 298 303
332 332 333 333 333 334 332 330 326 323 321 320 319 318 317 318 317 318 317 317 318 317 318 319 319 319 319 318 318 317 317 317 316 314 314 313 313 313 313 312 311 310 309 308 308 308 306 304 305 304 304 304 304 302 303 303 304 303 299 300 297 298
331 332 333 332 332 331 330 326 323 322 319 318 318 317 318 316 317 317 316 316 316 317 317 317 318 318 317 317 317 317 316 316 315 314 313 313 312 311 311 310 309 309 308 307 307 306 305 304 304 305 305 305 304 304 304 303 302 302 302 301 296 296
331 332 333 331 331 331 330 326 323 321 320 318 317 317 317 316 316 316 315 315 315 316 317 316 316 317 317 316 316 317 316 315 315 314 313 312 311 309 309 308 308 308 307 306 305 305 305 305 304 304 304 303 302 301 300 299 300 301 301 299 298 297
330 333 333 332 331 330 329 326 323 321 320 319 319 318 317 315 316 315 315 315 315 315 315 315 315 315 315 316 316 314 314 313 313 313 312 311 311 310 309 308 307 306 306 306 306 305 305 304 303 303 303 303 302 302 302 301 301 301 300 299 300 299
329 331 332 332 330 329 327 325 324 322 321 320 320 319 318 316 316 315 315 314 315 314 314 313 313 313 314 315 314 314 313 312 312 312 311 310 310 309 308 306 306 305 305 305 304 304 302 303 303 302 301 303 302 302 301 303 303 302 302 302 300 298
329 330 331 331 330 328 327 324 324 323 321 319 319 318 317 315 316 315 315 315 315 314 313 313 313 313 314 314 314 314 313 312 311 311 310 310 309 308 307 304 305 304 304 304 304 303 302 303 303 303 303 301 302 301 302 303 302 302 301 300 298 298
329 330 330 330 329 327 324 323 324 323 321 319 317 315 314 315 314 313 314 314 315 314 313 313 312 313 314 314 314 313 313 312 311 311 310 309 308 307 307 305 305 305 304 305 304 303 302 302 301 301 303 302 301 301 302 301 302 301 301 300 299 299
329 330 330 329 328 327 324 324 322 321 320 318 316 315 313 313 313 314 315 314 314 314 313 313 313 313 314 314 313 312 312 311 310 309 308 307 306 306 306 305 304 304 303 304 303 302 302 302 302 302 302 302 301 300 302 301 302 301 300 301 300 300
327 328 328 328 326 325 324 322 321 320 319 318 315 314 313 312 313 314 315 314 313 313 314 313 313 313 313 313 312 312 311 310 310 309 308 307 306 306 305 305 304 304 303 304 303 302 302 301 301 301 301 301 300 300 301 302 301 301 301 301 301 300

ECMWFFLT2_sfc_thetae_120.txt.gz
Theta_e
348 348 350 352 354 353 352 351 351 350 349 349 348 347 347 347 346 347 347 345 346 345 347 346 349 345 345 345 345 344 344 344 344 345 345 346 346 345 346 346 346 347 346 346 345 342 340 339 338 342 344 344 345 346 344 341 343 343 342 344 345 343
347 347 350 351 351 353 354 351 352 352 351 350 347 346 350 349 347 350 344 347 347 345 345 345 346 344 347 349 347 344 345 345 346 345 345 345 345 345 345 346 346 346 347 345 345 343 342 341 341 341 342 344 346 342 343 343 343 342 342 345 346 346
346 347 350 350 351 352 352 353 351 351 349 347 349 349 348 348 349 347 347 345 347 348 347 348 351 348 350 345 348 346 345 345 344 344 344 346 346 345 344 345 346 346 346 346 343 338 339 341 345 345 346 351 341 341 343 344 345 345 344 345 346 346
346 348 349 348 350 351 351 351 350 350 349 349 348 347 348 348 347 348 348 349 348 349 350 351 351 350 350 350 348 346 345 343 344 344 343 348 345 346 345 345 345 346 345 343 341 338 337 339 341 343 343 341 341 343 345 346 343 345 346 344 345 346
346 348 348 348 349 348 351 348 349 348 348 347 345 346 347 348 348 349 349 349 348 349 349 349 350 350 349 349 349 348 351 350 351 349 346 346 345 345 349 342 343 346 342 339 339 340 339 339 341 341 341 342 345 346 345 347 347 347 345 348 346 345
346 348 349 348 348 348 349 348 348 346 346 346 346 345 347 347 347 349 348 348 349 350 349 349 349 349 348 349 348 348 348 350 349 350 349 349 344 344 341 339 339 339 339 343 340 342 343 341 340 342 343 347 346 347 346 345 345 347 346 348 342 342
345 347 348 348 348 348 348 347 348 346 345 344 345 346 345 346 347 348 349 350 349 347 347 347 347 348 347 349 349 348 347 349 350 350 351 349 348 348 346 343 342 342 342 342 342 343 344 345 347 344 346 344 346 347 347 346 346 346 348 344 341 340
344 346 348 348 349 347 348 348 347 346 345 344 345 345 344 345 349 348 349 350 350 348 348 348 347 346 346 349 347 347 349 347 350 349 351 351 350 347 347 347 349 347 346 346 344 346 345 345 346 348 345 345 345 348 347 345 347 347 347 344 341 338
346 346 347 348 347 346 348 347 347 345 344 344 345 345 345 347 347 348 350 351 350 351 349 348 349 347 348 347 347 348 347 348 349 349 350 349 350 350 348 348 348 346 346 346 345 346 344 344 346 347 344 343 344 345 346 345 345 342 343 340 339 335
346 347 347 347 347 346 346 346 345 345 344 346 345 347 348 346 346 348 349 352 351 350 350 350 350 348 347 346 348 348 347 347 347 349 348 349 350 349 347 346 346 345 343 344 344 344 344 343 342 343 342 343 343 342 341 340 339 340 340 340 337 333
346 347 346 344 345 347 347 345 345 345 345 345 346 347 348 348 347 348 348 352 351 351 351 352 351 349 348 348 348 347 346 347 346 345 348 349 350 349 348 346 346 344 344 343 342 342 341 342 341 340 341 339 339 339 338 338 336 337 336 336 337 335
346 347 347 345 346 345 346 345 345 346 344 346 348 347 347 348 347 349 351 353 354 354 353 353 352 349 349 347 348 345 346 348 345 346 347 349 348 348 347 344 344 344 344 343 341 341 341 340 340 338 337 336 335 335 333 333 333 334 333 335 335 336
347 348 346 346 345 346 346 346 346 345 346 347 348 348 348 348 348 349 353 354 353 352 353 352 348 347 346 347 346 347 344 346 347 348 348 347 346 346 346 343 343 342 341 341 341 341 338 340 338 336 335 332 332 330 330 331 331 331 330 330 331 331
346 345 346 346 347 345 346 345 345 346 347 348 348 350 348 348 348 349 353 353 352 352 351 350 347 347 346 346 346 345 345 345 346 347 347 346 344 343 341 341 339 339 338 338 338 339 337 336 334 333 331 330 330 330 328 327 327 327 328 328 328 329
345 345 347 347 346 345 346 345 344 345 346 347 347 348 347 348 348 349 351 352 353 352 350 347 347 347 345 345 344 344 342 344 347 347 344 344 341 340 340 339 338 337 338 337 336 338 337 336 332 329 329 328 327 327 326 326 326 325 323 325 325 325
345 345 346 346 346 347 346 346 345 344 347 347 346 346 346 347 347 349 351 351 352 349 348 347 347 347 345 345 343 342 341 344 345 344 342 342 342 339 340 339 337 337 336 334 335 336 336 332 329 326 326 325 324 324 323 323 323 322 322 323 322 323
343 345 346 346 345 346 346 345 346 346 346 346 345 345 345 347 347 349 351 349 348 347 347 346 346 346 345 344 343 341 341 343 344 341 341 340 339 339 340 337 336 334 335 332 331 333 333 329 326 324 323 322 322 322 321 322 321 321 321 320 320 319
344 345 345 344 345 345 345 345 345 344 345 344 345 346 346 346 347 349 348 346 345 346 346 345 345 345 344 343 343 342 342 343 342 342 340 339 338 339 338 338 333 331 330 332 331 333 330 326 323 322 320 320 319 318 317 318 319 319 318 318 318 318
344 344 344 344 345 345 345 344 344 343 343 343 345 346 345 344 347 349 347 345 345 345 345 344 344 344 344 341 341 342 342 341 341 339 339 338 337 337 335 334 331 328 328 329 332 334 330 324 321 318 316 317 317 317 316 316 317 317 316 318 316 316
343 343 343 344 343 341 340 339 339 340 340 341 342 341 343 344 347 347 345 345 344 344 344 344 344 345 344 342 341 340 341 341 340 339 338 337 336 334 333 330 329 328 327 328 332 331 328 323 320 318 315 315 315 314 315 314 316 315 316 316 315 315
341 342 341 340 340 339 337 337 338 338 338 339 339 340 341 343 345 343 342 342 343 343 343 344 343 344 343 340 340 340 340 339 338 337 336 335 334 331 330 328 325 327 326 326 328 331 328 326 322 319 319 317 314 313 314 314 314 314 314 314 313 312
339 339 340 339 339 339 339 338 337 336 337 337 338 337 337 339 341 341 342 342 343 343 343 343 342 342 342 339 339 338 338 336 334 333 332 331 330 328 328 326 324 321 323 324 326 329 330 328 321 320 318 318 318 316 313 312 311 312 313 313 314 313
337 337 338 339 338 338 340 341 339 338 337 337 339 339 338 338 339 339 341 341 341 341 341 340 340 339 337 336 336 336 335 332 332 330 329 328 329 329 327 325 325 321 318 320 323 327 328 330 324 325 325 321 317 313 313 312 313 311 311 313 313 313
337 338 339 339 339 342 342 342 341 340 339 338 335 336 335 335 335 337 335 335 336 336 335 335 335 335 334 335 335 333 332 330 328 328 327 325 327 326 327 325 323 322 322 317 315 317 324 326 325 326 319 320 321 319 310 311 311 310 310 310 312 311
336 338 338 339 341 342 339 335 335 336 335 331 332 332 331 329 330 330 331 332 331 333 332 332 332 332 332 332 332 331 329 327 326 325 325 324 324 323 323 322 323 323 322 317 312 314 316 320 321 321 319 314 308 314 309 309 307 305 309 307 307 307
336 337 337 339 340 338 334 331 331 328 326 326 325 325 326 326 327 327 328 331 330 330 330 329 328 329 330 329 328 327 326 324 323 323 323 323 323 323 322 320 320 321 321 320 314 311 310 314 315 316 317 315 317 315 308 310 309 302 309 309 308 307
336 337 338 338 338 335 334 332 332 329 326 326 327 328 330 329 329 327 329 329 328 329 328 328 327 326 326 325 324 324 324 322 322 322 323 323 323 322 321 321 321 321 320 320 316 309 309 308 311 312 312 313 314 315 316 314 306 306 304 306 306 307
336 336 338 337 337 337 333 332 333 332 331 330 330 328 328 327 328 327 326 326 327 327 327 326 324 323 323 323 322 322 322 322 321 321 320 320 320 319 319 320 320 320 320 321 320 316 313 310 307 308 313 311 310 311 312 312 311 309 305 305 303 306
337 337 337 338 336 336 334 333 333 332 331 332 330 327 327 326 325 326 324 325 326 326 326 325 324 323 323 322 322 322 321 321 320 319 318 319 319 319 318 317 316 316 316 315 316 315 313 311 312 309 310 311 311 310 309 311 311 309 306 305 301 303
335 337 337 337 336 335 334 335 334 332 329 327 326 326 326 324 324 325 324 325 325 325 324 324 324 323 322 321 321 321 320 321 321 319 318 317 316 315 315 315 315 315 315 314 314 313 312 311 312 313 313 313 311 310 309 308 307 308 308 307 302 300
336 336 337 338 338 334 335 336 334 334 329 327 326 325 324 322 321 323 323 324 325 324 324 323 323 323 322 321 321 321 320 320 320 318 316 315 313 311 312 313 314 314 313 312 312 312 312 312 312 311 310 308 307 307 305 304 306 306 306 306 305 303
335 335 336 336 336 334 334 334 333 330 329 329 327 326 325 321 321 322 323 323 323 322 321 321 322 321 321 321 321 320 320 319 318 318 316 315 314 313 312 312 311 312 312 312 313 312 311 310 310 310 310 309 307 308 308 307 307 308 306 305 306 304
333 335 335 336 334 333 332 331 331 330 330 329 329 329 327 325 325 325 324 323 322 320 319 319 320 320 321 320 319 318 318 317 316 316 316 314 314 313 312 311 311 311 311 310 310 311 310 311 310 308 307 308 307 308 307 308 309 308 307 307 306 304
334 336 337 336 335 332 332 333 333 332 330 328 329 330 329 327 326 325 324 323 323 320 320 321 321 320 319 319 318 319 318 317 316 315 315 314 313 311 311 309 310 309 309 309 310 310 310 310 310 310 309 307 307 307 307 308 308 307 306 306 303 303
333 336 336 335 335 334 333 333 333 333 331 330 329 328 327 327 326 324 324 323 323 322 321 321 320 320 319 320 318 317 316 315 314 314 314 313 312 312 312 310 310 310 310 310 309 309 308 309 308 308 309 307 307 307 307 306 306 307 306 305 304 304
334 334 334 333 334 334 334 333 333 332 331 330 329 328 325 324 324 324 324 324 323 322 321 321 321 320 319 318 317 316 316 315 314 314 313 311 311 311 311 309 308 309 308 309 308 308 308 309 309 309 308 308 307 306 307 306 306 306 305 306 305 305
334 334 333 332 334 335 334 332 332 332 330 329 327 325 322 323 323 324 325 324 322 322 322 320 319 319 318 318 317 316 315 314 313 312 312 311 310 310 310 310 309 309 308 308 308 307 307 307 308 307 307 307 306 305 305 307 306 306 306 306 305 304